<?xml version="1.0" encoding="UTF-8" standalone="no" ?>
<gpx xmlns="http://www.topografix.com/GPX/1/1" xmlns:xsi="http://www.w3.org/2001/XMLSchema-instance" xsi:schemaLocation="http://www.topografix.com/GPX/1/1 http://www.topografix.com/GPX/1/1/gpx.xsd" version="1.1" creator="VisuGPX - https://www.visugpx.com">
  <metadata>
    <name>rando 15km Chevreuse boucle</name>
    <desc><![CDATA[boucle départ de Chevreuse pas de difficulté]]></desc>
  </metadata>
  <trk>
    <name><![CDATA[20/12/2013chevreuse]]></name>
    <desc><![CDATA[]]></desc>
    <trkseg>
      <trkpt lat="48.7113" lon="2.04191">
        <ele>160.3</ele>
        <time>2013-12-20T11:53:14.214Z</time>
      </trkpt>
      <trkpt lat="48.7113" lon="2.04191">
        <ele>190</ele>
        <time>2013-12-20T11:53:16.222Z</time>
      </trkpt>
      <trkpt lat="48.71121" lon="2.04174">
        <ele>187.1</ele>
        <time>2013-12-20T11:53:17.189Z</time>
      </trkpt>
      <trkpt lat="48.7112" lon="2.04172">
        <ele>180.4</ele>
        <time>2013-12-20T11:53:22.055Z</time>
      </trkpt>
      <trkpt lat="48.7112" lon="2.04173">
        <ele>182.2</ele>
        <time>2013-12-20T11:53:23.012Z</time>
      </trkpt>
      <trkpt lat="48.71121" lon="2.04173">
        <ele>199.9</ele>
        <time>2013-12-20T11:53:43.449Z</time>
      </trkpt>
      <trkpt lat="48.71121" lon="2.04172">
        <ele>199.9</ele>
        <time>2013-12-20T11:53:44.085Z</time>
      </trkpt>
      <trkpt lat="48.71119" lon="2.04168">
        <ele>199.8</ele>
        <time>2013-12-20T11:53:56.116Z</time>
      </trkpt>
      <trkpt lat="48.71119" lon="2.04168">
        <ele>199.5</ele>
        <time>2013-12-20T11:53:57.089Z</time>
      </trkpt>
      <trkpt lat="48.71119" lon="2.04167">
        <ele>199.3</ele>
        <time>2013-12-20T11:54:00.261Z</time>
      </trkpt>
      <trkpt lat="48.71119" lon="2.04167">
        <ele>199.2</ele>
        <time>2013-12-20T11:54:01.083Z</time>
      </trkpt>
      <trkpt lat="48.71115" lon="2.04159">
        <ele>198.8</ele>
        <time>2013-12-20T11:54:04.037Z</time>
      </trkpt>
      <trkpt lat="48.71114" lon="2.04155">
        <ele>198.7</ele>
        <time>2013-12-20T11:54:05.051Z</time>
      </trkpt>
      <trkpt lat="48.7111" lon="2.04144">
        <ele>198.6</ele>
        <time>2013-12-20T11:54:09.038Z</time>
      </trkpt>
      <trkpt lat="48.7111" lon="2.04141">
        <ele>198.6</ele>
        <time>2013-12-20T11:54:10.083Z</time>
      </trkpt>
      <trkpt lat="48.71102" lon="2.04136">
        <ele>198.4</ele>
        <time>2013-12-20T11:54:17.683Z</time>
      </trkpt>
      <trkpt lat="48.71101" lon="2.04135">
        <ele>198.3</ele>
        <time>2013-12-20T11:54:18.044Z</time>
      </trkpt>
      <trkpt lat="48.71092" lon="2.04137">
        <ele>196.4</ele>
        <time>2013-12-20T11:54:31.059Z</time>
      </trkpt>
      <trkpt lat="48.71091" lon="2.04137">
        <ele>196.3</ele>
        <time>2013-12-20T11:54:32.060Z</time>
      </trkpt>
      <trkpt lat="48.71083" lon="2.04137">
        <ele>195.7</ele>
        <time>2013-12-20T11:54:41.093Z</time>
      </trkpt>
      <trkpt lat="48.71082" lon="2.04136">
        <ele>195.8</ele>
        <time>2013-12-20T11:54:42.095Z</time>
      </trkpt>
      <trkpt lat="48.71075" lon="2.0413">
        <ele>195.5</ele>
        <time>2013-12-20T11:54:49.095Z</time>
      </trkpt>
      <trkpt lat="48.71074" lon="2.04129">
        <ele>195.4</ele>
        <time>2013-12-20T11:54:50.093Z</time>
      </trkpt>
      <trkpt lat="48.71067" lon="2.04124">
        <ele>195.1</ele>
        <time>2013-12-20T11:54:57.941Z</time>
      </trkpt>
      <trkpt lat="48.71065" lon="2.04123">
        <ele>195.1</ele>
        <time>2013-12-20T11:54:58.062Z</time>
      </trkpt>
      <trkpt lat="48.71059" lon="2.04117">
        <ele>195.2</ele>
        <time>2013-12-20T11:55:03.116Z</time>
      </trkpt>
      <trkpt lat="48.71057" lon="2.04115">
        <ele>195.2</ele>
        <time>2013-12-20T11:55:04.089Z</time>
      </trkpt>
      <trkpt lat="48.7105" lon="2.04109">
        <ele>195.4</ele>
        <time>2013-12-20T11:55:10.092Z</time>
      </trkpt>
      <trkpt lat="48.71049" lon="2.04108">
        <ele>195.4</ele>
        <time>2013-12-20T11:55:11.095Z</time>
      </trkpt>
      <trkpt lat="48.71041" lon="2.04111">
        <ele>195.4</ele>
        <time>2013-12-20T11:55:17.694Z</time>
      </trkpt>
      <trkpt lat="48.71039" lon="2.04113">
        <ele>195.3</ele>
        <time>2013-12-20T11:55:18.048Z</time>
      </trkpt>
      <trkpt lat="48.71031" lon="2.04119">
        <ele>194.9</ele>
        <time>2013-12-20T11:55:25.082Z</time>
      </trkpt>
      <trkpt lat="48.7103" lon="2.0412">
        <ele>194.8</ele>
        <time>2013-12-20T11:55:26.080Z</time>
      </trkpt>
      <trkpt lat="48.71024" lon="2.04126">
        <ele>194.8</ele>
        <time>2013-12-20T11:55:32.896Z</time>
      </trkpt>
      <trkpt lat="48.71023" lon="2.04128">
        <ele>194.8</ele>
        <time>2013-12-20T11:55:33.076Z</time>
      </trkpt>
      <trkpt lat="48.71016" lon="2.04136">
        <ele>194.6</ele>
        <time>2013-12-20T11:55:41.171Z</time>
      </trkpt>
      <trkpt lat="48.71015" lon="2.04136">
        <ele>194.5</ele>
        <time>2013-12-20T11:55:42.116Z</time>
      </trkpt>
      <trkpt lat="48.7101" lon="2.04144">
        <ele>194.3</ele>
        <time>2013-12-20T11:55:51.071Z</time>
      </trkpt>
      <trkpt lat="48.71009" lon="2.04146">
        <ele>194.2</ele>
        <time>2013-12-20T11:55:52.077Z</time>
      </trkpt>
      <trkpt lat="48.71003" lon="2.04157">
        <ele>194.1</ele>
        <time>2013-12-20T11:56:00.220Z</time>
      </trkpt>
      <trkpt lat="48.71002" lon="2.04157">
        <ele>194.1</ele>
        <time>2013-12-20T11:56:01.089Z</time>
      </trkpt>
      <trkpt lat="48.71001" lon="2.04157">
        <ele>194.1</ele>
        <time>2013-12-20T11:56:05.089Z</time>
      </trkpt>
      <trkpt lat="48.71001" lon="2.04157">
        <ele>194</ele>
        <time>2013-12-20T11:56:06.093Z</time>
      </trkpt>
      <trkpt lat="48.71002" lon="2.04158">
        <ele>194</ele>
        <time>2013-12-20T11:56:09.087Z</time>
      </trkpt>
      <trkpt lat="48.71002" lon="2.04158">
        <ele>194</ele>
        <time>2013-12-20T11:56:10.087Z</time>
      </trkpt>
      <trkpt lat="48.71003" lon="2.0416">
        <ele>193.9</ele>
        <time>2013-12-20T11:56:16.118Z</time>
      </trkpt>
      <trkpt lat="48.71003" lon="2.0416">
        <ele>193.9</ele>
        <time>2013-12-20T11:56:17.112Z</time>
      </trkpt>
      <trkpt lat="48.71003" lon="2.0416">
        <ele>193.7</ele>
        <time>2013-12-20T11:56:19.064Z</time>
      </trkpt>
      <trkpt lat="48.71002" lon="2.0416">
        <ele>193.6</ele>
        <time>2013-12-20T11:56:20.097Z</time>
      </trkpt>
      <trkpt lat="48.70994" lon="2.04162">
        <ele>193.3</ele>
        <time>2013-12-20T11:56:25.093Z</time>
      </trkpt>
      <trkpt lat="48.70993" lon="2.04162">
        <ele>193.3</ele>
        <time>2013-12-20T11:56:26.081Z</time>
      </trkpt>
      <trkpt lat="48.70985" lon="2.04162">
        <ele>193.3</ele>
        <time>2013-12-20T11:56:30.070Z</time>
      </trkpt>
      <trkpt lat="48.70982" lon="2.04162">
        <ele>193.4</ele>
        <time>2013-12-20T11:56:31.071Z</time>
      </trkpt>
      <trkpt lat="48.70974" lon="2.0416">
        <ele>192.7</ele>
        <time>2013-12-20T11:56:41.073Z</time>
      </trkpt>
      <trkpt lat="48.70973" lon="2.04161">
        <ele>192.6</ele>
        <time>2013-12-20T11:56:42.118Z</time>
      </trkpt>
      <trkpt lat="48.70965" lon="2.04164">
        <ele>192.1</ele>
        <time>2013-12-20T11:56:49.105Z</time>
      </trkpt>
      <trkpt lat="48.70964" lon="2.04164">
        <ele>192</ele>
        <time>2013-12-20T11:56:50.103Z</time>
      </trkpt>
      <trkpt lat="48.70959" lon="2.04175">
        <ele>191.3</ele>
        <time>2013-12-20T11:56:58.146Z</time>
      </trkpt>
      <trkpt lat="48.70958" lon="2.04177">
        <ele>191.1</ele>
        <time>2013-12-20T11:56:59.105Z</time>
      </trkpt>
      <trkpt lat="48.70957" lon="2.04189">
        <ele>189.9</ele>
        <time>2013-12-20T11:57:06.102Z</time>
      </trkpt>
      <trkpt lat="48.70956" lon="2.04191">
        <ele>189.7</ele>
        <time>2013-12-20T11:57:07.103Z</time>
      </trkpt>
      <trkpt lat="48.70954" lon="2.04204">
        <ele>189</ele>
        <time>2013-12-20T11:57:13.130Z</time>
      </trkpt>
      <trkpt lat="48.70954" lon="2.04206">
        <ele>188.9</ele>
        <time>2013-12-20T11:57:14.094Z</time>
      </trkpt>
      <trkpt lat="48.70952" lon="2.04218">
        <ele>187.1</ele>
        <time>2013-12-20T11:57:22.729Z</time>
      </trkpt>
      <trkpt lat="48.70951" lon="2.0422">
        <ele>186.9</ele>
        <time>2013-12-20T11:57:23.055Z</time>
      </trkpt>
      <trkpt lat="48.70943" lon="2.04216">
        <ele>185.9</ele>
        <time>2013-12-20T11:57:30.087Z</time>
      </trkpt>
      <trkpt lat="48.70943" lon="2.04215">
        <ele>185.8</ele>
        <time>2013-12-20T11:57:31.081Z</time>
      </trkpt>
      <trkpt lat="48.70944" lon="2.04201">
        <ele>184.5</ele>
        <time>2013-12-20T11:57:40.079Z</time>
      </trkpt>
      <trkpt lat="48.70944" lon="2.042">
        <ele>184.4</ele>
        <time>2013-12-20T11:57:41.081Z</time>
      </trkpt>
      <trkpt lat="48.70947" lon="2.04188">
        <ele>182.3</ele>
        <time>2013-12-20T11:57:51.087Z</time>
      </trkpt>
      <trkpt lat="48.70948" lon="2.04187">
        <ele>182.1</ele>
        <time>2013-12-20T11:57:52.093Z</time>
      </trkpt>
      <trkpt lat="48.70948" lon="2.04174">
        <ele>180.4</ele>
        <time>2013-12-20T11:58:01.082Z</time>
      </trkpt>
      <trkpt lat="48.70948" lon="2.04173">
        <ele>180.1</ele>
        <time>2013-12-20T11:58:02.081Z</time>
      </trkpt>
      <trkpt lat="48.70947" lon="2.0416">
        <ele>178.4</ele>
        <time>2013-12-20T11:58:13.039Z</time>
      </trkpt>
      <trkpt lat="48.70946" lon="2.04159">
        <ele>178.2</ele>
        <time>2013-12-20T11:58:13.133Z</time>
      </trkpt>
      <trkpt lat="48.70939" lon="2.04165">
        <ele>176.7</ele>
        <time>2013-12-20T11:58:21.080Z</time>
      </trkpt>
      <trkpt lat="48.70938" lon="2.04166">
        <ele>176.5</ele>
        <time>2013-12-20T11:58:22.076Z</time>
      </trkpt>
      <trkpt lat="48.70934" lon="2.04177">
        <ele>175.9</ele>
        <time>2013-12-20T11:58:27.075Z</time>
      </trkpt>
      <trkpt lat="48.70933" lon="2.04178">
        <ele>175.8</ele>
        <time>2013-12-20T11:58:28.073Z</time>
      </trkpt>
      <trkpt lat="48.70927" lon="2.04188">
        <ele>174.9</ele>
        <time>2013-12-20T11:58:39.079Z</time>
      </trkpt>
      <trkpt lat="48.70927" lon="2.04188">
        <ele>174.9</ele>
        <time>2013-12-20T11:58:40.080Z</time>
      </trkpt>
      <trkpt lat="48.70923" lon="2.04183">
        <ele>174.6</ele>
        <time>2013-12-20T11:58:56.086Z</time>
      </trkpt>
      <trkpt lat="48.70923" lon="2.04183">
        <ele>174.6</ele>
        <time>2013-12-20T11:58:57.082Z</time>
      </trkpt>
      <trkpt lat="48.70922" lon="2.04182">
        <ele>174.6</ele>
        <time>2013-12-20T11:59:06.086Z</time>
      </trkpt>
      <trkpt lat="48.70922" lon="2.04181">
        <ele>174.7</ele>
        <time>2013-12-20T11:59:07.085Z</time>
      </trkpt>
      <trkpt lat="48.70915" lon="2.04172">
        <ele>173.3</ele>
        <time>2013-12-20T11:59:20.095Z</time>
      </trkpt>
      <trkpt lat="48.70915" lon="2.04172">
        <ele>173</ele>
        <time>2013-12-20T11:59:21.078Z</time>
      </trkpt>
      <trkpt lat="48.70913" lon="2.04159">
        <ele>170.3</ele>
        <time>2013-12-20T11:59:36.098Z</time>
      </trkpt>
      <trkpt lat="48.70912" lon="2.04158">
        <ele>170.1</ele>
        <time>2013-12-20T11:59:37.085Z</time>
      </trkpt>
      <trkpt lat="48.7091" lon="2.04147">
        <ele>168.4</ele>
        <time>2013-12-20T11:59:46.211Z</time>
      </trkpt>
      <trkpt lat="48.70909" lon="2.04145">
        <ele>168.2</ele>
        <time>2013-12-20T11:59:47.182Z</time>
      </trkpt>
      <trkpt lat="48.70908" lon="2.04131">
        <ele>166.7</ele>
        <time>2013-12-20T11:59:54.104Z</time>
      </trkpt>
      <trkpt lat="48.70907" lon="2.0413">
        <ele>166.5</ele>
        <time>2013-12-20T11:59:55.070Z</time>
      </trkpt>
      <trkpt lat="48.70907" lon="2.04117">
        <ele>165.1</ele>
        <time>2013-12-20T12:00:03.254Z</time>
      </trkpt>
      <trkpt lat="48.70907" lon="2.04115">
        <ele>164.9</ele>
        <time>2013-12-20T12:00:04.089Z</time>
      </trkpt>
      <trkpt lat="48.70905" lon="2.04102">
        <ele>162.8</ele>
        <time>2013-12-20T12:00:13.052Z</time>
      </trkpt>
      <trkpt lat="48.70904" lon="2.04099">
        <ele>162.7</ele>
        <time>2013-12-20T12:00:14.086Z</time>
      </trkpt>
      <trkpt lat="48.70903" lon="2.04086">
        <ele>161.7</ele>
        <time>2013-12-20T12:00:21.060Z</time>
      </trkpt>
      <trkpt lat="48.70903" lon="2.04084">
        <ele>161.4</ele>
        <time>2013-12-20T12:00:22.118Z</time>
      </trkpt>
      <trkpt lat="48.70897" lon="2.04076">
        <ele>159.8</ele>
        <time>2013-12-20T12:00:28.037Z</time>
      </trkpt>
      <trkpt lat="48.70896" lon="2.04075">
        <ele>159.5</ele>
        <time>2013-12-20T12:00:29.095Z</time>
      </trkpt>
      <trkpt lat="48.70891" lon="2.04063">
        <ele>157.8</ele>
        <time>2013-12-20T12:00:37.889Z</time>
      </trkpt>
      <trkpt lat="48.70892" lon="2.04062">
        <ele>157.6</ele>
        <time>2013-12-20T12:00:38.037Z</time>
      </trkpt>
      <trkpt lat="48.70897" lon="2.04052">
        <ele>156</ele>
        <time>2013-12-20T12:00:44.087Z</time>
      </trkpt>
      <trkpt lat="48.70898" lon="2.04051">
        <ele>155.6</ele>
        <time>2013-12-20T12:00:45.086Z</time>
      </trkpt>
      <trkpt lat="48.70903" lon="2.04041">
        <ele>153.8</ele>
        <time>2013-12-20T12:00:53.037Z</time>
      </trkpt>
      <trkpt lat="48.70904" lon="2.04039">
        <ele>153.6</ele>
        <time>2013-12-20T12:00:53.170Z</time>
      </trkpt>
      <trkpt lat="48.70905" lon="2.04026">
        <ele>152.1</ele>
        <time>2013-12-20T12:01:01.090Z</time>
      </trkpt>
      <trkpt lat="48.70905" lon="2.04025">
        <ele>151.9</ele>
        <time>2013-12-20T12:01:02.107Z</time>
      </trkpt>
      <trkpt lat="48.70898" lon="2.04017">
        <ele>150.4</ele>
        <time>2013-12-20T12:01:08.083Z</time>
      </trkpt>
      <trkpt lat="48.70896" lon="2.04017">
        <ele>150.1</ele>
        <time>2013-12-20T12:01:09.081Z</time>
      </trkpt>
      <trkpt lat="48.70888" lon="2.04017">
        <ele>148.8</ele>
        <time>2013-12-20T12:01:14.087Z</time>
      </trkpt>
      <trkpt lat="48.70886" lon="2.04017">
        <ele>148.7</ele>
        <time>2013-12-20T12:01:15.214Z</time>
      </trkpt>
      <trkpt lat="48.70878" lon="2.04017">
        <ele>146.9</ele>
        <time>2013-12-20T12:01:22.734Z</time>
      </trkpt>
      <trkpt lat="48.70877" lon="2.04017">
        <ele>146.6</ele>
        <time>2013-12-20T12:01:23.046Z</time>
      </trkpt>
      <trkpt lat="48.70869" lon="2.04013">
        <ele>144.5</ele>
        <time>2013-12-20T12:01:33.030Z</time>
      </trkpt>
      <trkpt lat="48.70867" lon="2.04012">
        <ele>144.3</ele>
        <time>2013-12-20T12:01:34.086Z</time>
      </trkpt>
      <trkpt lat="48.70863" lon="2.04006">
        <ele>143.3</ele>
        <time>2013-12-20T12:01:42.860Z</time>
      </trkpt>
      <trkpt lat="48.70863" lon="2.04006">
        <ele>143.1</ele>
        <time>2013-12-20T12:01:44.091Z</time>
      </trkpt>
      <trkpt lat="48.70863" lon="2.04007">
        <ele>142.9</ele>
        <time>2013-12-20T12:01:45.111Z</time>
      </trkpt>
      <trkpt lat="48.70863" lon="2.04007">
        <ele>142.8</ele>
        <time>2013-12-20T12:01:46.089Z</time>
      </trkpt>
      <trkpt lat="48.70858" lon="2.04018">
        <ele>141.6</ele>
        <time>2013-12-20T12:01:58.085Z</time>
      </trkpt>
      <trkpt lat="48.70858" lon="2.0402">
        <ele>141.6</ele>
        <time>2013-12-20T12:01:59.101Z</time>
      </trkpt>
      <trkpt lat="48.70855" lon="2.04032">
        <ele>141</ele>
        <time>2013-12-20T12:02:08.092Z</time>
      </trkpt>
      <trkpt lat="48.70855" lon="2.04033">
        <ele>140.9</ele>
        <time>2013-12-20T12:02:09.091Z</time>
      </trkpt>
      <trkpt lat="48.70848" lon="2.04041">
        <ele>138.9</ele>
        <time>2013-12-20T12:02:19.088Z</time>
      </trkpt>
      <trkpt lat="48.70848" lon="2.04042">
        <ele>138.7</ele>
        <time>2013-12-20T12:02:20.099Z</time>
      </trkpt>
      <trkpt lat="48.70845" lon="2.0405">
        <ele>137.9</ele>
        <time>2013-12-20T12:02:34.088Z</time>
      </trkpt>
      <trkpt lat="48.70845" lon="2.0405">
        <ele>137.9</ele>
        <time>2013-12-20T12:02:35.094Z</time>
      </trkpt>
      <trkpt lat="48.70845" lon="2.0405">
        <ele>138</ele>
        <time>2013-12-20T12:02:37.092Z</time>
      </trkpt>
      <trkpt lat="48.70844" lon="2.0405">
        <ele>138</ele>
        <time>2013-12-20T12:02:38.229Z</time>
      </trkpt>
      <trkpt lat="48.70842" lon="2.0405">
        <ele>138</ele>
        <time>2013-12-20T12:02:47.086Z</time>
      </trkpt>
      <trkpt lat="48.70842" lon="2.0405">
        <ele>138</ele>
        <time>2013-12-20T12:02:48.096Z</time>
      </trkpt>
      <trkpt lat="48.70842" lon="2.0405">
        <ele>138</ele>
        <time>2013-12-20T12:02:48.440Z</time>
      </trkpt>
      <trkpt lat="48.70842" lon="2.04049">
        <ele>138</ele>
        <time>2013-12-20T12:02:49.088Z</time>
      </trkpt>
      <trkpt lat="48.70842" lon="2.04047">
        <ele>138</ele>
        <time>2013-12-20T12:02:55.095Z</time>
      </trkpt>
      <trkpt lat="48.70842" lon="2.04047">
        <ele>138</ele>
        <time>2013-12-20T12:02:56.075Z</time>
      </trkpt>
      <trkpt lat="48.70843" lon="2.04047">
        <ele>137.9</ele>
        <time>2013-12-20T12:03:00.266Z</time>
      </trkpt>
      <trkpt lat="48.70843" lon="2.04047">
        <ele>137.8</ele>
        <time>2013-12-20T12:03:01.055Z</time>
      </trkpt>
      <trkpt lat="48.70845" lon="2.04048">
        <ele>137.8</ele>
        <time>2013-12-20T12:03:08.057Z</time>
      </trkpt>
      <trkpt lat="48.70845" lon="2.04048">
        <ele>137.8</ele>
        <time>2013-12-20T12:03:09.063Z</time>
      </trkpt>
      <trkpt lat="48.70844" lon="2.04049">
        <ele>137.6</ele>
        <time>2013-12-20T12:03:14.084Z</time>
      </trkpt>
      <trkpt lat="48.70844" lon="2.04049">
        <ele>137.6</ele>
        <time>2013-12-20T12:03:15.084Z</time>
      </trkpt>
      <trkpt lat="48.70837" lon="2.04057">
        <ele>137.3</ele>
        <time>2013-12-20T12:03:25.060Z</time>
      </trkpt>
      <trkpt lat="48.70837" lon="2.04057">
        <ele>137.2</ele>
        <time>2013-12-20T12:03:26.108Z</time>
      </trkpt>
      <trkpt lat="48.70837" lon="2.04056">
        <ele>137.1</ele>
        <time>2013-12-20T12:03:29.092Z</time>
      </trkpt>
      <trkpt lat="48.70837" lon="2.04056">
        <ele>137.1</ele>
        <time>2013-12-20T12:03:30.166Z</time>
      </trkpt>
      <trkpt lat="48.70837" lon="2.04055">
        <ele>136.8</ele>
        <time>2013-12-20T12:03:32.785Z</time>
      </trkpt>
      <trkpt lat="48.70836" lon="2.04055">
        <ele>136.6</ele>
        <time>2013-12-20T12:03:33.054Z</time>
      </trkpt>
      <trkpt lat="48.70829" lon="2.04048">
        <ele>134.6</ele>
        <time>2013-12-20T12:03:43.002Z</time>
      </trkpt>
      <trkpt lat="48.70828" lon="2.04048">
        <ele>134.5</ele>
        <time>2013-12-20T12:03:43.189Z</time>
      </trkpt>
      <trkpt lat="48.70819" lon="2.04043">
        <ele>133.1</ele>
        <time>2013-12-20T12:03:51.093Z</time>
      </trkpt>
      <trkpt lat="48.70818" lon="2.04043">
        <ele>133</ele>
        <time>2013-12-20T12:03:52.083Z</time>
      </trkpt>
      <trkpt lat="48.70811" lon="2.04041">
        <ele>131.7</ele>
        <time>2013-12-20T12:04:05.102Z</time>
      </trkpt>
      <trkpt lat="48.70811" lon="2.04041">
        <ele>131.7</ele>
        <time>2013-12-20T12:04:06.087Z</time>
      </trkpt>
      <trkpt lat="48.70812" lon="2.0404">
        <ele>131.4</ele>
        <time>2013-12-20T12:04:18.056Z</time>
      </trkpt>
      <trkpt lat="48.70811" lon="2.0404">
        <ele>131.2</ele>
        <time>2013-12-20T12:04:19.089Z</time>
      </trkpt>
      <trkpt lat="48.70803" lon="2.04036">
        <ele>130</ele>
        <time>2013-12-20T12:04:27.772Z</time>
      </trkpt>
      <trkpt lat="48.70801" lon="2.04035">
        <ele>129.8</ele>
        <time>2013-12-20T12:04:28.053Z</time>
      </trkpt>
      <trkpt lat="48.70796" lon="2.04026">
        <ele>128.1</ele>
        <time>2013-12-20T12:04:35.036Z</time>
      </trkpt>
      <trkpt lat="48.70795" lon="2.04025">
        <ele>127.9</ele>
        <time>2013-12-20T12:04:36.173Z</time>
      </trkpt>
      <trkpt lat="48.70788" lon="2.04015">
        <ele>126.5</ele>
        <time>2013-12-20T12:04:43.082Z</time>
      </trkpt>
      <trkpt lat="48.70787" lon="2.04014">
        <ele>126.4</ele>
        <time>2013-12-20T12:04:44.085Z</time>
      </trkpt>
      <trkpt lat="48.70783" lon="2.04003">
        <ele>125.1</ele>
        <time>2013-12-20T12:04:50.087Z</time>
      </trkpt>
      <trkpt lat="48.70782" lon="2.04001">
        <ele>124.8</ele>
        <time>2013-12-20T12:04:51.088Z</time>
      </trkpt>
      <trkpt lat="48.70776" lon="2.03993">
        <ele>122.9</ele>
        <time>2013-12-20T12:05:00.214Z</time>
      </trkpt>
      <trkpt lat="48.70775" lon="2.03992">
        <ele>122.8</ele>
        <time>2013-12-20T12:05:01.085Z</time>
      </trkpt>
      <trkpt lat="48.7077" lon="2.0398">
        <ele>121.2</ele>
        <time>2013-12-20T12:05:09.088Z</time>
      </trkpt>
      <trkpt lat="48.70769" lon="2.03979">
        <ele>121</ele>
        <time>2013-12-20T12:05:10.086Z</time>
      </trkpt>
      <trkpt lat="48.70765" lon="2.03967">
        <ele>119.9</ele>
        <time>2013-12-20T12:05:19.093Z</time>
      </trkpt>
      <trkpt lat="48.70764" lon="2.03966">
        <ele>120</ele>
        <time>2013-12-20T12:05:20.097Z</time>
      </trkpt>
      <trkpt lat="48.70757" lon="2.03959">
        <ele>120.5</ele>
        <time>2013-12-20T12:05:25.089Z</time>
      </trkpt>
      <trkpt lat="48.70756" lon="2.03957">
        <ele>120.5</ele>
        <time>2013-12-20T12:05:26.084Z</time>
      </trkpt>
      <trkpt lat="48.7075" lon="2.03948">
        <ele>120.4</ele>
        <time>2013-12-20T12:05:31.056Z</time>
      </trkpt>
      <trkpt lat="48.70749" lon="2.03946">
        <ele>120.4</ele>
        <time>2013-12-20T12:05:32.053Z</time>
      </trkpt>
      <trkpt lat="48.70745" lon="2.03945">
        <ele>120.3</ele>
        <time>2013-12-20T12:05:43.038Z</time>
      </trkpt>
      <trkpt lat="48.70745" lon="2.03945">
        <ele>120.4</ele>
        <time>2013-12-20T12:05:44.090Z</time>
      </trkpt>
      <trkpt lat="48.70745" lon="2.03943">
        <ele>120.9</ele>
        <time>2013-12-20T12:05:49.082Z</time>
      </trkpt>
      <trkpt lat="48.70745" lon="2.03943">
        <ele>121.1</ele>
        <time>2013-12-20T12:05:50.096Z</time>
      </trkpt>
      <trkpt lat="48.70748" lon="2.03935">
        <ele>121.5</ele>
        <time>2013-12-20T12:06:06.099Z</time>
      </trkpt>
      <trkpt lat="48.70747" lon="2.03935">
        <ele>121.5</ele>
        <time>2013-12-20T12:06:07.162Z</time>
      </trkpt>
      <trkpt lat="48.70748" lon="2.03934">
        <ele>121.2</ele>
        <time>2013-12-20T12:06:15.110Z</time>
      </trkpt>
      <trkpt lat="48.70748" lon="2.03934">
        <ele>121.2</ele>
        <time>2013-12-20T12:06:16.092Z</time>
      </trkpt>
      <trkpt lat="48.70747" lon="2.03922">
        <ele>120.2</ele>
        <time>2013-12-20T12:06:26.097Z</time>
      </trkpt>
      <trkpt lat="48.70746" lon="2.0392">
        <ele>120.1</ele>
        <time>2013-12-20T12:06:27.105Z</time>
      </trkpt>
      <trkpt lat="48.70743" lon="2.03908">
        <ele>119.9</ele>
        <time>2013-12-20T12:06:32.801Z</time>
      </trkpt>
      <trkpt lat="48.70743" lon="2.03906">
        <ele>119.9</ele>
        <time>2013-12-20T12:06:33.053Z</time>
      </trkpt>
      <trkpt lat="48.70739" lon="2.03893">
        <ele>122.2</ele>
        <time>2013-12-20T12:06:44.097Z</time>
      </trkpt>
      <trkpt lat="48.70739" lon="2.03891">
        <ele>122.4</ele>
        <time>2013-12-20T12:06:45.092Z</time>
      </trkpt>
      <trkpt lat="48.70742" lon="2.03879">
        <ele>123.1</ele>
        <time>2013-12-20T12:06:50.089Z</time>
      </trkpt>
      <trkpt lat="48.70742" lon="2.03877">
        <ele>123.2</ele>
        <time>2013-12-20T12:06:51.088Z</time>
      </trkpt>
      <trkpt lat="48.70744" lon="2.03866">
        <ele>123.1</ele>
        <time>2013-12-20T12:07:00.230Z</time>
      </trkpt>
      <trkpt lat="48.70745" lon="2.03864">
        <ele>123</ele>
        <time>2013-12-20T12:07:01.082Z</time>
      </trkpt>
      <trkpt lat="48.70745" lon="2.03853">
        <ele>122.6</ele>
        <time>2013-12-20T12:07:06.080Z</time>
      </trkpt>
      <trkpt lat="48.70745" lon="2.0385">
        <ele>122.6</ele>
        <time>2013-12-20T12:07:07.036Z</time>
      </trkpt>
      <trkpt lat="48.70744" lon="2.03838">
        <ele>122.8</ele>
        <time>2013-12-20T12:07:14.160Z</time>
      </trkpt>
      <trkpt lat="48.70743" lon="2.03836">
        <ele>122.8</ele>
        <time>2013-12-20T12:07:15.042Z</time>
      </trkpt>
      <trkpt lat="48.7074" lon="2.03824">
        <ele>123.2</ele>
        <time>2013-12-20T12:07:22.674Z</time>
      </trkpt>
      <trkpt lat="48.7074" lon="2.03823">
        <ele>123.3</ele>
        <time>2013-12-20T12:07:23.075Z</time>
      </trkpt>
      <trkpt lat="48.7074" lon="2.0381">
        <ele>123.7</ele>
        <time>2013-12-20T12:07:31.055Z</time>
      </trkpt>
      <trkpt lat="48.70741" lon="2.03808">
        <ele>123.8</ele>
        <time>2013-12-20T12:07:32.032Z</time>
      </trkpt>
      <trkpt lat="48.70743" lon="2.03796">
        <ele>124.2</ele>
        <time>2013-12-20T12:07:38.093Z</time>
      </trkpt>
      <trkpt lat="48.70743" lon="2.03793">
        <ele>124.3</ele>
        <time>2013-12-20T12:07:38.188Z</time>
      </trkpt>
      <trkpt lat="48.70745" lon="2.03782">
        <ele>124.6</ele>
        <time>2013-12-20T12:07:45.091Z</time>
      </trkpt>
      <trkpt lat="48.70746" lon="2.0378">
        <ele>124.7</ele>
        <time>2013-12-20T12:07:46.090Z</time>
      </trkpt>
      <trkpt lat="48.70745" lon="2.03766">
        <ele>124.6</ele>
        <time>2013-12-20T12:07:54.108Z</time>
      </trkpt>
      <trkpt lat="48.70745" lon="2.03765">
        <ele>124.5</ele>
        <time>2013-12-20T12:07:55.107Z</time>
      </trkpt>
      <trkpt lat="48.70738" lon="2.03756">
        <ele>123.6</ele>
        <time>2013-12-20T12:08:03.237Z</time>
      </trkpt>
      <trkpt lat="48.70736" lon="2.03755">
        <ele>123.5</ele>
        <time>2013-12-20T12:08:04.214Z</time>
      </trkpt>
      <trkpt lat="48.7074" lon="2.0375">
        <ele>122.3</ele>
        <time>2013-12-20T12:08:21.108Z</time>
      </trkpt>
      <trkpt lat="48.7074" lon="2.0375">
        <ele>122.2</ele>
        <time>2013-12-20T12:08:22.119Z</time>
      </trkpt>
      <trkpt lat="48.7074" lon="2.0375">
        <ele>122.2</ele>
        <time>2013-12-20T12:08:23.110Z</time>
      </trkpt>
      <trkpt lat="48.7074" lon="2.03749">
        <ele>122.2</ele>
        <time>2013-12-20T12:08:24.105Z</time>
      </trkpt>
      <trkpt lat="48.7074" lon="2.03745">
        <ele>122.2</ele>
        <time>2013-12-20T12:08:30.159Z</time>
      </trkpt>
      <trkpt lat="48.7074" lon="2.03746">
        <ele>122.2</ele>
        <time>2013-12-20T12:08:31.152Z</time>
      </trkpt>
      <trkpt lat="48.7074" lon="2.03746">
        <ele>122.2</ele>
        <time>2013-12-20T12:08:32.175Z</time>
      </trkpt>
      <trkpt lat="48.7074" lon="2.03746">
        <ele>122.2</ele>
        <time>2013-12-20T12:08:33.097Z</time>
      </trkpt>
      <trkpt lat="48.70741" lon="2.03747">
        <ele>122.3</ele>
        <time>2013-12-20T12:08:38.415Z</time>
      </trkpt>
      <trkpt lat="48.70742" lon="2.03747">
        <ele>122.3</ele>
        <time>2013-12-20T12:08:39.023Z</time>
      </trkpt>
      <trkpt lat="48.70742" lon="2.03746">
        <ele>122.4</ele>
        <time>2013-12-20T12:08:47.114Z</time>
      </trkpt>
      <trkpt lat="48.70742" lon="2.03745">
        <ele>122.4</ele>
        <time>2013-12-20T12:08:48.111Z</time>
      </trkpt>
      <trkpt lat="48.7074" lon="2.03745">
        <ele>122.7</ele>
        <time>2013-12-20T12:08:59.114Z</time>
      </trkpt>
      <trkpt lat="48.7074" lon="2.03745">
        <ele>122.7</ele>
        <time>2013-12-20T12:09:00.232Z</time>
      </trkpt>
      <trkpt lat="48.70741" lon="2.03744">
        <ele>122.7</ele>
        <time>2013-12-20T12:09:10.100Z</time>
      </trkpt>
      <trkpt lat="48.70741" lon="2.03743">
        <ele>122.6</ele>
        <time>2013-12-20T12:09:11.088Z</time>
      </trkpt>
      <trkpt lat="48.70741" lon="2.03743">
        <ele>122.6</ele>
        <time>2013-12-20T12:09:12.673Z</time>
      </trkpt>
      <trkpt lat="48.70741" lon="2.03743">
        <ele>122.6</ele>
        <time>2013-12-20T12:09:13.059Z</time>
      </trkpt>
      <trkpt lat="48.70741" lon="2.03743">
        <ele>122.5</ele>
        <time>2013-12-20T12:09:18.124Z</time>
      </trkpt>
      <trkpt lat="48.70741" lon="2.03743">
        <ele>122.5</ele>
        <time>2013-12-20T12:09:19.077Z</time>
      </trkpt>
      <trkpt lat="48.70741" lon="2.0373">
        <ele>122.4</ele>
        <time>2013-12-20T12:09:27.752Z</time>
      </trkpt>
      <trkpt lat="48.7074" lon="2.03729">
        <ele>122.4</ele>
        <time>2013-12-20T12:09:28.060Z</time>
      </trkpt>
      <trkpt lat="48.70733" lon="2.03722">
        <ele>121.7</ele>
        <time>2013-12-20T12:09:39.145Z</time>
      </trkpt>
      <trkpt lat="48.70732" lon="2.03722">
        <ele>121.6</ele>
        <time>2013-12-20T12:09:40.128Z</time>
      </trkpt>
      <trkpt lat="48.70731" lon="2.03719">
        <ele>121.2</ele>
        <time>2013-12-20T12:09:46.142Z</time>
      </trkpt>
      <trkpt lat="48.70732" lon="2.03719">
        <ele>121.2</ele>
        <time>2013-12-20T12:09:47.136Z</time>
      </trkpt>
      <trkpt lat="48.70731" lon="2.0372">
        <ele>120.9</ele>
        <time>2013-12-20T12:09:50.188Z</time>
      </trkpt>
      <trkpt lat="48.70731" lon="2.0372">
        <ele>120.8</ele>
        <time>2013-12-20T12:09:51.144Z</time>
      </trkpt>
      <trkpt lat="48.70723" lon="2.03713">
        <ele>120.3</ele>
        <time>2013-12-20T12:09:58.143Z</time>
      </trkpt>
      <trkpt lat="48.70722" lon="2.03712">
        <ele>120.2</ele>
        <time>2013-12-20T12:09:59.142Z</time>
      </trkpt>
      <trkpt lat="48.70716" lon="2.03702">
        <ele>119.9</ele>
        <time>2013-12-20T12:10:08.053Z</time>
      </trkpt>
      <trkpt lat="48.70715" lon="2.03702">
        <ele>119.8</ele>
        <time>2013-12-20T12:10:09.039Z</time>
      </trkpt>
      <trkpt lat="48.70708" lon="2.03694">
        <ele>119.4</ele>
        <time>2013-12-20T12:10:20.051Z</time>
      </trkpt>
      <trkpt lat="48.70707" lon="2.03693">
        <ele>119.4</ele>
        <time>2013-12-20T12:10:21.064Z</time>
      </trkpt>
      <trkpt lat="48.707" lon="2.03685">
        <ele>119.8</ele>
        <time>2013-12-20T12:10:32.861Z</time>
      </trkpt>
      <trkpt lat="48.70699" lon="2.03685">
        <ele>119.7</ele>
        <time>2013-12-20T12:10:33.061Z</time>
      </trkpt>
      <trkpt lat="48.70693" lon="2.03675">
        <ele>119.1</ele>
        <time>2013-12-20T12:10:41.040Z</time>
      </trkpt>
      <trkpt lat="48.70693" lon="2.03673">
        <ele>119</ele>
        <time>2013-12-20T12:10:42.043Z</time>
      </trkpt>
      <trkpt lat="48.70687" lon="2.03665">
        <ele>118.2</ele>
        <time>2013-12-20T12:10:53.039Z</time>
      </trkpt>
      <trkpt lat="48.70686" lon="2.03664">
        <ele>118.2</ele>
        <time>2013-12-20T12:10:54.059Z</time>
      </trkpt>
      <trkpt lat="48.7068" lon="2.03655">
        <ele>117.9</ele>
        <time>2013-12-20T12:11:03.061Z</time>
      </trkpt>
      <trkpt lat="48.70679" lon="2.03654">
        <ele>117.9</ele>
        <time>2013-12-20T12:11:04.053Z</time>
      </trkpt>
      <trkpt lat="48.70672" lon="2.03646">
        <ele>117.9</ele>
        <time>2013-12-20T12:11:15.037Z</time>
      </trkpt>
      <trkpt lat="48.70672" lon="2.03645">
        <ele>117.9</ele>
        <time>2013-12-20T12:11:16.054Z</time>
      </trkpt>
      <trkpt lat="48.70667" lon="2.03634">
        <ele>117.7</ele>
        <time>2013-12-20T12:11:27.637Z</time>
      </trkpt>
      <trkpt lat="48.70667" lon="2.03633">
        <ele>117.6</ele>
        <time>2013-12-20T12:11:28.048Z</time>
      </trkpt>
      <trkpt lat="48.70664" lon="2.03621">
        <ele>117.8</ele>
        <time>2013-12-20T12:11:39.062Z</time>
      </trkpt>
      <trkpt lat="48.70664" lon="2.03619">
        <ele>117.8</ele>
        <time>2013-12-20T12:11:40.058Z</time>
      </trkpt>
      <trkpt lat="48.7066" lon="2.03607">
        <ele>118.3</ele>
        <time>2013-12-20T12:11:54.069Z</time>
      </trkpt>
      <trkpt lat="48.7066" lon="2.03606">
        <ele>118.3</ele>
        <time>2013-12-20T12:11:55.046Z</time>
      </trkpt>
      <trkpt lat="48.70656" lon="2.03595">
        <ele>118.5</ele>
        <time>2013-12-20T12:12:04.072Z</time>
      </trkpt>
      <trkpt lat="48.70656" lon="2.03593">
        <ele>118.6</ele>
        <time>2013-12-20T12:12:05.071Z</time>
      </trkpt>
      <trkpt lat="48.70652" lon="2.03582">
        <ele>118.7</ele>
        <time>2013-12-20T12:12:14.064Z</time>
      </trkpt>
      <trkpt lat="48.70651" lon="2.03581">
        <ele>118.7</ele>
        <time>2013-12-20T12:12:15.056Z</time>
      </trkpt>
      <trkpt lat="48.70649" lon="2.0357">
        <ele>119.3</ele>
        <time>2013-12-20T12:12:22.785Z</time>
      </trkpt>
      <trkpt lat="48.7065" lon="2.03567">
        <ele>119.3</ele>
        <time>2013-12-20T12:12:23.086Z</time>
      </trkpt>
      <trkpt lat="48.70653" lon="2.03555">
        <ele>119.8</ele>
        <time>2013-12-20T12:12:29.049Z</time>
      </trkpt>
      <trkpt lat="48.70652" lon="2.03553">
        <ele>119.9</ele>
        <time>2013-12-20T12:12:30.039Z</time>
      </trkpt>
      <trkpt lat="48.70648" lon="2.03542">
        <ele>119.9</ele>
        <time>2013-12-20T12:12:39.043Z</time>
      </trkpt>
      <trkpt lat="48.70648" lon="2.03539">
        <ele>119.9</ele>
        <time>2013-12-20T12:12:40.041Z</time>
      </trkpt>
      <trkpt lat="48.70647" lon="2.03528">
        <ele>120.6</ele>
        <time>2013-12-20T12:12:45.024Z</time>
      </trkpt>
      <trkpt lat="48.70648" lon="2.03526">
        <ele>120.9</ele>
        <time>2013-12-20T12:12:46.025Z</time>
      </trkpt>
      <trkpt lat="48.70648" lon="2.03512">
        <ele>123.2</ele>
        <time>2013-12-20T12:12:56.075Z</time>
      </trkpt>
      <trkpt lat="48.70648" lon="2.03511">
        <ele>123.4</ele>
        <time>2013-12-20T12:12:57.055Z</time>
      </trkpt>
      <trkpt lat="48.70648" lon="2.03498">
        <ele>124.8</ele>
        <time>2013-12-20T12:13:04.097Z</time>
      </trkpt>
      <trkpt lat="48.70648" lon="2.03496">
        <ele>125</ele>
        <time>2013-12-20T12:13:05.087Z</time>
      </trkpt>
      <trkpt lat="48.70648" lon="2.03483">
        <ele>125.3</ele>
        <time>2013-12-20T12:13:12.628Z</time>
      </trkpt>
      <trkpt lat="48.70648" lon="2.03482">
        <ele>125.2</ele>
        <time>2013-12-20T12:13:13.104Z</time>
      </trkpt>
      <trkpt lat="48.70645" lon="2.03471">
        <ele>125</ele>
        <time>2013-12-20T12:13:18.179Z</time>
      </trkpt>
      <trkpt lat="48.70645" lon="2.03468">
        <ele>124.9</ele>
        <time>2013-12-20T12:13:19.417Z</time>
      </trkpt>
      <trkpt lat="48.70644" lon="2.03456">
        <ele>124.9</ele>
        <time>2013-12-20T12:13:24.095Z</time>
      </trkpt>
      <trkpt lat="48.70644" lon="2.03454">
        <ele>124.9</ele>
        <time>2013-12-20T12:13:25.091Z</time>
      </trkpt>
      <trkpt lat="48.70642" lon="2.03441">
        <ele>125.5</ele>
        <time>2013-12-20T12:13:33.044Z</time>
      </trkpt>
      <trkpt lat="48.70642" lon="2.03439">
        <ele>125.5</ele>
        <time>2013-12-20T12:13:34.050Z</time>
      </trkpt>
      <trkpt lat="48.70641" lon="2.03426">
        <ele>125.9</ele>
        <time>2013-12-20T12:13:40.097Z</time>
      </trkpt>
      <trkpt lat="48.70642" lon="2.03424">
        <ele>126</ele>
        <time>2013-12-20T12:13:41.090Z</time>
      </trkpt>
      <trkpt lat="48.70642" lon="2.03411">
        <ele>126.4</ele>
        <time>2013-12-20T12:13:48.169Z</time>
      </trkpt>
      <trkpt lat="48.70642" lon="2.0341">
        <ele>126.4</ele>
        <time>2013-12-20T12:13:49.103Z</time>
      </trkpt>
      <trkpt lat="48.70649" lon="2.03402">
        <ele>126.4</ele>
        <time>2013-12-20T12:13:58.194Z</time>
      </trkpt>
      <trkpt lat="48.7065" lon="2.03401">
        <ele>126.4</ele>
        <time>2013-12-20T12:13:59.099Z</time>
      </trkpt>
      <trkpt lat="48.70658" lon="2.03397">
        <ele>126.8</ele>
        <time>2013-12-20T12:14:06.098Z</time>
      </trkpt>
      <trkpt lat="48.70658" lon="2.03396">
        <ele>126.8</ele>
        <time>2013-12-20T12:14:07.096Z</time>
      </trkpt>
      <trkpt lat="48.70665" lon="2.03389">
        <ele>127.3</ele>
        <time>2013-12-20T12:14:14.099Z</time>
      </trkpt>
      <trkpt lat="48.70666" lon="2.03388">
        <ele>127.3</ele>
        <time>2013-12-20T12:14:15.098Z</time>
      </trkpt>
      <trkpt lat="48.70673" lon="2.03383">
        <ele>127.7</ele>
        <time>2013-12-20T12:14:21.095Z</time>
      </trkpt>
      <trkpt lat="48.70675" lon="2.03382">
        <ele>127.7</ele>
        <time>2013-12-20T12:14:22.095Z</time>
      </trkpt>
      <trkpt lat="48.70681" lon="2.03375">
        <ele>128.4</ele>
        <time>2013-12-20T12:14:29.096Z</time>
      </trkpt>
      <trkpt lat="48.70682" lon="2.03374">
        <ele>128.5</ele>
        <time>2013-12-20T12:14:30.097Z</time>
      </trkpt>
      <trkpt lat="48.7069" lon="2.03368">
        <ele>128.7</ele>
        <time>2013-12-20T12:14:37.804Z</time>
      </trkpt>
      <trkpt lat="48.70691" lon="2.03368">
        <ele>128.6</ele>
        <time>2013-12-20T12:14:38.078Z</time>
      </trkpt>
      <trkpt lat="48.70697" lon="2.03361">
        <ele>128.6</ele>
        <time>2013-12-20T12:14:44.088Z</time>
      </trkpt>
      <trkpt lat="48.70698" lon="2.0336">
        <ele>128.7</ele>
        <time>2013-12-20T12:14:45.088Z</time>
      </trkpt>
      <trkpt lat="48.70705" lon="2.03354">
        <ele>129.1</ele>
        <time>2013-12-20T12:14:51.097Z</time>
      </trkpt>
      <trkpt lat="48.70706" lon="2.03353">
        <ele>129.1</ele>
        <time>2013-12-20T12:14:52.031Z</time>
      </trkpt>
      <trkpt lat="48.70714" lon="2.0335">
        <ele>129.1</ele>
        <time>2013-12-20T12:14:59.089Z</time>
      </trkpt>
      <trkpt lat="48.70715" lon="2.0335">
        <ele>129.1</ele>
        <time>2013-12-20T12:15:00.198Z</time>
      </trkpt>
      <trkpt lat="48.70723" lon="2.03344">
        <ele>128.8</ele>
        <time>2013-12-20T12:15:06.088Z</time>
      </trkpt>
      <trkpt lat="48.70724" lon="2.03343">
        <ele>128.8</ele>
        <time>2013-12-20T12:15:07.086Z</time>
      </trkpt>
      <trkpt lat="48.70732" lon="2.03337">
        <ele>129</ele>
        <time>2013-12-20T12:15:14.089Z</time>
      </trkpt>
      <trkpt lat="48.70733" lon="2.03336">
        <ele>129.1</ele>
        <time>2013-12-20T12:15:15.089Z</time>
      </trkpt>
      <trkpt lat="48.7074" lon="2.03331">
        <ele>130</ele>
        <time>2013-12-20T12:15:23.056Z</time>
      </trkpt>
      <trkpt lat="48.70741" lon="2.03331">
        <ele>130.1</ele>
        <time>2013-12-20T12:15:24.095Z</time>
      </trkpt>
      <trkpt lat="48.70749" lon="2.03325">
        <ele>131.1</ele>
        <time>2013-12-20T12:15:31.113Z</time>
      </trkpt>
      <trkpt lat="48.7075" lon="2.03324">
        <ele>131.2</ele>
        <time>2013-12-20T12:15:32.093Z</time>
      </trkpt>
      <trkpt lat="48.70757" lon="2.03317">
        <ele>131.7</ele>
        <time>2013-12-20T12:15:38.056Z</time>
      </trkpt>
      <trkpt lat="48.70759" lon="2.03316">
        <ele>131.7</ele>
        <time>2013-12-20T12:15:39.091Z</time>
      </trkpt>
      <trkpt lat="48.70767" lon="2.03311">
        <ele>132.2</ele>
        <time>2013-12-20T12:15:46.090Z</time>
      </trkpt>
      <trkpt lat="48.70767" lon="2.0331">
        <ele>132.3</ele>
        <time>2013-12-20T12:15:47.089Z</time>
      </trkpt>
      <trkpt lat="48.70775" lon="2.03304">
        <ele>133.3</ele>
        <time>2013-12-20T12:15:55.089Z</time>
      </trkpt>
      <trkpt lat="48.70776" lon="2.03303">
        <ele>133.3</ele>
        <time>2013-12-20T12:15:56.090Z</time>
      </trkpt>
      <trkpt lat="48.70785" lon="2.033">
        <ele>133.4</ele>
        <time>2013-12-20T12:16:02.090Z</time>
      </trkpt>
      <trkpt lat="48.70787" lon="2.033">
        <ele>133.4</ele>
        <time>2013-12-20T12:16:03.092Z</time>
      </trkpt>
      <trkpt lat="48.70795" lon="2.03296">
        <ele>133.5</ele>
        <time>2013-12-20T12:16:12.673Z</time>
      </trkpt>
      <trkpt lat="48.70795" lon="2.03295">
        <ele>133.4</ele>
        <time>2013-12-20T12:16:13.072Z</time>
      </trkpt>
      <trkpt lat="48.70803" lon="2.0329">
        <ele>133.2</ele>
        <time>2013-12-20T12:16:19.099Z</time>
      </trkpt>
      <trkpt lat="48.70804" lon="2.03289">
        <ele>133.2</ele>
        <time>2013-12-20T12:16:20.102Z</time>
      </trkpt>
      <trkpt lat="48.70811" lon="2.03284">
        <ele>134</ele>
        <time>2013-12-20T12:16:27.767Z</time>
      </trkpt>
      <trkpt lat="48.70813" lon="2.03284">
        <ele>134.1</ele>
        <time>2013-12-20T12:16:28.057Z</time>
      </trkpt>
      <trkpt lat="48.70817" lon="2.03274">
        <ele>134.4</ele>
        <time>2013-12-20T12:16:42.911Z</time>
      </trkpt>
      <trkpt lat="48.70817" lon="2.03274">
        <ele>134.4</ele>
        <time>2013-12-20T12:16:43.036Z</time>
      </trkpt>
      <trkpt lat="48.70817" lon="2.03276">
        <ele>134.4</ele>
        <time>2013-12-20T12:16:55.099Z</time>
      </trkpt>
      <trkpt lat="48.70817" lon="2.03276">
        <ele>134.4</ele>
        <time>2013-12-20T12:16:56.100Z</time>
      </trkpt>
      <trkpt lat="48.70817" lon="2.03277">
        <ele>134.4</ele>
        <time>2013-12-20T12:16:57.100Z</time>
      </trkpt>
      <trkpt lat="48.70819" lon="2.03276">
        <ele>133.7</ele>
        <time>2013-12-20T12:17:08.095Z</time>
      </trkpt>
      <trkpt lat="48.70819" lon="2.03276">
        <ele>133.7</ele>
        <time>2013-12-20T12:17:09.095Z</time>
      </trkpt>
      <trkpt lat="48.70819" lon="2.03276">
        <ele>133.6</ele>
        <time>2013-12-20T12:17:10.096Z</time>
      </trkpt>
      <trkpt lat="48.70818" lon="2.03275">
        <ele>133.5</ele>
        <time>2013-12-20T12:17:15.098Z</time>
      </trkpt>
      <trkpt lat="48.70818" lon="2.03274">
        <ele>133.3</ele>
        <time>2013-12-20T12:17:16.100Z</time>
      </trkpt>
      <trkpt lat="48.70813" lon="2.03267">
        <ele>132.8</ele>
        <time>2013-12-20T12:17:25.100Z</time>
      </trkpt>
      <trkpt lat="48.70811" lon="2.03265">
        <ele>132.8</ele>
        <time>2013-12-20T12:17:26.126Z</time>
      </trkpt>
      <trkpt lat="48.70807" lon="2.03254">
        <ele>132.4</ele>
        <time>2013-12-20T12:17:34.097Z</time>
      </trkpt>
      <trkpt lat="48.70806" lon="2.03253">
        <ele>132.3</ele>
        <time>2013-12-20T12:17:35.099Z</time>
      </trkpt>
      <trkpt lat="48.70802" lon="2.03241">
        <ele>132.6</ele>
        <time>2013-12-20T12:17:42.878Z</time>
      </trkpt>
      <trkpt lat="48.70801" lon="2.0324">
        <ele>132.7</ele>
        <time>2013-12-20T12:17:43.058Z</time>
      </trkpt>
      <trkpt lat="48.70795" lon="2.03231">
        <ele>133.4</ele>
        <time>2013-12-20T12:17:51.099Z</time>
      </trkpt>
      <trkpt lat="48.70794" lon="2.0323">
        <ele>133.5</ele>
        <time>2013-12-20T12:17:52.099Z</time>
      </trkpt>
      <trkpt lat="48.70788" lon="2.0322">
        <ele>134.2</ele>
        <time>2013-12-20T12:18:03.247Z</time>
      </trkpt>
      <trkpt lat="48.70788" lon="2.03219">
        <ele>134.2</ele>
        <time>2013-12-20T12:18:04.098Z</time>
      </trkpt>
      <trkpt lat="48.70784" lon="2.03208">
        <ele>134.9</ele>
        <time>2013-12-20T12:18:14.109Z</time>
      </trkpt>
      <trkpt lat="48.70784" lon="2.03207">
        <ele>134.9</ele>
        <time>2013-12-20T12:18:15.110Z</time>
      </trkpt>
      <trkpt lat="48.70777" lon="2.03199">
        <ele>136.9</ele>
        <time>2013-12-20T12:18:29.063Z</time>
      </trkpt>
      <trkpt lat="48.70776" lon="2.03198">
        <ele>137</ele>
        <time>2013-12-20T12:18:30.079Z</time>
      </trkpt>
      <trkpt lat="48.70773" lon="2.03185">
        <ele>137.1</ele>
        <time>2013-12-20T12:18:38.060Z</time>
      </trkpt>
      <trkpt lat="48.70772" lon="2.03184">
        <ele>137.2</ele>
        <time>2013-12-20T12:18:39.106Z</time>
      </trkpt>
      <trkpt lat="48.70768" lon="2.03172">
        <ele>136.8</ele>
        <time>2013-12-20T12:18:46.136Z</time>
      </trkpt>
      <trkpt lat="48.70768" lon="2.03171">
        <ele>136.8</ele>
        <time>2013-12-20T12:18:47.098Z</time>
      </trkpt>
      <trkpt lat="48.70762" lon="2.03161">
        <ele>137.1</ele>
        <time>2013-12-20T12:18:55.154Z</time>
      </trkpt>
      <trkpt lat="48.70761" lon="2.0316">
        <ele>137.1</ele>
        <time>2013-12-20T12:18:56.099Z</time>
      </trkpt>
      <trkpt lat="48.70755" lon="2.0315">
        <ele>137.7</ele>
        <time>2013-12-20T12:19:03.077Z</time>
      </trkpt>
      <trkpt lat="48.70755" lon="2.03149">
        <ele>137.8</ele>
        <time>2013-12-20T12:19:03.261Z</time>
      </trkpt>
      <trkpt lat="48.7075" lon="2.03137">
        <ele>138.4</ele>
        <time>2013-12-20T12:19:11.104Z</time>
      </trkpt>
      <trkpt lat="48.70749" lon="2.03135">
        <ele>138.4</ele>
        <time>2013-12-20T12:19:12.101Z</time>
      </trkpt>
      <trkpt lat="48.70744" lon="2.03125">
        <ele>138.5</ele>
        <time>2013-12-20T12:19:19.101Z</time>
      </trkpt>
      <trkpt lat="48.70743" lon="2.03123">
        <ele>138.5</ele>
        <time>2013-12-20T12:19:20.101Z</time>
      </trkpt>
      <trkpt lat="48.70741" lon="2.03111">
        <ele>138.9</ele>
        <time>2013-12-20T12:19:33.097Z</time>
      </trkpt>
      <trkpt lat="48.70743" lon="2.03109">
        <ele>139</ele>
        <time>2013-12-20T12:19:33.186Z</time>
      </trkpt>
      <trkpt lat="48.70749" lon="2.03099">
        <ele>139.3</ele>
        <time>2013-12-20T12:19:40.101Z</time>
      </trkpt>
      <trkpt lat="48.70749" lon="2.03098">
        <ele>139.3</ele>
        <time>2013-12-20T12:19:41.102Z</time>
      </trkpt>
      <trkpt lat="48.70752" lon="2.03096">
        <ele>139.3</ele>
        <time>2013-12-20T12:19:50.102Z</time>
      </trkpt>
      <trkpt lat="48.70752" lon="2.03096">
        <ele>139.3</ele>
        <time>2013-12-20T12:19:51.100Z</time>
      </trkpt>
      <trkpt lat="48.70751" lon="2.03097">
        <ele>139.3</ele>
        <time>2013-12-20T12:19:52.099Z</time>
      </trkpt>
      <trkpt lat="48.7075" lon="2.03098">
        <ele>139.3</ele>
        <time>2013-12-20T12:19:54.102Z</time>
      </trkpt>
      <trkpt lat="48.70751" lon="2.03097">
        <ele>139.3</ele>
        <time>2013-12-20T12:19:55.102Z</time>
      </trkpt>
      <trkpt lat="48.70751" lon="2.03097">
        <ele>139.3</ele>
        <time>2013-12-20T12:19:56.097Z</time>
      </trkpt>
      <trkpt lat="48.70752" lon="2.03096">
        <ele>139.4</ele>
        <time>2013-12-20T12:19:57.103Z</time>
      </trkpt>
      <trkpt lat="48.70758" lon="2.03086">
        <ele>139.7</ele>
        <time>2013-12-20T12:20:05.095Z</time>
      </trkpt>
      <trkpt lat="48.70758" lon="2.03084">
        <ele>139.8</ele>
        <time>2013-12-20T12:20:06.094Z</time>
      </trkpt>
      <trkpt lat="48.70764" lon="2.03075">
        <ele>140.7</ele>
        <time>2013-12-20T12:20:13.066Z</time>
      </trkpt>
      <trkpt lat="48.70764" lon="2.03073">
        <ele>141</ele>
        <time>2013-12-20T12:20:14.094Z</time>
      </trkpt>
      <trkpt lat="48.7077" lon="2.03063">
        <ele>142</ele>
        <time>2013-12-20T12:20:20.097Z</time>
      </trkpt>
      <trkpt lat="48.7077" lon="2.03061">
        <ele>142</ele>
        <time>2013-12-20T12:20:21.094Z</time>
      </trkpt>
      <trkpt lat="48.70775" lon="2.03052">
        <ele>143</ele>
        <time>2013-12-20T12:20:30.110Z</time>
      </trkpt>
      <trkpt lat="48.70775" lon="2.0305">
        <ele>143.1</ele>
        <time>2013-12-20T12:20:31.110Z</time>
      </trkpt>
      <trkpt lat="48.70778" lon="2.03038">
        <ele>143.8</ele>
        <time>2013-12-20T12:20:37.896Z</time>
      </trkpt>
      <trkpt lat="48.70778" lon="2.03036">
        <ele>143.9</ele>
        <time>2013-12-20T12:20:38.181Z</time>
      </trkpt>
      <trkpt lat="48.70781" lon="2.03025">
        <ele>145</ele>
        <time>2013-12-20T12:20:45.101Z</time>
      </trkpt>
      <trkpt lat="48.70782" lon="2.03024">
        <ele>145.2</ele>
        <time>2013-12-20T12:20:46.102Z</time>
      </trkpt>
      <trkpt lat="48.70784" lon="2.03011">
        <ele>146.2</ele>
        <time>2013-12-20T12:20:52.096Z</time>
      </trkpt>
      <trkpt lat="48.70785" lon="2.0301">
        <ele>146.4</ele>
        <time>2013-12-20T12:20:53.143Z</time>
      </trkpt>
      <trkpt lat="48.70789" lon="2.02999">
        <ele>147.6</ele>
        <time>2013-12-20T12:21:04.102Z</time>
      </trkpt>
      <trkpt lat="48.70789" lon="2.02997">
        <ele>147.7</ele>
        <time>2013-12-20T12:21:05.104Z</time>
      </trkpt>
      <trkpt lat="48.70793" lon="2.02986">
        <ele>148.7</ele>
        <time>2013-12-20T12:21:12.680Z</time>
      </trkpt>
      <trkpt lat="48.70793" lon="2.02985">
        <ele>148.9</ele>
        <time>2013-12-20T12:21:13.083Z</time>
      </trkpt>
      <trkpt lat="48.70797" lon="2.02974">
        <ele>150</ele>
        <time>2013-12-20T12:21:20.103Z</time>
      </trkpt>
      <trkpt lat="48.70798" lon="2.02973">
        <ele>150.2</ele>
        <time>2013-12-20T12:21:21.106Z</time>
      </trkpt>
      <trkpt lat="48.70799" lon="2.0296">
        <ele>151.7</ele>
        <time>2013-12-20T12:21:29.116Z</time>
      </trkpt>
      <trkpt lat="48.70798" lon="2.02957">
        <ele>151.8</ele>
        <time>2013-12-20T12:21:30.114Z</time>
      </trkpt>
      <trkpt lat="48.70793" lon="2.02947">
        <ele>151.9</ele>
        <time>2013-12-20T12:21:34.110Z</time>
      </trkpt>
      <trkpt lat="48.70793" lon="2.02945">
        <ele>152</ele>
        <time>2013-12-20T12:21:35.109Z</time>
      </trkpt>
      <trkpt lat="48.70792" lon="2.02932">
        <ele>153.6</ele>
        <time>2013-12-20T12:21:44.113Z</time>
      </trkpt>
      <trkpt lat="48.70792" lon="2.02931">
        <ele>153.8</ele>
        <time>2013-12-20T12:21:45.107Z</time>
      </trkpt>
      <trkpt lat="48.7079" lon="2.02919">
        <ele>154.9</ele>
        <time>2013-12-20T12:21:55.104Z</time>
      </trkpt>
      <trkpt lat="48.70789" lon="2.02918">
        <ele>154.8</ele>
        <time>2013-12-20T12:21:56.106Z</time>
      </trkpt>
      <trkpt lat="48.70785" lon="2.02907">
        <ele>156.5</ele>
        <time>2013-12-20T12:22:06.103Z</time>
      </trkpt>
      <trkpt lat="48.70785" lon="2.02906">
        <ele>156.7</ele>
        <time>2013-12-20T12:22:07.106Z</time>
      </trkpt>
      <trkpt lat="48.7078" lon="2.02894">
        <ele>158.4</ele>
        <time>2013-12-20T12:22:16.104Z</time>
      </trkpt>
      <trkpt lat="48.7078" lon="2.02894">
        <ele>158.6</ele>
        <time>2013-12-20T12:22:17.104Z</time>
      </trkpt>
      <trkpt lat="48.70774" lon="2.02884">
        <ele>161.6</ele>
        <time>2013-12-20T12:22:30.112Z</time>
      </trkpt>
      <trkpt lat="48.70773" lon="2.02883">
        <ele>161.9</ele>
        <time>2013-12-20T12:22:31.110Z</time>
      </trkpt>
      <trkpt lat="48.70771" lon="2.0287">
        <ele>164.2</ele>
        <time>2013-12-20T12:22:42.823Z</time>
      </trkpt>
      <trkpt lat="48.7077" lon="2.02868">
        <ele>164.3</ele>
        <time>2013-12-20T12:22:43.126Z</time>
      </trkpt>
      <trkpt lat="48.70767" lon="2.02857">
        <ele>165.8</ele>
        <time>2013-12-20T12:22:52.946Z</time>
      </trkpt>
      <trkpt lat="48.70766" lon="2.02855">
        <ele>166</ele>
        <time>2013-12-20T12:22:53.046Z</time>
      </trkpt>
      <trkpt lat="48.70763" lon="2.02843">
        <ele>167.1</ele>
        <time>2013-12-20T12:23:04.105Z</time>
      </trkpt>
      <trkpt lat="48.70763" lon="2.02842">
        <ele>167.1</ele>
        <time>2013-12-20T12:23:05.098Z</time>
      </trkpt>
      <trkpt lat="48.70757" lon="2.02831">
        <ele>168.4</ele>
        <time>2013-12-20T12:23:14.099Z</time>
      </trkpt>
      <trkpt lat="48.70757" lon="2.0283">
        <ele>168.6</ele>
        <time>2013-12-20T12:23:15.095Z</time>
      </trkpt>
      <trkpt lat="48.70752" lon="2.02819">
        <ele>169.5</ele>
        <time>2013-12-20T12:23:23.054Z</time>
      </trkpt>
      <trkpt lat="48.70752" lon="2.02818">
        <ele>169.6</ele>
        <time>2013-12-20T12:23:24.088Z</time>
      </trkpt>
      <trkpt lat="48.70747" lon="2.02807">
        <ele>170.5</ele>
        <time>2013-12-20T12:23:34.092Z</time>
      </trkpt>
      <trkpt lat="48.70747" lon="2.02805">
        <ele>170.6</ele>
        <time>2013-12-20T12:23:35.095Z</time>
      </trkpt>
      <trkpt lat="48.70744" lon="2.02793">
        <ele>171.7</ele>
        <time>2013-12-20T12:23:46.037Z</time>
      </trkpt>
      <trkpt lat="48.70744" lon="2.02792">
        <ele>171.8</ele>
        <time>2013-12-20T12:23:47.085Z</time>
      </trkpt>
      <trkpt lat="48.7074" lon="2.0278">
        <ele>172.6</ele>
        <time>2013-12-20T12:23:57.099Z</time>
      </trkpt>
      <trkpt lat="48.7074" lon="2.02778">
        <ele>172.7</ele>
        <time>2013-12-20T12:23:58.068Z</time>
      </trkpt>
      <trkpt lat="48.70736" lon="2.02766">
        <ele>174.4</ele>
        <time>2013-12-20T12:24:06.101Z</time>
      </trkpt>
      <trkpt lat="48.70736" lon="2.02765">
        <ele>174.5</ele>
        <time>2013-12-20T12:24:07.100Z</time>
      </trkpt>
      <trkpt lat="48.70732" lon="2.02754">
        <ele>175.9</ele>
        <time>2013-12-20T12:24:16.098Z</time>
      </trkpt>
      <trkpt lat="48.70732" lon="2.02752">
        <ele>176.2</ele>
        <time>2013-12-20T12:24:17.099Z</time>
      </trkpt>
      <trkpt lat="48.70728" lon="2.02741">
        <ele>178.2</ele>
        <time>2013-12-20T12:24:23.067Z</time>
      </trkpt>
      <trkpt lat="48.70728" lon="2.0274">
        <ele>178.6</ele>
        <time>2013-12-20T12:24:24.101Z</time>
      </trkpt>
      <trkpt lat="48.70724" lon="2.02728">
        <ele>181.4</ele>
        <time>2013-12-20T12:24:33.212Z</time>
      </trkpt>
      <trkpt lat="48.70724" lon="2.02727">
        <ele>181.6</ele>
        <time>2013-12-20T12:24:34.102Z</time>
      </trkpt>
      <trkpt lat="48.70724" lon="2.02714">
        <ele>183.8</ele>
        <time>2013-12-20T12:24:43.207Z</time>
      </trkpt>
      <trkpt lat="48.70724" lon="2.02713">
        <ele>184</ele>
        <time>2013-12-20T12:24:44.099Z</time>
      </trkpt>
      <trkpt lat="48.70724" lon="2.02699">
        <ele>186.5</ele>
        <time>2013-12-20T12:24:56.168Z</time>
      </trkpt>
      <trkpt lat="48.70724" lon="2.02698">
        <ele>186.7</ele>
        <time>2013-12-20T12:24:57.137Z</time>
      </trkpt>
      <trkpt lat="48.70722" lon="2.02685">
        <ele>188.2</ele>
        <time>2013-12-20T12:25:07.646Z</time>
      </trkpt>
      <trkpt lat="48.70722" lon="2.02684">
        <ele>188.3</ele>
        <time>2013-12-20T12:25:08.062Z</time>
      </trkpt>
      <trkpt lat="48.70724" lon="2.02672">
        <ele>190.4</ele>
        <time>2013-12-20T12:25:20.165Z</time>
      </trkpt>
      <trkpt lat="48.70724" lon="2.0267">
        <ele>190.6</ele>
        <time>2013-12-20T12:25:21.096Z</time>
      </trkpt>
      <trkpt lat="48.70724" lon="2.02658">
        <ele>191.4</ele>
        <time>2013-12-20T12:25:29.093Z</time>
      </trkpt>
      <trkpt lat="48.70724" lon="2.02656">
        <ele>191.6</ele>
        <time>2013-12-20T12:25:30.051Z</time>
      </trkpt>
      <trkpt lat="48.70724" lon="2.02644">
        <ele>193.6</ele>
        <time>2013-12-20T12:25:39.094Z</time>
      </trkpt>
      <trkpt lat="48.70724" lon="2.02643">
        <ele>193.8</ele>
        <time>2013-12-20T12:25:40.049Z</time>
      </trkpt>
      <trkpt lat="48.70723" lon="2.02631">
        <ele>194.2</ele>
        <time>2013-12-20T12:25:46.105Z</time>
      </trkpt>
      <trkpt lat="48.70723" lon="2.02628">
        <ele>194.2</ele>
        <time>2013-12-20T12:25:47.103Z</time>
      </trkpt>
      <trkpt lat="48.70721" lon="2.02615">
        <ele>194.2</ele>
        <time>2013-12-20T12:25:58.174Z</time>
      </trkpt>
      <trkpt lat="48.70721" lon="2.02614">
        <ele>194.3</ele>
        <time>2013-12-20T12:25:58.222Z</time>
      </trkpt>
      <trkpt lat="48.70719" lon="2.02602">
        <ele>194.8</ele>
        <time>2013-12-20T12:26:05.187Z</time>
      </trkpt>
      <trkpt lat="48.70719" lon="2.026">
        <ele>195</ele>
        <time>2013-12-20T12:26:06.191Z</time>
      </trkpt>
      <trkpt lat="48.70716" lon="2.02589">
        <ele>196.1</ele>
        <time>2013-12-20T12:26:13.188Z</time>
      </trkpt>
      <trkpt lat="48.70716" lon="2.02586">
        <ele>196.2</ele>
        <time>2013-12-20T12:26:14.303Z</time>
      </trkpt>
      <trkpt lat="48.70716" lon="2.02575">
        <ele>196.9</ele>
        <time>2013-12-20T12:26:19.231Z</time>
      </trkpt>
      <trkpt lat="48.70715" lon="2.02572">
        <ele>197.2</ele>
        <time>2013-12-20T12:26:20.188Z</time>
      </trkpt>
      <trkpt lat="48.70712" lon="2.02561">
        <ele>198.2</ele>
        <time>2013-12-20T12:26:27.749Z</time>
      </trkpt>
      <trkpt lat="48.70712" lon="2.0256">
        <ele>198.3</ele>
        <time>2013-12-20T12:26:28.187Z</time>
      </trkpt>
      <trkpt lat="48.70709" lon="2.02548">
        <ele>198.9</ele>
        <time>2013-12-20T12:26:35.188Z</time>
      </trkpt>
      <trkpt lat="48.70709" lon="2.02546">
        <ele>199</ele>
        <time>2013-12-20T12:26:36.188Z</time>
      </trkpt>
      <trkpt lat="48.70706" lon="2.02535">
        <ele>199.8</ele>
        <time>2013-12-20T12:26:45.165Z</time>
      </trkpt>
      <trkpt lat="48.70705" lon="2.02533">
        <ele>199.8</ele>
        <time>2013-12-20T12:26:46.166Z</time>
      </trkpt>
      <trkpt lat="48.70702" lon="2.02521">
        <ele>200.7</ele>
        <time>2013-12-20T12:26:55.136Z</time>
      </trkpt>
      <trkpt lat="48.70702" lon="2.0252">
        <ele>200.8</ele>
        <time>2013-12-20T12:26:56.135Z</time>
      </trkpt>
      <trkpt lat="48.70699" lon="2.02508">
        <ele>201.2</ele>
        <time>2013-12-20T12:27:04.109Z</time>
      </trkpt>
      <trkpt lat="48.70698" lon="2.02506">
        <ele>201.2</ele>
        <time>2013-12-20T12:27:05.109Z</time>
      </trkpt>
      <trkpt lat="48.70693" lon="2.02494">
        <ele>201.6</ele>
        <time>2013-12-20T12:27:11.109Z</time>
      </trkpt>
      <trkpt lat="48.70693" lon="2.02493">
        <ele>201.6</ele>
        <time>2013-12-20T12:27:12.110Z</time>
      </trkpt>
      <trkpt lat="48.7069" lon="2.02482">
        <ele>201.7</ele>
        <time>2013-12-20T12:27:19.109Z</time>
      </trkpt>
      <trkpt lat="48.7069" lon="2.0248">
        <ele>201.7</ele>
        <time>2013-12-20T12:27:20.112Z</time>
      </trkpt>
      <trkpt lat="48.7069" lon="2.02467">
        <ele>201.2</ele>
        <time>2013-12-20T12:27:26.111Z</time>
      </trkpt>
      <trkpt lat="48.70689" lon="2.02465">
        <ele>201.1</ele>
        <time>2013-12-20T12:27:27.110Z</time>
      </trkpt>
      <trkpt lat="48.70686" lon="2.02453">
        <ele>200.9</ele>
        <time>2013-12-20T12:27:33.088Z</time>
      </trkpt>
      <trkpt lat="48.70685" lon="2.02451">
        <ele>201.1</ele>
        <time>2013-12-20T12:27:34.107Z</time>
      </trkpt>
      <trkpt lat="48.70683" lon="2.02438">
        <ele>201.4</ele>
        <time>2013-12-20T12:27:39.111Z</time>
      </trkpt>
      <trkpt lat="48.70683" lon="2.02435">
        <ele>201.4</ele>
        <time>2013-12-20T12:27:40.118Z</time>
      </trkpt>
      <trkpt lat="48.70684" lon="2.02422">
        <ele>202.2</ele>
        <time>2013-12-20T12:27:49.123Z</time>
      </trkpt>
      <trkpt lat="48.70684" lon="2.02418">
        <ele>202.3</ele>
        <time>2013-12-20T12:27:50.125Z</time>
      </trkpt>
      <trkpt lat="48.70683" lon="2.02405">
        <ele>203</ele>
        <time>2013-12-20T12:27:55.131Z</time>
      </trkpt>
      <trkpt lat="48.70683" lon="2.02405">
        <ele>203.1</ele>
        <time>2013-12-20T12:27:56.130Z</time>
      </trkpt>
      <trkpt lat="48.70683" lon="2.02393">
        <ele>204.1</ele>
        <time>2013-12-20T12:28:06.116Z</time>
      </trkpt>
      <trkpt lat="48.70684" lon="2.0239">
        <ele>204.1</ele>
        <time>2013-12-20T12:28:07.122Z</time>
      </trkpt>
      <trkpt lat="48.70687" lon="2.02377">
        <ele>204</ele>
        <time>2013-12-20T12:28:15.119Z</time>
      </trkpt>
      <trkpt lat="48.70687" lon="2.02375">
        <ele>204</ele>
        <time>2013-12-20T12:28:16.119Z</time>
      </trkpt>
      <trkpt lat="48.70687" lon="2.02362">
        <ele>204.7</ele>
        <time>2013-12-20T12:28:22.713Z</time>
      </trkpt>
      <trkpt lat="48.70687" lon="2.02359">
        <ele>204.8</ele>
        <time>2013-12-20T12:28:23.087Z</time>
      </trkpt>
      <trkpt lat="48.70688" lon="2.02347">
        <ele>205.6</ele>
        <time>2013-12-20T12:28:30.123Z</time>
      </trkpt>
      <trkpt lat="48.70688" lon="2.02344">
        <ele>205.7</ele>
        <time>2013-12-20T12:28:31.122Z</time>
      </trkpt>
      <trkpt lat="48.7069" lon="2.02332">
        <ele>205.9</ele>
        <time>2013-12-20T12:28:36.123Z</time>
      </trkpt>
      <trkpt lat="48.7069" lon="2.0233">
        <ele>205.9</ele>
        <time>2013-12-20T12:28:37.123Z</time>
      </trkpt>
      <trkpt lat="48.70692" lon="2.02318">
        <ele>205.3</ele>
        <time>2013-12-20T12:28:46.123Z</time>
      </trkpt>
      <trkpt lat="48.70692" lon="2.02316">
        <ele>205.2</ele>
        <time>2013-12-20T12:28:47.123Z</time>
      </trkpt>
      <trkpt lat="48.70694" lon="2.02305">
        <ele>204.6</ele>
        <time>2013-12-20T12:28:54.129Z</time>
      </trkpt>
      <trkpt lat="48.70694" lon="2.02302">
        <ele>204.5</ele>
        <time>2013-12-20T12:28:55.128Z</time>
      </trkpt>
      <trkpt lat="48.70695" lon="2.02291">
        <ele>204.3</ele>
        <time>2013-12-20T12:29:03.142Z</time>
      </trkpt>
      <trkpt lat="48.70695" lon="2.02288">
        <ele>204.4</ele>
        <time>2013-12-20T12:29:03.200Z</time>
      </trkpt>
      <trkpt lat="48.70698" lon="2.02276">
        <ele>204.5</ele>
        <time>2013-12-20T12:29:09.121Z</time>
      </trkpt>
      <trkpt lat="48.70698" lon="2.02274">
        <ele>204.6</ele>
        <time>2013-12-20T12:29:10.122Z</time>
      </trkpt>
      <trkpt lat="48.707" lon="2.02261">
        <ele>205.2</ele>
        <time>2013-12-20T12:29:17.128Z</time>
      </trkpt>
      <trkpt lat="48.70699" lon="2.02258">
        <ele>205.2</ele>
        <time>2013-12-20T12:29:18.104Z</time>
      </trkpt>
      <trkpt lat="48.70701" lon="2.02246">
        <ele>205.3</ele>
        <time>2013-12-20T12:29:25.128Z</time>
      </trkpt>
      <trkpt lat="48.70701" lon="2.02245">
        <ele>205.3</ele>
        <time>2013-12-20T12:29:26.129Z</time>
      </trkpt>
      <trkpt lat="48.70703" lon="2.02233">
        <ele>205.5</ele>
        <time>2013-12-20T12:29:34.136Z</time>
      </trkpt>
      <trkpt lat="48.70703" lon="2.02231">
        <ele>205.4</ele>
        <time>2013-12-20T12:29:35.130Z</time>
      </trkpt>
      <trkpt lat="48.70705" lon="2.0222">
        <ele>204.9</ele>
        <time>2013-12-20T12:29:41.130Z</time>
      </trkpt>
      <trkpt lat="48.70706" lon="2.02218">
        <ele>204.8</ele>
        <time>2013-12-20T12:29:42.130Z</time>
      </trkpt>
      <trkpt lat="48.70709" lon="2.02206">
        <ele>203.7</ele>
        <time>2013-12-20T12:29:48.224Z</time>
      </trkpt>
      <trkpt lat="48.70709" lon="2.02204">
        <ele>203.5</ele>
        <time>2013-12-20T12:29:49.130Z</time>
      </trkpt>
      <trkpt lat="48.7071" lon="2.02193">
        <ele>202.7</ele>
        <time>2013-12-20T12:29:55.136Z</time>
      </trkpt>
      <trkpt lat="48.70711" lon="2.02191">
        <ele>202.5</ele>
        <time>2013-12-20T12:29:56.134Z</time>
      </trkpt>
      <trkpt lat="48.70712" lon="2.02178">
        <ele>202.2</ele>
        <time>2013-12-20T12:30:04.125Z</time>
      </trkpt>
      <trkpt lat="48.70711" lon="2.02176">
        <ele>202.3</ele>
        <time>2013-12-20T12:30:05.123Z</time>
      </trkpt>
      <trkpt lat="48.7071" lon="2.02163">
        <ele>203.2</ele>
        <time>2013-12-20T12:30:11.126Z</time>
      </trkpt>
      <trkpt lat="48.7071" lon="2.0216">
        <ele>203.4</ele>
        <time>2013-12-20T12:30:12.127Z</time>
      </trkpt>
      <trkpt lat="48.70708" lon="2.02148">
        <ele>204.6</ele>
        <time>2013-12-20T12:30:18.099Z</time>
      </trkpt>
      <trkpt lat="48.70708" lon="2.02145">
        <ele>204.8</ele>
        <time>2013-12-20T12:30:19.126Z</time>
      </trkpt>
      <trkpt lat="48.70707" lon="2.02133">
        <ele>204.7</ele>
        <time>2013-12-20T12:30:25.127Z</time>
      </trkpt>
      <trkpt lat="48.70707" lon="2.02131">
        <ele>204.8</ele>
        <time>2013-12-20T12:30:26.126Z</time>
      </trkpt>
      <trkpt lat="48.70706" lon="2.02119">
        <ele>205.2</ele>
        <time>2013-12-20T12:30:31.129Z</time>
      </trkpt>
      <trkpt lat="48.70705" lon="2.02117">
        <ele>205.3</ele>
        <time>2013-12-20T12:30:32.129Z</time>
      </trkpt>
      <trkpt lat="48.70705" lon="2.02104">
        <ele>205.9</ele>
        <time>2013-12-20T12:30:38.100Z</time>
      </trkpt>
      <trkpt lat="48.70705" lon="2.02102">
        <ele>205.8</ele>
        <time>2013-12-20T12:30:39.130Z</time>
      </trkpt>
      <trkpt lat="48.70705" lon="2.02089">
        <ele>205.6</ele>
        <time>2013-12-20T12:30:45.131Z</time>
      </trkpt>
      <trkpt lat="48.70704" lon="2.02087">
        <ele>205.6</ele>
        <time>2013-12-20T12:30:46.129Z</time>
      </trkpt>
      <trkpt lat="48.70703" lon="2.02075">
        <ele>206.3</ele>
        <time>2013-12-20T12:30:52.955Z</time>
      </trkpt>
      <trkpt lat="48.70703" lon="2.02072">
        <ele>206.4</ele>
        <time>2013-12-20T12:30:53.101Z</time>
      </trkpt>
      <trkpt lat="48.70701" lon="2.0206">
        <ele>206.6</ele>
        <time>2013-12-20T12:30:59.132Z</time>
      </trkpt>
      <trkpt lat="48.70701" lon="2.02059">
        <ele>206.7</ele>
        <time>2013-12-20T12:31:00.171Z</time>
      </trkpt>
      <trkpt lat="48.70702" lon="2.02047">
        <ele>207.1</ele>
        <time>2013-12-20T12:31:08.105Z</time>
      </trkpt>
      <trkpt lat="48.70702" lon="2.02044">
        <ele>207.1</ele>
        <time>2013-12-20T12:31:09.129Z</time>
      </trkpt>
      <trkpt lat="48.70702" lon="2.02031">
        <ele>206.7</ele>
        <time>2013-12-20T12:31:17.726Z</time>
      </trkpt>
      <trkpt lat="48.70702" lon="2.0203">
        <ele>206.6</ele>
        <time>2013-12-20T12:31:18.106Z</time>
      </trkpt>
      <trkpt lat="48.70703" lon="2.02016">
        <ele>205.7</ele>
        <time>2013-12-20T12:31:25.131Z</time>
      </trkpt>
      <trkpt lat="48.70703" lon="2.02014">
        <ele>205.6</ele>
        <time>2013-12-20T12:31:26.121Z</time>
      </trkpt>
      <trkpt lat="48.70703" lon="2.02002">
        <ele>205.4</ele>
        <time>2013-12-20T12:31:32.806Z</time>
      </trkpt>
      <trkpt lat="48.70704" lon="2.02">
        <ele>205.4</ele>
        <time>2013-12-20T12:31:33.093Z</time>
      </trkpt>
      <trkpt lat="48.70704" lon="2.01989">
        <ele>205.4</ele>
        <time>2013-12-20T12:31:42.860Z</time>
      </trkpt>
      <trkpt lat="48.70704" lon="2.01986">
        <ele>205.2</ele>
        <time>2013-12-20T12:31:43.082Z</time>
      </trkpt>
      <trkpt lat="48.70702" lon="2.01973">
        <ele>204.7</ele>
        <time>2013-12-20T12:31:50.118Z</time>
      </trkpt>
      <trkpt lat="48.70702" lon="2.01971">
        <ele>204.7</ele>
        <time>2013-12-20T12:31:51.153Z</time>
      </trkpt>
      <trkpt lat="48.70701" lon="2.0196">
        <ele>204.8</ele>
        <time>2013-12-20T12:31:57.959Z</time>
      </trkpt>
      <trkpt lat="48.70701" lon="2.01957">
        <ele>204.8</ele>
        <time>2013-12-20T12:31:58.149Z</time>
      </trkpt>
      <trkpt lat="48.70701" lon="2.01944">
        <ele>204.5</ele>
        <time>2013-12-20T12:32:04.120Z</time>
      </trkpt>
      <trkpt lat="48.70702" lon="2.01943">
        <ele>204.5</ele>
        <time>2013-12-20T12:32:05.186Z</time>
      </trkpt>
      <trkpt lat="48.70703" lon="2.01932">
        <ele>204.2</ele>
        <time>2013-12-20T12:32:10.110Z</time>
      </trkpt>
      <trkpt lat="48.70703" lon="2.01929">
        <ele>204.1</ele>
        <time>2013-12-20T12:32:11.119Z</time>
      </trkpt>
      <trkpt lat="48.70705" lon="2.01916">
        <ele>203.8</ele>
        <time>2013-12-20T12:32:19.112Z</time>
      </trkpt>
      <trkpt lat="48.70705" lon="2.01914">
        <ele>203.7</ele>
        <time>2013-12-20T12:32:20.127Z</time>
      </trkpt>
      <trkpt lat="48.70709" lon="2.01903">
        <ele>203.5</ele>
        <time>2013-12-20T12:32:27.775Z</time>
      </trkpt>
      <trkpt lat="48.7071" lon="2.01902">
        <ele>203.4</ele>
        <time>2013-12-20T12:32:28.081Z</time>
      </trkpt>
      <trkpt lat="48.70714" lon="2.01891">
        <ele>203.2</ele>
        <time>2013-12-20T12:32:34.127Z</time>
      </trkpt>
      <trkpt lat="48.70714" lon="2.01889">
        <ele>203.2</ele>
        <time>2013-12-20T12:32:35.128Z</time>
      </trkpt>
      <trkpt lat="48.70717" lon="2.01878">
        <ele>203.3</ele>
        <time>2013-12-20T12:32:41.114Z</time>
      </trkpt>
      <trkpt lat="48.70717" lon="2.01876">
        <ele>203.3</ele>
        <time>2013-12-20T12:32:42.118Z</time>
      </trkpt>
      <trkpt lat="48.7072" lon="2.01865">
        <ele>202.8</ele>
        <time>2013-12-20T12:32:49.113Z</time>
      </trkpt>
      <trkpt lat="48.70721" lon="2.01861">
        <ele>202.7</ele>
        <time>2013-12-20T12:32:50.112Z</time>
      </trkpt>
      <trkpt lat="48.70723" lon="2.01849">
        <ele>202.5</ele>
        <time>2013-12-20T12:32:54.128Z</time>
      </trkpt>
      <trkpt lat="48.70723" lon="2.01847">
        <ele>202.5</ele>
        <time>2013-12-20T12:32:55.125Z</time>
      </trkpt>
      <trkpt lat="48.70725" lon="2.01835">
        <ele>202.7</ele>
        <time>2013-12-20T12:33:04.113Z</time>
      </trkpt>
      <trkpt lat="48.70726" lon="2.01834">
        <ele>202.8</ele>
        <time>2013-12-20T12:33:05.111Z</time>
      </trkpt>
      <trkpt lat="48.70729" lon="2.01823">
        <ele>203.1</ele>
        <time>2013-12-20T12:33:11.110Z</time>
      </trkpt>
      <trkpt lat="48.7073" lon="2.0182">
        <ele>203.1</ele>
        <time>2013-12-20T12:33:12.112Z</time>
      </trkpt>
      <trkpt lat="48.70729" lon="2.01806">
        <ele>203.4</ele>
        <time>2013-12-20T12:33:18.088Z</time>
      </trkpt>
      <trkpt lat="48.70729" lon="2.01804">
        <ele>203.4</ele>
        <time>2013-12-20T12:33:19.119Z</time>
      </trkpt>
      <trkpt lat="48.70731" lon="2.01792">
        <ele>202.9</ele>
        <time>2013-12-20T12:33:24.130Z</time>
      </trkpt>
      <trkpt lat="48.70732" lon="2.01791">
        <ele>202.8</ele>
        <time>2013-12-20T12:33:25.130Z</time>
      </trkpt>
      <trkpt lat="48.70735" lon="2.01778">
        <ele>203.2</ele>
        <time>2013-12-20T12:33:31.098Z</time>
      </trkpt>
      <trkpt lat="48.70735" lon="2.01777">
        <ele>203.3</ele>
        <time>2013-12-20T12:33:32.100Z</time>
      </trkpt>
      <trkpt lat="48.70738" lon="2.01764">
        <ele>203</ele>
        <time>2013-12-20T12:33:40.099Z</time>
      </trkpt>
      <trkpt lat="48.70738" lon="2.01763">
        <ele>203.1</ele>
        <time>2013-12-20T12:33:41.102Z</time>
      </trkpt>
      <trkpt lat="48.7074" lon="2.0175">
        <ele>203.1</ele>
        <time>2013-12-20T12:33:47.884Z</time>
      </trkpt>
      <trkpt lat="48.7074" lon="2.01748">
        <ele>203.1</ele>
        <time>2013-12-20T12:33:48.062Z</time>
      </trkpt>
      <trkpt lat="48.70742" lon="2.01735">
        <ele>203.6</ele>
        <time>2013-12-20T12:33:56.123Z</time>
      </trkpt>
      <trkpt lat="48.70743" lon="2.01733">
        <ele>203.8</ele>
        <time>2013-12-20T12:33:57.050Z</time>
      </trkpt>
      <trkpt lat="48.70749" lon="2.01723">
        <ele>204.5</ele>
        <time>2013-12-20T12:34:05.131Z</time>
      </trkpt>
      <trkpt lat="48.7075" lon="2.01721">
        <ele>204.6</ele>
        <time>2013-12-20T12:34:06.126Z</time>
      </trkpt>
      <trkpt lat="48.70753" lon="2.01708">
        <ele>204.7</ele>
        <time>2013-12-20T12:34:12.687Z</time>
      </trkpt>
      <trkpt lat="48.70753" lon="2.01707">
        <ele>204.7</ele>
        <time>2013-12-20T12:34:13.094Z</time>
      </trkpt>
      <trkpt lat="48.70758" lon="2.01696">
        <ele>204.3</ele>
        <time>2013-12-20T12:34:19.125Z</time>
      </trkpt>
      <trkpt lat="48.70759" lon="2.01693">
        <ele>204.3</ele>
        <time>2013-12-20T12:34:20.125Z</time>
      </trkpt>
      <trkpt lat="48.70759" lon="2.01682">
        <ele>204.3</ele>
        <time>2013-12-20T12:34:27.754Z</time>
      </trkpt>
      <trkpt lat="48.70758" lon="2.0168">
        <ele>204.3</ele>
        <time>2013-12-20T12:34:28.077Z</time>
      </trkpt>
      <trkpt lat="48.7076" lon="2.01666">
        <ele>204.3</ele>
        <time>2013-12-20T12:34:34.124Z</time>
      </trkpt>
      <trkpt lat="48.70761" lon="2.01665">
        <ele>204.3</ele>
        <time>2013-12-20T12:34:35.122Z</time>
      </trkpt>
      <trkpt lat="48.70763" lon="2.01653">
        <ele>204.8</ele>
        <time>2013-12-20T12:34:41.124Z</time>
      </trkpt>
      <trkpt lat="48.70764" lon="2.0165">
        <ele>204.9</ele>
        <time>2013-12-20T12:34:42.123Z</time>
      </trkpt>
      <trkpt lat="48.70766" lon="2.01638">
        <ele>206.4</ele>
        <time>2013-12-20T12:34:50.122Z</time>
      </trkpt>
      <trkpt lat="48.70766" lon="2.01637">
        <ele>206.4</ele>
        <time>2013-12-20T12:34:51.122Z</time>
      </trkpt>
      <trkpt lat="48.70765" lon="2.01624">
        <ele>207.5</ele>
        <time>2013-12-20T12:35:01.118Z</time>
      </trkpt>
      <trkpt lat="48.70766" lon="2.01622">
        <ele>207.7</ele>
        <time>2013-12-20T12:35:02.122Z</time>
      </trkpt>
      <trkpt lat="48.7077" lon="2.01612">
        <ele>208.1</ele>
        <time>2013-12-20T12:35:07.653Z</time>
      </trkpt>
      <trkpt lat="48.70771" lon="2.0161">
        <ele>208.1</ele>
        <time>2013-12-20T12:35:08.085Z</time>
      </trkpt>
      <trkpt lat="48.70775" lon="2.01598">
        <ele>208</ele>
        <time>2013-12-20T12:35:16.129Z</time>
      </trkpt>
      <trkpt lat="48.70776" lon="2.01597">
        <ele>208.1</ele>
        <time>2013-12-20T12:35:17.130Z</time>
      </trkpt>
      <trkpt lat="48.70779" lon="2.01584">
        <ele>207.9</ele>
        <time>2013-12-20T12:35:23.089Z</time>
      </trkpt>
      <trkpt lat="48.70779" lon="2.01582">
        <ele>207.9</ele>
        <time>2013-12-20T12:35:24.137Z</time>
      </trkpt>
      <trkpt lat="48.70781" lon="2.01571">
        <ele>208.2</ele>
        <time>2013-12-20T12:35:32.788Z</time>
      </trkpt>
      <trkpt lat="48.70782" lon="2.01569">
        <ele>208.1</ele>
        <time>2013-12-20T12:35:33.082Z</time>
      </trkpt>
      <trkpt lat="48.70786" lon="2.01559">
        <ele>208</ele>
        <time>2013-12-20T12:35:38.101Z</time>
      </trkpt>
      <trkpt lat="48.70787" lon="2.01557">
        <ele>207.9</ele>
        <time>2013-12-20T12:35:39.133Z</time>
      </trkpt>
      <trkpt lat="48.7079" lon="2.01546">
        <ele>207.9</ele>
        <time>2013-12-20T12:35:46.132Z</time>
      </trkpt>
      <trkpt lat="48.7079" lon="2.01543">
        <ele>208.1</ele>
        <time>2013-12-20T12:35:47.130Z</time>
      </trkpt>
      <trkpt lat="48.70793" lon="2.01533">
        <ele>208.4</ele>
        <time>2013-12-20T12:35:51.133Z</time>
      </trkpt>
      <trkpt lat="48.70793" lon="2.0153">
        <ele>208.5</ele>
        <time>2013-12-20T12:35:52.213Z</time>
      </trkpt>
      <trkpt lat="48.70795" lon="2.01518">
        <ele>209.3</ele>
        <time>2013-12-20T12:35:58.085Z</time>
      </trkpt>
      <trkpt lat="48.70796" lon="2.01517">
        <ele>209.4</ele>
        <time>2013-12-20T12:35:59.129Z</time>
      </trkpt>
      <trkpt lat="48.70803" lon="2.0151">
        <ele>209.8</ele>
        <time>2013-12-20T12:36:05.135Z</time>
      </trkpt>
      <trkpt lat="48.70804" lon="2.01509">
        <ele>209.8</ele>
        <time>2013-12-20T12:36:06.132Z</time>
      </trkpt>
      <trkpt lat="48.70808" lon="2.01497">
        <ele>209.9</ele>
        <time>2013-12-20T12:36:14.136Z</time>
      </trkpt>
      <trkpt lat="48.70807" lon="2.01494">
        <ele>209.9</ele>
        <time>2013-12-20T12:36:15.140Z</time>
      </trkpt>
      <trkpt lat="48.70809" lon="2.01482">
        <ele>209.8</ele>
        <time>2013-12-20T12:36:20.133Z</time>
      </trkpt>
      <trkpt lat="48.7081" lon="2.0148">
        <ele>209.8</ele>
        <time>2013-12-20T12:36:21.136Z</time>
      </trkpt>
      <trkpt lat="48.70812" lon="2.01469">
        <ele>209.9</ele>
        <time>2013-12-20T12:36:26.135Z</time>
      </trkpt>
      <trkpt lat="48.70812" lon="2.01467">
        <ele>209.9</ele>
        <time>2013-12-20T12:36:27.201Z</time>
      </trkpt>
      <trkpt lat="48.70815" lon="2.01454">
        <ele>210.2</ele>
        <time>2013-12-20T12:36:34.133Z</time>
      </trkpt>
      <trkpt lat="48.70815" lon="2.01452">
        <ele>210.2</ele>
        <time>2013-12-20T12:36:35.133Z</time>
      </trkpt>
      <trkpt lat="48.70816" lon="2.01439">
        <ele>210.1</ele>
        <time>2013-12-20T12:36:41.134Z</time>
      </trkpt>
      <trkpt lat="48.70816" lon="2.01437">
        <ele>210</ele>
        <time>2013-12-20T12:36:42.134Z</time>
      </trkpt>
      <trkpt lat="48.70817" lon="2.01425">
        <ele>209.9</ele>
        <time>2013-12-20T12:36:48.097Z</time>
      </trkpt>
      <trkpt lat="48.70817" lon="2.01422">
        <ele>209.9</ele>
        <time>2013-12-20T12:36:49.133Z</time>
      </trkpt>
      <trkpt lat="48.7082" lon="2.0141">
        <ele>209.7</ele>
        <time>2013-12-20T12:36:56.142Z</time>
      </trkpt>
      <trkpt lat="48.7082" lon="2.01407">
        <ele>209.7</ele>
        <time>2013-12-20T12:36:57.076Z</time>
      </trkpt>
      <trkpt lat="48.70821" lon="2.01395">
        <ele>209.6</ele>
        <time>2013-12-20T12:37:02.136Z</time>
      </trkpt>
      <trkpt lat="48.70821" lon="2.01393">
        <ele>209.6</ele>
        <time>2013-12-20T12:37:03.197Z</time>
      </trkpt>
      <trkpt lat="48.70821" lon="2.0138">
        <ele>209.2</ele>
        <time>2013-12-20T12:37:09.130Z</time>
      </trkpt>
      <trkpt lat="48.70822" lon="2.01378">
        <ele>209.1</ele>
        <time>2013-12-20T12:37:10.133Z</time>
      </trkpt>
      <trkpt lat="48.70824" lon="2.01366">
        <ele>208.8</ele>
        <time>2013-12-20T12:37:17.717Z</time>
      </trkpt>
      <trkpt lat="48.70825" lon="2.01364">
        <ele>208.8</ele>
        <time>2013-12-20T12:37:18.102Z</time>
      </trkpt>
      <trkpt lat="48.70828" lon="2.01353">
        <ele>208.9</ele>
        <time>2013-12-20T12:37:23.089Z</time>
      </trkpt>
      <trkpt lat="48.70829" lon="2.0135">
        <ele>208.9</ele>
        <time>2013-12-20T12:37:24.133Z</time>
      </trkpt>
      <trkpt lat="48.70832" lon="2.0134">
        <ele>208.7</ele>
        <time>2013-12-20T12:37:31.132Z</time>
      </trkpt>
      <trkpt lat="48.70833" lon="2.01338">
        <ele>208.7</ele>
        <time>2013-12-20T12:37:32.133Z</time>
      </trkpt>
      <trkpt lat="48.70836" lon="2.01327">
        <ele>208.7</ele>
        <time>2013-12-20T12:37:39.098Z</time>
      </trkpt>
      <trkpt lat="48.70837" lon="2.01325">
        <ele>208.7</ele>
        <time>2013-12-20T12:37:40.085Z</time>
      </trkpt>
      <trkpt lat="48.7084" lon="2.01314">
        <ele>208.6</ele>
        <time>2013-12-20T12:37:49.134Z</time>
      </trkpt>
      <trkpt lat="48.7084" lon="2.01312">
        <ele>208.6</ele>
        <time>2013-12-20T12:37:50.133Z</time>
      </trkpt>
      <trkpt lat="48.70843" lon="2.01303">
        <ele>208.2</ele>
        <time>2013-12-20T12:37:54.144Z</time>
      </trkpt>
      <trkpt lat="48.70844" lon="2.013">
        <ele>208.1</ele>
        <time>2013-12-20T12:37:55.103Z</time>
      </trkpt>
      <trkpt lat="48.70846" lon="2.01288">
        <ele>207.9</ele>
        <time>2013-12-20T12:38:01.093Z</time>
      </trkpt>
      <trkpt lat="48.70846" lon="2.01286">
        <ele>207.8</ele>
        <time>2013-12-20T12:38:02.093Z</time>
      </trkpt>
      <trkpt lat="48.70848" lon="2.01274">
        <ele>207.5</ele>
        <time>2013-12-20T12:38:08.098Z</time>
      </trkpt>
      <trkpt lat="48.70848" lon="2.01272">
        <ele>207.3</ele>
        <time>2013-12-20T12:38:09.129Z</time>
      </trkpt>
      <trkpt lat="48.7085" lon="2.01261">
        <ele>206.1</ele>
        <time>2013-12-20T12:38:16.131Z</time>
      </trkpt>
      <trkpt lat="48.70851" lon="2.01258">
        <ele>206</ele>
        <time>2013-12-20T12:38:17.131Z</time>
      </trkpt>
      <trkpt lat="48.70855" lon="2.01247">
        <ele>205.9</ele>
        <time>2013-12-20T12:38:23.091Z</time>
      </trkpt>
      <trkpt lat="48.70855" lon="2.01244">
        <ele>206.1</ele>
        <time>2013-12-20T12:38:24.130Z</time>
      </trkpt>
      <trkpt lat="48.70858" lon="2.01231">
        <ele>206.5</ele>
        <time>2013-12-20T12:38:28.269Z</time>
      </trkpt>
      <trkpt lat="48.70859" lon="2.01229">
        <ele>206.6</ele>
        <time>2013-12-20T12:38:29.133Z</time>
      </trkpt>
      <trkpt lat="48.70864" lon="2.01219">
        <ele>207.1</ele>
        <time>2013-12-20T12:38:37.131Z</time>
      </trkpt>
      <trkpt lat="48.70864" lon="2.01218">
        <ele>207.3</ele>
        <time>2013-12-20T12:38:38.133Z</time>
      </trkpt>
      <trkpt lat="48.7087" lon="2.0121">
        <ele>207.5</ele>
        <time>2013-12-20T12:38:43.135Z</time>
      </trkpt>
      <trkpt lat="48.70871" lon="2.01208">
        <ele>207.5</ele>
        <time>2013-12-20T12:38:44.135Z</time>
      </trkpt>
      <trkpt lat="48.70875" lon="2.01198">
        <ele>207.4</ele>
        <time>2013-12-20T12:38:50.129Z</time>
      </trkpt>
      <trkpt lat="48.70876" lon="2.01196">
        <ele>207.4</ele>
        <time>2013-12-20T12:38:51.128Z</time>
      </trkpt>
      <trkpt lat="48.70879" lon="2.01185">
        <ele>207.1</ele>
        <time>2013-12-20T12:38:56.106Z</time>
      </trkpt>
      <trkpt lat="48.7088" lon="2.01183">
        <ele>207.2</ele>
        <time>2013-12-20T12:38:57.141Z</time>
      </trkpt>
      <trkpt lat="48.70883" lon="2.0117">
        <ele>207</ele>
        <time>2013-12-20T12:39:04.135Z</time>
      </trkpt>
      <trkpt lat="48.70883" lon="2.01168">
        <ele>206.9</ele>
        <time>2013-12-20T12:39:05.135Z</time>
      </trkpt>
      <trkpt lat="48.70886" lon="2.01156">
        <ele>206.8</ele>
        <time>2013-12-20T12:39:10.139Z</time>
      </trkpt>
      <trkpt lat="48.70886" lon="2.01154">
        <ele>206.7</ele>
        <time>2013-12-20T12:39:11.139Z</time>
      </trkpt>
      <trkpt lat="48.70889" lon="2.01142">
        <ele>206.1</ele>
        <time>2013-12-20T12:39:17.141Z</time>
      </trkpt>
      <trkpt lat="48.70889" lon="2.0114">
        <ele>206</ele>
        <time>2013-12-20T12:39:18.141Z</time>
      </trkpt>
      <trkpt lat="48.70892" lon="2.01128">
        <ele>205.7</ele>
        <time>2013-12-20T12:39:24.141Z</time>
      </trkpt>
      <trkpt lat="48.70893" lon="2.01126">
        <ele>205.7</ele>
        <time>2013-12-20T12:39:25.134Z</time>
      </trkpt>
      <trkpt lat="48.70897" lon="2.01115">
        <ele>205.4</ele>
        <time>2013-12-20T12:39:29.140Z</time>
      </trkpt>
      <trkpt lat="48.70898" lon="2.01113">
        <ele>205.3</ele>
        <time>2013-12-20T12:39:30.139Z</time>
      </trkpt>
      <trkpt lat="48.70901" lon="2.01102">
        <ele>204.7</ele>
        <time>2013-12-20T12:39:39.140Z</time>
      </trkpt>
      <trkpt lat="48.70902" lon="2.011">
        <ele>204.6</ele>
        <time>2013-12-20T12:39:40.137Z</time>
      </trkpt>
      <trkpt lat="48.70906" lon="2.01089">
        <ele>204.2</ele>
        <time>2013-12-20T12:39:47.133Z</time>
      </trkpt>
      <trkpt lat="48.70907" lon="2.01088">
        <ele>204.2</ele>
        <time>2013-12-20T12:39:48.133Z</time>
      </trkpt>
      <trkpt lat="48.70911" lon="2.01077">
        <ele>203.9</ele>
        <time>2013-12-20T12:39:55.136Z</time>
      </trkpt>
      <trkpt lat="48.70911" lon="2.01075">
        <ele>203.9</ele>
        <time>2013-12-20T12:39:56.139Z</time>
      </trkpt>
      <trkpt lat="48.70913" lon="2.01065">
        <ele>203.2</ele>
        <time>2013-12-20T12:40:01.133Z</time>
      </trkpt>
      <trkpt lat="48.70913" lon="2.01062">
        <ele>203.2</ele>
        <time>2013-12-20T12:40:02.134Z</time>
      </trkpt>
      <trkpt lat="48.70918" lon="2.01051">
        <ele>202.7</ele>
        <time>2013-12-20T12:40:09.065Z</time>
      </trkpt>
      <trkpt lat="48.70918" lon="2.01049">
        <ele>202.7</ele>
        <time>2013-12-20T12:40:10.127Z</time>
      </trkpt>
      <trkpt lat="48.7092" lon="2.01037">
        <ele>202.7</ele>
        <time>2013-12-20T12:40:14.139Z</time>
      </trkpt>
      <trkpt lat="48.70921" lon="2.01033">
        <ele>202.6</ele>
        <time>2013-12-20T12:40:15.125Z</time>
      </trkpt>
      <trkpt lat="48.70923" lon="2.01023">
        <ele>202.7</ele>
        <time>2013-12-20T12:40:18.100Z</time>
      </trkpt>
      <trkpt lat="48.70923" lon="2.01019">
        <ele>202.8</ele>
        <time>2013-12-20T12:40:19.138Z</time>
      </trkpt>
      <trkpt lat="48.70925" lon="2.01006">
        <ele>203.8</ele>
        <time>2013-12-20T12:40:26.127Z</time>
      </trkpt>
      <trkpt lat="48.70926" lon="2.01005">
        <ele>204</ele>
        <time>2013-12-20T12:40:27.132Z</time>
      </trkpt>
      <trkpt lat="48.70931" lon="2.00996">
        <ele>204.8</ele>
        <time>2013-12-20T12:40:32.126Z</time>
      </trkpt>
      <trkpt lat="48.70931" lon="2.00993">
        <ele>205</ele>
        <time>2013-12-20T12:40:33.115Z</time>
      </trkpt>
      <trkpt lat="48.70932" lon="2.00981">
        <ele>205.7</ele>
        <time>2013-12-20T12:40:37.065Z</time>
      </trkpt>
      <trkpt lat="48.70932" lon="2.00978">
        <ele>206</ele>
        <time>2013-12-20T12:40:38.179Z</time>
      </trkpt>
      <trkpt lat="48.70933" lon="2.00964">
        <ele>207.1</ele>
        <time>2013-12-20T12:40:45.135Z</time>
      </trkpt>
      <trkpt lat="48.70934" lon="2.00964">
        <ele>207.3</ele>
        <time>2013-12-20T12:40:46.137Z</time>
      </trkpt>
      <trkpt lat="48.70941" lon="2.00956">
        <ele>208.3</ele>
        <time>2013-12-20T12:40:53.310Z</time>
      </trkpt>
      <trkpt lat="48.70941" lon="2.00954">
        <ele>208.5</ele>
        <time>2013-12-20T12:40:54.143Z</time>
      </trkpt>
      <trkpt lat="48.70942" lon="2.00942">
        <ele>209.2</ele>
        <time>2013-12-20T12:40:59.131Z</time>
      </trkpt>
      <trkpt lat="48.70943" lon="2.0094">
        <ele>209.2</ele>
        <time>2013-12-20T12:41:00.209Z</time>
      </trkpt>
      <trkpt lat="48.70948" lon="2.00932">
        <ele>209.1</ele>
        <time>2013-12-20T12:41:09.136Z</time>
      </trkpt>
      <trkpt lat="48.70949" lon="2.0093">
        <ele>208.9</ele>
        <time>2013-12-20T12:41:10.137Z</time>
      </trkpt>
      <trkpt lat="48.70952" lon="2.00917">
        <ele>208.6</ele>
        <time>2013-12-20T12:41:14.139Z</time>
      </trkpt>
      <trkpt lat="48.70952" lon="2.00914">
        <ele>208.5</ele>
        <time>2013-12-20T12:41:15.140Z</time>
      </trkpt>
      <trkpt lat="48.70955" lon="2.00902">
        <ele>208.8</ele>
        <time>2013-12-20T12:41:21.138Z</time>
      </trkpt>
      <trkpt lat="48.70955" lon="2.00901">
        <ele>208.8</ele>
        <time>2013-12-20T12:41:22.141Z</time>
      </trkpt>
      <trkpt lat="48.70959" lon="2.00891">
        <ele>208.8</ele>
        <time>2013-12-20T12:41:30.139Z</time>
      </trkpt>
      <trkpt lat="48.7096" lon="2.00887">
        <ele>208.7</ele>
        <time>2013-12-20T12:41:31.139Z</time>
      </trkpt>
      <trkpt lat="48.70962" lon="2.00875">
        <ele>207.6</ele>
        <time>2013-12-20T12:41:38.237Z</time>
      </trkpt>
      <trkpt lat="48.70962" lon="2.00874">
        <ele>207.4</ele>
        <time>2013-12-20T12:41:39.138Z</time>
      </trkpt>
      <trkpt lat="48.70966" lon="2.00863">
        <ele>206.6</ele>
        <time>2013-12-20T12:41:45.122Z</time>
      </trkpt>
      <trkpt lat="48.70966" lon="2.0086">
        <ele>206.5</ele>
        <time>2013-12-20T12:41:46.124Z</time>
      </trkpt>
      <trkpt lat="48.70969" lon="2.00847">
        <ele>206.5</ele>
        <time>2013-12-20T12:41:51.196Z</time>
      </trkpt>
      <trkpt lat="48.7097" lon="2.00845">
        <ele>206.5</ele>
        <time>2013-12-20T12:41:52.121Z</time>
      </trkpt>
      <trkpt lat="48.70974" lon="2.00835">
        <ele>206.4</ele>
        <time>2013-12-20T12:41:57.889Z</time>
      </trkpt>
      <trkpt lat="48.70975" lon="2.00831">
        <ele>206.4</ele>
        <time>2013-12-20T12:41:58.077Z</time>
      </trkpt>
      <trkpt lat="48.70976" lon="2.00821">
        <ele>206.7</ele>
        <time>2013-12-20T12:42:01.214Z</time>
      </trkpt>
      <trkpt lat="48.70976" lon="2.00818">
        <ele>206.9</ele>
        <time>2013-12-20T12:42:02.138Z</time>
      </trkpt>
      <trkpt lat="48.70979" lon="2.00806">
        <ele>207.2</ele>
        <time>2013-12-20T12:42:06.126Z</time>
      </trkpt>
      <trkpt lat="48.70979" lon="2.00804">
        <ele>207.3</ele>
        <time>2013-12-20T12:42:07.123Z</time>
      </trkpt>
      <trkpt lat="48.70981" lon="2.00791">
        <ele>207.9</ele>
        <time>2013-12-20T12:42:14.127Z</time>
      </trkpt>
      <trkpt lat="48.70982" lon="2.0079">
        <ele>207.9</ele>
        <time>2013-12-20T12:42:15.091Z</time>
      </trkpt>
      <trkpt lat="48.70984" lon="2.00778">
        <ele>208.2</ele>
        <time>2013-12-20T12:42:20.127Z</time>
      </trkpt>
      <trkpt lat="48.70985" lon="2.00777">
        <ele>208.2</ele>
        <time>2013-12-20T12:42:21.132Z</time>
      </trkpt>
      <trkpt lat="48.7099" lon="2.00766">
        <ele>208.4</ele>
        <time>2013-12-20T12:42:31.132Z</time>
      </trkpt>
      <trkpt lat="48.7099" lon="2.00765">
        <ele>208.4</ele>
        <time>2013-12-20T12:42:32.134Z</time>
      </trkpt>
      <trkpt lat="48.70994" lon="2.00754">
        <ele>208.1</ele>
        <time>2013-12-20T12:42:38.081Z</time>
      </trkpt>
      <trkpt lat="48.70995" lon="2.00752">
        <ele>208.1</ele>
        <time>2013-12-20T12:42:39.123Z</time>
      </trkpt>
      <trkpt lat="48.70998" lon="2.0074">
        <ele>207.9</ele>
        <time>2013-12-20T12:42:45.121Z</time>
      </trkpt>
      <trkpt lat="48.70999" lon="2.00739">
        <ele>207.8</ele>
        <time>2013-12-20T12:42:46.119Z</time>
      </trkpt>
      <trkpt lat="48.71003" lon="2.00728">
        <ele>207.3</ele>
        <time>2013-12-20T12:42:54.118Z</time>
      </trkpt>
      <trkpt lat="48.71004" lon="2.00727">
        <ele>207.3</ele>
        <time>2013-12-20T12:42:55.131Z</time>
      </trkpt>
      <trkpt lat="48.71005" lon="2.00724">
        <ele>207.3</ele>
        <time>2013-12-20T12:43:00.218Z</time>
      </trkpt>
      <trkpt lat="48.71005" lon="2.00725">
        <ele>207.3</ele>
        <time>2013-12-20T12:43:01.135Z</time>
      </trkpt>
      <trkpt lat="48.71004" lon="2.00725">
        <ele>207.3</ele>
        <time>2013-12-20T12:43:03.110Z</time>
      </trkpt>
      <trkpt lat="48.71004" lon="2.00726">
        <ele>207.3</ele>
        <time>2013-12-20T12:43:03.292Z</time>
      </trkpt>
      <trkpt lat="48.71003" lon="2.00727">
        <ele>207.3</ele>
        <time>2013-12-20T12:43:07.664Z</time>
      </trkpt>
      <trkpt lat="48.71003" lon="2.00727">
        <ele>207.4</ele>
        <time>2013-12-20T12:43:08.123Z</time>
      </trkpt>
      <trkpt lat="48.71003" lon="2.00727">
        <ele>207.6</ele>
        <time>2013-12-20T12:43:13.048Z</time>
      </trkpt>
      <trkpt lat="48.71004" lon="2.00727">
        <ele>207.6</ele>
        <time>2013-12-20T12:43:14.135Z</time>
      </trkpt>
      <trkpt lat="48.7101" lon="2.00722">
        <ele>207.6</ele>
        <time>2013-12-20T12:43:23.106Z</time>
      </trkpt>
      <trkpt lat="48.7101" lon="2.00723">
        <ele>207.6</ele>
        <time>2013-12-20T12:43:24.130Z</time>
      </trkpt>
      <trkpt lat="48.71009" lon="2.00723">
        <ele>207.6</ele>
        <time>2013-12-20T12:43:25.124Z</time>
      </trkpt>
      <trkpt lat="48.71" lon="2.00723">
        <ele>207</ele>
        <time>2013-12-20T12:43:41.101Z</time>
      </trkpt>
      <trkpt lat="48.70999" lon="2.00723">
        <ele>207</ele>
        <time>2013-12-20T12:43:42.106Z</time>
      </trkpt>
      <trkpt lat="48.7099" lon="2.00721">
        <ele>207</ele>
        <time>2013-12-20T12:43:56.106Z</time>
      </trkpt>
      <trkpt lat="48.70989" lon="2.0072">
        <ele>207</ele>
        <time>2013-12-20T12:43:57.065Z</time>
      </trkpt>
      <trkpt lat="48.70984" lon="2.00711">
        <ele>207</ele>
        <time>2013-12-20T12:45:05.080Z</time>
      </trkpt>
      <trkpt lat="48.70983" lon="2.0071">
        <ele>207.1</ele>
        <time>2013-12-20T12:45:06.077Z</time>
      </trkpt>
      <trkpt lat="48.70975" lon="2.00705">
        <ele>207.3</ele>
        <time>2013-12-20T12:45:12.100Z</time>
      </trkpt>
      <trkpt lat="48.70974" lon="2.00704">
        <ele>207.4</ele>
        <time>2013-12-20T12:45:13.405Z</time>
      </trkpt>
      <trkpt lat="48.70967" lon="2.00696">
        <ele>207.5</ele>
        <time>2013-12-20T12:45:21.093Z</time>
      </trkpt>
      <trkpt lat="48.70966" lon="2.00695">
        <ele>207.4</ele>
        <time>2013-12-20T12:45:22.096Z</time>
      </trkpt>
      <trkpt lat="48.7096" lon="2.00685">
        <ele>206.8</ele>
        <time>2013-12-20T12:45:28.125Z</time>
      </trkpt>
      <trkpt lat="48.70959" lon="2.00684">
        <ele>206.7</ele>
        <time>2013-12-20T12:45:29.131Z</time>
      </trkpt>
      <trkpt lat="48.70953" lon="2.00676">
        <ele>206.1</ele>
        <time>2013-12-20T12:45:35.121Z</time>
      </trkpt>
      <trkpt lat="48.70952" lon="2.00674">
        <ele>206</ele>
        <time>2013-12-20T12:45:36.130Z</time>
      </trkpt>
      <trkpt lat="48.70946" lon="2.00667">
        <ele>205.6</ele>
        <time>2013-12-20T12:45:42.928Z</time>
      </trkpt>
      <trkpt lat="48.70945" lon="2.00666">
        <ele>205.5</ele>
        <time>2013-12-20T12:45:43.139Z</time>
      </trkpt>
      <trkpt lat="48.7094" lon="2.00656">
        <ele>205.2</ele>
        <time>2013-12-20T12:45:49.113Z</time>
      </trkpt>
      <trkpt lat="48.70939" lon="2.00655">
        <ele>205.3</ele>
        <time>2013-12-20T12:45:50.115Z</time>
      </trkpt>
      <trkpt lat="48.70934" lon="2.00646">
        <ele>205.6</ele>
        <time>2013-12-20T12:45:59.116Z</time>
      </trkpt>
      <trkpt lat="48.70934" lon="2.00643">
        <ele>205.5</ele>
        <time>2013-12-20T12:46:00.235Z</time>
      </trkpt>
      <trkpt lat="48.70931" lon="2.00633">
        <ele>205.4</ele>
        <time>2013-12-20T12:46:03.247Z</time>
      </trkpt>
      <trkpt lat="48.7093" lon="2.0063">
        <ele>205.4</ele>
        <time>2013-12-20T12:46:04.122Z</time>
      </trkpt>
      <trkpt lat="48.70927" lon="2.00619">
        <ele>205.8</ele>
        <time>2013-12-20T12:46:08.105Z</time>
      </trkpt>
      <trkpt lat="48.70926" lon="2.00617">
        <ele>205.9</ele>
        <time>2013-12-20T12:46:09.125Z</time>
      </trkpt>
      <trkpt lat="48.70925" lon="2.00605">
        <ele>206.1</ele>
        <time>2013-12-20T12:46:17.082Z</time>
      </trkpt>
      <trkpt lat="48.70925" lon="2.00604">
        <ele>206.2</ele>
        <time>2013-12-20T12:46:18.091Z</time>
      </trkpt>
      <trkpt lat="48.70922" lon="2.0059">
        <ele>206.6</ele>
        <time>2013-12-20T12:46:29.161Z</time>
      </trkpt>
      <trkpt lat="48.70922" lon="2.00589">
        <ele>206.8</ele>
        <time>2013-12-20T12:46:30.133Z</time>
      </trkpt>
      <trkpt lat="48.70917" lon="2.00578">
        <ele>207</ele>
        <time>2013-12-20T12:46:36.132Z</time>
      </trkpt>
      <trkpt lat="48.70916" lon="2.00577">
        <ele>207</ele>
        <time>2013-12-20T12:46:37.186Z</time>
      </trkpt>
      <trkpt lat="48.70911" lon="2.00567">
        <ele>206.9</ele>
        <time>2013-12-20T12:46:44.130Z</time>
      </trkpt>
      <trkpt lat="48.70909" lon="2.00563">
        <ele>206.9</ele>
        <time>2013-12-20T12:46:45.137Z</time>
      </trkpt>
      <trkpt lat="48.70906" lon="2.00551">
        <ele>206.7</ele>
        <time>2013-12-20T12:46:51.130Z</time>
      </trkpt>
      <trkpt lat="48.70906" lon="2.0055">
        <ele>206.8</ele>
        <time>2013-12-20T12:46:52.129Z</time>
      </trkpt>
      <trkpt lat="48.70903" lon="2.00538">
        <ele>207.1</ele>
        <time>2013-12-20T12:47:00.219Z</time>
      </trkpt>
      <trkpt lat="48.70902" lon="2.00537">
        <ele>207.2</ele>
        <time>2013-12-20T12:47:01.131Z</time>
      </trkpt>
      <trkpt lat="48.709" lon="2.00525">
        <ele>207</ele>
        <time>2013-12-20T12:47:06.106Z</time>
      </trkpt>
      <trkpt lat="48.70899" lon="2.00522">
        <ele>207</ele>
        <time>2013-12-20T12:47:07.098Z</time>
      </trkpt>
      <trkpt lat="48.70898" lon="2.0051">
        <ele>206.8</ele>
        <time>2013-12-20T12:47:12.760Z</time>
      </trkpt>
      <trkpt lat="48.70897" lon="2.00508">
        <ele>206.8</ele>
        <time>2013-12-20T12:47:13.086Z</time>
      </trkpt>
      <trkpt lat="48.70895" lon="2.00495">
        <ele>207.4</ele>
        <time>2013-12-20T12:47:22.818Z</time>
      </trkpt>
      <trkpt lat="48.70895" lon="2.00493">
        <ele>207.4</ele>
        <time>2013-12-20T12:47:23.081Z</time>
      </trkpt>
      <trkpt lat="48.70892" lon="2.00485">
        <ele>207.4</ele>
        <time>2013-12-20T12:47:27.842Z</time>
      </trkpt>
      <trkpt lat="48.70891" lon="2.00481">
        <ele>207.4</ele>
        <time>2013-12-20T12:47:29.134Z</time>
      </trkpt>
      <trkpt lat="48.70887" lon="2.0047">
        <ele>207.4</ele>
        <time>2013-12-20T12:47:32.877Z</time>
      </trkpt>
      <trkpt lat="48.70887" lon="2.00468">
        <ele>207.5</ele>
        <time>2013-12-20T12:47:33.081Z</time>
      </trkpt>
      <trkpt lat="48.70885" lon="2.00456">
        <ele>208.1</ele>
        <time>2013-12-20T12:47:38.063Z</time>
      </trkpt>
      <trkpt lat="48.70884" lon="2.00453">
        <ele>208.3</ele>
        <time>2013-12-20T12:47:39.128Z</time>
      </trkpt>
      <trkpt lat="48.70884" lon="2.00441">
        <ele>208.9</ele>
        <time>2013-12-20T12:47:44.136Z</time>
      </trkpt>
      <trkpt lat="48.70884" lon="2.00439">
        <ele>209</ele>
        <time>2013-12-20T12:47:45.122Z</time>
      </trkpt>
      <trkpt lat="48.70884" lon="2.00426">
        <ele>209.1</ele>
        <time>2013-12-20T12:47:53.121Z</time>
      </trkpt>
      <trkpt lat="48.70884" lon="2.00425">
        <ele>209.2</ele>
        <time>2013-12-20T12:47:54.127Z</time>
      </trkpt>
      <trkpt lat="48.70888" lon="2.00413">
        <ele>209.8</ele>
        <time>2013-12-20T12:48:04.147Z</time>
      </trkpt>
      <trkpt lat="48.70888" lon="2.00411">
        <ele>209.8</ele>
        <time>2013-12-20T12:48:05.250Z</time>
      </trkpt>
      <trkpt lat="48.7089" lon="2.004">
        <ele>209.6</ele>
        <time>2013-12-20T12:48:12.663Z</time>
      </trkpt>
      <trkpt lat="48.7089" lon="2.00397">
        <ele>209.6</ele>
        <time>2013-12-20T12:48:13.123Z</time>
      </trkpt>
      <trkpt lat="48.70891" lon="2.00385">
        <ele>208.5</ele>
        <time>2013-12-20T12:48:20.109Z</time>
      </trkpt>
      <trkpt lat="48.70892" lon="2.00383">
        <ele>208.3</ele>
        <time>2013-12-20T12:48:21.116Z</time>
      </trkpt>
      <trkpt lat="48.70896" lon="2.00372">
        <ele>207.1</ele>
        <time>2013-12-20T12:48:28.073Z</time>
      </trkpt>
      <trkpt lat="48.70897" lon="2.00371">
        <ele>207</ele>
        <time>2013-12-20T12:48:29.113Z</time>
      </trkpt>
      <trkpt lat="48.70899" lon="2.00359">
        <ele>206.2</ele>
        <time>2013-12-20T12:48:37.806Z</time>
      </trkpt>
      <trkpt lat="48.709" lon="2.00358">
        <ele>206.1</ele>
        <time>2013-12-20T12:48:38.065Z</time>
      </trkpt>
      <trkpt lat="48.70903" lon="2.00349">
        <ele>205.6</ele>
        <time>2013-12-20T12:48:43.068Z</time>
      </trkpt>
      <trkpt lat="48.70904" lon="2.00345">
        <ele>205.6</ele>
        <time>2013-12-20T12:48:44.116Z</time>
      </trkpt>
      <trkpt lat="48.70907" lon="2.00333">
        <ele>205.5</ele>
        <time>2013-12-20T12:48:50.128Z</time>
      </trkpt>
      <trkpt lat="48.70907" lon="2.00332">
        <ele>205.5</ele>
        <time>2013-12-20T12:48:51.125Z</time>
      </trkpt>
      <trkpt lat="48.7091" lon="2.00319">
        <ele>205.2</ele>
        <time>2013-12-20T12:48:58.075Z</time>
      </trkpt>
      <trkpt lat="48.7091" lon="2.00316">
        <ele>205</ele>
        <time>2013-12-20T12:48:59.124Z</time>
      </trkpt>
      <trkpt lat="48.70912" lon="2.00303">
        <ele>204.9</ele>
        <time>2013-12-20T12:49:05.127Z</time>
      </trkpt>
      <trkpt lat="48.70913" lon="2.00302">
        <ele>205.1</ele>
        <time>2013-12-20T12:49:06.237Z</time>
      </trkpt>
      <trkpt lat="48.70917" lon="2.0029">
        <ele>205.4</ele>
        <time>2013-12-20T12:49:14.105Z</time>
      </trkpt>
      <trkpt lat="48.70918" lon="2.00288">
        <ele>205.4</ele>
        <time>2013-12-20T12:49:15.103Z</time>
      </trkpt>
      <trkpt lat="48.70923" lon="2.00278">
        <ele>205.6</ele>
        <time>2013-12-20T12:49:20.105Z</time>
      </trkpt>
      <trkpt lat="48.70923" lon="2.00276">
        <ele>205.6</ele>
        <time>2013-12-20T12:49:21.107Z</time>
      </trkpt>
      <trkpt lat="48.70926" lon="2.00263">
        <ele>205.8</ele>
        <time>2013-12-20T12:49:25.103Z</time>
      </trkpt>
      <trkpt lat="48.70927" lon="2.00259">
        <ele>205.9</ele>
        <time>2013-12-20T12:49:26.103Z</time>
      </trkpt>
      <trkpt lat="48.70929" lon="2.00247">
        <ele>206.3</ele>
        <time>2013-12-20T12:49:30.103Z</time>
      </trkpt>
      <trkpt lat="48.7093" lon="2.00245">
        <ele>206.4</ele>
        <time>2013-12-20T12:49:31.108Z</time>
      </trkpt>
      <trkpt lat="48.70932" lon="2.00235">
        <ele>206.7</ele>
        <time>2013-12-20T12:49:39.121Z</time>
      </trkpt>
      <trkpt lat="48.70933" lon="2.00232">
        <ele>206.6</ele>
        <time>2013-12-20T12:49:40.113Z</time>
      </trkpt>
      <trkpt lat="48.70938" lon="2.00221">
        <ele>206.3</ele>
        <time>2013-12-20T12:49:46.127Z</time>
      </trkpt>
      <trkpt lat="48.70938" lon="2.00221">
        <ele>206.3</ele>
        <time>2013-12-20T12:49:47.124Z</time>
      </trkpt>
      <trkpt lat="48.70942" lon="2.0021">
        <ele>206.2</ele>
        <time>2013-12-20T12:49:54.114Z</time>
      </trkpt>
      <trkpt lat="48.70943" lon="2.00208">
        <ele>206.2</ele>
        <time>2013-12-20T12:49:55.084Z</time>
      </trkpt>
      <trkpt lat="48.70946" lon="2.00196">
        <ele>206.3</ele>
        <time>2013-12-20T12:50:00.227Z</time>
      </trkpt>
      <trkpt lat="48.70947" lon="2.00195">
        <ele>206.4</ele>
        <time>2013-12-20T12:50:01.113Z</time>
      </trkpt>
      <trkpt lat="48.7095" lon="2.00182">
        <ele>206.7</ele>
        <time>2013-12-20T12:50:11.113Z</time>
      </trkpt>
      <trkpt lat="48.70951" lon="2.0018">
        <ele>206.7</ele>
        <time>2013-12-20T12:50:12.125Z</time>
      </trkpt>
      <trkpt lat="48.70951" lon="2.00168">
        <ele>206.4</ele>
        <time>2013-12-20T12:50:17.676Z</time>
      </trkpt>
      <trkpt lat="48.70951" lon="2.00166">
        <ele>206.4</ele>
        <time>2013-12-20T12:50:18.097Z</time>
      </trkpt>
      <trkpt lat="48.70944" lon="2.00158">
        <ele>205.6</ele>
        <time>2013-12-20T12:50:32.751Z</time>
      </trkpt>
      <trkpt lat="48.70943" lon="2.00158">
        <ele>205.6</ele>
        <time>2013-12-20T12:50:33.093Z</time>
      </trkpt>
      <trkpt lat="48.70936" lon="2.00156">
        <ele>205.7</ele>
        <time>2013-12-20T12:50:38.087Z</time>
      </trkpt>
      <trkpt lat="48.70934" lon="2.00156">
        <ele>205.7</ele>
        <time>2013-12-20T12:50:39.125Z</time>
      </trkpt>
      <trkpt lat="48.70926" lon="2.00155">
        <ele>206.1</ele>
        <time>2013-12-20T12:50:44.216Z</time>
      </trkpt>
      <trkpt lat="48.70925" lon="2.00155">
        <ele>206.1</ele>
        <time>2013-12-20T12:50:45.134Z</time>
      </trkpt>
      <trkpt lat="48.70917" lon="2.00157">
        <ele>207.1</ele>
        <time>2013-12-20T12:50:51.142Z</time>
      </trkpt>
      <trkpt lat="48.70915" lon="2.00157">
        <ele>207.3</ele>
        <time>2013-12-20T12:50:52.131Z</time>
      </trkpt>
      <trkpt lat="48.70908" lon="2.00156">
        <ele>208.3</ele>
        <time>2013-12-20T12:50:56.133Z</time>
      </trkpt>
      <trkpt lat="48.70906" lon="2.00157">
        <ele>208.6</ele>
        <time>2013-12-20T12:50:57.123Z</time>
      </trkpt>
      <trkpt lat="48.70897" lon="2.00158">
        <ele>210</ele>
        <time>2013-12-20T12:51:02.123Z</time>
      </trkpt>
      <trkpt lat="48.70895" lon="2.00158">
        <ele>210.3</ele>
        <time>2013-12-20T12:51:03.212Z</time>
      </trkpt>
      <trkpt lat="48.70886" lon="2.00157">
        <ele>211.4</ele>
        <time>2013-12-20T12:51:09.163Z</time>
      </trkpt>
      <trkpt lat="48.70886" lon="2.00156">
        <ele>211.5</ele>
        <time>2013-12-20T12:51:10.127Z</time>
      </trkpt>
      <trkpt lat="48.7088" lon="2.00146">
        <ele>212</ele>
        <time>2013-12-20T12:51:21.072Z</time>
      </trkpt>
      <trkpt lat="48.70879" lon="2.00145">
        <ele>212</ele>
        <time>2013-12-20T12:51:22.103Z</time>
      </trkpt>
      <trkpt lat="48.70874" lon="2.00136">
        <ele>212.1</ele>
        <time>2013-12-20T12:51:27.105Z</time>
      </trkpt>
      <trkpt lat="48.70873" lon="2.00134">
        <ele>212.1</ele>
        <time>2013-12-20T12:51:28.109Z</time>
      </trkpt>
      <trkpt lat="48.70869" lon="2.00124">
        <ele>212.4</ele>
        <time>2013-12-20T12:51:33.398Z</time>
      </trkpt>
      <trkpt lat="48.70868" lon="2.00121">
        <ele>212.4</ele>
        <time>2013-12-20T12:51:34.105Z</time>
      </trkpt>
      <trkpt lat="48.70868" lon="2.0011">
        <ele>212.8</ele>
        <time>2013-12-20T12:51:37.110Z</time>
      </trkpt>
      <trkpt lat="48.70868" lon="2.00106">
        <ele>212.9</ele>
        <time>2013-12-20T12:51:38.111Z</time>
      </trkpt>
      <trkpt lat="48.70869" lon="2.00093">
        <ele>213.3</ele>
        <time>2013-12-20T12:51:41.109Z</time>
      </trkpt>
      <trkpt lat="48.7087" lon="2.00089">
        <ele>213.2</ele>
        <time>2013-12-20T12:51:42.128Z</time>
      </trkpt>
      <trkpt lat="48.70876" lon="2.0008">
        <ele>213.1</ele>
        <time>2013-12-20T12:51:49.114Z</time>
      </trkpt>
      <trkpt lat="48.70876" lon="2.00079">
        <ele>213.2</ele>
        <time>2013-12-20T12:51:50.115Z</time>
      </trkpt>
      <trkpt lat="48.70883" lon="2.0007">
        <ele>213.4</ele>
        <time>2013-12-20T12:51:56.112Z</time>
      </trkpt>
      <trkpt lat="48.70884" lon="2.00069">
        <ele>213.4</ele>
        <time>2013-12-20T12:51:57.111Z</time>
      </trkpt>
      <trkpt lat="48.70889" lon="2.00062">
        <ele>214</ele>
        <time>2013-12-20T12:52:02.108Z</time>
      </trkpt>
      <trkpt lat="48.70891" lon="2.0006">
        <ele>214.2</ele>
        <time>2013-12-20T12:52:03.111Z</time>
      </trkpt>
      <trkpt lat="48.70898" lon="2.00053">
        <ele>214.3</ele>
        <time>2013-12-20T12:52:09.115Z</time>
      </trkpt>
      <trkpt lat="48.70899" lon="2.00052">
        <ele>214.3</ele>
        <time>2013-12-20T12:52:10.112Z</time>
      </trkpt>
      <trkpt lat="48.70906" lon="2.00045">
        <ele>214</ele>
        <time>2013-12-20T12:52:19.112Z</time>
      </trkpt>
      <trkpt lat="48.70908" lon="2.00044">
        <ele>214</ele>
        <time>2013-12-20T12:52:20.119Z</time>
      </trkpt>
      <trkpt lat="48.70915" lon="2.00039">
        <ele>213.5</ele>
        <time>2013-12-20T12:52:25.125Z</time>
      </trkpt>
      <trkpt lat="48.70916" lon="2.00038">
        <ele>213.4</ele>
        <time>2013-12-20T12:52:26.120Z</time>
      </trkpt>
      <trkpt lat="48.70919" lon="2.00026">
        <ele>213.2</ele>
        <time>2013-12-20T12:52:38.022Z</time>
      </trkpt>
      <trkpt lat="48.70919" lon="2.00024">
        <ele>213.4</ele>
        <time>2013-12-20T12:52:38.085Z</time>
      </trkpt>
      <trkpt lat="48.70921" lon="2.00012">
        <ele>214.4</ele>
        <time>2013-12-20T12:52:46.069Z</time>
      </trkpt>
      <trkpt lat="48.70921" lon="2.00011">
        <ele>214.4</ele>
        <time>2013-12-20T12:52:47.073Z</time>
      </trkpt>
      <trkpt lat="48.70927" lon="2.00002">
        <ele>213.9</ele>
        <time>2013-12-20T12:52:54.053Z</time>
      </trkpt>
      <trkpt lat="48.70928" lon="2.00001">
        <ele>213.9</ele>
        <time>2013-12-20T12:52:55.078Z</time>
      </trkpt>
      <trkpt lat="48.70935" lon="1.99993">
        <ele>213.4</ele>
        <time>2013-12-20T12:53:02.047Z</time>
      </trkpt>
      <trkpt lat="48.70935" lon="1.99992">
        <ele>213.3</ele>
        <time>2013-12-20T12:53:03.051Z</time>
      </trkpt>
      <trkpt lat="48.70942" lon="1.99985">
        <ele>212.5</ele>
        <time>2013-12-20T12:53:12.639Z</time>
      </trkpt>
      <trkpt lat="48.70943" lon="1.99985">
        <ele>212.3</ele>
        <time>2013-12-20T12:53:13.061Z</time>
      </trkpt>
      <trkpt lat="48.70948" lon="1.99974">
        <ele>211.4</ele>
        <time>2013-12-20T12:53:23.069Z</time>
      </trkpt>
      <trkpt lat="48.70949" lon="1.99973">
        <ele>211.2</ele>
        <time>2013-12-20T12:53:24.046Z</time>
      </trkpt>
      <trkpt lat="48.70954" lon="1.99964">
        <ele>210.3</ele>
        <time>2013-12-20T12:53:33.042Z</time>
      </trkpt>
      <trkpt lat="48.70955" lon="1.99962">
        <ele>210.3</ele>
        <time>2013-12-20T12:53:34.053Z</time>
      </trkpt>
      <trkpt lat="48.7096" lon="1.99952">
        <ele>210.8</ele>
        <time>2013-12-20T12:53:41.062Z</time>
      </trkpt>
      <trkpt lat="48.70961" lon="1.9995">
        <ele>210.9</ele>
        <time>2013-12-20T12:53:42.071Z</time>
      </trkpt>
      <trkpt lat="48.70968" lon="1.99942">
        <ele>211.4</ele>
        <time>2013-12-20T12:53:51.069Z</time>
      </trkpt>
      <trkpt lat="48.70968" lon="1.9994">
        <ele>211.5</ele>
        <time>2013-12-20T12:53:52.068Z</time>
      </trkpt>
      <trkpt lat="48.70973" lon="1.99929">
        <ele>211.7</ele>
        <time>2013-12-20T12:54:00.083Z</time>
      </trkpt>
      <trkpt lat="48.70973" lon="1.99928">
        <ele>211.7</ele>
        <time>2013-12-20T12:54:01.057Z</time>
      </trkpt>
      <trkpt lat="48.70978" lon="1.99917">
        <ele>212.8</ele>
        <time>2013-12-20T12:54:13.077Z</time>
      </trkpt>
      <trkpt lat="48.70979" lon="1.99916">
        <ele>212.8</ele>
        <time>2013-12-20T12:54:14.065Z</time>
      </trkpt>
      <trkpt lat="48.70986" lon="1.99911">
        <ele>212.3</ele>
        <time>2013-12-20T12:54:25.252Z</time>
      </trkpt>
      <trkpt lat="48.70986" lon="1.99909">
        <ele>212.2</ele>
        <time>2013-12-20T12:54:26.064Z</time>
      </trkpt>
      <trkpt lat="48.70992" lon="1.99899">
        <ele>211</ele>
        <time>2013-12-20T12:54:33.093Z</time>
      </trkpt>
      <trkpt lat="48.70992" lon="1.99897">
        <ele>210.9</ele>
        <time>2013-12-20T12:54:34.048Z</time>
      </trkpt>
      <trkpt lat="48.70996" lon="1.99887">
        <ele>210.1</ele>
        <time>2013-12-20T12:54:38.043Z</time>
      </trkpt>
      <trkpt lat="48.70998" lon="1.99884">
        <ele>210</ele>
        <time>2013-12-20T12:54:39.048Z</time>
      </trkpt>
      <trkpt lat="48.71002" lon="1.99876">
        <ele>209.3</ele>
        <time>2013-12-20T12:54:43.055Z</time>
      </trkpt>
      <trkpt lat="48.71003" lon="1.99874">
        <ele>209.2</ele>
        <time>2013-12-20T12:54:44.108Z</time>
      </trkpt>
      <trkpt lat="48.7101" lon="1.99867">
        <ele>208.4</ele>
        <time>2013-12-20T12:54:50.102Z</time>
      </trkpt>
      <trkpt lat="48.71011" lon="1.99866">
        <ele>208.2</ele>
        <time>2013-12-20T12:54:51.106Z</time>
      </trkpt>
      <trkpt lat="48.71019" lon="1.99864">
        <ele>207.8</ele>
        <time>2013-12-20T12:55:00.163Z</time>
      </trkpt>
      <trkpt lat="48.7102" lon="1.99863">
        <ele>207.8</ele>
        <time>2013-12-20T12:55:01.107Z</time>
      </trkpt>
      <trkpt lat="48.71026" lon="1.99856">
        <ele>207.4</ele>
        <time>2013-12-20T12:55:06.107Z</time>
      </trkpt>
      <trkpt lat="48.71027" lon="1.99854">
        <ele>207</ele>
        <time>2013-12-20T12:55:07.108Z</time>
      </trkpt>
      <trkpt lat="48.71033" lon="1.99845">
        <ele>206.4</ele>
        <time>2013-12-20T12:55:12.664Z</time>
      </trkpt>
      <trkpt lat="48.71034" lon="1.99844">
        <ele>206.3</ele>
        <time>2013-12-20T12:55:13.267Z</time>
      </trkpt>
      <trkpt lat="48.71041" lon="1.99837">
        <ele>205.9</ele>
        <time>2013-12-20T12:55:19.121Z</time>
      </trkpt>
      <trkpt lat="48.71042" lon="1.99836">
        <ele>206</ele>
        <time>2013-12-20T12:55:20.119Z</time>
      </trkpt>
      <trkpt lat="48.71047" lon="1.99826">
        <ele>205.8</ele>
        <time>2013-12-20T12:55:28.224Z</time>
      </trkpt>
      <trkpt lat="48.71049" lon="1.99824">
        <ele>205.8</ele>
        <time>2013-12-20T12:55:29.114Z</time>
      </trkpt>
      <trkpt lat="48.71054" lon="1.99815">
        <ele>205.8</ele>
        <time>2013-12-20T12:55:33.066Z</time>
      </trkpt>
      <trkpt lat="48.71055" lon="1.99814">
        <ele>206</ele>
        <time>2013-12-20T12:55:34.111Z</time>
      </trkpt>
      <trkpt lat="48.71059" lon="1.99803">
        <ele>206</ele>
        <time>2013-12-20T12:55:39.111Z</time>
      </trkpt>
      <trkpt lat="48.7106" lon="1.99801">
        <ele>206.1</ele>
        <time>2013-12-20T12:55:40.114Z</time>
      </trkpt>
      <trkpt lat="48.71065" lon="1.99791">
        <ele>205.9</ele>
        <time>2013-12-20T12:55:46.110Z</time>
      </trkpt>
      <trkpt lat="48.71066" lon="1.99788">
        <ele>205.9</ele>
        <time>2013-12-20T12:55:47.110Z</time>
      </trkpt>
      <trkpt lat="48.7107" lon="1.99778">
        <ele>205.6</ele>
        <time>2013-12-20T12:55:55.099Z</time>
      </trkpt>
      <trkpt lat="48.71071" lon="1.99777">
        <ele>205.6</ele>
        <time>2013-12-20T12:55:56.101Z</time>
      </trkpt>
      <trkpt lat="48.71076" lon="1.99766">
        <ele>205.7</ele>
        <time>2013-12-20T12:56:01.102Z</time>
      </trkpt>
      <trkpt lat="48.71077" lon="1.99764">
        <ele>205.8</ele>
        <time>2013-12-20T12:56:02.097Z</time>
      </trkpt>
      <trkpt lat="48.71084" lon="1.99757">
        <ele>206</ele>
        <time>2013-12-20T12:56:07.675Z</time>
      </trkpt>
      <trkpt lat="48.71085" lon="1.99755">
        <ele>206.1</ele>
        <time>2013-12-20T12:56:08.077Z</time>
      </trkpt>
      <trkpt lat="48.7109" lon="1.99746">
        <ele>206.9</ele>
        <time>2013-12-20T12:56:14.179Z</time>
      </trkpt>
      <trkpt lat="48.71091" lon="1.99745">
        <ele>207</ele>
        <time>2013-12-20T12:56:15.098Z</time>
      </trkpt>
      <trkpt lat="48.71096" lon="1.99735">
        <ele>206.4</ele>
        <time>2013-12-20T12:56:23.063Z</time>
      </trkpt>
      <trkpt lat="48.71097" lon="1.99733">
        <ele>206.3</ele>
        <time>2013-12-20T12:56:24.109Z</time>
      </trkpt>
      <trkpt lat="48.71102" lon="1.99723">
        <ele>205.6</ele>
        <time>2013-12-20T12:56:30.110Z</time>
      </trkpt>
      <trkpt lat="48.71103" lon="1.99721">
        <ele>205.6</ele>
        <time>2013-12-20T12:56:31.110Z</time>
      </trkpt>
      <trkpt lat="48.71108" lon="1.99712">
        <ele>205.3</ele>
        <time>2013-12-20T12:56:39.107Z</time>
      </trkpt>
      <trkpt lat="48.71109" lon="1.99711">
        <ele>205.3</ele>
        <time>2013-12-20T12:56:40.108Z</time>
      </trkpt>
      <trkpt lat="48.71113" lon="1.99701">
        <ele>204.8</ele>
        <time>2013-12-20T12:56:48.122Z</time>
      </trkpt>
      <trkpt lat="48.71114" lon="1.997">
        <ele>204.8</ele>
        <time>2013-12-20T12:56:49.103Z</time>
      </trkpt>
      <trkpt lat="48.71119" lon="1.99692">
        <ele>204.2</ele>
        <time>2013-12-20T12:56:56.108Z</time>
      </trkpt>
      <trkpt lat="48.71121" lon="1.99691">
        <ele>204.1</ele>
        <time>2013-12-20T12:56:57.106Z</time>
      </trkpt>
      <trkpt lat="48.71127" lon="1.99683">
        <ele>204.6</ele>
        <time>2013-12-20T12:57:02.103Z</time>
      </trkpt>
      <trkpt lat="48.71128" lon="1.99681">
        <ele>204.8</ele>
        <time>2013-12-20T12:57:03.106Z</time>
      </trkpt>
      <trkpt lat="48.71133" lon="1.99671">
        <ele>205.9</ele>
        <time>2013-12-20T12:57:07.674Z</time>
      </trkpt>
      <trkpt lat="48.71135" lon="1.99669">
        <ele>206.3</ele>
        <time>2013-12-20T12:57:08.072Z</time>
      </trkpt>
      <trkpt lat="48.7114" lon="1.99661">
        <ele>207.4</ele>
        <time>2013-12-20T12:57:12.713Z</time>
      </trkpt>
      <trkpt lat="48.71142" lon="1.99659">
        <ele>207.7</ele>
        <time>2013-12-20T12:57:13.065Z</time>
      </trkpt>
      <trkpt lat="48.71148" lon="1.9965">
        <ele>209.3</ele>
        <time>2013-12-20T12:57:18.072Z</time>
      </trkpt>
      <trkpt lat="48.71149" lon="1.99648">
        <ele>209.6</ele>
        <time>2013-12-20T12:57:19.115Z</time>
      </trkpt>
      <trkpt lat="48.71157" lon="1.99644">
        <ele>211.2</ele>
        <time>2013-12-20T12:57:25.108Z</time>
      </trkpt>
      <trkpt lat="48.71159" lon="1.99644">
        <ele>211.4</ele>
        <time>2013-12-20T12:57:26.108Z</time>
      </trkpt>
      <trkpt lat="48.71167" lon="1.99637">
        <ele>213</ele>
        <time>2013-12-20T12:57:36.108Z</time>
      </trkpt>
      <trkpt lat="48.71167" lon="1.99636">
        <ele>213</ele>
        <time>2013-12-20T12:57:37.114Z</time>
      </trkpt>
      <trkpt lat="48.71167" lon="1.99633">
        <ele>213.2</ele>
        <time>2013-12-20T12:57:41.107Z</time>
      </trkpt>
      <trkpt lat="48.71167" lon="1.99634">
        <ele>213.2</ele>
        <time>2013-12-20T12:57:42.111Z</time>
      </trkpt>
      <trkpt lat="48.71167" lon="1.99635">
        <ele>213.2</ele>
        <time>2013-12-20T12:57:43.068Z</time>
      </trkpt>
      <trkpt lat="48.71166" lon="1.99636">
        <ele>213.1</ele>
        <time>2013-12-20T12:57:44.107Z</time>
      </trkpt>
      <trkpt lat="48.71174" lon="1.99631">
        <ele>212</ele>
        <time>2013-12-20T12:57:58.065Z</time>
      </trkpt>
      <trkpt lat="48.71175" lon="1.9963">
        <ele>211.9</ele>
        <time>2013-12-20T12:57:58.202Z</time>
      </trkpt>
      <trkpt lat="48.71181" lon="1.9962">
        <ele>210.5</ele>
        <time>2013-12-20T12:58:07.669Z</time>
      </trkpt>
      <trkpt lat="48.71182" lon="1.99618">
        <ele>210.4</ele>
        <time>2013-12-20T12:58:08.082Z</time>
      </trkpt>
      <trkpt lat="48.71188" lon="1.99609">
        <ele>209.6</ele>
        <time>2013-12-20T12:58:13.068Z</time>
      </trkpt>
      <trkpt lat="48.71189" lon="1.99607">
        <ele>209.4</ele>
        <time>2013-12-20T12:58:14.109Z</time>
      </trkpt>
      <trkpt lat="48.71192" lon="1.99597">
        <ele>208.7</ele>
        <time>2013-12-20T12:58:21.120Z</time>
      </trkpt>
      <trkpt lat="48.71194" lon="1.99595">
        <ele>208.8</ele>
        <time>2013-12-20T12:58:22.058Z</time>
      </trkpt>
      <trkpt lat="48.71198" lon="1.99585">
        <ele>209.5</ele>
        <time>2013-12-20T12:58:25.107Z</time>
      </trkpt>
      <trkpt lat="48.712" lon="1.99581">
        <ele>209.7</ele>
        <time>2013-12-20T12:58:26.104Z</time>
      </trkpt>
      <trkpt lat="48.71206" lon="1.99572">
        <ele>210.1</ele>
        <time>2013-12-20T12:58:30.104Z</time>
      </trkpt>
      <trkpt lat="48.71207" lon="1.99571">
        <ele>210.2</ele>
        <time>2013-12-20T12:58:31.107Z</time>
      </trkpt>
      <trkpt lat="48.71214" lon="1.99564">
        <ele>210.9</ele>
        <time>2013-12-20T12:58:36.116Z</time>
      </trkpt>
      <trkpt lat="48.71216" lon="1.99562">
        <ele>211.1</ele>
        <time>2013-12-20T12:58:37.115Z</time>
      </trkpt>
      <trkpt lat="48.71224" lon="1.9956">
        <ele>211.7</ele>
        <time>2013-12-20T12:58:43.126Z</time>
      </trkpt>
      <trkpt lat="48.71225" lon="1.99559">
        <ele>211.8</ele>
        <time>2013-12-20T12:58:44.115Z</time>
      </trkpt>
      <trkpt lat="48.71232" lon="1.99553">
        <ele>211.5</ele>
        <time>2013-12-20T12:58:53.123Z</time>
      </trkpt>
      <trkpt lat="48.71233" lon="1.99552">
        <ele>211.5</ele>
        <time>2013-12-20T12:58:54.083Z</time>
      </trkpt>
      <trkpt lat="48.7124" lon="1.99546">
        <ele>210.5</ele>
        <time>2013-12-20T12:59:03.278Z</time>
      </trkpt>
      <trkpt lat="48.71241" lon="1.99545">
        <ele>210.3</ele>
        <time>2013-12-20T12:59:04.120Z</time>
      </trkpt>
      <trkpt lat="48.71248" lon="1.9954">
        <ele>209.8</ele>
        <time>2013-12-20T12:59:07.671Z</time>
      </trkpt>
      <trkpt lat="48.7125" lon="1.99539">
        <ele>209.6</ele>
        <time>2013-12-20T12:59:08.118Z</time>
      </trkpt>
      <trkpt lat="48.71257" lon="1.99532">
        <ele>208.9</ele>
        <time>2013-12-20T12:59:14.121Z</time>
      </trkpt>
      <trkpt lat="48.71258" lon="1.99531">
        <ele>208.9</ele>
        <time>2013-12-20T12:59:15.120Z</time>
      </trkpt>
      <trkpt lat="48.71265" lon="1.99525">
        <ele>209.5</ele>
        <time>2013-12-20T12:59:23.070Z</time>
      </trkpt>
      <trkpt lat="48.71266" lon="1.99524">
        <ele>209.6</ele>
        <time>2013-12-20T12:59:24.107Z</time>
      </trkpt>
      <trkpt lat="48.71272" lon="1.99519">
        <ele>210.2</ele>
        <time>2013-12-20T12:59:28.105Z</time>
      </trkpt>
      <trkpt lat="48.71274" lon="1.99518">
        <ele>210.4</ele>
        <time>2013-12-20T12:59:29.114Z</time>
      </trkpt>
      <trkpt lat="48.71281" lon="1.99512">
        <ele>211.4</ele>
        <time>2013-12-20T12:59:35.109Z</time>
      </trkpt>
      <trkpt lat="48.71283" lon="1.99511">
        <ele>211.5</ele>
        <time>2013-12-20T12:59:36.117Z</time>
      </trkpt>
      <trkpt lat="48.71291" lon="1.99506">
        <ele>212</ele>
        <time>2013-12-20T12:59:43.330Z</time>
      </trkpt>
      <trkpt lat="48.71292" lon="1.99505">
        <ele>212.1</ele>
        <time>2013-12-20T12:59:44.055Z</time>
      </trkpt>
      <trkpt lat="48.713" lon="1.99501">
        <ele>212.5</ele>
        <time>2013-12-20T12:59:50.108Z</time>
      </trkpt>
      <trkpt lat="48.71301" lon="1.995">
        <ele>212.6</ele>
        <time>2013-12-20T12:59:51.108Z</time>
      </trkpt>
      <trkpt lat="48.71309" lon="1.99496">
        <ele>212.9</ele>
        <time>2013-12-20T12:59:57.120Z</time>
      </trkpt>
      <trkpt lat="48.7131" lon="1.99495">
        <ele>213</ele>
        <time>2013-12-20T12:59:58.228Z</time>
      </trkpt>
      <trkpt lat="48.71318" lon="1.99492">
        <ele>213.1</ele>
        <time>2013-12-20T13:00:03.262Z</time>
      </trkpt>
      <trkpt lat="48.71319" lon="1.99491">
        <ele>213.1</ele>
        <time>2013-12-20T13:00:04.108Z</time>
      </trkpt>
      <trkpt lat="48.71328" lon="1.99487">
        <ele>213.8</ele>
        <time>2013-12-20T13:00:13.136Z</time>
      </trkpt>
      <trkpt lat="48.71329" lon="1.99486">
        <ele>213.9</ele>
        <time>2013-12-20T13:00:14.111Z</time>
      </trkpt>
      <trkpt lat="48.71336" lon="1.99483">
        <ele>214</ele>
        <time>2013-12-20T13:00:18.071Z</time>
      </trkpt>
      <trkpt lat="48.71338" lon="1.99482">
        <ele>213.9</ele>
        <time>2013-12-20T13:00:19.116Z</time>
      </trkpt>
      <trkpt lat="48.71346" lon="1.99478">
        <ele>214</ele>
        <time>2013-12-20T13:00:26.140Z</time>
      </trkpt>
      <trkpt lat="48.71347" lon="1.99477">
        <ele>214.1</ele>
        <time>2013-12-20T13:00:27.121Z</time>
      </trkpt>
      <trkpt lat="48.71355" lon="1.99473">
        <ele>214.4</ele>
        <time>2013-12-20T13:00:32.828Z</time>
      </trkpt>
      <trkpt lat="48.71357" lon="1.99473">
        <ele>214.5</ele>
        <time>2013-12-20T13:00:33.085Z</time>
      </trkpt>
      <trkpt lat="48.71365" lon="1.99469">
        <ele>215.1</ele>
        <time>2013-12-20T13:00:44.119Z</time>
      </trkpt>
      <trkpt lat="48.71366" lon="1.99468">
        <ele>215.1</ele>
        <time>2013-12-20T13:00:45.114Z</time>
      </trkpt>
      <trkpt lat="48.71373" lon="1.99465">
        <ele>215</ele>
        <time>2013-12-20T13:00:48.268Z</time>
      </trkpt>
      <trkpt lat="48.71376" lon="1.99464">
        <ele>215</ele>
        <time>2013-12-20T13:00:49.120Z</time>
      </trkpt>
      <trkpt lat="48.71384" lon="1.99459">
        <ele>214.9</ele>
        <time>2013-12-20T13:00:53.310Z</time>
      </trkpt>
      <trkpt lat="48.71385" lon="1.99458">
        <ele>214.9</ele>
        <time>2013-12-20T13:00:54.135Z</time>
      </trkpt>
      <trkpt lat="48.71393" lon="1.99455">
        <ele>214.5</ele>
        <time>2013-12-20T13:01:00.198Z</time>
      </trkpt>
      <trkpt lat="48.71394" lon="1.99454">
        <ele>214.4</ele>
        <time>2013-12-20T13:01:01.163Z</time>
      </trkpt>
      <trkpt lat="48.71402" lon="1.9945">
        <ele>214</ele>
        <time>2013-12-20T13:01:09.174Z</time>
      </trkpt>
      <trkpt lat="48.71403" lon="1.99448">
        <ele>213.9</ele>
        <time>2013-12-20T13:01:10.173Z</time>
      </trkpt>
      <trkpt lat="48.71411" lon="1.99443">
        <ele>213.2</ele>
        <time>2013-12-20T13:01:17.776Z</time>
      </trkpt>
      <trkpt lat="48.71412" lon="1.99442">
        <ele>213</ele>
        <time>2013-12-20T13:01:18.143Z</time>
      </trkpt>
      <trkpt lat="48.71419" lon="1.99435">
        <ele>212.5</ele>
        <time>2013-12-20T13:01:24.174Z</time>
      </trkpt>
      <trkpt lat="48.7142" lon="1.99434">
        <ele>212.4</ele>
        <time>2013-12-20T13:01:25.175Z</time>
      </trkpt>
      <trkpt lat="48.71426" lon="1.99426">
        <ele>211.7</ele>
        <time>2013-12-20T13:01:35.176Z</time>
      </trkpt>
      <trkpt lat="48.71427" lon="1.99425">
        <ele>211.5</ele>
        <time>2013-12-20T13:01:36.122Z</time>
      </trkpt>
      <trkpt lat="48.71435" lon="1.99421">
        <ele>210.6</ele>
        <time>2013-12-20T13:01:42.969Z</time>
      </trkpt>
      <trkpt lat="48.71436" lon="1.99421">
        <ele>210.5</ele>
        <time>2013-12-20T13:01:43.076Z</time>
      </trkpt>
      <trkpt lat="48.71443" lon="1.9942">
        <ele>210.1</ele>
        <time>2013-12-20T13:01:49.122Z</time>
      </trkpt>
      <trkpt lat="48.71445" lon="1.99419">
        <ele>210.1</ele>
        <time>2013-12-20T13:01:50.122Z</time>
      </trkpt>
      <trkpt lat="48.71452" lon="1.99412">
        <ele>209.4</ele>
        <time>2013-12-20T13:02:00.248Z</time>
      </trkpt>
      <trkpt lat="48.71453" lon="1.99412">
        <ele>209.3</ele>
        <time>2013-12-20T13:02:01.204Z</time>
      </trkpt>
      <trkpt lat="48.71461" lon="1.99413">
        <ele>208.4</ele>
        <time>2013-12-20T13:02:12.737Z</time>
      </trkpt>
      <trkpt lat="48.71463" lon="1.99413">
        <ele>208.2</ele>
        <time>2013-12-20T13:02:13.084Z</time>
      </trkpt>
      <trkpt lat="48.7147" lon="1.99407">
        <ele>207.4</ele>
        <time>2013-12-20T13:02:20.079Z</time>
      </trkpt>
      <trkpt lat="48.71471" lon="1.99406">
        <ele>207.3</ele>
        <time>2013-12-20T13:02:21.145Z</time>
      </trkpt>
      <trkpt lat="48.71479" lon="1.99401">
        <ele>207.1</ele>
        <time>2013-12-20T13:02:27.834Z</time>
      </trkpt>
      <trkpt lat="48.71481" lon="1.994">
        <ele>207.1</ele>
        <time>2013-12-20T13:02:28.078Z</time>
      </trkpt>
      <trkpt lat="48.71489" lon="1.99396">
        <ele>206.9</ele>
        <time>2013-12-20T13:02:34.116Z</time>
      </trkpt>
      <trkpt lat="48.7149" lon="1.99396">
        <ele>206.9</ele>
        <time>2013-12-20T13:02:35.120Z</time>
      </trkpt>
      <trkpt lat="48.71499" lon="1.99396">
        <ele>206.6</ele>
        <time>2013-12-20T13:02:42.318Z</time>
      </trkpt>
      <trkpt lat="48.71499" lon="1.99396">
        <ele>206.5</ele>
        <time>2013-12-20T13:02:43.186Z</time>
      </trkpt>
      <trkpt lat="48.71501" lon="1.99396">
        <ele>206.4</ele>
        <time>2013-12-20T13:02:48.131Z</time>
      </trkpt>
      <trkpt lat="48.715" lon="1.99396">
        <ele>206.4</ele>
        <time>2013-12-20T13:02:49.125Z</time>
      </trkpt>
      <trkpt lat="48.715" lon="1.99397">
        <ele>206.4</ele>
        <time>2013-12-20T13:02:50.130Z</time>
      </trkpt>
      <trkpt lat="48.71499" lon="1.99401">
        <ele>206.3</ele>
        <time>2013-12-20T13:02:57.136Z</time>
      </trkpt>
      <trkpt lat="48.71499" lon="1.99402">
        <ele>206.1</ele>
        <time>2013-12-20T13:02:58.245Z</time>
      </trkpt>
      <trkpt lat="48.715" lon="1.99402">
        <ele>206</ele>
        <time>2013-12-20T13:03:06.114Z</time>
      </trkpt>
      <trkpt lat="48.71501" lon="1.99401">
        <ele>205.9</ele>
        <time>2013-12-20T13:03:07.138Z</time>
      </trkpt>
      <trkpt lat="48.71506" lon="1.99395">
        <ele>205.4</ele>
        <time>2013-12-20T13:03:18.201Z</time>
      </trkpt>
      <trkpt lat="48.71506" lon="1.99395">
        <ele>205.4</ele>
        <time>2013-12-20T13:03:19.133Z</time>
      </trkpt>
      <trkpt lat="48.71506" lon="1.99395">
        <ele>205.3</ele>
        <time>2013-12-20T13:03:23.197Z</time>
      </trkpt>
      <trkpt lat="48.71507" lon="1.99395">
        <ele>205.2</ele>
        <time>2013-12-20T13:03:24.149Z</time>
      </trkpt>
      <trkpt lat="48.71515" lon="1.99396">
        <ele>204</ele>
        <time>2013-12-20T13:03:31.203Z</time>
      </trkpt>
      <trkpt lat="48.71516" lon="1.99396">
        <ele>204</ele>
        <time>2013-12-20T13:03:32.119Z</time>
      </trkpt>
      <trkpt lat="48.71523" lon="1.99402">
        <ele>203</ele>
        <time>2013-12-20T13:03:40.073Z</time>
      </trkpt>
      <trkpt lat="48.71524" lon="1.99403">
        <ele>202.9</ele>
        <time>2013-12-20T13:03:41.089Z</time>
      </trkpt>
      <trkpt lat="48.71533" lon="1.99408">
        <ele>202.3</ele>
        <time>2013-12-20T13:03:49.087Z</time>
      </trkpt>
      <trkpt lat="48.71534" lon="1.99408">
        <ele>202.3</ele>
        <time>2013-12-20T13:03:50.096Z</time>
      </trkpt>
      <trkpt lat="48.71542" lon="1.99413">
        <ele>201.8</ele>
        <time>2013-12-20T13:04:00.075Z</time>
      </trkpt>
      <trkpt lat="48.71543" lon="1.99413">
        <ele>201.8</ele>
        <time>2013-12-20T13:04:01.070Z</time>
      </trkpt>
      <trkpt lat="48.7155" lon="1.99419">
        <ele>201.5</ele>
        <time>2013-12-20T13:04:11.084Z</time>
      </trkpt>
      <trkpt lat="48.71551" lon="1.9942">
        <ele>201.5</ele>
        <time>2013-12-20T13:04:12.078Z</time>
      </trkpt>
      <trkpt lat="48.7156" lon="1.99424">
        <ele>201.6</ele>
        <time>2013-12-20T13:04:21.075Z</time>
      </trkpt>
      <trkpt lat="48.7156" lon="1.99425">
        <ele>201.7</ele>
        <time>2013-12-20T13:04:22.053Z</time>
      </trkpt>
      <trkpt lat="48.71568" lon="1.99429">
        <ele>201.5</ele>
        <time>2013-12-20T13:04:30.052Z</time>
      </trkpt>
      <trkpt lat="48.71569" lon="1.99429">
        <ele>201.5</ele>
        <time>2013-12-20T13:04:31.063Z</time>
      </trkpt>
      <trkpt lat="48.71577" lon="1.99433">
        <ele>201.6</ele>
        <time>2013-12-20T13:04:38.081Z</time>
      </trkpt>
      <trkpt lat="48.71578" lon="1.99434">
        <ele>201.6</ele>
        <time>2013-12-20T13:04:39.070Z</time>
      </trkpt>
      <trkpt lat="48.71586" lon="1.99438">
        <ele>201.7</ele>
        <time>2013-12-20T13:04:46.072Z</time>
      </trkpt>
      <trkpt lat="48.71586" lon="1.99439">
        <ele>201.7</ele>
        <time>2013-12-20T13:04:47.050Z</time>
      </trkpt>
      <trkpt lat="48.71595" lon="1.99442">
        <ele>201.8</ele>
        <time>2013-12-20T13:04:57.863Z</time>
      </trkpt>
      <trkpt lat="48.71596" lon="1.99443">
        <ele>201.9</ele>
        <time>2013-12-20T13:04:58.075Z</time>
      </trkpt>
      <trkpt lat="48.71604" lon="1.99445">
        <ele>202</ele>
        <time>2013-12-20T13:05:06.077Z</time>
      </trkpt>
      <trkpt lat="48.71605" lon="1.99446">
        <ele>202</ele>
        <time>2013-12-20T13:05:07.058Z</time>
      </trkpt>
      <trkpt lat="48.71613" lon="1.99447">
        <ele>202</ele>
        <time>2013-12-20T13:05:16.080Z</time>
      </trkpt>
      <trkpt lat="48.71614" lon="1.99448">
        <ele>202</ele>
        <time>2013-12-20T13:05:17.055Z</time>
      </trkpt>
      <trkpt lat="48.71622" lon="1.99447">
        <ele>201.7</ele>
        <time>2013-12-20T13:05:23.061Z</time>
      </trkpt>
      <trkpt lat="48.71624" lon="1.99447">
        <ele>201.6</ele>
        <time>2013-12-20T13:05:24.059Z</time>
      </trkpt>
      <trkpt lat="48.71631" lon="1.99446">
        <ele>201.2</ele>
        <time>2013-12-20T13:05:31.059Z</time>
      </trkpt>
      <trkpt lat="48.71633" lon="1.99445">
        <ele>201.2</ele>
        <time>2013-12-20T13:05:32.055Z</time>
      </trkpt>
      <trkpt lat="48.71641" lon="1.99444">
        <ele>201</ele>
        <time>2013-12-20T13:05:40.068Z</time>
      </trkpt>
      <trkpt lat="48.71642" lon="1.99445">
        <ele>201</ele>
        <time>2013-12-20T13:05:41.067Z</time>
      </trkpt>
      <trkpt lat="48.7165" lon="1.99447">
        <ele>201</ele>
        <time>2013-12-20T13:05:50.085Z</time>
      </trkpt>
      <trkpt lat="48.71651" lon="1.99447">
        <ele>200.9</ele>
        <time>2013-12-20T13:05:51.071Z</time>
      </trkpt>
      <trkpt lat="48.71659" lon="1.99449">
        <ele>200.7</ele>
        <time>2013-12-20T13:05:59.100Z</time>
      </trkpt>
      <trkpt lat="48.7166" lon="1.99449">
        <ele>200.7</ele>
        <time>2013-12-20T13:06:00.080Z</time>
      </trkpt>
      <trkpt lat="48.71669" lon="1.99448">
        <ele>200.9</ele>
        <time>2013-12-20T13:06:06.061Z</time>
      </trkpt>
      <trkpt lat="48.71669" lon="1.99448">
        <ele>201</ele>
        <time>2013-12-20T13:06:07.070Z</time>
      </trkpt>
      <trkpt lat="48.71678" lon="1.99449">
        <ele>200.9</ele>
        <time>2013-12-20T13:06:14.061Z</time>
      </trkpt>
      <trkpt lat="48.71679" lon="1.99449">
        <ele>200.9</ele>
        <time>2013-12-20T13:06:15.054Z</time>
      </trkpt>
      <trkpt lat="48.71685" lon="1.99453">
        <ele>200.9</ele>
        <time>2013-12-20T13:06:28.063Z</time>
      </trkpt>
      <trkpt lat="48.71685" lon="1.99453">
        <ele>200.9</ele>
        <time>2013-12-20T13:06:29.080Z</time>
      </trkpt>
      <trkpt lat="48.71685" lon="1.99453">
        <ele>200.9</ele>
        <time>2013-12-20T13:06:32.687Z</time>
      </trkpt>
      <trkpt lat="48.71686" lon="1.99453">
        <ele>200.9</ele>
        <time>2013-12-20T13:06:33.085Z</time>
      </trkpt>
      <trkpt lat="48.71694" lon="1.99448">
        <ele>202.1</ele>
        <time>2013-12-20T13:06:55.138Z</time>
      </trkpt>
      <trkpt lat="48.71696" lon="1.99448">
        <ele>202.2</ele>
        <time>2013-12-20T13:06:56.153Z</time>
      </trkpt>
      <trkpt lat="48.71704" lon="1.99448">
        <ele>202.3</ele>
        <time>2013-12-20T13:07:00.207Z</time>
      </trkpt>
      <trkpt lat="48.71706" lon="1.99449">
        <ele>202.3</ele>
        <time>2013-12-20T13:07:01.138Z</time>
      </trkpt>
      <trkpt lat="48.71714" lon="1.99451">
        <ele>202.2</ele>
        <time>2013-12-20T13:07:06.137Z</time>
      </trkpt>
      <trkpt lat="48.71715" lon="1.99451">
        <ele>202.1</ele>
        <time>2013-12-20T13:07:07.138Z</time>
      </trkpt>
      <trkpt lat="48.71723" lon="1.99451">
        <ele>202</ele>
        <time>2013-12-20T13:07:14.138Z</time>
      </trkpt>
      <trkpt lat="48.71725" lon="1.99451">
        <ele>202</ele>
        <time>2013-12-20T13:07:15.143Z</time>
      </trkpt>
      <trkpt lat="48.71733" lon="1.99451">
        <ele>201.8</ele>
        <time>2013-12-20T13:07:22.775Z</time>
      </trkpt>
      <trkpt lat="48.71735" lon="1.99451">
        <ele>201.7</ele>
        <time>2013-12-20T13:07:23.086Z</time>
      </trkpt>
      <trkpt lat="48.71742" lon="1.99449">
        <ele>201.7</ele>
        <time>2013-12-20T13:07:27.803Z</time>
      </trkpt>
      <trkpt lat="48.71744" lon="1.99449">
        <ele>201.7</ele>
        <time>2013-12-20T13:07:28.073Z</time>
      </trkpt>
      <trkpt lat="48.71751" lon="1.9945">
        <ele>201.5</ele>
        <time>2013-12-20T13:07:37.852Z</time>
      </trkpt>
      <trkpt lat="48.71753" lon="1.9945">
        <ele>201.4</ele>
        <time>2013-12-20T13:07:38.069Z</time>
      </trkpt>
      <trkpt lat="48.71761" lon="1.99448">
        <ele>200.4</ele>
        <time>2013-12-20T13:07:45.199Z</time>
      </trkpt>
      <trkpt lat="48.71763" lon="1.99448">
        <ele>200.3</ele>
        <time>2013-12-20T13:07:46.130Z</time>
      </trkpt>
      <trkpt lat="48.71771" lon="1.99447">
        <ele>199.8</ele>
        <time>2013-12-20T13:07:53.071Z</time>
      </trkpt>
      <trkpt lat="48.71773" lon="1.99446">
        <ele>199.7</ele>
        <time>2013-12-20T13:07:54.133Z</time>
      </trkpt>
      <trkpt lat="48.71781" lon="1.99444">
        <ele>199.5</ele>
        <time>2013-12-20T13:07:58.174Z</time>
      </trkpt>
      <trkpt lat="48.71782" lon="1.99444">
        <ele>199.5</ele>
        <time>2013-12-20T13:07:59.117Z</time>
      </trkpt>
      <trkpt lat="48.71789" lon="1.99443">
        <ele>199.6</ele>
        <time>2013-12-20T13:08:05.116Z</time>
      </trkpt>
      <trkpt lat="48.71791" lon="1.99443">
        <ele>199.7</ele>
        <time>2013-12-20T13:08:06.109Z</time>
      </trkpt>
      <trkpt lat="48.71799" lon="1.99442">
        <ele>199.8</ele>
        <time>2013-12-20T13:08:10.112Z</time>
      </trkpt>
      <trkpt lat="48.71801" lon="1.99442">
        <ele>199.9</ele>
        <time>2013-12-20T13:08:11.114Z</time>
      </trkpt>
      <trkpt lat="48.71809" lon="1.99442">
        <ele>199.6</ele>
        <time>2013-12-20T13:08:19.119Z</time>
      </trkpt>
      <trkpt lat="48.71811" lon="1.99442">
        <ele>199.6</ele>
        <time>2013-12-20T13:08:20.110Z</time>
      </trkpt>
      <trkpt lat="48.71819" lon="1.99444">
        <ele>199.7</ele>
        <time>2013-12-20T13:08:26.061Z</time>
      </trkpt>
      <trkpt lat="48.71821" lon="1.99444">
        <ele>199.7</ele>
        <time>2013-12-20T13:08:27.057Z</time>
      </trkpt>
      <trkpt lat="48.7183" lon="1.99443">
        <ele>200.1</ele>
        <time>2013-12-20T13:08:33.068Z</time>
      </trkpt>
      <trkpt lat="48.71831" lon="1.99443">
        <ele>200.1</ele>
        <time>2013-12-20T13:08:34.114Z</time>
      </trkpt>
      <trkpt lat="48.71838" lon="1.99444">
        <ele>200.2</ele>
        <time>2013-12-20T13:08:41.074Z</time>
      </trkpt>
      <trkpt lat="48.71841" lon="1.99444">
        <ele>200.1</ele>
        <time>2013-12-20T13:08:42.111Z</time>
      </trkpt>
      <trkpt lat="48.71848" lon="1.99445">
        <ele>200.2</ele>
        <time>2013-12-20T13:08:46.119Z</time>
      </trkpt>
      <trkpt lat="48.7185" lon="1.99445">
        <ele>200.2</ele>
        <time>2013-12-20T13:08:47.117Z</time>
      </trkpt>
      <trkpt lat="48.71857" lon="1.99445">
        <ele>200.6</ele>
        <time>2013-12-20T13:08:51.235Z</time>
      </trkpt>
      <trkpt lat="48.71859" lon="1.99446">
        <ele>200.6</ele>
        <time>2013-12-20T13:08:52.116Z</time>
      </trkpt>
      <trkpt lat="48.71867" lon="1.99445">
        <ele>200.6</ele>
        <time>2013-12-20T13:08:57.154Z</time>
      </trkpt>
      <trkpt lat="48.71868" lon="1.99445">
        <ele>200.7</ele>
        <time>2013-12-20T13:08:58.120Z</time>
      </trkpt>
      <trkpt lat="48.71876" lon="1.99446">
        <ele>200.3</ele>
        <time>2013-12-20T13:09:09.139Z</time>
      </trkpt>
      <trkpt lat="48.71877" lon="1.99446">
        <ele>200.2</ele>
        <time>2013-12-20T13:09:10.133Z</time>
      </trkpt>
      <trkpt lat="48.71885" lon="1.99442">
        <ele>200.6</ele>
        <time>2013-12-20T13:09:20.133Z</time>
      </trkpt>
      <trkpt lat="48.71886" lon="1.99442">
        <ele>200.6</ele>
        <time>2013-12-20T13:09:21.127Z</time>
      </trkpt>
      <trkpt lat="48.71894" lon="1.9944">
        <ele>200.6</ele>
        <time>2013-12-20T13:09:26.127Z</time>
      </trkpt>
      <trkpt lat="48.71896" lon="1.99439">
        <ele>200.4</ele>
        <time>2013-12-20T13:09:27.129Z</time>
      </trkpt>
      <trkpt lat="48.71904" lon="1.99435">
        <ele>199.8</ele>
        <time>2013-12-20T13:09:33.000Z</time>
      </trkpt>
      <trkpt lat="48.71905" lon="1.99434">
        <ele>199.7</ele>
        <time>2013-12-20T13:09:33.115Z</time>
      </trkpt>
      <trkpt lat="48.71912" lon="1.99429">
        <ele>198.9</ele>
        <time>2013-12-20T13:09:39.123Z</time>
      </trkpt>
      <trkpt lat="48.71913" lon="1.99427">
        <ele>198.8</ele>
        <time>2013-12-20T13:09:40.122Z</time>
      </trkpt>
      <trkpt lat="48.71921" lon="1.99423">
        <ele>198.7</ele>
        <time>2013-12-20T13:09:45.124Z</time>
      </trkpt>
      <trkpt lat="48.71922" lon="1.99422">
        <ele>198.7</ele>
        <time>2013-12-20T13:09:46.110Z</time>
      </trkpt>
      <trkpt lat="48.7193" lon="1.99414">
        <ele>198.6</ele>
        <time>2013-12-20T13:09:53.191Z</time>
      </trkpt>
      <trkpt lat="48.71931" lon="1.99414">
        <ele>198.6</ele>
        <time>2013-12-20T13:09:54.109Z</time>
      </trkpt>
      <trkpt lat="48.71938" lon="1.99408">
        <ele>198.3</ele>
        <time>2013-12-20T13:10:01.062Z</time>
      </trkpt>
      <trkpt lat="48.71939" lon="1.99407">
        <ele>198.4</ele>
        <time>2013-12-20T13:10:02.107Z</time>
      </trkpt>
      <trkpt lat="48.71948" lon="1.99403">
        <ele>198.2</ele>
        <time>2013-12-20T13:10:09.109Z</time>
      </trkpt>
      <trkpt lat="48.71949" lon="1.99402">
        <ele>198.1</ele>
        <time>2013-12-20T13:10:10.110Z</time>
      </trkpt>
      <trkpt lat="48.71956" lon="1.99396">
        <ele>198.2</ele>
        <time>2013-12-20T13:10:16.106Z</time>
      </trkpt>
      <trkpt lat="48.71957" lon="1.99394">
        <ele>198.2</ele>
        <time>2013-12-20T13:10:17.108Z</time>
      </trkpt>
      <trkpt lat="48.71961" lon="1.99384">
        <ele>198.1</ele>
        <time>2013-12-20T13:10:25.111Z</time>
      </trkpt>
      <trkpt lat="48.71962" lon="1.99382">
        <ele>198.2</ele>
        <time>2013-12-20T13:10:26.104Z</time>
      </trkpt>
      <trkpt lat="48.71967" lon="1.99372">
        <ele>198.4</ele>
        <time>2013-12-20T13:10:34.112Z</time>
      </trkpt>
      <trkpt lat="48.71968" lon="1.9937">
        <ele>198.4</ele>
        <time>2013-12-20T13:10:35.117Z</time>
      </trkpt>
      <trkpt lat="48.71974" lon="1.99361">
        <ele>198.5</ele>
        <time>2013-12-20T13:10:41.141Z</time>
      </trkpt>
      <trkpt lat="48.71974" lon="1.9936">
        <ele>198.6</ele>
        <time>2013-12-20T13:10:42.115Z</time>
      </trkpt>
      <trkpt lat="48.71981" lon="1.99353">
        <ele>198.9</ele>
        <time>2013-12-20T13:10:49.139Z</time>
      </trkpt>
      <trkpt lat="48.71982" lon="1.99352">
        <ele>199</ele>
        <time>2013-12-20T13:10:50.135Z</time>
      </trkpt>
      <trkpt lat="48.71988" lon="1.99343">
        <ele>199.4</ele>
        <time>2013-12-20T13:10:58.391Z</time>
      </trkpt>
      <trkpt lat="48.71988" lon="1.99341">
        <ele>199.5</ele>
        <time>2013-12-20T13:10:59.128Z</time>
      </trkpt>
      <trkpt lat="48.71988" lon="1.9934">
        <ele>199.5</ele>
        <time>2013-12-20T13:11:02.122Z</time>
      </trkpt>
      <trkpt lat="48.71988" lon="1.99341">
        <ele>199.5</ele>
        <time>2013-12-20T13:11:03.125Z</time>
      </trkpt>
      <trkpt lat="48.71989" lon="1.99342">
        <ele>199.8</ele>
        <time>2013-12-20T13:11:08.132Z</time>
      </trkpt>
      <trkpt lat="48.71988" lon="1.99343">
        <ele>199.9</ele>
        <time>2013-12-20T13:11:09.130Z</time>
      </trkpt>
      <trkpt lat="48.71982" lon="1.99351">
        <ele>200.2</ele>
        <time>2013-12-20T13:11:13.086Z</time>
      </trkpt>
      <trkpt lat="48.7198" lon="1.99353">
        <ele>200.3</ele>
        <time>2013-12-20T13:11:14.127Z</time>
      </trkpt>
      <trkpt lat="48.71974" lon="1.9936">
        <ele>200.3</ele>
        <time>2013-12-20T13:11:18.094Z</time>
      </trkpt>
      <trkpt lat="48.71973" lon="1.99361">
        <ele>200.4</ele>
        <time>2013-12-20T13:11:19.134Z</time>
      </trkpt>
      <trkpt lat="48.71968" lon="1.99372">
        <ele>200.2</ele>
        <time>2013-12-20T13:11:28.067Z</time>
      </trkpt>
      <trkpt lat="48.71967" lon="1.99374">
        <ele>200.2</ele>
        <time>2013-12-20T13:11:29.112Z</time>
      </trkpt>
      <trkpt lat="48.71961" lon="1.99384">
        <ele>199.9</ele>
        <time>2013-12-20T13:11:35.106Z</time>
      </trkpt>
      <trkpt lat="48.71961" lon="1.99386">
        <ele>199.9</ele>
        <time>2013-12-20T13:11:36.104Z</time>
      </trkpt>
      <trkpt lat="48.71958" lon="1.99397">
        <ele>199.7</ele>
        <time>2013-12-20T13:11:43.065Z</time>
      </trkpt>
      <trkpt lat="48.71958" lon="1.99399">
        <ele>199.5</ele>
        <time>2013-12-20T13:11:44.107Z</time>
      </trkpt>
      <trkpt lat="48.7196" lon="1.99409">
        <ele>198.8</ele>
        <time>2013-12-20T13:11:55.116Z</time>
      </trkpt>
      <trkpt lat="48.7196" lon="1.99409">
        <ele>198.8</ele>
        <time>2013-12-20T13:11:56.107Z</time>
      </trkpt>
      <trkpt lat="48.7196" lon="1.99409">
        <ele>198.7</ele>
        <time>2013-12-20T13:11:58.206Z</time>
      </trkpt>
      <trkpt lat="48.71961" lon="1.99409">
        <ele>198.6</ele>
        <time>2013-12-20T13:11:59.107Z</time>
      </trkpt>
      <trkpt lat="48.71969" lon="1.99414">
        <ele>198.3</ele>
        <time>2013-12-20T13:12:07.681Z</time>
      </trkpt>
      <trkpt lat="48.7197" lon="1.99415">
        <ele>198.2</ele>
        <time>2013-12-20T13:12:08.239Z</time>
      </trkpt>
      <trkpt lat="48.71977" lon="1.99419">
        <ele>198.1</ele>
        <time>2013-12-20T13:12:13.077Z</time>
      </trkpt>
      <trkpt lat="48.71978" lon="1.99421">
        <ele>198.1</ele>
        <time>2013-12-20T13:12:14.142Z</time>
      </trkpt>
      <trkpt lat="48.71986" lon="1.99427">
        <ele>198.2</ele>
        <time>2013-12-20T13:12:19.079Z</time>
      </trkpt>
      <trkpt lat="48.71987" lon="1.99428">
        <ele>198.2</ele>
        <time>2013-12-20T13:12:20.070Z</time>
      </trkpt>
      <trkpt lat="48.71994" lon="1.99435">
        <ele>199</ele>
        <time>2013-12-20T13:12:26.120Z</time>
      </trkpt>
      <trkpt lat="48.71996" lon="1.99436">
        <ele>199.2</ele>
        <time>2013-12-20T13:12:27.114Z</time>
      </trkpt>
      <trkpt lat="48.72003" lon="1.99442">
        <ele>199.9</ele>
        <time>2013-12-20T13:12:32.116Z</time>
      </trkpt>
      <trkpt lat="48.72004" lon="1.99444">
        <ele>200</ele>
        <time>2013-12-20T13:12:33.247Z</time>
      </trkpt>
      <trkpt lat="48.72009" lon="1.99452">
        <ele>200.5</ele>
        <time>2013-12-20T13:12:41.120Z</time>
      </trkpt>
      <trkpt lat="48.7201" lon="1.99453">
        <ele>200.6</ele>
        <time>2013-12-20T13:12:42.118Z</time>
      </trkpt>
      <trkpt lat="48.72018" lon="1.99459">
        <ele>200.9</ele>
        <time>2013-12-20T13:12:49.135Z</time>
      </trkpt>
      <trkpt lat="48.72019" lon="1.9946">
        <ele>200.9</ele>
        <time>2013-12-20T13:12:50.135Z</time>
      </trkpt>
      <trkpt lat="48.72026" lon="1.99465">
        <ele>201.1</ele>
        <time>2013-12-20T13:12:58.046Z</time>
      </trkpt>
      <trkpt lat="48.72027" lon="1.99466">
        <ele>201.1</ele>
        <time>2013-12-20T13:12:58.200Z</time>
      </trkpt>
      <trkpt lat="48.72035" lon="1.99474">
        <ele>201</ele>
        <time>2013-12-20T13:13:05.124Z</time>
      </trkpt>
      <trkpt lat="48.72036" lon="1.99475">
        <ele>201</ele>
        <time>2013-12-20T13:13:06.122Z</time>
      </trkpt>
      <trkpt lat="48.72044" lon="1.99478">
        <ele>200.4</ele>
        <time>2013-12-20T13:13:13.082Z</time>
      </trkpt>
      <trkpt lat="48.72045" lon="1.99478">
        <ele>200.4</ele>
        <time>2013-12-20T13:13:14.120Z</time>
      </trkpt>
      <trkpt lat="48.72053" lon="1.99483">
        <ele>200.4</ele>
        <time>2013-12-20T13:13:21.123Z</time>
      </trkpt>
      <trkpt lat="48.72054" lon="1.99483">
        <ele>200.3</ele>
        <time>2013-12-20T13:13:22.137Z</time>
      </trkpt>
      <trkpt lat="48.72061" lon="1.99486">
        <ele>200.1</ele>
        <time>2013-12-20T13:13:28.117Z</time>
      </trkpt>
      <trkpt lat="48.72063" lon="1.99486">
        <ele>200</ele>
        <time>2013-12-20T13:13:29.245Z</time>
      </trkpt>
      <trkpt lat="48.7207" lon="1.99484">
        <ele>199.6</ele>
        <time>2013-12-20T13:13:35.120Z</time>
      </trkpt>
      <trkpt lat="48.72072" lon="1.99484">
        <ele>199.5</ele>
        <time>2013-12-20T13:13:36.119Z</time>
      </trkpt>
      <trkpt lat="48.7208" lon="1.99482">
        <ele>199.9</ele>
        <time>2013-12-20T13:13:42.875Z</time>
      </trkpt>
      <trkpt lat="48.72081" lon="1.99481">
        <ele>199.9</ele>
        <time>2013-12-20T13:13:43.077Z</time>
      </trkpt>
      <trkpt lat="48.72089" lon="1.99477">
        <ele>200</ele>
        <time>2013-12-20T13:13:50.137Z</time>
      </trkpt>
      <trkpt lat="48.7209" lon="1.99476">
        <ele>200</ele>
        <time>2013-12-20T13:13:51.143Z</time>
      </trkpt>
      <trkpt lat="48.72097" lon="1.99473">
        <ele>199.9</ele>
        <time>2013-12-20T13:13:58.027Z</time>
      </trkpt>
      <trkpt lat="48.72099" lon="1.99473">
        <ele>199.8</ele>
        <time>2013-12-20T13:13:58.121Z</time>
      </trkpt>
      <trkpt lat="48.72106" lon="1.99468">
        <ele>199.9</ele>
        <time>2013-12-20T13:14:06.115Z</time>
      </trkpt>
      <trkpt lat="48.72107" lon="1.99468">
        <ele>199.9</ele>
        <time>2013-12-20T13:14:07.084Z</time>
      </trkpt>
      <trkpt lat="48.72116" lon="1.99464">
        <ele>200.1</ele>
        <time>2013-12-20T13:14:14.056Z</time>
      </trkpt>
      <trkpt lat="48.72117" lon="1.99464">
        <ele>200.1</ele>
        <time>2013-12-20T13:14:15.055Z</time>
      </trkpt>
      <trkpt lat="48.72125" lon="1.99459">
        <ele>200.2</ele>
        <time>2013-12-20T13:14:23.077Z</time>
      </trkpt>
      <trkpt lat="48.72126" lon="1.99458">
        <ele>200.2</ele>
        <time>2013-12-20T13:14:24.065Z</time>
      </trkpt>
      <trkpt lat="48.72134" lon="1.99453">
        <ele>200.3</ele>
        <time>2013-12-20T13:14:31.058Z</time>
      </trkpt>
      <trkpt lat="48.72135" lon="1.99452">
        <ele>200.3</ele>
        <time>2013-12-20T13:14:32.067Z</time>
      </trkpt>
      <trkpt lat="48.72143" lon="1.99446">
        <ele>200.6</ele>
        <time>2013-12-20T13:14:40.056Z</time>
      </trkpt>
      <trkpt lat="48.72144" lon="1.99445">
        <ele>200.7</ele>
        <time>2013-12-20T13:14:41.071Z</time>
      </trkpt>
      <trkpt lat="48.72151" lon="1.99441">
        <ele>201</ele>
        <time>2013-12-20T13:14:48.072Z</time>
      </trkpt>
      <trkpt lat="48.72153" lon="1.9944">
        <ele>201</ele>
        <time>2013-12-20T13:14:49.072Z</time>
      </trkpt>
      <trkpt lat="48.72161" lon="1.99438">
        <ele>201.3</ele>
        <time>2013-12-20T13:14:57.839Z</time>
      </trkpt>
      <trkpt lat="48.72162" lon="1.99438">
        <ele>201.3</ele>
        <time>2013-12-20T13:14:58.054Z</time>
      </trkpt>
      <trkpt lat="48.7217" lon="1.99434">
        <ele>201.6</ele>
        <time>2013-12-20T13:15:06.058Z</time>
      </trkpt>
      <trkpt lat="48.72171" lon="1.99433">
        <ele>201.6</ele>
        <time>2013-12-20T13:15:07.060Z</time>
      </trkpt>
      <trkpt lat="48.72179" lon="1.9943">
        <ele>201.5</ele>
        <time>2013-12-20T13:15:13.061Z</time>
      </trkpt>
      <trkpt lat="48.7218" lon="1.9943">
        <ele>201.5</ele>
        <time>2013-12-20T13:15:14.065Z</time>
      </trkpt>
      <trkpt lat="48.72189" lon="1.99428">
        <ele>201.6</ele>
        <time>2013-12-20T13:15:22.828Z</time>
      </trkpt>
      <trkpt lat="48.7219" lon="1.99428">
        <ele>201.6</ele>
        <time>2013-12-20T13:15:23.062Z</time>
      </trkpt>
      <trkpt lat="48.72197" lon="1.99425">
        <ele>201.6</ele>
        <time>2013-12-20T13:15:33.082Z</time>
      </trkpt>
      <trkpt lat="48.72199" lon="1.99424">
        <ele>201.5</ele>
        <time>2013-12-20T13:15:34.089Z</time>
      </trkpt>
      <trkpt lat="48.72207" lon="1.99421">
        <ele>201.3</ele>
        <time>2013-12-20T13:15:38.075Z</time>
      </trkpt>
      <trkpt lat="48.72209" lon="1.99421">
        <ele>201.2</ele>
        <time>2013-12-20T13:15:39.080Z</time>
      </trkpt>
      <trkpt lat="48.72217" lon="1.99419">
        <ele>201</ele>
        <time>2013-12-20T13:15:46.082Z</time>
      </trkpt>
      <trkpt lat="48.72218" lon="1.99418">
        <ele>200.9</ele>
        <time>2013-12-20T13:15:47.060Z</time>
      </trkpt>
      <trkpt lat="48.72226" lon="1.99415">
        <ele>201.1</ele>
        <time>2013-12-20T13:15:55.580Z</time>
      </trkpt>
      <trkpt lat="48.72227" lon="1.99415">
        <ele>201.1</ele>
        <time>2013-12-20T13:15:56.063Z</time>
      </trkpt>
      <trkpt lat="48.72235" lon="1.99413">
        <ele>201</ele>
        <time>2013-12-20T13:16:03.216Z</time>
      </trkpt>
      <trkpt lat="48.72237" lon="1.99413">
        <ele>201</ele>
        <time>2013-12-20T13:16:04.114Z</time>
      </trkpt>
      <trkpt lat="48.72245" lon="1.99413">
        <ele>200.6</ele>
        <time>2013-12-20T13:16:14.118Z</time>
      </trkpt>
      <trkpt lat="48.72245" lon="1.99413">
        <ele>200.6</ele>
        <time>2013-12-20T13:16:15.138Z</time>
      </trkpt>
      <trkpt lat="48.72246" lon="1.99413">
        <ele>200.6</ele>
        <time>2013-12-20T13:16:24.083Z</time>
      </trkpt>
      <trkpt lat="48.72247" lon="1.99413">
        <ele>200.6</ele>
        <time>2013-12-20T13:16:25.144Z</time>
      </trkpt>
      <trkpt lat="48.72254" lon="1.99417">
        <ele>201.1</ele>
        <time>2013-12-20T13:16:32.938Z</time>
      </trkpt>
      <trkpt lat="48.72255" lon="1.99418">
        <ele>201</ele>
        <time>2013-12-20T13:16:33.092Z</time>
      </trkpt>
      <trkpt lat="48.72263" lon="1.99421">
        <ele>200.5</ele>
        <time>2013-12-20T13:16:40.125Z</time>
      </trkpt>
      <trkpt lat="48.72264" lon="1.99422">
        <ele>200.5</ele>
        <time>2013-12-20T13:16:41.127Z</time>
      </trkpt>
      <trkpt lat="48.72273" lon="1.99426">
        <ele>200.5</ele>
        <time>2013-12-20T13:16:48.099Z</time>
      </trkpt>
      <trkpt lat="48.72274" lon="1.99427">
        <ele>200.5</ele>
        <time>2013-12-20T13:16:48.214Z</time>
      </trkpt>
      <trkpt lat="48.72283" lon="1.99432">
        <ele>200.5</ele>
        <time>2013-12-20T13:16:54.142Z</time>
      </trkpt>
      <trkpt lat="48.72284" lon="1.99432">
        <ele>200.5</ele>
        <time>2013-12-20T13:16:55.144Z</time>
      </trkpt>
      <trkpt lat="48.72291" lon="1.99437">
        <ele>200.4</ele>
        <time>2013-12-20T13:17:02.141Z</time>
      </trkpt>
      <trkpt lat="48.72293" lon="1.99438">
        <ele>200.4</ele>
        <time>2013-12-20T13:17:03.148Z</time>
      </trkpt>
      <trkpt lat="48.723" lon="1.99441">
        <ele>200.1</ele>
        <time>2013-12-20T13:17:09.127Z</time>
      </trkpt>
      <trkpt lat="48.72302" lon="1.99441">
        <ele>200.1</ele>
        <time>2013-12-20T13:17:10.127Z</time>
      </trkpt>
      <trkpt lat="48.7231" lon="1.99444">
        <ele>199.6</ele>
        <time>2013-12-20T13:17:16.133Z</time>
      </trkpt>
      <trkpt lat="48.72311" lon="1.99444">
        <ele>199.5</ele>
        <time>2013-12-20T13:17:17.128Z</time>
      </trkpt>
      <trkpt lat="48.72319" lon="1.99445">
        <ele>199.2</ele>
        <time>2013-12-20T13:17:22.769Z</time>
      </trkpt>
      <trkpt lat="48.72321" lon="1.99446">
        <ele>199.2</ele>
        <time>2013-12-20T13:17:23.089Z</time>
      </trkpt>
      <trkpt lat="48.72329" lon="1.99449">
        <ele>199.2</ele>
        <time>2013-12-20T13:17:30.128Z</time>
      </trkpt>
      <trkpt lat="48.7233" lon="1.9945">
        <ele>199.2</ele>
        <time>2013-12-20T13:17:31.133Z</time>
      </trkpt>
      <trkpt lat="48.72337" lon="1.99454">
        <ele>199.4</ele>
        <time>2013-12-20T13:17:36.127Z</time>
      </trkpt>
      <trkpt lat="48.72339" lon="1.99454">
        <ele>199.4</ele>
        <time>2013-12-20T13:17:37.126Z</time>
      </trkpt>
      <trkpt lat="48.72347" lon="1.99455">
        <ele>199.6</ele>
        <time>2013-12-20T13:17:44.130Z</time>
      </trkpt>
      <trkpt lat="48.72348" lon="1.99455">
        <ele>199.7</ele>
        <time>2013-12-20T13:17:45.126Z</time>
      </trkpt>
      <trkpt lat="48.72356" lon="1.99456">
        <ele>199.2</ele>
        <time>2013-12-20T13:17:53.076Z</time>
      </trkpt>
      <trkpt lat="48.72358" lon="1.99456">
        <ele>199.2</ele>
        <time>2013-12-20T13:17:54.125Z</time>
      </trkpt>
      <trkpt lat="48.72366" lon="1.99457">
        <ele>199.1</ele>
        <time>2013-12-20T13:18:01.145Z</time>
      </trkpt>
      <trkpt lat="48.72367" lon="1.99457">
        <ele>199.1</ele>
        <time>2013-12-20T13:18:02.070Z</time>
      </trkpt>
      <trkpt lat="48.72375" lon="1.9946">
        <ele>199.1</ele>
        <time>2013-12-20T13:18:10.124Z</time>
      </trkpt>
      <trkpt lat="48.72376" lon="1.9946">
        <ele>199.1</ele>
        <time>2013-12-20T13:18:11.124Z</time>
      </trkpt>
      <trkpt lat="48.72384" lon="1.99462">
        <ele>199.3</ele>
        <time>2013-12-20T13:18:16.127Z</time>
      </trkpt>
      <trkpt lat="48.72385" lon="1.99462">
        <ele>199.3</ele>
        <time>2013-12-20T13:18:17.126Z</time>
      </trkpt>
      <trkpt lat="48.72393" lon="1.99463">
        <ele>199.3</ele>
        <time>2013-12-20T13:18:24.123Z</time>
      </trkpt>
      <trkpt lat="48.72394" lon="1.99462">
        <ele>199.3</ele>
        <time>2013-12-20T13:18:25.124Z</time>
      </trkpt>
      <trkpt lat="48.72402" lon="1.99463">
        <ele>199.2</ele>
        <time>2013-12-20T13:18:32.939Z</time>
      </trkpt>
      <trkpt lat="48.72404" lon="1.99463">
        <ele>199.2</ele>
        <time>2013-12-20T13:18:33.074Z</time>
      </trkpt>
      <trkpt lat="48.72412" lon="1.99466">
        <ele>199.2</ele>
        <time>2013-12-20T13:18:40.129Z</time>
      </trkpt>
      <trkpt lat="48.72413" lon="1.99466">
        <ele>199.2</ele>
        <time>2013-12-20T13:18:41.127Z</time>
      </trkpt>
      <trkpt lat="48.72416" lon="1.99465">
        <ele>199.4</ele>
        <time>2013-12-20T13:18:48.095Z</time>
      </trkpt>
      <trkpt lat="48.72416" lon="1.99465">
        <ele>199.4</ele>
        <time>2013-12-20T13:18:48.213Z</time>
      </trkpt>
      <trkpt lat="48.72416" lon="1.99465">
        <ele>199.4</ele>
        <time>2013-12-20T13:18:49.127Z</time>
      </trkpt>
      <trkpt lat="48.72423" lon="1.9947">
        <ele>199</ele>
        <time>2013-12-20T13:19:00.378Z</time>
      </trkpt>
      <trkpt lat="48.72424" lon="1.99471">
        <ele>199</ele>
        <time>2013-12-20T13:19:01.146Z</time>
      </trkpt>
      <trkpt lat="48.72433" lon="1.99473">
        <ele>198.9</ele>
        <time>2013-12-20T13:19:08.135Z</time>
      </trkpt>
      <trkpt lat="48.72434" lon="1.99474">
        <ele>198.9</ele>
        <time>2013-12-20T13:19:09.133Z</time>
      </trkpt>
      <trkpt lat="48.72442" lon="1.99475">
        <ele>198.6</ele>
        <time>2013-12-20T13:19:16.130Z</time>
      </trkpt>
      <trkpt lat="48.72444" lon="1.99476">
        <ele>198.5</ele>
        <time>2013-12-20T13:19:17.130Z</time>
      </trkpt>
      <trkpt lat="48.72452" lon="1.99482">
        <ele>198</ele>
        <time>2013-12-20T13:19:25.127Z</time>
      </trkpt>
      <trkpt lat="48.72453" lon="1.99483">
        <ele>198</ele>
        <time>2013-12-20T13:19:26.129Z</time>
      </trkpt>
      <trkpt lat="48.72458" lon="1.99494">
        <ele>197.5</ele>
        <time>2013-12-20T13:19:33.086Z</time>
      </trkpt>
      <trkpt lat="48.72458" lon="1.99495">
        <ele>197.5</ele>
        <time>2013-12-20T13:19:34.127Z</time>
      </trkpt>
      <trkpt lat="48.72458" lon="1.99509">
        <ele>197.4</ele>
        <time>2013-12-20T13:19:41.129Z</time>
      </trkpt>
      <trkpt lat="48.72458" lon="1.99511">
        <ele>197.4</ele>
        <time>2013-12-20T13:19:42.128Z</time>
      </trkpt>
      <trkpt lat="48.72456" lon="1.99522">
        <ele>197.2</ele>
        <time>2013-12-20T13:19:49.127Z</time>
      </trkpt>
      <trkpt lat="48.72456" lon="1.99524">
        <ele>197.2</ele>
        <time>2013-12-20T13:19:50.124Z</time>
      </trkpt>
      <trkpt lat="48.72456" lon="1.99537">
        <ele>197.1</ele>
        <time>2013-12-20T13:19:58.045Z</time>
      </trkpt>
      <trkpt lat="48.72456" lon="1.99539">
        <ele>197.1</ele>
        <time>2013-12-20T13:19:58.144Z</time>
      </trkpt>
      <trkpt lat="48.72455" lon="1.99551">
        <ele>196.8</ele>
        <time>2013-12-20T13:20:09.146Z</time>
      </trkpt>
      <trkpt lat="48.72455" lon="1.99551">
        <ele>196.8</ele>
        <time>2013-12-20T13:20:10.138Z</time>
      </trkpt>
      <trkpt lat="48.72454" lon="1.99551">
        <ele>196.8</ele>
        <time>2013-12-20T13:20:12.732Z</time>
      </trkpt>
      <trkpt lat="48.72454" lon="1.99551">
        <ele>196.8</ele>
        <time>2013-12-20T13:20:13.098Z</time>
      </trkpt>
      <trkpt lat="48.72454" lon="1.99551">
        <ele>196.8</ele>
        <time>2013-12-20T13:20:14.144Z</time>
      </trkpt>
      <trkpt lat="48.72454" lon="1.99551">
        <ele>196.8</ele>
        <time>2013-12-20T13:20:16.139Z</time>
      </trkpt>
      <trkpt lat="48.72454" lon="1.99551">
        <ele>196.9</ele>
        <time>2013-12-20T13:20:17.137Z</time>
      </trkpt>
      <trkpt lat="48.72463" lon="1.99555">
        <ele>196.9</ele>
        <time>2013-12-20T13:20:23.077Z</time>
      </trkpt>
      <trkpt lat="48.72464" lon="1.99555">
        <ele>196.9</ele>
        <time>2013-12-20T13:20:24.128Z</time>
      </trkpt>
      <trkpt lat="48.72472" lon="1.99561">
        <ele>196.9</ele>
        <time>2013-12-20T13:20:32.127Z</time>
      </trkpt>
      <trkpt lat="48.72474" lon="1.99561">
        <ele>196.9</ele>
        <time>2013-12-20T13:20:33.129Z</time>
      </trkpt>
      <trkpt lat="48.72481" lon="1.99562">
        <ele>196.7</ele>
        <time>2013-12-20T13:20:39.123Z</time>
      </trkpt>
      <trkpt lat="48.72483" lon="1.99562">
        <ele>196.7</ele>
        <time>2013-12-20T13:20:40.123Z</time>
      </trkpt>
      <trkpt lat="48.7249" lon="1.99569">
        <ele>196.5</ele>
        <time>2013-12-20T13:20:50.127Z</time>
      </trkpt>
      <trkpt lat="48.7249" lon="1.99569">
        <ele>196.6</ele>
        <time>2013-12-20T13:20:51.133Z</time>
      </trkpt>
      <trkpt lat="48.72491" lon="1.9957">
        <ele>196.6</ele>
        <time>2013-12-20T13:20:53.440Z</time>
      </trkpt>
      <trkpt lat="48.72491" lon="1.9957">
        <ele>196.6</ele>
        <time>2013-12-20T13:20:54.141Z</time>
      </trkpt>
      <trkpt lat="48.7249" lon="1.9957">
        <ele>196.6</ele>
        <time>2013-12-20T13:20:55.147Z</time>
      </trkpt>
      <trkpt lat="48.7249" lon="1.9957">
        <ele>196.6</ele>
        <time>2013-12-20T13:20:56.142Z</time>
      </trkpt>
      <trkpt lat="48.72489" lon="1.99569">
        <ele>196.6</ele>
        <time>2013-12-20T13:21:00.167Z</time>
      </trkpt>
      <trkpt lat="48.72489" lon="1.99569">
        <ele>196.6</ele>
        <time>2013-12-20T13:21:01.185Z</time>
      </trkpt>
      <trkpt lat="48.72488" lon="1.99569">
        <ele>196.5</ele>
        <time>2013-12-20T13:21:09.127Z</time>
      </trkpt>
      <trkpt lat="48.72489" lon="1.99568">
        <ele>196.6</ele>
        <time>2013-12-20T13:21:10.181Z</time>
      </trkpt>
      <trkpt lat="48.7249" lon="1.99567">
        <ele>196.6</ele>
        <time>2013-12-20T13:21:14.128Z</time>
      </trkpt>
      <trkpt lat="48.7249" lon="1.99567">
        <ele>196.6</ele>
        <time>2013-12-20T13:21:15.111Z</time>
      </trkpt>
      <trkpt lat="48.7249" lon="1.99568">
        <ele>196.7</ele>
        <time>2013-12-20T13:21:21.212Z</time>
      </trkpt>
      <trkpt lat="48.72489" lon="1.99568">
        <ele>196.7</ele>
        <time>2013-12-20T13:21:22.090Z</time>
      </trkpt>
      <trkpt lat="48.72489" lon="1.99568">
        <ele>196.7</ele>
        <time>2013-12-20T13:21:22.920Z</time>
      </trkpt>
      <trkpt lat="48.72489" lon="1.99568">
        <ele>196.7</ele>
        <time>2013-12-20T13:21:23.107Z</time>
      </trkpt>
      <trkpt lat="48.72489" lon="1.99568">
        <ele>196.7</ele>
        <time>2013-12-20T13:21:28.080Z</time>
      </trkpt>
      <trkpt lat="48.72489" lon="1.99568">
        <ele>196.7</ele>
        <time>2013-12-20T13:21:29.153Z</time>
      </trkpt>
      <trkpt lat="48.72489" lon="1.99568">
        <ele>196.8</ele>
        <time>2013-12-20T13:21:30.088Z</time>
      </trkpt>
      <trkpt lat="48.72489" lon="1.99568">
        <ele>196.8</ele>
        <time>2013-12-20T13:21:31.192Z</time>
      </trkpt>
      <trkpt lat="48.7249" lon="1.99568">
        <ele>196.9</ele>
        <time>2013-12-20T13:21:32.110Z</time>
      </trkpt>
      <trkpt lat="48.7249" lon="1.99568">
        <ele>197</ele>
        <time>2013-12-20T13:21:34.160Z</time>
      </trkpt>
      <trkpt lat="48.7249" lon="1.99568">
        <ele>197</ele>
        <time>2013-12-20T13:21:35.159Z</time>
      </trkpt>
      <trkpt lat="48.72489" lon="1.99568">
        <ele>197.2</ele>
        <time>2013-12-20T13:21:38.235Z</time>
      </trkpt>
      <trkpt lat="48.72489" lon="1.99568">
        <ele>197.2</ele>
        <time>2013-12-20T13:21:39.147Z</time>
      </trkpt>
      <trkpt lat="48.72488" lon="1.9957">
        <ele>197.3</ele>
        <time>2013-12-20T13:21:45.159Z</time>
      </trkpt>
      <trkpt lat="48.72488" lon="1.9957">
        <ele>197.3</ele>
        <time>2013-12-20T13:21:46.126Z</time>
      </trkpt>
      <trkpt lat="48.72489" lon="1.9957">
        <ele>197.5</ele>
        <time>2013-12-20T13:21:59.189Z</time>
      </trkpt>
      <trkpt lat="48.72489" lon="1.99569">
        <ele>197.6</ele>
        <time>2013-12-20T13:22:00.274Z</time>
      </trkpt>
      <trkpt lat="48.72482" lon="1.99562">
        <ele>197.9</ele>
        <time>2013-12-20T13:22:06.141Z</time>
      </trkpt>
      <trkpt lat="48.72481" lon="1.99562">
        <ele>197.8</ele>
        <time>2013-12-20T13:22:07.139Z</time>
      </trkpt>
      <trkpt lat="48.72473" lon="1.9956">
        <ele>197.8</ele>
        <time>2013-12-20T13:22:13.141Z</time>
      </trkpt>
      <trkpt lat="48.72472" lon="1.9956">
        <ele>197.8</ele>
        <time>2013-12-20T13:22:14.266Z</time>
      </trkpt>
      <trkpt lat="48.72463" lon="1.99559">
        <ele>197.9</ele>
        <time>2013-12-20T13:22:20.110Z</time>
      </trkpt>
      <trkpt lat="48.72462" lon="1.99559">
        <ele>197.9</ele>
        <time>2013-12-20T13:22:21.112Z</time>
      </trkpt>
      <trkpt lat="48.72455" lon="1.99551">
        <ele>198</ele>
        <time>2013-12-20T13:22:30.085Z</time>
      </trkpt>
      <trkpt lat="48.72454" lon="1.9955">
        <ele>198</ele>
        <time>2013-12-20T13:22:31.142Z</time>
      </trkpt>
      <trkpt lat="48.72452" lon="1.9955">
        <ele>198</ele>
        <time>2013-12-20T13:22:36.139Z</time>
      </trkpt>
      <trkpt lat="48.72452" lon="1.9955">
        <ele>198</ele>
        <time>2013-12-20T13:22:37.139Z</time>
      </trkpt>
      <trkpt lat="48.72452" lon="1.9955">
        <ele>198</ele>
        <time>2013-12-20T13:22:38.101Z</time>
      </trkpt>
      <trkpt lat="48.72453" lon="1.9955">
        <ele>198</ele>
        <time>2013-12-20T13:22:39.146Z</time>
      </trkpt>
      <trkpt lat="48.72453" lon="1.9955">
        <ele>198</ele>
        <time>2013-12-20T13:22:41.147Z</time>
      </trkpt>
      <trkpt lat="48.72453" lon="1.9955">
        <ele>198</ele>
        <time>2013-12-20T13:22:42.144Z</time>
      </trkpt>
      <trkpt lat="48.72452" lon="1.99549">
        <ele>198.3</ele>
        <time>2013-12-20T13:23:30.103Z</time>
      </trkpt>
      <trkpt lat="48.72452" lon="1.99548">
        <ele>198.3</ele>
        <time>2013-12-20T13:23:31.149Z</time>
      </trkpt>
      <trkpt lat="48.72452" lon="1.99547">
        <ele>198.3</ele>
        <time>2013-12-20T13:23:34.127Z</time>
      </trkpt>
      <trkpt lat="48.72452" lon="1.99547">
        <ele>198.3</ele>
        <time>2013-12-20T13:23:35.116Z</time>
      </trkpt>
      <trkpt lat="48.72452" lon="1.99548">
        <ele>198.3</ele>
        <time>2013-12-20T13:23:39.160Z</time>
      </trkpt>
      <trkpt lat="48.72452" lon="1.99549">
        <ele>198.3</ele>
        <time>2013-12-20T13:23:40.163Z</time>
      </trkpt>
      <trkpt lat="48.72453" lon="1.9955">
        <ele>198.3</ele>
        <time>2013-12-20T13:23:44.149Z</time>
      </trkpt>
      <trkpt lat="48.72453" lon="1.9955">
        <ele>198.3</ele>
        <time>2013-12-20T13:23:45.146Z</time>
      </trkpt>
      <trkpt lat="48.72453" lon="1.9955">
        <ele>198.4</ele>
        <time>2013-12-20T13:23:46.192Z</time>
      </trkpt>
      <trkpt lat="48.72453" lon="1.99549">
        <ele>198.4</ele>
        <time>2013-12-20T13:23:47.081Z</time>
      </trkpt>
      <trkpt lat="48.72454" lon="1.99548">
        <ele>198.4</ele>
        <time>2013-12-20T13:23:49.119Z</time>
      </trkpt>
      <trkpt lat="48.72454" lon="1.99548">
        <ele>198.4</ele>
        <time>2013-12-20T13:23:50.339Z</time>
      </trkpt>
      <trkpt lat="48.72454" lon="1.99549">
        <ele>198.4</ele>
        <time>2013-12-20T13:23:51.286Z</time>
      </trkpt>
      <trkpt lat="48.72454" lon="1.99549">
        <ele>198.4</ele>
        <time>2013-12-20T13:23:52.224Z</time>
      </trkpt>
      <trkpt lat="48.72454" lon="1.99551">
        <ele>198.4</ele>
        <time>2013-12-20T13:23:56.150Z</time>
      </trkpt>
      <trkpt lat="48.72454" lon="1.99551">
        <ele>198.4</ele>
        <time>2013-12-20T13:23:57.126Z</time>
      </trkpt>
      <trkpt lat="48.72454" lon="1.99551">
        <ele>198.5</ele>
        <time>2013-12-20T13:23:58.278Z</time>
      </trkpt>
      <trkpt lat="48.72454" lon="1.9955">
        <ele>198.5</ele>
        <time>2013-12-20T13:23:59.192Z</time>
      </trkpt>
      <trkpt lat="48.72452" lon="1.99551">
        <ele>198.8</ele>
        <time>2013-12-20T13:24:07.703Z</time>
      </trkpt>
      <trkpt lat="48.72452" lon="1.99551">
        <ele>198.8</ele>
        <time>2013-12-20T13:24:08.151Z</time>
      </trkpt>
      <trkpt lat="48.72454" lon="1.9955">
        <ele>199</ele>
        <time>2013-12-20T13:25:15.101Z</time>
      </trkpt>
      <trkpt lat="48.72454" lon="1.9955">
        <ele>198.9</ele>
        <time>2013-12-20T13:25:16.156Z</time>
      </trkpt>
      <trkpt lat="48.72454" lon="1.9955">
        <ele>198.8</ele>
        <time>2013-12-20T13:25:18.168Z</time>
      </trkpt>
      <trkpt lat="48.72454" lon="1.99551">
        <ele>198.8</ele>
        <time>2013-12-20T13:25:18.256Z</time>
      </trkpt>
      <trkpt lat="48.72454" lon="1.9955">
        <ele>198.8</ele>
        <time>2013-12-20T13:25:24.136Z</time>
      </trkpt>
      <trkpt lat="48.72454" lon="1.9955">
        <ele>198.8</ele>
        <time>2013-12-20T13:25:25.152Z</time>
      </trkpt>
      <trkpt lat="48.72454" lon="1.9955">
        <ele>198.7</ele>
        <time>2013-12-20T13:25:26.123Z</time>
      </trkpt>
      <trkpt lat="48.72454" lon="1.9955">
        <ele>198.6</ele>
        <time>2013-12-20T13:25:33.256Z</time>
      </trkpt>
      <trkpt lat="48.72453" lon="1.99551">
        <ele>198.6</ele>
        <time>2013-12-20T13:25:34.242Z</time>
      </trkpt>
      <trkpt lat="48.72452" lon="1.99551">
        <ele>198.6</ele>
        <time>2013-12-20T13:25:40.177Z</time>
      </trkpt>
      <trkpt lat="48.72452" lon="1.99551">
        <ele>198.6</ele>
        <time>2013-12-20T13:25:41.179Z</time>
      </trkpt>
      <trkpt lat="48.72453" lon="1.9955">
        <ele>198.6</ele>
        <time>2013-12-20T13:25:52.185Z</time>
      </trkpt>
      <trkpt lat="48.72453" lon="1.9955">
        <ele>198.4</ele>
        <time>2013-12-20T13:25:53.145Z</time>
      </trkpt>
      <trkpt lat="48.72453" lon="1.9955">
        <ele>198.4</ele>
        <time>2013-12-20T13:25:54.147Z</time>
      </trkpt>
      <trkpt lat="48.72453" lon="1.9955">
        <ele>198.4</ele>
        <time>2013-12-20T13:25:55.156Z</time>
      </trkpt>
      <trkpt lat="48.72454" lon="1.99548">
        <ele>198.1</ele>
        <time>2013-12-20T13:26:16.194Z</time>
      </trkpt>
      <trkpt lat="48.72454" lon="1.99548">
        <ele>198.2</ele>
        <time>2013-12-20T13:26:17.121Z</time>
      </trkpt>
      <trkpt lat="48.72453" lon="1.99548">
        <ele>198.1</ele>
        <time>2013-12-20T13:26:23.185Z</time>
      </trkpt>
      <trkpt lat="48.72453" lon="1.99548">
        <ele>198.1</ele>
        <time>2013-12-20T13:26:24.141Z</time>
      </trkpt>
      <trkpt lat="48.72453" lon="1.99549">
        <ele>198.2</ele>
        <time>2013-12-20T13:26:48.309Z</time>
      </trkpt>
      <trkpt lat="48.72453" lon="1.9955">
        <ele>198.2</ele>
        <time>2013-12-20T13:26:49.174Z</time>
      </trkpt>
      <trkpt lat="48.72453" lon="1.9955">
        <ele>198.2</ele>
        <time>2013-12-20T13:26:50.151Z</time>
      </trkpt>
      <trkpt lat="48.72453" lon="1.9955">
        <ele>198.1</ele>
        <time>2013-12-20T13:26:51.198Z</time>
      </trkpt>
      <trkpt lat="48.72452" lon="1.9955">
        <ele>198.4</ele>
        <time>2013-12-20T13:27:07.698Z</time>
      </trkpt>
      <trkpt lat="48.72452" lon="1.99549">
        <ele>198.4</ele>
        <time>2013-12-20T13:27:08.136Z</time>
      </trkpt>
      <trkpt lat="48.72452" lon="1.99548">
        <ele>198.4</ele>
        <time>2013-12-20T13:27:09.145Z</time>
      </trkpt>
      <trkpt lat="48.72452" lon="1.99548">
        <ele>198.5</ele>
        <time>2013-12-20T13:27:10.114Z</time>
      </trkpt>
      <trkpt lat="48.72453" lon="1.99549">
        <ele>198.5</ele>
        <time>2013-12-20T13:27:18.111Z</time>
      </trkpt>
      <trkpt lat="48.72453" lon="1.99548">
        <ele>198.5</ele>
        <time>2013-12-20T13:27:19.142Z</time>
      </trkpt>
      <trkpt lat="48.72453" lon="1.99547">
        <ele>198.5</ele>
        <time>2013-12-20T13:27:21.118Z</time>
      </trkpt>
      <trkpt lat="48.72453" lon="1.99547">
        <ele>198.5</ele>
        <time>2013-12-20T13:27:22.160Z</time>
      </trkpt>
      <trkpt lat="48.72454" lon="1.99548">
        <ele>198.6</ele>
        <time>2013-12-20T13:27:25.147Z</time>
      </trkpt>
      <trkpt lat="48.72454" lon="1.99548">
        <ele>198.6</ele>
        <time>2013-12-20T13:27:26.134Z</time>
      </trkpt>
      <trkpt lat="48.72454" lon="1.99548">
        <ele>198.6</ele>
        <time>2013-12-20T13:27:27.138Z</time>
      </trkpt>
      <trkpt lat="48.72454" lon="1.99548">
        <ele>198.6</ele>
        <time>2013-12-20T13:27:33.075Z</time>
      </trkpt>
      <trkpt lat="48.72454" lon="1.99548">
        <ele>198.6</ele>
        <time>2013-12-20T13:27:34.160Z</time>
      </trkpt>
      <trkpt lat="48.72453" lon="1.99547">
        <ele>198.6</ele>
        <time>2013-12-20T13:27:36.136Z</time>
      </trkpt>
      <trkpt lat="48.72453" lon="1.99547">
        <ele>198.6</ele>
        <time>2013-12-20T13:27:37.151Z</time>
      </trkpt>
      <trkpt lat="48.72453" lon="1.99548">
        <ele>198.6</ele>
        <time>2013-12-20T13:27:41.242Z</time>
      </trkpt>
      <trkpt lat="48.72453" lon="1.99549">
        <ele>198.6</ele>
        <time>2013-12-20T13:27:42.151Z</time>
      </trkpt>
      <trkpt lat="48.72453" lon="1.99549">
        <ele>198.6</ele>
        <time>2013-12-20T13:27:43.095Z</time>
      </trkpt>
      <trkpt lat="48.72453" lon="1.99549">
        <ele>198.6</ele>
        <time>2013-12-20T13:27:44.183Z</time>
      </trkpt>
      <trkpt lat="48.72453" lon="1.99549">
        <ele>198.5</ele>
        <time>2013-12-20T13:27:57.123Z</time>
      </trkpt>
      <trkpt lat="48.72454" lon="1.99549">
        <ele>198.5</ele>
        <time>2013-12-20T13:27:58.277Z</time>
      </trkpt>
      <trkpt lat="48.72455" lon="1.9955">
        <ele>198.5</ele>
        <time>2013-12-20T13:28:06.153Z</time>
      </trkpt>
      <trkpt lat="48.72455" lon="1.9955">
        <ele>198.5</ele>
        <time>2013-12-20T13:28:07.135Z</time>
      </trkpt>
      <trkpt lat="48.72455" lon="1.9955">
        <ele>198.5</ele>
        <time>2013-12-20T13:28:07.661Z</time>
      </trkpt>
      <trkpt lat="48.72454" lon="1.9955">
        <ele>198.5</ele>
        <time>2013-12-20T13:28:08.180Z</time>
      </trkpt>
      <trkpt lat="48.72453" lon="1.9955">
        <ele>198.5</ele>
        <time>2013-12-20T13:28:12.689Z</time>
      </trkpt>
      <trkpt lat="48.72453" lon="1.9955">
        <ele>198.5</ele>
        <time>2013-12-20T13:28:13.102Z</time>
      </trkpt>
      <trkpt lat="48.72452" lon="1.99549">
        <ele>198</ele>
        <time>2013-12-20T13:28:52.923Z</time>
      </trkpt>
      <trkpt lat="48.72452" lon="1.9955">
        <ele>197.9</ele>
        <time>2013-12-20T13:28:53.114Z</time>
      </trkpt>
      <trkpt lat="48.72452" lon="1.9955">
        <ele>197.9</ele>
        <time>2013-12-20T13:28:54.124Z</time>
      </trkpt>
      <trkpt lat="48.72452" lon="1.9955">
        <ele>197.9</ele>
        <time>2013-12-20T13:28:55.138Z</time>
      </trkpt>
      <trkpt lat="48.72452" lon="1.99551">
        <ele>197.9</ele>
        <time>2013-12-20T13:29:08.162Z</time>
      </trkpt>
      <trkpt lat="48.72453" lon="1.99551">
        <ele>197.9</ele>
        <time>2013-12-20T13:29:09.138Z</time>
      </trkpt>
      <trkpt lat="48.72453" lon="1.99551">
        <ele>197.9</ele>
        <time>2013-12-20T13:29:10.184Z</time>
      </trkpt>
      <trkpt lat="48.72453" lon="1.99551">
        <ele>197.9</ele>
        <time>2013-12-20T13:29:11.123Z</time>
      </trkpt>
      <trkpt lat="48.72454" lon="1.99548">
        <ele>198.1</ele>
        <time>2013-12-20T13:29:42.878Z</time>
      </trkpt>
      <trkpt lat="48.72455" lon="1.99548">
        <ele>198.1</ele>
        <time>2013-12-20T13:29:43.162Z</time>
      </trkpt>
      <trkpt lat="48.72456" lon="1.99547">
        <ele>198.1</ele>
        <time>2013-12-20T13:29:48.171Z</time>
      </trkpt>
      <trkpt lat="48.72456" lon="1.99546">
        <ele>198.1</ele>
        <time>2013-12-20T13:29:49.153Z</time>
      </trkpt>
      <trkpt lat="48.72454" lon="1.99546">
        <ele>198.1</ele>
        <time>2013-12-20T13:29:55.122Z</time>
      </trkpt>
      <trkpt lat="48.72454" lon="1.99546">
        <ele>198.1</ele>
        <time>2013-12-20T13:29:56.123Z</time>
      </trkpt>
      <trkpt lat="48.72454" lon="1.99547">
        <ele>198.1</ele>
        <time>2013-12-20T13:29:58.084Z</time>
      </trkpt>
      <trkpt lat="48.72454" lon="1.99547">
        <ele>198.1</ele>
        <time>2013-12-20T13:29:59.124Z</time>
      </trkpt>
      <trkpt lat="48.72454" lon="1.99548">
        <ele>198.1</ele>
        <time>2013-12-20T13:30:02.125Z</time>
      </trkpt>
      <trkpt lat="48.72453" lon="1.99548">
        <ele>198.1</ele>
        <time>2013-12-20T13:30:03.099Z</time>
      </trkpt>
      <trkpt lat="48.72453" lon="1.99549">
        <ele>198.1</ele>
        <time>2013-12-20T13:30:05.123Z</time>
      </trkpt>
      <trkpt lat="48.72453" lon="1.99549">
        <ele>198.1</ele>
        <time>2013-12-20T13:30:06.127Z</time>
      </trkpt>
      <trkpt lat="48.72454" lon="1.9955">
        <ele>198.1</ele>
        <time>2013-12-20T13:30:25.139Z</time>
      </trkpt>
      <trkpt lat="48.72454" lon="1.9955">
        <ele>198.1</ele>
        <time>2013-12-20T13:30:26.146Z</time>
      </trkpt>
      <trkpt lat="48.72455" lon="1.99551">
        <ele>198.1</ele>
        <time>2013-12-20T13:30:28.110Z</time>
      </trkpt>
      <trkpt lat="48.72455" lon="1.99551">
        <ele>198.1</ele>
        <time>2013-12-20T13:30:29.164Z</time>
      </trkpt>
      <trkpt lat="48.72455" lon="1.9955">
        <ele>198.1</ele>
        <time>2013-12-20T13:30:30.118Z</time>
      </trkpt>
      <trkpt lat="48.72454" lon="1.9955">
        <ele>198.1</ele>
        <time>2013-12-20T13:30:31.106Z</time>
      </trkpt>
      <trkpt lat="48.72454" lon="1.99549">
        <ele>198.1</ele>
        <time>2013-12-20T13:30:34.147Z</time>
      </trkpt>
      <trkpt lat="48.72454" lon="1.99549">
        <ele>198.1</ele>
        <time>2013-12-20T13:30:35.140Z</time>
      </trkpt>
      <trkpt lat="48.72453" lon="1.99549">
        <ele>198.2</ele>
        <time>2013-12-20T13:30:54.136Z</time>
      </trkpt>
      <trkpt lat="48.72453" lon="1.99548">
        <ele>198.2</ele>
        <time>2013-12-20T13:30:55.151Z</time>
      </trkpt>
      <trkpt lat="48.72453" lon="1.99548">
        <ele>198.2</ele>
        <time>2013-12-20T13:30:56.103Z</time>
      </trkpt>
      <trkpt lat="48.72453" lon="1.9955">
        <ele>198.2</ele>
        <time>2013-12-20T13:31:36.186Z</time>
      </trkpt>
      <trkpt lat="48.72453" lon="1.9955">
        <ele>198.3</ele>
        <time>2013-12-20T13:31:37.204Z</time>
      </trkpt>
      <trkpt lat="48.72453" lon="1.99549">
        <ele>198.3</ele>
        <time>2013-12-20T13:31:38.159Z</time>
      </trkpt>
      <trkpt lat="48.72453" lon="1.99549">
        <ele>198.3</ele>
        <time>2013-12-20T13:31:39.161Z</time>
      </trkpt>
      <trkpt lat="48.72454" lon="1.9955">
        <ele>198.3</ele>
        <time>2013-12-20T13:31:43.137Z</time>
      </trkpt>
      <trkpt lat="48.72454" lon="1.9955">
        <ele>198.4</ele>
        <time>2013-12-20T13:31:44.156Z</time>
      </trkpt>
      <trkpt lat="48.72455" lon="1.99552">
        <ele>198.4</ele>
        <time>2013-12-20T13:31:49.124Z</time>
      </trkpt>
      <trkpt lat="48.72455" lon="1.99552">
        <ele>198.4</ele>
        <time>2013-12-20T13:31:50.182Z</time>
      </trkpt>
      <trkpt lat="48.72455" lon="1.99551">
        <ele>198.4</ele>
        <time>2013-12-20T13:31:55.166Z</time>
      </trkpt>
      <trkpt lat="48.72454" lon="1.99551">
        <ele>198.4</ele>
        <time>2013-12-20T13:31:56.161Z</time>
      </trkpt>
      <trkpt lat="48.72454" lon="1.9955">
        <ele>198.4</ele>
        <time>2013-12-20T13:31:58.277Z</time>
      </trkpt>
      <trkpt lat="48.72454" lon="1.9955">
        <ele>198.4</ele>
        <time>2013-12-20T13:31:59.175Z</time>
      </trkpt>
      <trkpt lat="48.72453" lon="1.99551">
        <ele>198.5</ele>
        <time>2013-12-20T13:33:01.186Z</time>
      </trkpt>
      <trkpt lat="48.72453" lon="1.99551">
        <ele>198.6</ele>
        <time>2013-12-20T13:33:02.262Z</time>
      </trkpt>
      <trkpt lat="48.72453" lon="1.99549">
        <ele>198.7</ele>
        <time>2013-12-20T13:33:06.139Z</time>
      </trkpt>
      <trkpt lat="48.72453" lon="1.99549">
        <ele>198.7</ele>
        <time>2013-12-20T13:33:07.158Z</time>
      </trkpt>
      <trkpt lat="48.72452" lon="1.9955">
        <ele>198.7</ele>
        <time>2013-12-20T13:33:20.186Z</time>
      </trkpt>
      <trkpt lat="48.72453" lon="1.99549">
        <ele>198.8</ele>
        <time>2013-12-20T13:33:21.291Z</time>
      </trkpt>
      <trkpt lat="48.72454" lon="1.99548">
        <ele>199</ele>
        <time>2013-12-20T13:33:25.166Z</time>
      </trkpt>
      <trkpt lat="48.72454" lon="1.99548">
        <ele>199</ele>
        <time>2013-12-20T13:33:26.127Z</time>
      </trkpt>
      <trkpt lat="48.72453" lon="1.99549">
        <ele>199</ele>
        <time>2013-12-20T13:33:27.149Z</time>
      </trkpt>
      <trkpt lat="48.72453" lon="1.99551">
        <ele>199</ele>
        <time>2013-12-20T13:33:32.144Z</time>
      </trkpt>
      <trkpt lat="48.72453" lon="1.99551">
        <ele>199</ele>
        <time>2013-12-20T13:33:33.176Z</time>
      </trkpt>
      <trkpt lat="48.72453" lon="1.99551">
        <ele>199.3</ele>
        <time>2013-12-20T13:33:38.251Z</time>
      </trkpt>
      <trkpt lat="48.72454" lon="1.99551">
        <ele>199.3</ele>
        <time>2013-12-20T13:33:39.154Z</time>
      </trkpt>
      <trkpt lat="48.72454" lon="1.99551">
        <ele>199.3</ele>
        <time>2013-12-20T13:33:41.170Z</time>
      </trkpt>
      <trkpt lat="48.72454" lon="1.99551">
        <ele>199.3</ele>
        <time>2013-12-20T13:33:42.129Z</time>
      </trkpt>
      <trkpt lat="48.72455" lon="1.9955">
        <ele>199.1</ele>
        <time>2013-12-20T13:34:21.072Z</time>
      </trkpt>
      <trkpt lat="48.72455" lon="1.99549">
        <ele>199.1</ele>
        <time>2013-12-20T13:34:22.161Z</time>
      </trkpt>
      <trkpt lat="48.72452" lon="1.9955">
        <ele>199.2</ele>
        <time>2013-12-20T13:34:35.295Z</time>
      </trkpt>
      <trkpt lat="48.72452" lon="1.9955">
        <ele>199.2</ele>
        <time>2013-12-20T13:34:36.155Z</time>
      </trkpt>
      <trkpt lat="48.72453" lon="1.9955">
        <ele>199.2</ele>
        <time>2013-12-20T13:34:37.130Z</time>
      </trkpt>
      <trkpt lat="48.72454" lon="1.9955">
        <ele>199.2</ele>
        <time>2013-12-20T13:34:40.138Z</time>
      </trkpt>
      <trkpt lat="48.72454" lon="1.9955">
        <ele>199.2</ele>
        <time>2013-12-20T13:34:41.159Z</time>
      </trkpt>
      <trkpt lat="48.72454" lon="1.9955">
        <ele>199.3</ele>
        <time>2013-12-20T13:35:16.164Z</time>
      </trkpt>
      <trkpt lat="48.72454" lon="1.9955">
        <ele>199.2</ele>
        <time>2013-12-20T13:35:17.173Z</time>
      </trkpt>
      <trkpt lat="48.72454" lon="1.9955">
        <ele>199.2</ele>
        <time>2013-12-20T13:35:18.138Z</time>
      </trkpt>
      <trkpt lat="48.72454" lon="1.9955">
        <ele>199.2</ele>
        <time>2013-12-20T13:35:19.239Z</time>
      </trkpt>
      <trkpt lat="48.72454" lon="1.99549">
        <ele>199.3</ele>
        <time>2013-12-20T13:35:48.352Z</time>
      </trkpt>
      <trkpt lat="48.72455" lon="1.99549">
        <ele>199.3</ele>
        <time>2013-12-20T13:35:49.169Z</time>
      </trkpt>
      <trkpt lat="48.72455" lon="1.99548">
        <ele>199.2</ele>
        <time>2013-12-20T13:35:51.155Z</time>
      </trkpt>
      <trkpt lat="48.72455" lon="1.99548">
        <ele>199.2</ele>
        <time>2013-12-20T13:35:52.152Z</time>
      </trkpt>
      <trkpt lat="48.72455" lon="1.99548">
        <ele>199.2</ele>
        <time>2013-12-20T13:36:05.139Z</time>
      </trkpt>
      <trkpt lat="48.72455" lon="1.99548">
        <ele>199.2</ele>
        <time>2013-12-20T13:36:06.119Z</time>
      </trkpt>
      <trkpt lat="48.72454" lon="1.99548">
        <ele>199.2</ele>
        <time>2013-12-20T13:36:07.785Z</time>
      </trkpt>
      <trkpt lat="48.72454" lon="1.99548">
        <ele>199.2</ele>
        <time>2013-12-20T13:36:08.164Z</time>
      </trkpt>
      <trkpt lat="48.72454" lon="1.99547">
        <ele>199.2</ele>
        <time>2013-12-20T13:36:11.165Z</time>
      </trkpt>
      <trkpt lat="48.72454" lon="1.99548">
        <ele>199.2</ele>
        <time>2013-12-20T13:36:12.131Z</time>
      </trkpt>
      <trkpt lat="48.72452" lon="1.99549">
        <ele>199.2</ele>
        <time>2013-12-20T13:36:17.854Z</time>
      </trkpt>
      <trkpt lat="48.72452" lon="1.99549">
        <ele>199.3</ele>
        <time>2013-12-20T13:36:18.149Z</time>
      </trkpt>
      <trkpt lat="48.72452" lon="1.9955">
        <ele>199.3</ele>
        <time>2013-12-20T13:36:24.138Z</time>
      </trkpt>
      <trkpt lat="48.72452" lon="1.9955">
        <ele>199.3</ele>
        <time>2013-12-20T13:36:25.237Z</time>
      </trkpt>
      <trkpt lat="48.72452" lon="1.9955">
        <ele>199.4</ele>
        <time>2013-12-20T13:36:27.860Z</time>
      </trkpt>
      <trkpt lat="48.72452" lon="1.9955">
        <ele>199.4</ele>
        <time>2013-12-20T13:36:28.105Z</time>
      </trkpt>
      <trkpt lat="48.72452" lon="1.99551">
        <ele>199.5</ele>
        <time>2013-12-20T13:36:32.075Z</time>
      </trkpt>
      <trkpt lat="48.72452" lon="1.99551">
        <ele>199.6</ele>
        <time>2013-12-20T13:36:33.300Z</time>
      </trkpt>
      <trkpt lat="48.72452" lon="1.99551">
        <ele>199.6</ele>
        <time>2013-12-20T13:36:33.361Z</time>
      </trkpt>
      <trkpt lat="48.72452" lon="1.99551">
        <ele>199.6</ele>
        <time>2013-12-20T13:36:34.075Z</time>
      </trkpt>
      <trkpt lat="48.72453" lon="1.99552">
        <ele>199.6</ele>
        <time>2013-12-20T13:36:46.123Z</time>
      </trkpt>
      <trkpt lat="48.72453" lon="1.99552">
        <ele>199.6</ele>
        <time>2013-12-20T13:36:47.132Z</time>
      </trkpt>
      <trkpt lat="48.72452" lon="1.99553">
        <ele>199.7</ele>
        <time>2013-12-20T13:36:50.142Z</time>
      </trkpt>
      <trkpt lat="48.72452" lon="1.99553">
        <ele>199.7</ele>
        <time>2013-12-20T13:36:51.136Z</time>
      </trkpt>
      <trkpt lat="48.72452" lon="1.99552">
        <ele>199.7</ele>
        <time>2013-12-20T13:36:56.159Z</time>
      </trkpt>
      <trkpt lat="48.72453" lon="1.99552">
        <ele>199.7</ele>
        <time>2013-12-20T13:36:57.132Z</time>
      </trkpt>
      <trkpt lat="48.72454" lon="1.99549">
        <ele>199.7</ele>
        <time>2013-12-20T13:37:05.156Z</time>
      </trkpt>
      <trkpt lat="48.72454" lon="1.99549">
        <ele>199.7</ele>
        <time>2013-12-20T13:37:06.149Z</time>
      </trkpt>
      <trkpt lat="48.72453" lon="1.9955">
        <ele>199.7</ele>
        <time>2013-12-20T13:37:09.132Z</time>
      </trkpt>
      <trkpt lat="48.72453" lon="1.9955">
        <ele>199.7</ele>
        <time>2013-12-20T13:37:10.133Z</time>
      </trkpt>
      <trkpt lat="48.72454" lon="1.99552">
        <ele>199.8</ele>
        <time>2013-12-20T13:37:16.157Z</time>
      </trkpt>
      <trkpt lat="48.72454" lon="1.99552">
        <ele>199.8</ele>
        <time>2013-12-20T13:37:17.161Z</time>
      </trkpt>
      <trkpt lat="48.72453" lon="1.99552">
        <ele>199.8</ele>
        <time>2013-12-20T13:37:20.154Z</time>
      </trkpt>
      <trkpt lat="48.72453" lon="1.99552">
        <ele>199.8</ele>
        <time>2013-12-20T13:37:21.153Z</time>
      </trkpt>
      <trkpt lat="48.72453" lon="1.99551">
        <ele>199.8</ele>
        <time>2013-12-20T13:37:22.794Z</time>
      </trkpt>
      <trkpt lat="48.72453" lon="1.99551">
        <ele>199.8</ele>
        <time>2013-12-20T13:37:23.111Z</time>
      </trkpt>
      <trkpt lat="48.72454" lon="1.99551">
        <ele>199.8</ele>
        <time>2013-12-20T13:37:24.176Z</time>
      </trkpt>
      <trkpt lat="48.72454" lon="1.9955">
        <ele>199.8</ele>
        <time>2013-12-20T13:37:25.240Z</time>
      </trkpt>
      <trkpt lat="48.72454" lon="1.9955">
        <ele>199.8</ele>
        <time>2013-12-20T13:37:26.119Z</time>
      </trkpt>
      <trkpt lat="48.72453" lon="1.9955">
        <ele>199.8</ele>
        <time>2013-12-20T13:37:32.874Z</time>
      </trkpt>
      <trkpt lat="48.72453" lon="1.99549">
        <ele>199.8</ele>
        <time>2013-12-20T13:37:33.112Z</time>
      </trkpt>
      <trkpt lat="48.72453" lon="1.99549">
        <ele>199.8</ele>
        <time>2013-12-20T13:37:34.276Z</time>
      </trkpt>
      <trkpt lat="48.72453" lon="1.99547">
        <ele>199.7</ele>
        <time>2013-12-20T13:38:01.140Z</time>
      </trkpt>
      <trkpt lat="48.72454" lon="1.99546">
        <ele>199.7</ele>
        <time>2013-12-20T13:38:02.141Z</time>
      </trkpt>
      <trkpt lat="48.72454" lon="1.99546">
        <ele>199.7</ele>
        <time>2013-12-20T13:38:03.331Z</time>
      </trkpt>
      <trkpt lat="48.72454" lon="1.99546">
        <ele>199.7</ele>
        <time>2013-12-20T13:38:04.159Z</time>
      </trkpt>
      <trkpt lat="48.72453" lon="1.99545">
        <ele>199.7</ele>
        <time>2013-12-20T13:38:20.146Z</time>
      </trkpt>
      <trkpt lat="48.72454" lon="1.99545">
        <ele>199.7</ele>
        <time>2013-12-20T13:38:21.139Z</time>
      </trkpt>
      <trkpt lat="48.72454" lon="1.99544">
        <ele>199.7</ele>
        <time>2013-12-20T13:38:24.142Z</time>
      </trkpt>
      <trkpt lat="48.72454" lon="1.99544">
        <ele>199.7</ele>
        <time>2013-12-20T13:38:25.143Z</time>
      </trkpt>
      <trkpt lat="48.72455" lon="1.99546">
        <ele>199.6</ele>
        <time>2013-12-20T13:38:37.880Z</time>
      </trkpt>
      <trkpt lat="48.72455" lon="1.99546">
        <ele>199.6</ele>
        <time>2013-12-20T13:38:38.082Z</time>
      </trkpt>
      <trkpt lat="48.72454" lon="1.99547">
        <ele>199.6</ele>
        <time>2013-12-20T13:38:42.127Z</time>
      </trkpt>
      <trkpt lat="48.72454" lon="1.99548">
        <ele>199.6</ele>
        <time>2013-12-20T13:38:43.256Z</time>
      </trkpt>
      <trkpt lat="48.72454" lon="1.9955">
        <ele>199.6</ele>
        <time>2013-12-20T13:39:44.123Z</time>
      </trkpt>
      <trkpt lat="48.72453" lon="1.9955">
        <ele>199.6</ele>
        <time>2013-12-20T13:39:45.146Z</time>
      </trkpt>
      <trkpt lat="48.72453" lon="1.99552">
        <ele>199.5</ele>
        <time>2013-12-20T13:39:50.211Z</time>
      </trkpt>
      <trkpt lat="48.72452" lon="1.99552">
        <ele>199.4</ele>
        <time>2013-12-20T13:39:51.152Z</time>
      </trkpt>
      <trkpt lat="48.72453" lon="1.99551">
        <ele>199.5</ele>
        <time>2013-12-20T13:39:54.161Z</time>
      </trkpt>
      <trkpt lat="48.72453" lon="1.9955">
        <ele>199.5</ele>
        <time>2013-12-20T13:39:55.176Z</time>
      </trkpt>
      <trkpt lat="48.72453" lon="1.9955">
        <ele>199.5</ele>
        <time>2013-12-20T13:39:58.036Z</time>
      </trkpt>
      <trkpt lat="48.72453" lon="1.99549">
        <ele>199.5</ele>
        <time>2013-12-20T13:39:58.133Z</time>
      </trkpt>
      <trkpt lat="48.72453" lon="1.99546">
        <ele>198.7</ele>
        <time>2013-12-20T13:40:29.158Z</time>
      </trkpt>
      <trkpt lat="48.72452" lon="1.99546">
        <ele>198.5</ele>
        <time>2013-12-20T13:40:30.160Z</time>
      </trkpt>
      <trkpt lat="48.72451" lon="1.99545">
        <ele>198.2</ele>
        <time>2013-12-20T13:40:34.157Z</time>
      </trkpt>
      <trkpt lat="48.72451" lon="1.99545">
        <ele>198.2</ele>
        <time>2013-12-20T13:40:35.160Z</time>
      </trkpt>
      <trkpt lat="48.72451" lon="1.99545">
        <ele>198</ele>
        <time>2013-12-20T13:40:43.178Z</time>
      </trkpt>
      <trkpt lat="48.72452" lon="1.99546">
        <ele>198</ele>
        <time>2013-12-20T13:40:44.148Z</time>
      </trkpt>
      <trkpt lat="48.72453" lon="1.99551">
        <ele>198.1</ele>
        <time>2013-12-20T13:40:56.198Z</time>
      </trkpt>
      <trkpt lat="48.72453" lon="1.99551">
        <ele>198.1</ele>
        <time>2013-12-20T13:40:57.198Z</time>
      </trkpt>
      <trkpt lat="48.72454" lon="1.99552">
        <ele>198.3</ele>
        <time>2013-12-20T13:41:24.314Z</time>
      </trkpt>
      <trkpt lat="48.72454" lon="1.99552">
        <ele>198.4</ele>
        <time>2013-12-20T13:41:25.211Z</time>
      </trkpt>
      <trkpt lat="48.72455" lon="1.9955">
        <ele>198.4</ele>
        <time>2013-12-20T13:41:28.326Z</time>
      </trkpt>
      <trkpt lat="48.72454" lon="1.9955">
        <ele>198.4</ele>
        <time>2013-12-20T13:41:29.173Z</time>
      </trkpt>
      <trkpt lat="48.72454" lon="1.9955">
        <ele>198.4</ele>
        <time>2013-12-20T13:41:30.141Z</time>
      </trkpt>
      <trkpt lat="48.72453" lon="1.9955">
        <ele>198.5</ele>
        <time>2013-12-20T13:41:33.117Z</time>
      </trkpt>
      <trkpt lat="48.72453" lon="1.9955">
        <ele>198.5</ele>
        <time>2013-12-20T13:41:34.163Z</time>
      </trkpt>
      <trkpt lat="48.72454" lon="1.99548">
        <ele>198.5</ele>
        <time>2013-12-20T13:43:10.150Z</time>
      </trkpt>
      <trkpt lat="48.72454" lon="1.99547">
        <ele>198.5</ele>
        <time>2013-12-20T13:43:11.121Z</time>
      </trkpt>
      <trkpt lat="48.72454" lon="1.99547">
        <ele>198.4</ele>
        <time>2013-12-20T13:43:12.727Z</time>
      </trkpt>
      <trkpt lat="48.72454" lon="1.99547">
        <ele>198.4</ele>
        <time>2013-12-20T13:43:13.175Z</time>
      </trkpt>
      <trkpt lat="48.72454" lon="1.99548">
        <ele>198.4</ele>
        <time>2013-12-20T13:43:16.159Z</time>
      </trkpt>
      <trkpt lat="48.72454" lon="1.99548">
        <ele>198.4</ele>
        <time>2013-12-20T13:43:17.161Z</time>
      </trkpt>
      <trkpt lat="48.72454" lon="1.99549">
        <ele>198.4</ele>
        <time>2013-12-20T13:43:19.158Z</time>
      </trkpt>
      <trkpt lat="48.72454" lon="1.99549">
        <ele>198.4</ele>
        <time>2013-12-20T13:43:20.133Z</time>
      </trkpt>
      <trkpt lat="48.72454" lon="1.99549">
        <ele>198.3</ele>
        <time>2013-12-20T13:43:25.201Z</time>
      </trkpt>
      <trkpt lat="48.72454" lon="1.99548">
        <ele>198.3</ele>
        <time>2013-12-20T13:43:26.212Z</time>
      </trkpt>
      <trkpt lat="48.72455" lon="1.99547">
        <ele>198.3</ele>
        <time>2013-12-20T13:43:28.130Z</time>
      </trkpt>
      <trkpt lat="48.72454" lon="1.99547">
        <ele>198.2</ele>
        <time>2013-12-20T13:43:29.194Z</time>
      </trkpt>
      <trkpt lat="48.72454" lon="1.99548">
        <ele>198.2</ele>
        <time>2013-12-20T13:43:34.143Z</time>
      </trkpt>
      <trkpt lat="48.72454" lon="1.99549">
        <ele>198.2</ele>
        <time>2013-12-20T13:43:35.157Z</time>
      </trkpt>
      <trkpt lat="48.72453" lon="1.99549">
        <ele>198.2</ele>
        <time>2013-12-20T13:43:37.859Z</time>
      </trkpt>
      <trkpt lat="48.72453" lon="1.99549">
        <ele>198.3</ele>
        <time>2013-12-20T13:43:38.152Z</time>
      </trkpt>
      <trkpt lat="48.72453" lon="1.99551">
        <ele>198.2</ele>
        <time>2013-12-20T13:44:02.163Z</time>
      </trkpt>
      <trkpt lat="48.72453" lon="1.99551">
        <ele>198.2</ele>
        <time>2013-12-20T13:44:03.163Z</time>
      </trkpt>
      <trkpt lat="48.72451" lon="1.99552">
        <ele>198.1</ele>
        <time>2013-12-20T13:44:10.165Z</time>
      </trkpt>
      <trkpt lat="48.72451" lon="1.99552">
        <ele>198.1</ele>
        <time>2013-12-20T13:44:11.176Z</time>
      </trkpt>
      <trkpt lat="48.72453" lon="1.99552">
        <ele>197.8</ele>
        <time>2013-12-20T13:44:47.157Z</time>
      </trkpt>
      <trkpt lat="48.72453" lon="1.99551">
        <ele>197.8</ele>
        <time>2013-12-20T13:44:48.155Z</time>
      </trkpt>
      <trkpt lat="48.72453" lon="1.99551">
        <ele>197.8</ele>
        <time>2013-12-20T13:44:48.420Z</time>
      </trkpt>
      <trkpt lat="48.72453" lon="1.99551">
        <ele>197.8</ele>
        <time>2013-12-20T13:44:49.155Z</time>
      </trkpt>
      <trkpt lat="48.72453" lon="1.99551">
        <ele>197.8</ele>
        <time>2013-12-20T13:44:55.179Z</time>
      </trkpt>
      <trkpt lat="48.72453" lon="1.9955">
        <ele>197.8</ele>
        <time>2013-12-20T13:44:56.157Z</time>
      </trkpt>
      <trkpt lat="48.72453" lon="1.9955">
        <ele>197.8</ele>
        <time>2013-12-20T13:44:57.173Z</time>
      </trkpt>
      <trkpt lat="48.72452" lon="1.99551">
        <ele>198</ele>
        <time>2013-12-20T13:45:16.157Z</time>
      </trkpt>
      <trkpt lat="48.72453" lon="1.9955">
        <ele>198</ele>
        <time>2013-12-20T13:45:17.165Z</time>
      </trkpt>
      <trkpt lat="48.72454" lon="1.99548">
        <ele>198</ele>
        <time>2013-12-20T13:45:25.175Z</time>
      </trkpt>
      <trkpt lat="48.72454" lon="1.99548">
        <ele>198</ele>
        <time>2013-12-20T13:45:26.139Z</time>
      </trkpt>
      <trkpt lat="48.72454" lon="1.99547">
        <ele>198.1</ele>
        <time>2013-12-20T13:45:48.087Z</time>
      </trkpt>
      <trkpt lat="48.72454" lon="1.99546">
        <ele>198.1</ele>
        <time>2013-12-20T13:45:49.199Z</time>
      </trkpt>
      <trkpt lat="48.72455" lon="1.99545">
        <ele>197.9</ele>
        <time>2013-12-20T13:45:53.134Z</time>
      </trkpt>
      <trkpt lat="48.72455" lon="1.99545">
        <ele>197.9</ele>
        <time>2013-12-20T13:45:54.130Z</time>
      </trkpt>
      <trkpt lat="48.72456" lon="1.99543">
        <ele>197.9</ele>
        <time>2013-12-20T13:46:03.251Z</time>
      </trkpt>
      <trkpt lat="48.72456" lon="1.99542">
        <ele>197.9</ele>
        <time>2013-12-20T13:46:04.155Z</time>
      </trkpt>
      <trkpt lat="48.72456" lon="1.99541">
        <ele>197.9</ele>
        <time>2013-12-20T13:46:08.128Z</time>
      </trkpt>
      <trkpt lat="48.72456" lon="1.99541">
        <ele>197.9</ele>
        <time>2013-12-20T13:46:09.118Z</time>
      </trkpt>
      <trkpt lat="48.72456" lon="1.99542">
        <ele>197.9</ele>
        <time>2013-12-20T13:46:21.148Z</time>
      </trkpt>
      <trkpt lat="48.72456" lon="1.99543">
        <ele>197.9</ele>
        <time>2013-12-20T13:46:22.153Z</time>
      </trkpt>
      <trkpt lat="48.72456" lon="1.99543">
        <ele>197.9</ele>
        <time>2013-12-20T13:46:22.759Z</time>
      </trkpt>
      <trkpt lat="48.72456" lon="1.99543">
        <ele>197.9</ele>
        <time>2013-12-20T13:46:23.123Z</time>
      </trkpt>
      <trkpt lat="48.72456" lon="1.99543">
        <ele>197.9</ele>
        <time>2013-12-20T13:46:24.146Z</time>
      </trkpt>
      <trkpt lat="48.72453" lon="1.99549">
        <ele>197.7</ele>
        <time>2013-12-20T13:46:39.157Z</time>
      </trkpt>
      <trkpt lat="48.72453" lon="1.99549">
        <ele>197.7</ele>
        <time>2013-12-20T13:46:40.175Z</time>
      </trkpt>
      <trkpt lat="48.72452" lon="1.9955">
        <ele>197.8</ele>
        <time>2013-12-20T13:46:48.014Z</time>
      </trkpt>
      <trkpt lat="48.72452" lon="1.99551">
        <ele>197.8</ele>
        <time>2013-12-20T13:46:48.097Z</time>
      </trkpt>
      <trkpt lat="48.72453" lon="1.99552">
        <ele>197.8</ele>
        <time>2013-12-20T13:46:50.138Z</time>
      </trkpt>
      <trkpt lat="48.72453" lon="1.99552">
        <ele>197.8</ele>
        <time>2013-12-20T13:46:51.162Z</time>
      </trkpt>
      <trkpt lat="48.72453" lon="1.99551">
        <ele>197.7</ele>
        <time>2013-12-20T13:46:53.237Z</time>
      </trkpt>
      <trkpt lat="48.72453" lon="1.9955">
        <ele>197.7</ele>
        <time>2013-12-20T13:46:54.162Z</time>
      </trkpt>
      <trkpt lat="48.72453" lon="1.9955">
        <ele>197.7</ele>
        <time>2013-12-20T13:46:56.162Z</time>
      </trkpt>
      <trkpt lat="48.72453" lon="1.99549">
        <ele>197.7</ele>
        <time>2013-12-20T13:46:57.163Z</time>
      </trkpt>
      <trkpt lat="48.72454" lon="1.99549">
        <ele>197.7</ele>
        <time>2013-12-20T13:47:03.223Z</time>
      </trkpt>
      <trkpt lat="48.72454" lon="1.99549">
        <ele>197.7</ele>
        <time>2013-12-20T13:47:04.317Z</time>
      </trkpt>
      <trkpt lat="48.72454" lon="1.9955">
        <ele>197.7</ele>
        <time>2013-12-20T13:47:05.184Z</time>
      </trkpt>
      <trkpt lat="48.72454" lon="1.9955">
        <ele>197.8</ele>
        <time>2013-12-20T13:47:38.152Z</time>
      </trkpt>
      <trkpt lat="48.72453" lon="1.9955">
        <ele>197.9</ele>
        <time>2013-12-20T13:47:39.195Z</time>
      </trkpt>
      <trkpt lat="48.72452" lon="1.9955">
        <ele>197.9</ele>
        <time>2013-12-20T13:47:42.959Z</time>
      </trkpt>
      <trkpt lat="48.72452" lon="1.9955">
        <ele>197.9</ele>
        <time>2013-12-20T13:47:43.115Z</time>
      </trkpt>
      <trkpt lat="48.72451" lon="1.9955">
        <ele>197.9</ele>
        <time>2013-12-20T13:47:57.175Z</time>
      </trkpt>
      <trkpt lat="48.72451" lon="1.9955">
        <ele>197.8</ele>
        <time>2013-12-20T13:47:58.274Z</time>
      </trkpt>
      <trkpt lat="48.72451" lon="1.9955">
        <ele>197.8</ele>
        <time>2013-12-20T13:47:58.238Z</time>
      </trkpt>
      <trkpt lat="48.72451" lon="1.9955">
        <ele>197.8</ele>
        <time>2013-12-20T13:47:59.169Z</time>
      </trkpt>
      <trkpt lat="48.72451" lon="1.9955">
        <ele>197.8</ele>
        <time>2013-12-20T13:48:12.770Z</time>
      </trkpt>
      <trkpt lat="48.72451" lon="1.9955">
        <ele>197.8</ele>
        <time>2013-12-20T13:48:13.122Z</time>
      </trkpt>
      <trkpt lat="48.72452" lon="1.99549">
        <ele>198.2</ele>
        <time>2013-12-20T13:48:17.798Z</time>
      </trkpt>
      <trkpt lat="48.72452" lon="1.99549">
        <ele>198.2</ele>
        <time>2013-12-20T13:48:18.209Z</time>
      </trkpt>
      <trkpt lat="48.72454" lon="1.99549">
        <ele>198.1</ele>
        <time>2013-12-20T13:48:44.193Z</time>
      </trkpt>
      <trkpt lat="48.72454" lon="1.99549">
        <ele>198.1</ele>
        <time>2013-12-20T13:48:45.177Z</time>
      </trkpt>
      <trkpt lat="48.72455" lon="1.99549">
        <ele>198.1</ele>
        <time>2013-12-20T13:48:48.100Z</time>
      </trkpt>
      <trkpt lat="48.72455" lon="1.99549">
        <ele>198.1</ele>
        <time>2013-12-20T13:48:49.165Z</time>
      </trkpt>
      <trkpt lat="48.72454" lon="1.9955">
        <ele>198.1</ele>
        <time>2013-12-20T13:48:58.283Z</time>
      </trkpt>
      <trkpt lat="48.72454" lon="1.9955">
        <ele>198.1</ele>
        <time>2013-12-20T13:48:59.186Z</time>
      </trkpt>
      <trkpt lat="48.72451" lon="1.99553">
        <ele>198.1</ele>
        <time>2013-12-20T13:49:09.180Z</time>
      </trkpt>
      <trkpt lat="48.72451" lon="1.99552">
        <ele>198.1</ele>
        <time>2013-12-20T13:49:10.153Z</time>
      </trkpt>
      <trkpt lat="48.72452" lon="1.99551">
        <ele>198.1</ele>
        <time>2013-12-20T13:49:17.874Z</time>
      </trkpt>
      <trkpt lat="48.72452" lon="1.99551">
        <ele>198.2</ele>
        <time>2013-12-20T13:49:18.153Z</time>
      </trkpt>
      <trkpt lat="48.72452" lon="1.9955">
        <ele>198.3</ele>
        <time>2013-12-20T13:49:19.130Z</time>
      </trkpt>
      <trkpt lat="48.72452" lon="1.9955">
        <ele>198.3</ele>
        <time>2013-12-20T13:49:20.167Z</time>
      </trkpt>
      <trkpt lat="48.72452" lon="1.9955">
        <ele>198.8</ele>
        <time>2013-12-20T13:49:38.131Z</time>
      </trkpt>
      <trkpt lat="48.72452" lon="1.99551">
        <ele>199</ele>
        <time>2013-12-20T13:49:39.162Z</time>
      </trkpt>
      <trkpt lat="48.72452" lon="1.99551">
        <ele>199.2</ele>
        <time>2013-12-20T13:49:40.236Z</time>
      </trkpt>
      <trkpt lat="48.72452" lon="1.99551">
        <ele>199.2</ele>
        <time>2013-12-20T13:49:41.111Z</time>
      </trkpt>
      <trkpt lat="48.72453" lon="1.99551">
        <ele>199.3</ele>
        <time>2013-12-20T13:49:48.073Z</time>
      </trkpt>
      <trkpt lat="48.72453" lon="1.9955">
        <ele>199.3</ele>
        <time>2013-12-20T13:49:48.259Z</time>
      </trkpt>
      <trkpt lat="48.72453" lon="1.9955">
        <ele>199.3</ele>
        <time>2013-12-20T13:49:49.177Z</time>
      </trkpt>
      <trkpt lat="48.72453" lon="1.9955">
        <ele>199.3</ele>
        <time>2013-12-20T13:49:50.234Z</time>
      </trkpt>
      <trkpt lat="48.72454" lon="1.99548">
        <ele>199.3</ele>
        <time>2013-12-20T13:50:11.186Z</time>
      </trkpt>
      <trkpt lat="48.72454" lon="1.99548">
        <ele>199.3</ele>
        <time>2013-12-20T13:50:12.158Z</time>
      </trkpt>
      <trkpt lat="48.72454" lon="1.99549">
        <ele>199.4</ele>
        <time>2013-12-20T13:50:15.164Z</time>
      </trkpt>
      <trkpt lat="48.72454" lon="1.99549">
        <ele>199.4</ele>
        <time>2013-12-20T13:50:16.182Z</time>
      </trkpt>
      <trkpt lat="48.72454" lon="1.9955">
        <ele>199.7</ele>
        <time>2013-12-20T13:50:49.194Z</time>
      </trkpt>
      <trkpt lat="48.72454" lon="1.99551">
        <ele>199.7</ele>
        <time>2013-12-20T13:50:50.133Z</time>
      </trkpt>
      <trkpt lat="48.72455" lon="1.99552">
        <ele>199.6</ele>
        <time>2013-12-20T13:50:54.176Z</time>
      </trkpt>
      <trkpt lat="48.72455" lon="1.99552">
        <ele>199.6</ele>
        <time>2013-12-20T13:50:55.193Z</time>
      </trkpt>
      <trkpt lat="48.72454" lon="1.99553">
        <ele>199.6</ele>
        <time>2013-12-20T13:51:03.588Z</time>
      </trkpt>
      <trkpt lat="48.72454" lon="1.99552">
        <ele>199.6</ele>
        <time>2013-12-20T13:51:04.116Z</time>
      </trkpt>
      <trkpt lat="48.72454" lon="1.99551">
        <ele>199.6</ele>
        <time>2013-12-20T13:51:07.719Z</time>
      </trkpt>
      <trkpt lat="48.72454" lon="1.99551">
        <ele>199.6</ele>
        <time>2013-12-20T13:51:08.167Z</time>
      </trkpt>
      <trkpt lat="48.72454" lon="1.99552">
        <ele>200.1</ele>
        <time>2013-12-20T13:51:26.168Z</time>
      </trkpt>
      <trkpt lat="48.72454" lon="1.99551">
        <ele>200.1</ele>
        <time>2013-12-20T13:51:27.176Z</time>
      </trkpt>
      <trkpt lat="48.72454" lon="1.99551">
        <ele>200.1</ele>
        <time>2013-12-20T13:51:27.851Z</time>
      </trkpt>
      <trkpt lat="48.72454" lon="1.99551">
        <ele>200.2</ele>
        <time>2013-12-20T13:51:28.113Z</time>
      </trkpt>
      <trkpt lat="48.72454" lon="1.99552">
        <ele>200.3</ele>
        <time>2013-12-20T13:51:38.166Z</time>
      </trkpt>
      <trkpt lat="48.72454" lon="1.99552">
        <ele>200.3</ele>
        <time>2013-12-20T13:51:39.120Z</time>
      </trkpt>
      <trkpt lat="48.72454" lon="1.99552">
        <ele>200.3</ele>
        <time>2013-12-20T13:51:40.169Z</time>
      </trkpt>
      <trkpt lat="48.72455" lon="1.99552">
        <ele>200.2</ele>
        <time>2013-12-20T13:51:41.174Z</time>
      </trkpt>
      <trkpt lat="48.72463" lon="1.99556">
        <ele>200.1</ele>
        <time>2013-12-20T13:51:52.200Z</time>
      </trkpt>
      <trkpt lat="48.72463" lon="1.99556">
        <ele>200.1</ele>
        <time>2013-12-20T13:51:53.178Z</time>
      </trkpt>
      <trkpt lat="48.72471" lon="1.99561">
        <ele>200.1</ele>
        <time>2013-12-20T13:52:03.389Z</time>
      </trkpt>
      <trkpt lat="48.72472" lon="1.99561">
        <ele>200.1</ele>
        <time>2013-12-20T13:52:04.190Z</time>
      </trkpt>
      <trkpt lat="48.7248" lon="1.99562">
        <ele>200.4</ele>
        <time>2013-12-20T13:52:12.703Z</time>
      </trkpt>
      <trkpt lat="48.72481" lon="1.99562">
        <ele>200.5</ele>
        <time>2013-12-20T13:52:13.133Z</time>
      </trkpt>
      <trkpt lat="48.72489" lon="1.99563">
        <ele>200.7</ele>
        <time>2013-12-20T13:52:21.131Z</time>
      </trkpt>
      <trkpt lat="48.72491" lon="1.99563">
        <ele>200.7</ele>
        <time>2013-12-20T13:52:22.180Z</time>
      </trkpt>
      <trkpt lat="48.72499" lon="1.99564">
        <ele>200.5</ele>
        <time>2013-12-20T13:52:32.837Z</time>
      </trkpt>
      <trkpt lat="48.725" lon="1.99565">
        <ele>200.5</ele>
        <time>2013-12-20T13:52:33.124Z</time>
      </trkpt>
      <trkpt lat="48.72508" lon="1.99567">
        <ele>200.3</ele>
        <time>2013-12-20T13:52:41.160Z</time>
      </trkpt>
      <trkpt lat="48.72509" lon="1.99567">
        <ele>200.3</ele>
        <time>2013-12-20T13:52:42.161Z</time>
      </trkpt>
      <trkpt lat="48.72518" lon="1.99567">
        <ele>200.1</ele>
        <time>2013-12-20T13:52:50.162Z</time>
      </trkpt>
      <trkpt lat="48.72518" lon="1.99568">
        <ele>200</ele>
        <time>2013-12-20T13:52:51.157Z</time>
      </trkpt>
      <trkpt lat="48.72526" lon="1.99571">
        <ele>199.6</ele>
        <time>2013-12-20T13:52:59.174Z</time>
      </trkpt>
      <trkpt lat="48.72528" lon="1.99571">
        <ele>199.5</ele>
        <time>2013-12-20T13:53:00.258Z</time>
      </trkpt>
      <trkpt lat="48.72536" lon="1.99573">
        <ele>199.4</ele>
        <time>2013-12-20T13:53:09.163Z</time>
      </trkpt>
      <trkpt lat="48.72537" lon="1.99573">
        <ele>199.4</ele>
        <time>2013-12-20T13:53:10.172Z</time>
      </trkpt>
      <trkpt lat="48.72546" lon="1.99575">
        <ele>199.4</ele>
        <time>2013-12-20T13:53:17.837Z</time>
      </trkpt>
      <trkpt lat="48.72546" lon="1.99575">
        <ele>199.4</ele>
        <time>2013-12-20T13:53:18.131Z</time>
      </trkpt>
      <trkpt lat="48.72555" lon="1.99577">
        <ele>199.3</ele>
        <time>2013-12-20T13:53:27.864Z</time>
      </trkpt>
      <trkpt lat="48.72556" lon="1.99577">
        <ele>199.2</ele>
        <time>2013-12-20T13:53:28.122Z</time>
      </trkpt>
      <trkpt lat="48.72564" lon="1.99578">
        <ele>199.2</ele>
        <time>2013-12-20T13:53:35.192Z</time>
      </trkpt>
      <trkpt lat="48.72565" lon="1.99578">
        <ele>199.2</ele>
        <time>2013-12-20T13:53:36.177Z</time>
      </trkpt>
      <trkpt lat="48.72573" lon="1.99584">
        <ele>199.3</ele>
        <time>2013-12-20T13:53:43.241Z</time>
      </trkpt>
      <trkpt lat="48.72574" lon="1.99585">
        <ele>199.4</ele>
        <time>2013-12-20T13:53:44.168Z</time>
      </trkpt>
      <trkpt lat="48.72578" lon="1.99596">
        <ele>199.8</ele>
        <time>2013-12-20T13:53:52.167Z</time>
      </trkpt>
      <trkpt lat="48.72578" lon="1.99598">
        <ele>199.8</ele>
        <time>2013-12-20T13:53:53.126Z</time>
      </trkpt>
      <trkpt lat="48.72576" lon="1.9961">
        <ele>200.1</ele>
        <time>2013-12-20T13:54:00.335Z</time>
      </trkpt>
      <trkpt lat="48.72575" lon="1.99612">
        <ele>200.1</ele>
        <time>2013-12-20T13:54:01.167Z</time>
      </trkpt>
      <trkpt lat="48.72572" lon="1.99624">
        <ele>200</ele>
        <time>2013-12-20T13:54:08.163Z</time>
      </trkpt>
      <trkpt lat="48.72572" lon="1.99625">
        <ele>199.9</ele>
        <time>2013-12-20T13:54:09.162Z</time>
      </trkpt>
      <trkpt lat="48.72568" lon="1.99637">
        <ele>199.1</ele>
        <time>2013-12-20T13:54:16.186Z</time>
      </trkpt>
      <trkpt lat="48.72568" lon="1.99638">
        <ele>199</ele>
        <time>2013-12-20T13:54:17.153Z</time>
      </trkpt>
      <trkpt lat="48.72566" lon="1.9965">
        <ele>198.7</ele>
        <time>2013-12-20T13:54:26.175Z</time>
      </trkpt>
      <trkpt lat="48.72566" lon="1.99652">
        <ele>198.6</ele>
        <time>2013-12-20T13:54:27.175Z</time>
      </trkpt>
      <trkpt lat="48.72568" lon="1.99664">
        <ele>198.1</ele>
        <time>2013-12-20T13:54:34.173Z</time>
      </trkpt>
      <trkpt lat="48.72569" lon="1.99665">
        <ele>198.1</ele>
        <time>2013-12-20T13:54:35.172Z</time>
      </trkpt>
      <trkpt lat="48.72574" lon="1.99675">
        <ele>197.9</ele>
        <time>2013-12-20T13:54:42.908Z</time>
      </trkpt>
      <trkpt lat="48.72576" lon="1.99676">
        <ele>197.9</ele>
        <time>2013-12-20T13:54:43.382Z</time>
      </trkpt>
      <trkpt lat="48.72583" lon="1.99679">
        <ele>198.1</ele>
        <time>2013-12-20T13:54:50.173Z</time>
      </trkpt>
      <trkpt lat="48.72585" lon="1.99679">
        <ele>198.1</ele>
        <time>2013-12-20T13:54:51.173Z</time>
      </trkpt>
      <trkpt lat="48.72592" lon="1.99685">
        <ele>198.3</ele>
        <time>2013-12-20T13:54:57.168Z</time>
      </trkpt>
      <trkpt lat="48.72593" lon="1.99686">
        <ele>198.3</ele>
        <time>2013-12-20T13:54:58.218Z</time>
      </trkpt>
      <trkpt lat="48.72601" lon="1.99691">
        <ele>198</ele>
        <time>2013-12-20T13:55:08.167Z</time>
      </trkpt>
      <trkpt lat="48.72602" lon="1.99692">
        <ele>198</ele>
        <time>2013-12-20T13:55:09.370Z</time>
      </trkpt>
      <trkpt lat="48.7261" lon="1.99696">
        <ele>198</ele>
        <time>2013-12-20T13:55:18.000Z</time>
      </trkpt>
      <trkpt lat="48.72611" lon="1.99697">
        <ele>197.9</ele>
        <time>2013-12-20T13:55:18.222Z</time>
      </trkpt>
      <trkpt lat="48.72619" lon="1.99701">
        <ele>198</ele>
        <time>2013-12-20T13:55:25.174Z</time>
      </trkpt>
      <trkpt lat="48.72621" lon="1.99701">
        <ele>198</ele>
        <time>2013-12-20T13:55:26.168Z</time>
      </trkpt>
      <trkpt lat="48.72628" lon="1.99708">
        <ele>197.8</ele>
        <time>2013-12-20T13:55:35.168Z</time>
      </trkpt>
      <trkpt lat="48.72629" lon="1.99709">
        <ele>197.8</ele>
        <time>2013-12-20T13:55:36.166Z</time>
      </trkpt>
      <trkpt lat="48.72636" lon="1.99713">
        <ele>197.5</ele>
        <time>2013-12-20T13:55:43.189Z</time>
      </trkpt>
      <trkpt lat="48.72637" lon="1.99714">
        <ele>197.5</ele>
        <time>2013-12-20T13:55:44.166Z</time>
      </trkpt>
      <trkpt lat="48.72645" lon="1.9972">
        <ele>197.3</ele>
        <time>2013-12-20T13:55:52.163Z</time>
      </trkpt>
      <trkpt lat="48.72646" lon="1.99721">
        <ele>197.3</ele>
        <time>2013-12-20T13:55:53.248Z</time>
      </trkpt>
      <trkpt lat="48.72653" lon="1.99727">
        <ele>197.2</ele>
        <time>2013-12-20T13:56:02.165Z</time>
      </trkpt>
      <trkpt lat="48.72655" lon="1.99727">
        <ele>197.2</ele>
        <time>2013-12-20T13:56:03.166Z</time>
      </trkpt>
      <trkpt lat="48.72661" lon="1.99732">
        <ele>197.5</ele>
        <time>2013-12-20T13:56:09.166Z</time>
      </trkpt>
      <trkpt lat="48.72663" lon="1.99733">
        <ele>197.6</ele>
        <time>2013-12-20T13:56:10.169Z</time>
      </trkpt>
      <trkpt lat="48.7267" lon="1.99737">
        <ele>198.1</ele>
        <time>2013-12-20T13:56:17.169Z</time>
      </trkpt>
      <trkpt lat="48.72671" lon="1.99738">
        <ele>198.2</ele>
        <time>2013-12-20T13:56:18.173Z</time>
      </trkpt>
      <trkpt lat="48.72678" lon="1.99744">
        <ele>198.2</ele>
        <time>2013-12-20T13:56:26.180Z</time>
      </trkpt>
      <trkpt lat="48.72679" lon="1.99745">
        <ele>198.2</ele>
        <time>2013-12-20T13:56:27.167Z</time>
      </trkpt>
      <trkpt lat="48.72686" lon="1.99751">
        <ele>198.6</ele>
        <time>2013-12-20T13:56:33.661Z</time>
      </trkpt>
      <trkpt lat="48.72687" lon="1.99752">
        <ele>198.6</ele>
        <time>2013-12-20T13:56:34.134Z</time>
      </trkpt>
      <trkpt lat="48.72693" lon="1.99761">
        <ele>199</ele>
        <time>2013-12-20T13:56:41.180Z</time>
      </trkpt>
      <trkpt lat="48.72694" lon="1.99763">
        <ele>199.1</ele>
        <time>2013-12-20T13:56:42.120Z</time>
      </trkpt>
      <trkpt lat="48.72701" lon="1.99772">
        <ele>199.2</ele>
        <time>2013-12-20T13:56:52.154Z</time>
      </trkpt>
      <trkpt lat="48.72702" lon="1.99773">
        <ele>199.3</ele>
        <time>2013-12-20T13:56:53.146Z</time>
      </trkpt>
      <trkpt lat="48.72709" lon="1.9978">
        <ele>199.6</ele>
        <time>2013-12-20T13:57:00.181Z</time>
      </trkpt>
      <trkpt lat="48.7271" lon="1.99781">
        <ele>199.7</ele>
        <time>2013-12-20T13:57:01.293Z</time>
      </trkpt>
      <trkpt lat="48.72715" lon="1.99791">
        <ele>199.9</ele>
        <time>2013-12-20T13:57:09.113Z</time>
      </trkpt>
      <trkpt lat="48.72716" lon="1.99792">
        <ele>199.9</ele>
        <time>2013-12-20T13:57:10.140Z</time>
      </trkpt>
      <trkpt lat="48.72723" lon="1.99801">
        <ele>199.8</ele>
        <time>2013-12-20T13:57:18.109Z</time>
      </trkpt>
      <trkpt lat="48.72723" lon="1.99802">
        <ele>199.8</ele>
        <time>2013-12-20T13:57:19.119Z</time>
      </trkpt>
      <trkpt lat="48.7273" lon="1.99809">
        <ele>199.4</ele>
        <time>2013-12-20T13:57:26.174Z</time>
      </trkpt>
      <trkpt lat="48.72731" lon="1.99809">
        <ele>199.3</ele>
        <time>2013-12-20T13:57:27.172Z</time>
      </trkpt>
      <trkpt lat="48.72739" lon="1.99812">
        <ele>200.1</ele>
        <time>2013-12-20T13:57:35.173Z</time>
      </trkpt>
      <trkpt lat="48.7274" lon="1.99812">
        <ele>200.2</ele>
        <time>2013-12-20T13:57:36.177Z</time>
      </trkpt>
      <trkpt lat="48.72748" lon="1.99815">
        <ele>200.9</ele>
        <time>2013-12-20T13:57:44.160Z</time>
      </trkpt>
      <trkpt lat="48.72749" lon="1.99816">
        <ele>200.9</ele>
        <time>2013-12-20T13:57:45.166Z</time>
      </trkpt>
      <trkpt lat="48.72757" lon="1.99823">
        <ele>201</ele>
        <time>2013-12-20T13:57:53.005Z</time>
      </trkpt>
      <trkpt lat="48.72758" lon="1.99824">
        <ele>201.1</ele>
        <time>2013-12-20T13:57:53.187Z</time>
      </trkpt>
      <trkpt lat="48.72764" lon="1.9983">
        <ele>201.4</ele>
        <time>2013-12-20T13:58:01.153Z</time>
      </trkpt>
      <trkpt lat="48.72765" lon="1.99831">
        <ele>201.4</ele>
        <time>2013-12-20T13:58:02.155Z</time>
      </trkpt>
      <trkpt lat="48.72773" lon="1.99835">
        <ele>201.3</ele>
        <time>2013-12-20T13:58:07.735Z</time>
      </trkpt>
      <trkpt lat="48.72774" lon="1.99836">
        <ele>201.4</ele>
        <time>2013-12-20T13:58:08.131Z</time>
      </trkpt>
      <trkpt lat="48.72781" lon="1.99842">
        <ele>201.6</ele>
        <time>2013-12-20T13:58:16.160Z</time>
      </trkpt>
      <trkpt lat="48.72783" lon="1.99842">
        <ele>201.5</ele>
        <time>2013-12-20T13:58:17.157Z</time>
      </trkpt>
      <trkpt lat="48.7279" lon="1.99847">
        <ele>201.5</ele>
        <time>2013-12-20T13:58:24.154Z</time>
      </trkpt>
      <trkpt lat="48.72791" lon="1.99848">
        <ele>201.5</ele>
        <time>2013-12-20T13:58:25.152Z</time>
      </trkpt>
      <trkpt lat="48.72799" lon="1.99854">
        <ele>201.6</ele>
        <time>2013-12-20T13:58:31.150Z</time>
      </trkpt>
      <trkpt lat="48.728" lon="1.99854">
        <ele>201.7</ele>
        <time>2013-12-20T13:58:32.150Z</time>
      </trkpt>
      <trkpt lat="48.72807" lon="1.99857">
        <ele>202.3</ele>
        <time>2013-12-20T13:58:39.148Z</time>
      </trkpt>
      <trkpt lat="48.72809" lon="1.99857">
        <ele>202.4</ele>
        <time>2013-12-20T13:58:40.149Z</time>
      </trkpt>
      <trkpt lat="48.72817" lon="1.99859">
        <ele>203</ele>
        <time>2013-12-20T13:58:49.149Z</time>
      </trkpt>
      <trkpt lat="48.72818" lon="1.99859">
        <ele>203.2</ele>
        <time>2013-12-20T13:58:50.149Z</time>
      </trkpt>
      <trkpt lat="48.72826" lon="1.99863">
        <ele>204.1</ele>
        <time>2013-12-20T13:58:56.151Z</time>
      </trkpt>
      <trkpt lat="48.72828" lon="1.99864">
        <ele>204.2</ele>
        <time>2013-12-20T13:58:57.153Z</time>
      </trkpt>
      <trkpt lat="48.72835" lon="1.99867">
        <ele>204.2</ele>
        <time>2013-12-20T13:59:03.227Z</time>
      </trkpt>
      <trkpt lat="48.72837" lon="1.99868">
        <ele>204.2</ele>
        <time>2013-12-20T13:59:04.149Z</time>
      </trkpt>
      <trkpt lat="48.72844" lon="1.99871">
        <ele>204.1</ele>
        <time>2013-12-20T13:59:12.774Z</time>
      </trkpt>
      <trkpt lat="48.72845" lon="1.99872">
        <ele>204.1</ele>
        <time>2013-12-20T13:59:13.111Z</time>
      </trkpt>
      <trkpt lat="48.72853" lon="1.99874">
        <ele>203.9</ele>
        <time>2013-12-20T13:59:20.160Z</time>
      </trkpt>
      <trkpt lat="48.72855" lon="1.99875">
        <ele>203.9</ele>
        <time>2013-12-20T13:59:21.154Z</time>
      </trkpt>
      <trkpt lat="48.72863" lon="1.99877">
        <ele>203.4</ele>
        <time>2013-12-20T13:59:28.095Z</time>
      </trkpt>
      <trkpt lat="48.72864" lon="1.99877">
        <ele>203.3</ele>
        <time>2013-12-20T13:59:29.203Z</time>
      </trkpt>
      <trkpt lat="48.72872" lon="1.99881">
        <ele>202.7</ele>
        <time>2013-12-20T13:59:36.152Z</time>
      </trkpt>
      <trkpt lat="48.72873" lon="1.99883">
        <ele>202.6</ele>
        <time>2013-12-20T13:59:37.151Z</time>
      </trkpt>
      <trkpt lat="48.7288" lon="1.99888">
        <ele>202.2</ele>
        <time>2013-12-20T13:59:43.120Z</time>
      </trkpt>
      <trkpt lat="48.72882" lon="1.99889">
        <ele>202.1</ele>
        <time>2013-12-20T13:59:44.151Z</time>
      </trkpt>
      <trkpt lat="48.7289" lon="1.9989">
        <ele>201.8</ele>
        <time>2013-12-20T13:59:53.222Z</time>
      </trkpt>
      <trkpt lat="48.72891" lon="1.9989">
        <ele>201.9</ele>
        <time>2013-12-20T13:59:54.157Z</time>
      </trkpt>
      <trkpt lat="48.72894" lon="1.99884">
        <ele>203</ele>
        <time>2013-12-20T14:00:04.155Z</time>
      </trkpt>
      <trkpt lat="48.72895" lon="1.99884">
        <ele>203.1</ele>
        <time>2013-12-20T14:00:05.151Z</time>
      </trkpt>
      <trkpt lat="48.72895" lon="1.99885">
        <ele>203.1</ele>
        <time>2013-12-20T14:00:06.153Z</time>
      </trkpt>
      <trkpt lat="48.72895" lon="1.99885">
        <ele>203.1</ele>
        <time>2013-12-20T14:00:07.164Z</time>
      </trkpt>
      <trkpt lat="48.72895" lon="1.99886">
        <ele>203.1</ele>
        <time>2013-12-20T14:00:08.153Z</time>
      </trkpt>
      <trkpt lat="48.72895" lon="1.99886">
        <ele>203.2</ele>
        <time>2013-12-20T14:00:09.153Z</time>
      </trkpt>
      <trkpt lat="48.72895" lon="1.99885">
        <ele>203.5</ele>
        <time>2013-12-20T14:00:11.150Z</time>
      </trkpt>
      <trkpt lat="48.72896" lon="1.99885">
        <ele>203.5</ele>
        <time>2013-12-20T14:00:12.274Z</time>
      </trkpt>
      <trkpt lat="48.72905" lon="1.99887">
        <ele>204</ele>
        <time>2013-12-20T14:00:20.262Z</time>
      </trkpt>
      <trkpt lat="48.72906" lon="1.99887">
        <ele>204.1</ele>
        <time>2013-12-20T14:00:21.158Z</time>
      </trkpt>
      <trkpt lat="48.72915" lon="1.99884">
        <ele>204.5</ele>
        <time>2013-12-20T14:00:26.149Z</time>
      </trkpt>
      <trkpt lat="48.72916" lon="1.99884">
        <ele>204.5</ele>
        <time>2013-12-20T14:00:27.147Z</time>
      </trkpt>
      <trkpt lat="48.72925" lon="1.99882">
        <ele>204.8</ele>
        <time>2013-12-20T14:00:36.432Z</time>
      </trkpt>
      <trkpt lat="48.72926" lon="1.99882">
        <ele>204.8</ele>
        <time>2013-12-20T14:00:37.121Z</time>
      </trkpt>
      <trkpt lat="48.72934" lon="1.99879">
        <ele>205</ele>
        <time>2013-12-20T14:00:44.117Z</time>
      </trkpt>
      <trkpt lat="48.72935" lon="1.99879">
        <ele>205.1</ele>
        <time>2013-12-20T14:00:45.092Z</time>
      </trkpt>
      <trkpt lat="48.72944" lon="1.99874">
        <ele>205.5</ele>
        <time>2013-12-20T14:00:53.096Z</time>
      </trkpt>
      <trkpt lat="48.72944" lon="1.99874">
        <ele>205.6</ele>
        <time>2013-12-20T14:00:54.102Z</time>
      </trkpt>
      <trkpt lat="48.72953" lon="1.99871">
        <ele>206.4</ele>
        <time>2013-12-20T14:01:05.103Z</time>
      </trkpt>
      <trkpt lat="48.72954" lon="1.99871">
        <ele>206.4</ele>
        <time>2013-12-20T14:01:06.098Z</time>
      </trkpt>
      <trkpt lat="48.72961" lon="1.99869">
        <ele>206.2</ele>
        <time>2013-12-20T14:01:17.871Z</time>
      </trkpt>
      <trkpt lat="48.72961" lon="1.99869">
        <ele>206.2</ele>
        <time>2013-12-20T14:01:18.103Z</time>
      </trkpt>
      <trkpt lat="48.72962" lon="1.99869">
        <ele>206.2</ele>
        <time>2013-12-20T14:01:25.070Z</time>
      </trkpt>
      <trkpt lat="48.72962" lon="1.99869">
        <ele>206.2</ele>
        <time>2013-12-20T14:01:26.107Z</time>
      </trkpt>
      <trkpt lat="48.72962" lon="1.9987">
        <ele>206.2</ele>
        <time>2013-12-20T14:01:27.778Z</time>
      </trkpt>
      <trkpt lat="48.72962" lon="1.9987">
        <ele>206.2</ele>
        <time>2013-12-20T14:01:28.063Z</time>
      </trkpt>
      <trkpt lat="48.72962" lon="1.99869">
        <ele>206.2</ele>
        <time>2013-12-20T14:01:30.106Z</time>
      </trkpt>
      <trkpt lat="48.72962" lon="1.99869">
        <ele>206.1</ele>
        <time>2013-12-20T14:01:31.093Z</time>
      </trkpt>
      <trkpt lat="48.7297" lon="1.99867">
        <ele>206.1</ele>
        <time>2013-12-20T14:01:41.101Z</time>
      </trkpt>
      <trkpt lat="48.72971" lon="1.99867">
        <ele>206.1</ele>
        <time>2013-12-20T14:01:42.101Z</time>
      </trkpt>
      <trkpt lat="48.7298" lon="1.99865">
        <ele>206.4</ele>
        <time>2013-12-20T14:01:50.107Z</time>
      </trkpt>
      <trkpt lat="48.72981" lon="1.99865">
        <ele>206.4</ele>
        <time>2013-12-20T14:01:51.125Z</time>
      </trkpt>
      <trkpt lat="48.7299" lon="1.99865">
        <ele>206.3</ele>
        <time>2013-12-20T14:02:00.115Z</time>
      </trkpt>
      <trkpt lat="48.72991" lon="1.99866">
        <ele>206.3</ele>
        <time>2013-12-20T14:02:01.123Z</time>
      </trkpt>
      <trkpt lat="48.73" lon="1.99869">
        <ele>206.2</ele>
        <time>2013-12-20T14:02:11.142Z</time>
      </trkpt>
      <trkpt lat="48.73001" lon="1.9987">
        <ele>206.2</ele>
        <time>2013-12-20T14:02:12.113Z</time>
      </trkpt>
      <trkpt lat="48.73009" lon="1.99873">
        <ele>205.9</ele>
        <time>2013-12-20T14:02:19.104Z</time>
      </trkpt>
      <trkpt lat="48.73011" lon="1.99874">
        <ele>205.8</ele>
        <time>2013-12-20T14:02:20.105Z</time>
      </trkpt>
      <trkpt lat="48.73019" lon="1.99879">
        <ele>205.3</ele>
        <time>2013-12-20T14:02:26.102Z</time>
      </trkpt>
      <trkpt lat="48.7302" lon="1.99879">
        <ele>205.2</ele>
        <time>2013-12-20T14:02:27.110Z</time>
      </trkpt>
      <trkpt lat="48.73028" lon="1.99882">
        <ele>204.7</ele>
        <time>2013-12-20T14:02:37.746Z</time>
      </trkpt>
      <trkpt lat="48.73028" lon="1.99882">
        <ele>204.7</ele>
        <time>2013-12-20T14:02:38.096Z</time>
      </trkpt>
      <trkpt lat="48.73028" lon="1.99882">
        <ele>204.6</ele>
        <time>2013-12-20T14:02:39.125Z</time>
      </trkpt>
      <trkpt lat="48.73027" lon="1.99882">
        <ele>204.6</ele>
        <time>2013-12-20T14:02:40.114Z</time>
      </trkpt>
      <trkpt lat="48.73027" lon="1.99883">
        <ele>204.6</ele>
        <time>2013-12-20T14:02:41.119Z</time>
      </trkpt>
      <trkpt lat="48.73027" lon="1.99883">
        <ele>204.6</ele>
        <time>2013-12-20T14:02:42.101Z</time>
      </trkpt>
      <trkpt lat="48.73028" lon="1.99883">
        <ele>204.5</ele>
        <time>2013-12-20T14:02:44.120Z</time>
      </trkpt>
      <trkpt lat="48.73028" lon="1.99883">
        <ele>204.3</ele>
        <time>2013-12-20T14:02:45.070Z</time>
      </trkpt>
      <trkpt lat="48.73037" lon="1.99886">
        <ele>203.7</ele>
        <time>2013-12-20T14:02:56.120Z</time>
      </trkpt>
      <trkpt lat="48.73037" lon="1.99885">
        <ele>203.7</ele>
        <time>2013-12-20T14:02:57.098Z</time>
      </trkpt>
      <trkpt lat="48.73038" lon="1.99884">
        <ele>203.7</ele>
        <time>2013-12-20T14:03:01.101Z</time>
      </trkpt>
      <trkpt lat="48.73038" lon="1.99883">
        <ele>203.7</ele>
        <time>2013-12-20T14:03:02.122Z</time>
      </trkpt>
      <trkpt lat="48.73038" lon="1.99883">
        <ele>203.7</ele>
        <time>2013-12-20T14:03:02.851Z</time>
      </trkpt>
      <trkpt lat="48.73037" lon="1.99883">
        <ele>203.7</ele>
        <time>2013-12-20T14:03:03.120Z</time>
      </trkpt>
      <trkpt lat="48.73037" lon="1.99883">
        <ele>203.7</ele>
        <time>2013-12-20T14:03:04.167Z</time>
      </trkpt>
      <trkpt lat="48.73037" lon="1.99884">
        <ele>203.7</ele>
        <time>2013-12-20T14:03:09.136Z</time>
      </trkpt>
      <trkpt lat="48.73037" lon="1.99884">
        <ele>203.7</ele>
        <time>2013-12-20T14:03:10.143Z</time>
      </trkpt>
      <trkpt lat="48.73037" lon="1.99885">
        <ele>203.7</ele>
        <time>2013-12-20T14:03:12.745Z</time>
      </trkpt>
      <trkpt lat="48.73037" lon="1.99885">
        <ele>203.7</ele>
        <time>2013-12-20T14:03:13.101Z</time>
      </trkpt>
      <trkpt lat="48.73037" lon="1.99885">
        <ele>203.7</ele>
        <time>2013-12-20T14:03:15.124Z</time>
      </trkpt>
      <trkpt lat="48.73038" lon="1.99885">
        <ele>203.5</ele>
        <time>2013-12-20T14:03:16.094Z</time>
      </trkpt>
      <trkpt lat="48.73037" lon="1.99883">
        <ele>203.2</ele>
        <time>2013-12-20T14:03:22.766Z</time>
      </trkpt>
      <trkpt lat="48.73037" lon="1.99883">
        <ele>203.2</ele>
        <time>2013-12-20T14:03:23.125Z</time>
      </trkpt>
      <trkpt lat="48.73037" lon="1.99884">
        <ele>203</ele>
        <time>2013-12-20T14:03:35.140Z</time>
      </trkpt>
      <trkpt lat="48.73037" lon="1.99884">
        <ele>203</ele>
        <time>2013-12-20T14:03:36.124Z</time>
      </trkpt>
      <trkpt lat="48.73037" lon="1.99886">
        <ele>203.1</ele>
        <time>2013-12-20T14:03:39.133Z</time>
      </trkpt>
      <trkpt lat="48.73037" lon="1.99886">
        <ele>203</ele>
        <time>2013-12-20T14:03:40.139Z</time>
      </trkpt>
      <trkpt lat="48.73038" lon="1.99885">
        <ele>202.9</ele>
        <time>2013-12-20T14:03:45.137Z</time>
      </trkpt>
      <trkpt lat="48.73038" lon="1.99885">
        <ele>202.9</ele>
        <time>2013-12-20T14:03:46.087Z</time>
      </trkpt>
      <trkpt lat="48.73039" lon="1.99886">
        <ele>202.9</ele>
        <time>2013-12-20T14:03:48.103Z</time>
      </trkpt>
      <trkpt lat="48.73039" lon="1.99886">
        <ele>202.9</ele>
        <time>2013-12-20T14:03:49.108Z</time>
      </trkpt>
      <trkpt lat="48.73039" lon="1.99886">
        <ele>202.8</ele>
        <time>2013-12-20T14:03:51.115Z</time>
      </trkpt>
      <trkpt lat="48.7304" lon="1.99887">
        <ele>202.8</ele>
        <time>2013-12-20T14:03:52.146Z</time>
      </trkpt>
      <trkpt lat="48.73047" lon="1.99892">
        <ele>202.4</ele>
        <time>2013-12-20T14:04:00.284Z</time>
      </trkpt>
      <trkpt lat="48.73048" lon="1.99893">
        <ele>202.4</ele>
        <time>2013-12-20T14:04:01.210Z</time>
      </trkpt>
      <trkpt lat="48.73055" lon="1.99898">
        <ele>202.1</ele>
        <time>2013-12-20T14:04:08.147Z</time>
      </trkpt>
      <trkpt lat="48.73057" lon="1.99899">
        <ele>202.1</ele>
        <time>2013-12-20T14:04:09.202Z</time>
      </trkpt>
      <trkpt lat="48.73064" lon="1.99905">
        <ele>202</ele>
        <time>2013-12-20T14:04:17.809Z</time>
      </trkpt>
      <trkpt lat="48.73065" lon="1.99906">
        <ele>202</ele>
        <time>2013-12-20T14:04:18.185Z</time>
      </trkpt>
      <trkpt lat="48.73072" lon="1.9991">
        <ele>202.1</ele>
        <time>2013-12-20T14:04:24.173Z</time>
      </trkpt>
      <trkpt lat="48.73074" lon="1.99911">
        <ele>202.1</ele>
        <time>2013-12-20T14:04:25.171Z</time>
      </trkpt>
      <trkpt lat="48.73081" lon="1.99917">
        <ele>201.7</ele>
        <time>2013-12-20T14:04:32.909Z</time>
      </trkpt>
      <trkpt lat="48.73082" lon="1.99918">
        <ele>201.6</ele>
        <time>2013-12-20T14:04:33.118Z</time>
      </trkpt>
      <trkpt lat="48.73091" lon="1.99922">
        <ele>200.9</ele>
        <time>2013-12-20T14:04:40.097Z</time>
      </trkpt>
      <trkpt lat="48.73092" lon="1.99923">
        <ele>200.8</ele>
        <time>2013-12-20T14:04:41.185Z</time>
      </trkpt>
      <trkpt lat="48.731" lon="1.99929">
        <ele>200.5</ele>
        <time>2013-12-20T14:04:48.102Z</time>
      </trkpt>
      <trkpt lat="48.73101" lon="1.9993">
        <ele>200.5</ele>
        <time>2013-12-20T14:04:49.103Z</time>
      </trkpt>
      <trkpt lat="48.73108" lon="1.99936">
        <ele>200.5</ele>
        <time>2013-12-20T14:04:55.109Z</time>
      </trkpt>
      <trkpt lat="48.73109" lon="1.99937">
        <ele>200.5</ele>
        <time>2013-12-20T14:04:56.100Z</time>
      </trkpt>
      <trkpt lat="48.73117" lon="1.99942">
        <ele>200.2</ele>
        <time>2013-12-20T14:05:03.260Z</time>
      </trkpt>
      <trkpt lat="48.73118" lon="1.99943">
        <ele>200.2</ele>
        <time>2013-12-20T14:05:04.178Z</time>
      </trkpt>
      <trkpt lat="48.73126" lon="1.99949">
        <ele>199.6</ele>
        <time>2013-12-20T14:05:10.167Z</time>
      </trkpt>
      <trkpt lat="48.73127" lon="1.99951">
        <ele>199.5</ele>
        <time>2013-12-20T14:05:11.189Z</time>
      </trkpt>
      <trkpt lat="48.73134" lon="1.99958">
        <ele>199.4</ele>
        <time>2013-12-20T14:05:18.301Z</time>
      </trkpt>
      <trkpt lat="48.73135" lon="1.99959">
        <ele>199.4</ele>
        <time>2013-12-20T14:05:18.340Z</time>
      </trkpt>
      <trkpt lat="48.73143" lon="1.99963">
        <ele>199.5</ele>
        <time>2013-12-20T14:05:25.171Z</time>
      </trkpt>
      <trkpt lat="48.73144" lon="1.99964">
        <ele>199.5</ele>
        <time>2013-12-20T14:05:26.160Z</time>
      </trkpt>
      <trkpt lat="48.73151" lon="1.9997">
        <ele>199.5</ele>
        <time>2013-12-20T14:05:32.162Z</time>
      </trkpt>
      <trkpt lat="48.73152" lon="1.99972">
        <ele>199.6</ele>
        <time>2013-12-20T14:05:33.158Z</time>
      </trkpt>
      <trkpt lat="48.73159" lon="1.99978">
        <ele>199.1</ele>
        <time>2013-12-20T14:05:40.157Z</time>
      </trkpt>
      <trkpt lat="48.7316" lon="1.99979">
        <ele>199.1</ele>
        <time>2013-12-20T14:05:41.167Z</time>
      </trkpt>
      <trkpt lat="48.73168" lon="1.99987">
        <ele>198.5</ele>
        <time>2013-12-20T14:05:48.616Z</time>
      </trkpt>
      <trkpt lat="48.73169" lon="1.99988">
        <ele>198.4</ele>
        <time>2013-12-20T14:05:49.162Z</time>
      </trkpt>
      <trkpt lat="48.73177" lon="1.99995">
        <ele>198</ele>
        <time>2013-12-20T14:05:55.171Z</time>
      </trkpt>
      <trkpt lat="48.73178" lon="1.99996">
        <ele>197.9</ele>
        <time>2013-12-20T14:05:56.125Z</time>
      </trkpt>
      <trkpt lat="48.73185" lon="2.00001">
        <ele>198</ele>
        <time>2013-12-20T14:06:01.125Z</time>
      </trkpt>
      <trkpt lat="48.73186" lon="2.00002">
        <ele>198</ele>
        <time>2013-12-20T14:06:02.179Z</time>
      </trkpt>
      <trkpt lat="48.73193" lon="2.00008">
        <ele>197.8</ele>
        <time>2013-12-20T14:06:09.150Z</time>
      </trkpt>
      <trkpt lat="48.73194" lon="2.00008">
        <ele>197.7</ele>
        <time>2013-12-20T14:06:10.164Z</time>
      </trkpt>
      <trkpt lat="48.73202" lon="2.00015">
        <ele>197.4</ele>
        <time>2013-12-20T14:06:17.788Z</time>
      </trkpt>
      <trkpt lat="48.73203" lon="2.00016">
        <ele>197.4</ele>
        <time>2013-12-20T14:06:18.118Z</time>
      </trkpt>
      <trkpt lat="48.73211" lon="2.00022">
        <ele>197.1</ele>
        <time>2013-12-20T14:06:24.153Z</time>
      </trkpt>
      <trkpt lat="48.73212" lon="2.00023">
        <ele>197.1</ele>
        <time>2013-12-20T14:06:25.146Z</time>
      </trkpt>
      <trkpt lat="48.73219" lon="2.00027">
        <ele>196.6</ele>
        <time>2013-12-20T14:06:31.156Z</time>
      </trkpt>
      <trkpt lat="48.7322" lon="2.00028">
        <ele>196.5</ele>
        <time>2013-12-20T14:06:32.156Z</time>
      </trkpt>
      <trkpt lat="48.73228" lon="2.00034">
        <ele>196.4</ele>
        <time>2013-12-20T14:06:38.176Z</time>
      </trkpt>
      <trkpt lat="48.73229" lon="2.00035">
        <ele>196.4</ele>
        <time>2013-12-20T14:06:39.205Z</time>
      </trkpt>
      <trkpt lat="48.73236" lon="2.00042">
        <ele>196.4</ele>
        <time>2013-12-20T14:06:45.207Z</time>
      </trkpt>
      <trkpt lat="48.73237" lon="2.00043">
        <ele>196.4</ele>
        <time>2013-12-20T14:06:46.217Z</time>
      </trkpt>
      <trkpt lat="48.73244" lon="2.00049">
        <ele>196.1</ele>
        <time>2013-12-20T14:06:53.023Z</time>
      </trkpt>
      <trkpt lat="48.73246" lon="2.0005">
        <ele>196.1</ele>
        <time>2013-12-20T14:06:53.184Z</time>
      </trkpt>
      <trkpt lat="48.73253" lon="2.00057">
        <ele>196.1</ele>
        <time>2013-12-20T14:06:59.243Z</time>
      </trkpt>
      <trkpt lat="48.73254" lon="2.00058">
        <ele>196.1</ele>
        <time>2013-12-20T14:07:00.209Z</time>
      </trkpt>
      <trkpt lat="48.73261" lon="2.00065">
        <ele>195.9</ele>
        <time>2013-12-20T14:07:08.125Z</time>
      </trkpt>
      <trkpt lat="48.73263" lon="2.00065">
        <ele>195.8</ele>
        <time>2013-12-20T14:07:08.156Z</time>
      </trkpt>
      <trkpt lat="48.73269" lon="2.00071">
        <ele>195.2</ele>
        <time>2013-12-20T14:07:14.168Z</time>
      </trkpt>
      <trkpt lat="48.7327" lon="2.00073">
        <ele>195.2</ele>
        <time>2013-12-20T14:07:15.168Z</time>
      </trkpt>
      <trkpt lat="48.73277" lon="2.00079">
        <ele>195.2</ele>
        <time>2013-12-20T14:07:21.162Z</time>
      </trkpt>
      <trkpt lat="48.73278" lon="2.00079">
        <ele>195.2</ele>
        <time>2013-12-20T14:07:22.162Z</time>
      </trkpt>
      <trkpt lat="48.73286" lon="2.00084">
        <ele>195.1</ele>
        <time>2013-12-20T14:07:28.321Z</time>
      </trkpt>
      <trkpt lat="48.73287" lon="2.00085">
        <ele>195.1</ele>
        <time>2013-12-20T14:07:29.160Z</time>
      </trkpt>
      <trkpt lat="48.73294" lon="2.00091">
        <ele>195.4</ele>
        <time>2013-12-20T14:07:35.110Z</time>
      </trkpt>
      <trkpt lat="48.73295" lon="2.00092">
        <ele>195.4</ele>
        <time>2013-12-20T14:07:36.119Z</time>
      </trkpt>
      <trkpt lat="48.73303" lon="2.00097">
        <ele>195.1</ele>
        <time>2013-12-20T14:07:43.605Z</time>
      </trkpt>
      <trkpt lat="48.73304" lon="2.00098">
        <ele>195</ele>
        <time>2013-12-20T14:07:44.107Z</time>
      </trkpt>
      <trkpt lat="48.73311" lon="2.00103">
        <ele>194.7</ele>
        <time>2013-12-20T14:07:52.165Z</time>
      </trkpt>
      <trkpt lat="48.73312" lon="2.00104">
        <ele>194.7</ele>
        <time>2013-12-20T14:07:53.152Z</time>
      </trkpt>
      <trkpt lat="48.73319" lon="2.00112">
        <ele>194.2</ele>
        <time>2013-12-20T14:08:00.162Z</time>
      </trkpt>
      <trkpt lat="48.7332" lon="2.00113">
        <ele>194.2</ele>
        <time>2013-12-20T14:08:01.129Z</time>
      </trkpt>
      <trkpt lat="48.73327" lon="2.00118">
        <ele>193.9</ele>
        <time>2013-12-20T14:08:06.181Z</time>
      </trkpt>
      <trkpt lat="48.73329" lon="2.00118">
        <ele>193.9</ele>
        <time>2013-12-20T14:08:07.106Z</time>
      </trkpt>
      <trkpt lat="48.73337" lon="2.00124">
        <ele>194.3</ele>
        <time>2013-12-20T14:08:14.117Z</time>
      </trkpt>
      <trkpt lat="48.73338" lon="2.00124">
        <ele>194.3</ele>
        <time>2013-12-20T14:08:15.203Z</time>
      </trkpt>
      <trkpt lat="48.73345" lon="2.00129">
        <ele>194.8</ele>
        <time>2013-12-20T14:08:24.106Z</time>
      </trkpt>
      <trkpt lat="48.73346" lon="2.0013">
        <ele>194.8</ele>
        <time>2013-12-20T14:08:25.107Z</time>
      </trkpt>
      <trkpt lat="48.73354" lon="2.00136">
        <ele>194.5</ele>
        <time>2013-12-20T14:08:33.106Z</time>
      </trkpt>
      <trkpt lat="48.73355" lon="2.00137">
        <ele>194.4</ele>
        <time>2013-12-20T14:08:33.145Z</time>
      </trkpt>
      <trkpt lat="48.73363" lon="2.00141">
        <ele>194.3</ele>
        <time>2013-12-20T14:08:39.124Z</time>
      </trkpt>
      <trkpt lat="48.73364" lon="2.00141">
        <ele>194.4</ele>
        <time>2013-12-20T14:08:40.104Z</time>
      </trkpt>
      <trkpt lat="48.73372" lon="2.00144">
        <ele>195.1</ele>
        <time>2013-12-20T14:08:48.117Z</time>
      </trkpt>
      <trkpt lat="48.73373" lon="2.00144">
        <ele>195.2</ele>
        <time>2013-12-20T14:08:49.143Z</time>
      </trkpt>
      <trkpt lat="48.7338" lon="2.00151">
        <ele>195.9</ele>
        <time>2013-12-20T14:09:01.127Z</time>
      </trkpt>
      <trkpt lat="48.73381" lon="2.00152">
        <ele>196</ele>
        <time>2013-12-20T14:09:02.099Z</time>
      </trkpt>
      <trkpt lat="48.73389" lon="2.00155">
        <ele>196.9</ele>
        <time>2013-12-20T14:09:16.116Z</time>
      </trkpt>
      <trkpt lat="48.7339" lon="2.00155">
        <ele>197</ele>
        <time>2013-12-20T14:09:17.094Z</time>
      </trkpt>
      <trkpt lat="48.73398" lon="2.00159">
        <ele>198</ele>
        <time>2013-12-20T14:09:32.883Z</time>
      </trkpt>
      <trkpt lat="48.73399" lon="2.0016">
        <ele>198.1</ele>
        <time>2013-12-20T14:09:33.118Z</time>
      </trkpt>
      <trkpt lat="48.73406" lon="2.00168">
        <ele>199.2</ele>
        <time>2013-12-20T14:09:43.106Z</time>
      </trkpt>
      <trkpt lat="48.73406" lon="2.00169">
        <ele>199.3</ele>
        <time>2013-12-20T14:09:44.109Z</time>
      </trkpt>
      <trkpt lat="48.73413" lon="2.00177">
        <ele>199.8</ele>
        <time>2013-12-20T14:09:57.111Z</time>
      </trkpt>
      <trkpt lat="48.73414" lon="2.00178">
        <ele>199.8</ele>
        <time>2013-12-20T14:09:58.116Z</time>
      </trkpt>
      <trkpt lat="48.73414" lon="2.00191">
        <ele>199.8</ele>
        <time>2013-12-20T14:10:03.258Z</time>
      </trkpt>
      <trkpt lat="48.73414" lon="2.00194">
        <ele>199.9</ele>
        <time>2013-12-20T14:10:04.111Z</time>
      </trkpt>
      <trkpt lat="48.73414" lon="2.00207">
        <ele>200.4</ele>
        <time>2013-12-20T14:10:08.102Z</time>
      </trkpt>
      <trkpt lat="48.73414" lon="2.00208">
        <ele>200.4</ele>
        <time>2013-12-20T14:10:09.102Z</time>
      </trkpt>
      <trkpt lat="48.73419" lon="2.00218">
        <ele>199.6</ele>
        <time>2013-12-20T14:10:19.126Z</time>
      </trkpt>
      <trkpt lat="48.73419" lon="2.00219">
        <ele>199.6</ele>
        <time>2013-12-20T14:10:20.132Z</time>
      </trkpt>
      <trkpt lat="48.73425" lon="2.00229">
        <ele>199.1</ele>
        <time>2013-12-20T14:10:29.101Z</time>
      </trkpt>
      <trkpt lat="48.73425" lon="2.00229">
        <ele>199</ele>
        <time>2013-12-20T14:10:30.108Z</time>
      </trkpt>
      <trkpt lat="48.7343" lon="2.0024">
        <ele>198.9</ele>
        <time>2013-12-20T14:10:40.117Z</time>
      </trkpt>
      <trkpt lat="48.73431" lon="2.00242">
        <ele>198.9</ele>
        <time>2013-12-20T14:10:41.269Z</time>
      </trkpt>
      <trkpt lat="48.73434" lon="2.00254">
        <ele>198.3</ele>
        <time>2013-12-20T14:10:49.184Z</time>
      </trkpt>
      <trkpt lat="48.73434" lon="2.00255">
        <ele>198.3</ele>
        <time>2013-12-20T14:10:50.164Z</time>
      </trkpt>
      <trkpt lat="48.73436" lon="2.00268">
        <ele>197.1</ele>
        <time>2013-12-20T14:11:00.230Z</time>
      </trkpt>
      <trkpt lat="48.73437" lon="2.00269">
        <ele>197</ele>
        <time>2013-12-20T14:11:01.152Z</time>
      </trkpt>
      <trkpt lat="48.73441" lon="2.0028">
        <ele>196.5</ele>
        <time>2013-12-20T14:11:07.751Z</time>
      </trkpt>
      <trkpt lat="48.73442" lon="2.00282">
        <ele>196.4</ele>
        <time>2013-12-20T14:11:08.135Z</time>
      </trkpt>
      <trkpt lat="48.73442" lon="2.00294">
        <ele>196.5</ele>
        <time>2013-12-20T14:11:15.169Z</time>
      </trkpt>
      <trkpt lat="48.73441" lon="2.00296">
        <ele>196.6</ele>
        <time>2013-12-20T14:11:16.236Z</time>
      </trkpt>
      <trkpt lat="48.73441" lon="2.00309">
        <ele>196.9</ele>
        <time>2013-12-20T14:11:23.127Z</time>
      </trkpt>
      <trkpt lat="48.73442" lon="2.00311">
        <ele>197.1</ele>
        <time>2013-12-20T14:11:24.172Z</time>
      </trkpt>
      <trkpt lat="48.73446" lon="2.00321">
        <ele>197.5</ele>
        <time>2013-12-20T14:11:30.179Z</time>
      </trkpt>
      <trkpt lat="48.73446" lon="2.00322">
        <ele>197.5</ele>
        <time>2013-12-20T14:11:31.144Z</time>
      </trkpt>
      <trkpt lat="48.73452" lon="2.00332">
        <ele>197.1</ele>
        <time>2013-12-20T14:11:40.171Z</time>
      </trkpt>
      <trkpt lat="48.73452" lon="2.00333">
        <ele>196.9</ele>
        <time>2013-12-20T14:11:41.168Z</time>
      </trkpt>
      <trkpt lat="48.73457" lon="2.00339">
        <ele>196.1</ele>
        <time>2013-12-20T14:11:53.184Z</time>
      </trkpt>
      <trkpt lat="48.73457" lon="2.00339">
        <ele>196.1</ele>
        <time>2013-12-20T14:11:53.253Z</time>
      </trkpt>
      <trkpt lat="48.73456" lon="2.00339">
        <ele>196</ele>
        <time>2013-12-20T14:11:54.167Z</time>
      </trkpt>
      <trkpt lat="48.73456" lon="2.00338">
        <ele>195.9</ele>
        <time>2013-12-20T14:11:55.168Z</time>
      </trkpt>
      <trkpt lat="48.7346" lon="2.00326">
        <ele>193.7</ele>
        <time>2013-12-20T14:12:11.159Z</time>
      </trkpt>
      <trkpt lat="48.73461" lon="2.00325">
        <ele>193.4</ele>
        <time>2013-12-20T14:12:12.161Z</time>
      </trkpt>
      <trkpt lat="48.73469" lon="2.00319">
        <ele>192.1</ele>
        <time>2013-12-20T14:12:17.812Z</time>
      </trkpt>
      <trkpt lat="48.73471" lon="2.00318">
        <ele>191.9</ele>
        <time>2013-12-20T14:12:18.278Z</time>
      </trkpt>
      <trkpt lat="48.73477" lon="2.00311">
        <ele>190.6</ele>
        <time>2013-12-20T14:12:29.177Z</time>
      </trkpt>
      <trkpt lat="48.73476" lon="2.00311">
        <ele>190.6</ele>
        <time>2013-12-20T14:12:30.182Z</time>
      </trkpt>
      <trkpt lat="48.73475" lon="2.00311">
        <ele>190.6</ele>
        <time>2013-12-20T14:12:31.175Z</time>
      </trkpt>
      <trkpt lat="48.73466" lon="2.00313">
        <ele>190.3</ele>
        <time>2013-12-20T14:12:38.118Z</time>
      </trkpt>
      <trkpt lat="48.73465" lon="2.00314">
        <ele>190.2</ele>
        <time>2013-12-20T14:12:39.176Z</time>
      </trkpt>
      <trkpt lat="48.73464" lon="2.00315">
        <ele>190.1</ele>
        <time>2013-12-20T14:12:44.177Z</time>
      </trkpt>
      <trkpt lat="48.73465" lon="2.00315">
        <ele>189.8</ele>
        <time>2013-12-20T14:12:45.174Z</time>
      </trkpt>
      <trkpt lat="48.73465" lon="2.00315">
        <ele>189.5</ele>
        <time>2013-12-20T14:12:46.139Z</time>
      </trkpt>
      <trkpt lat="48.73472" lon="2.00309">
        <ele>188.1</ele>
        <time>2013-12-20T14:12:53.135Z</time>
      </trkpt>
      <trkpt lat="48.73474" lon="2.00308">
        <ele>187.9</ele>
        <time>2013-12-20T14:12:53.240Z</time>
      </trkpt>
      <trkpt lat="48.73482" lon="2.00304">
        <ele>187.7</ele>
        <time>2013-12-20T14:12:58.221Z</time>
      </trkpt>
      <trkpt lat="48.73484" lon="2.00304">
        <ele>187.6</ele>
        <time>2013-12-20T14:12:59.167Z</time>
      </trkpt>
      <trkpt lat="48.73492" lon="2.00306">
        <ele>187.2</ele>
        <time>2013-12-20T14:13:05.168Z</time>
      </trkpt>
      <trkpt lat="48.73493" lon="2.00307">
        <ele>187.2</ele>
        <time>2013-12-20T14:13:06.172Z</time>
      </trkpt>
      <trkpt lat="48.73493" lon="2.00309">
        <ele>187</ele>
        <time>2013-12-20T14:13:11.170Z</time>
      </trkpt>
      <trkpt lat="48.73492" lon="2.00309">
        <ele>187.1</ele>
        <time>2013-12-20T14:13:12.171Z</time>
      </trkpt>
      <trkpt lat="48.73492" lon="2.00309">
        <ele>187.1</ele>
        <time>2013-12-20T14:13:12.763Z</time>
      </trkpt>
      <trkpt lat="48.73492" lon="2.00309">
        <ele>187.2</ele>
        <time>2013-12-20T14:13:13.135Z</time>
      </trkpt>
      <trkpt lat="48.73487" lon="2.00315">
        <ele>187.7</ele>
        <time>2013-12-20T14:13:16.170Z</time>
      </trkpt>
      <trkpt lat="48.73484" lon="2.00318">
        <ele>188</ele>
        <time>2013-12-20T14:13:17.168Z</time>
      </trkpt>
      <trkpt lat="48.7348" lon="2.0033">
        <ele>189.7</ele>
        <time>2013-12-20T14:13:25.168Z</time>
      </trkpt>
      <trkpt lat="48.73479" lon="2.00332">
        <ele>190</ele>
        <time>2013-12-20T14:13:26.161Z</time>
      </trkpt>
      <trkpt lat="48.73475" lon="2.00339">
        <ele>191</ele>
        <time>2013-12-20T14:13:29.153Z</time>
      </trkpt>
      <trkpt lat="48.73473" lon="2.00341">
        <ele>191.4</ele>
        <time>2013-12-20T14:13:30.155Z</time>
      </trkpt>
      <trkpt lat="48.73467" lon="2.00347">
        <ele>192.1</ele>
        <time>2013-12-20T14:13:32.882Z</time>
      </trkpt>
      <trkpt lat="48.73465" lon="2.00349">
        <ele>192.4</ele>
        <time>2013-12-20T14:13:33.114Z</time>
      </trkpt>
      <trkpt lat="48.73458" lon="2.00356">
        <ele>194.6</ele>
        <time>2013-12-20T14:13:43.099Z</time>
      </trkpt>
      <trkpt lat="48.73458" lon="2.00358">
        <ele>194.7</ele>
        <time>2013-12-20T14:13:44.148Z</time>
      </trkpt>
      <trkpt lat="48.73451" lon="2.00364">
        <ele>195.5</ele>
        <time>2013-12-20T14:13:53.254Z</time>
      </trkpt>
      <trkpt lat="48.7345" lon="2.00365">
        <ele>195.5</ele>
        <time>2013-12-20T14:13:53.294Z</time>
      </trkpt>
      <trkpt lat="48.73444" lon="2.00372">
        <ele>196.1</ele>
        <time>2013-12-20T14:13:58.289Z</time>
      </trkpt>
      <trkpt lat="48.73443" lon="2.00374">
        <ele>196.2</ele>
        <time>2013-12-20T14:13:59.159Z</time>
      </trkpt>
      <trkpt lat="48.73436" lon="2.00383">
        <ele>197.2</ele>
        <time>2013-12-20T14:14:06.159Z</time>
      </trkpt>
      <trkpt lat="48.73435" lon="2.00384">
        <ele>197.3</ele>
        <time>2013-12-20T14:14:07.157Z</time>
      </trkpt>
      <trkpt lat="48.73429" lon="2.00393">
        <ele>198.2</ele>
        <time>2013-12-20T14:14:13.116Z</time>
      </trkpt>
      <trkpt lat="48.73427" lon="2.00394">
        <ele>198.3</ele>
        <time>2013-12-20T14:14:14.159Z</time>
      </trkpt>
      <trkpt lat="48.73421" lon="2.00401">
        <ele>199.3</ele>
        <time>2013-12-20T14:14:20.147Z</time>
      </trkpt>
      <trkpt lat="48.73419" lon="2.00402">
        <ele>199.4</ele>
        <time>2013-12-20T14:14:21.144Z</time>
      </trkpt>
      <trkpt lat="48.73413" lon="2.0041">
        <ele>200.4</ele>
        <time>2013-12-20T14:14:29.145Z</time>
      </trkpt>
      <trkpt lat="48.73412" lon="2.00411">
        <ele>200.5</ele>
        <time>2013-12-20T14:14:30.143Z</time>
      </trkpt>
      <trkpt lat="48.73407" lon="2.00419">
        <ele>201.1</ele>
        <time>2013-12-20T14:14:36.142Z</time>
      </trkpt>
      <trkpt lat="48.73406" lon="2.00421">
        <ele>201.2</ele>
        <time>2013-12-20T14:14:37.144Z</time>
      </trkpt>
      <trkpt lat="48.734" lon="2.0043">
        <ele>201.9</ele>
        <time>2013-12-20T14:14:43.103Z</time>
      </trkpt>
      <trkpt lat="48.73398" lon="2.00431">
        <ele>202</ele>
        <time>2013-12-20T14:14:44.147Z</time>
      </trkpt>
      <trkpt lat="48.73392" lon="2.00438">
        <ele>202.6</ele>
        <time>2013-12-20T14:14:53.159Z</time>
      </trkpt>
      <trkpt lat="48.7339" lon="2.00439">
        <ele>202.6</ele>
        <time>2013-12-20T14:14:53.221Z</time>
      </trkpt>
      <trkpt lat="48.73384" lon="2.00447">
        <ele>202.7</ele>
        <time>2013-12-20T14:14:59.158Z</time>
      </trkpt>
      <trkpt lat="48.73383" lon="2.00448">
        <ele>202.7</ele>
        <time>2013-12-20T14:15:00.232Z</time>
      </trkpt>
      <trkpt lat="48.73377" lon="2.00455">
        <ele>202.9</ele>
        <time>2013-12-20T14:15:06.152Z</time>
      </trkpt>
      <trkpt lat="48.73376" lon="2.00456">
        <ele>203</ele>
        <time>2013-12-20T14:15:07.154Z</time>
      </trkpt>
      <trkpt lat="48.73369" lon="2.00465">
        <ele>203.5</ele>
        <time>2013-12-20T14:15:14.162Z</time>
      </trkpt>
      <trkpt lat="48.73369" lon="2.00465">
        <ele>203.6</ele>
        <time>2013-12-20T14:15:15.158Z</time>
      </trkpt>
      <trkpt lat="48.73362" lon="2.00475">
        <ele>203.4</ele>
        <time>2013-12-20T14:15:26.173Z</time>
      </trkpt>
      <trkpt lat="48.73361" lon="2.00476">
        <ele>203.4</ele>
        <time>2013-12-20T14:15:27.158Z</time>
      </trkpt>
      <trkpt lat="48.73354" lon="2.00483">
        <ele>203.6</ele>
        <time>2013-12-20T14:15:33.239Z</time>
      </trkpt>
      <trkpt lat="48.73353" lon="2.00484">
        <ele>203.6</ele>
        <time>2013-12-20T14:15:34.173Z</time>
      </trkpt>
      <trkpt lat="48.73349" lon="2.00494">
        <ele>203.7</ele>
        <time>2013-12-20T14:15:39.180Z</time>
      </trkpt>
      <trkpt lat="48.73348" lon="2.00496">
        <ele>203.7</ele>
        <time>2013-12-20T14:15:40.178Z</time>
      </trkpt>
      <trkpt lat="48.73341" lon="2.00503">
        <ele>203.9</ele>
        <time>2013-12-20T14:15:48.247Z</time>
      </trkpt>
      <trkpt lat="48.73339" lon="2.00504">
        <ele>203.8</ele>
        <time>2013-12-20T14:15:49.175Z</time>
      </trkpt>
      <trkpt lat="48.73332" lon="2.00512">
        <ele>203.5</ele>
        <time>2013-12-20T14:15:56.172Z</time>
      </trkpt>
      <trkpt lat="48.73331" lon="2.00513">
        <ele>203.5</ele>
        <time>2013-12-20T14:15:57.172Z</time>
      </trkpt>
      <trkpt lat="48.73324" lon="2.00522">
        <ele>203.1</ele>
        <time>2013-12-20T14:16:06.172Z</time>
      </trkpt>
      <trkpt lat="48.73323" lon="2.00523">
        <ele>203.1</ele>
        <time>2013-12-20T14:16:07.172Z</time>
      </trkpt>
      <trkpt lat="48.73316" lon="2.00531">
        <ele>202.7</ele>
        <time>2013-12-20T14:16:15.172Z</time>
      </trkpt>
      <trkpt lat="48.73316" lon="2.00532">
        <ele>202.7</ele>
        <time>2013-12-20T14:16:16.170Z</time>
      </trkpt>
      <trkpt lat="48.73309" lon="2.0054">
        <ele>202.5</ele>
        <time>2013-12-20T14:16:24.171Z</time>
      </trkpt>
      <trkpt lat="48.73308" lon="2.00542">
        <ele>202.5</ele>
        <time>2013-12-20T14:16:25.172Z</time>
      </trkpt>
      <trkpt lat="48.73301" lon="2.0055">
        <ele>202.4</ele>
        <time>2013-12-20T14:16:31.195Z</time>
      </trkpt>
      <trkpt lat="48.733" lon="2.00551">
        <ele>202.4</ele>
        <time>2013-12-20T14:16:32.171Z</time>
      </trkpt>
      <trkpt lat="48.73295" lon="2.00559">
        <ele>202.4</ele>
        <time>2013-12-20T14:16:37.162Z</time>
      </trkpt>
      <trkpt lat="48.73294" lon="2.00561">
        <ele>202.4</ele>
        <time>2013-12-20T14:16:38.167Z</time>
      </trkpt>
      <trkpt lat="48.73288" lon="2.00569">
        <ele>202.8</ele>
        <time>2013-12-20T14:16:44.162Z</time>
      </trkpt>
      <trkpt lat="48.73287" lon="2.0057">
        <ele>202.8</ele>
        <time>2013-12-20T14:16:45.160Z</time>
      </trkpt>
      <trkpt lat="48.73281" lon="2.00578">
        <ele>203</ele>
        <time>2013-12-20T14:16:54.167Z</time>
      </trkpt>
      <trkpt lat="48.73279" lon="2.00579">
        <ele>203</ele>
        <time>2013-12-20T14:16:55.168Z</time>
      </trkpt>
      <trkpt lat="48.73272" lon="2.00586">
        <ele>202.9</ele>
        <time>2013-12-20T14:17:02.163Z</time>
      </trkpt>
      <trkpt lat="48.73271" lon="2.00588">
        <ele>202.9</ele>
        <time>2013-12-20T14:17:03.163Z</time>
      </trkpt>
      <trkpt lat="48.73265" lon="2.00596">
        <ele>203.1</ele>
        <time>2013-12-20T14:17:08.126Z</time>
      </trkpt>
      <trkpt lat="48.73264" lon="2.00597">
        <ele>203.1</ele>
        <time>2013-12-20T14:17:09.163Z</time>
      </trkpt>
      <trkpt lat="48.73257" lon="2.00603">
        <ele>203.3</ele>
        <time>2013-12-20T14:17:16.169Z</time>
      </trkpt>
      <trkpt lat="48.73256" lon="2.00606">
        <ele>203.3</ele>
        <time>2013-12-20T14:17:17.169Z</time>
      </trkpt>
      <trkpt lat="48.73251" lon="2.00616">
        <ele>203.5</ele>
        <time>2013-12-20T14:17:23.139Z</time>
      </trkpt>
      <trkpt lat="48.7325" lon="2.00617">
        <ele>203.5</ele>
        <time>2013-12-20T14:17:24.172Z</time>
      </trkpt>
      <trkpt lat="48.73248" lon="2.00615">
        <ele>203.5</ele>
        <time>2013-12-20T14:17:49.142Z</time>
      </trkpt>
      <trkpt lat="48.73248" lon="2.00614">
        <ele>203.5</ele>
        <time>2013-12-20T14:17:50.128Z</time>
      </trkpt>
      <trkpt lat="48.73249" lon="2.00614">
        <ele>203.4</ele>
        <time>2013-12-20T14:17:53.184Z</time>
      </trkpt>
      <trkpt lat="48.73249" lon="2.00614">
        <ele>203.4</ele>
        <time>2013-12-20T14:17:54.144Z</time>
      </trkpt>
      <trkpt lat="48.73254" lon="2.00613">
        <ele>203.3</ele>
        <time>2013-12-20T14:18:04.123Z</time>
      </trkpt>
      <trkpt lat="48.73254" lon="2.00613">
        <ele>203.3</ele>
        <time>2013-12-20T14:18:05.120Z</time>
      </trkpt>
      <trkpt lat="48.73253" lon="2.00614">
        <ele>203.3</ele>
        <time>2013-12-20T14:18:06.080Z</time>
      </trkpt>
      <trkpt lat="48.73253" lon="2.00615">
        <ele>203.3</ele>
        <time>2013-12-20T14:18:07.097Z</time>
      </trkpt>
      <trkpt lat="48.73252" lon="2.00615">
        <ele>203.3</ele>
        <time>2013-12-20T14:18:10.077Z</time>
      </trkpt>
      <trkpt lat="48.73252" lon="2.00615">
        <ele>203.3</ele>
        <time>2013-12-20T14:18:11.081Z</time>
      </trkpt>
      <trkpt lat="48.73252" lon="2.00615">
        <ele>203.3</ele>
        <time>2013-12-20T14:18:17.774Z</time>
      </trkpt>
      <trkpt lat="48.73252" lon="2.00614">
        <ele>203.2</ele>
        <time>2013-12-20T14:18:18.076Z</time>
      </trkpt>
      <trkpt lat="48.7325" lon="2.00611">
        <ele>203.1</ele>
        <time>2013-12-20T14:18:29.102Z</time>
      </trkpt>
      <trkpt lat="48.7325" lon="2.00611">
        <ele>203.1</ele>
        <time>2013-12-20T14:18:30.235Z</time>
      </trkpt>
      <trkpt lat="48.7325" lon="2.00612">
        <ele>202.3</ele>
        <time>2013-12-20T14:18:38.117Z</time>
      </trkpt>
      <trkpt lat="48.7325" lon="2.00613">
        <ele>202.3</ele>
        <time>2013-12-20T14:18:39.168Z</time>
      </trkpt>
      <trkpt lat="48.7325" lon="2.00625">
        <ele>200.7</ele>
        <time>2013-12-20T14:18:53.322Z</time>
      </trkpt>
      <trkpt lat="48.73249" lon="2.00629">
        <ele>200.5</ele>
        <time>2013-12-20T14:18:54.178Z</time>
      </trkpt>
      <trkpt lat="48.73245" lon="2.0064">
        <ele>199.2</ele>
        <time>2013-12-20T14:19:03.418Z</time>
      </trkpt>
      <trkpt lat="48.73244" lon="2.00641">
        <ele>199.2</ele>
        <time>2013-12-20T14:19:04.165Z</time>
      </trkpt>
      <trkpt lat="48.73238" lon="2.00651">
        <ele>198.3</ele>
        <time>2013-12-20T14:19:16.165Z</time>
      </trkpt>
      <trkpt lat="48.73238" lon="2.00652">
        <ele>198.2</ele>
        <time>2013-12-20T14:19:17.176Z</time>
      </trkpt>
      <trkpt lat="48.73233" lon="2.00663">
        <ele>197</ele>
        <time>2013-12-20T14:19:27.876Z</time>
      </trkpt>
      <trkpt lat="48.73232" lon="2.00664">
        <ele>196.9</ele>
        <time>2013-12-20T14:19:28.127Z</time>
      </trkpt>
      <trkpt lat="48.73228" lon="2.00675">
        <ele>196.2</ele>
        <time>2013-12-20T14:19:33.120Z</time>
      </trkpt>
      <trkpt lat="48.73227" lon="2.00677">
        <ele>196</ele>
        <time>2013-12-20T14:19:34.173Z</time>
      </trkpt>
      <trkpt lat="48.73225" lon="2.0069">
        <ele>195.7</ele>
        <time>2013-12-20T14:19:44.175Z</time>
      </trkpt>
      <trkpt lat="48.73224" lon="2.00693">
        <ele>195.7</ele>
        <time>2013-12-20T14:19:45.271Z</time>
      </trkpt>
      <trkpt lat="48.73221" lon="2.00704">
        <ele>195.4</ele>
        <time>2013-12-20T14:19:51.140Z</time>
      </trkpt>
      <trkpt lat="48.7322" lon="2.00705">
        <ele>195.3</ele>
        <time>2013-12-20T14:19:52.202Z</time>
      </trkpt>
      <trkpt lat="48.73215" lon="2.00716">
        <ele>195.5</ele>
        <time>2013-12-20T14:20:01.172Z</time>
      </trkpt>
      <trkpt lat="48.73215" lon="2.00718">
        <ele>195.4</ele>
        <time>2013-12-20T14:20:02.176Z</time>
      </trkpt>
      <trkpt lat="48.7321" lon="2.0073">
        <ele>195</ele>
        <time>2013-12-20T14:20:08.143Z</time>
      </trkpt>
      <trkpt lat="48.7321" lon="2.00731">
        <ele>195</ele>
        <time>2013-12-20T14:20:09.177Z</time>
      </trkpt>
      <trkpt lat="48.73207" lon="2.00743">
        <ele>194.7</ele>
        <time>2013-12-20T14:20:18.133Z</time>
      </trkpt>
      <trkpt lat="48.73206" lon="2.00744">
        <ele>194.7</ele>
        <time>2013-12-20T14:20:19.178Z</time>
      </trkpt>
      <trkpt lat="48.73202" lon="2.00756">
        <ele>195</ele>
        <time>2013-12-20T14:20:28.128Z</time>
      </trkpt>
      <trkpt lat="48.73202" lon="2.00757">
        <ele>195</ele>
        <time>2013-12-20T14:20:29.174Z</time>
      </trkpt>
      <trkpt lat="48.73199" lon="2.00768">
        <ele>195.1</ele>
        <time>2013-12-20T14:20:35.174Z</time>
      </trkpt>
      <trkpt lat="48.73198" lon="2.0077">
        <ele>195</ele>
        <time>2013-12-20T14:20:36.173Z</time>
      </trkpt>
      <trkpt lat="48.73194" lon="2.00782">
        <ele>195.2</ele>
        <time>2013-12-20T14:20:43.122Z</time>
      </trkpt>
      <trkpt lat="48.73194" lon="2.00783">
        <ele>195.3</ele>
        <time>2013-12-20T14:20:44.174Z</time>
      </trkpt>
      <trkpt lat="48.7319" lon="2.00795">
        <ele>195.8</ele>
        <time>2013-12-20T14:20:51.178Z</time>
      </trkpt>
      <trkpt lat="48.73189" lon="2.00796">
        <ele>195.9</ele>
        <time>2013-12-20T14:20:52.199Z</time>
      </trkpt>
      <trkpt lat="48.73182" lon="2.00802">
        <ele>197</ele>
        <time>2013-12-20T14:21:06.176Z</time>
      </trkpt>
      <trkpt lat="48.7318" lon="2.00802">
        <ele>197.2</ele>
        <time>2013-12-20T14:21:07.178Z</time>
      </trkpt>
      <trkpt lat="48.73172" lon="2.00797">
        <ele>197.7</ele>
        <time>2013-12-20T14:21:14.174Z</time>
      </trkpt>
      <trkpt lat="48.73171" lon="2.00796">
        <ele>197.8</ele>
        <time>2013-12-20T14:21:15.172Z</time>
      </trkpt>
      <trkpt lat="48.73163" lon="2.00796">
        <ele>197.6</ele>
        <time>2013-12-20T14:21:24.175Z</time>
      </trkpt>
      <trkpt lat="48.73161" lon="2.00795">
        <ele>197.4</ele>
        <time>2013-12-20T14:21:25.172Z</time>
      </trkpt>
      <trkpt lat="48.73154" lon="2.0079">
        <ele>196.1</ele>
        <time>2013-12-20T14:21:35.177Z</time>
      </trkpt>
      <trkpt lat="48.73153" lon="2.00789">
        <ele>196.1</ele>
        <time>2013-12-20T14:21:36.201Z</time>
      </trkpt>
      <trkpt lat="48.73144" lon="2.00786">
        <ele>195.9</ele>
        <time>2013-12-20T14:21:44.175Z</time>
      </trkpt>
      <trkpt lat="48.73144" lon="2.00786">
        <ele>195.9</ele>
        <time>2013-12-20T14:21:45.174Z</time>
      </trkpt>
      <trkpt lat="48.73138" lon="2.00796">
        <ele>196.3</ele>
        <time>2013-12-20T14:21:52.216Z</time>
      </trkpt>
      <trkpt lat="48.73138" lon="2.00797">
        <ele>196.4</ele>
        <time>2013-12-20T14:21:53.176Z</time>
      </trkpt>
      <trkpt lat="48.73132" lon="2.00805">
        <ele>196.8</ele>
        <time>2013-12-20T14:22:00.221Z</time>
      </trkpt>
      <trkpt lat="48.73131" lon="2.00807">
        <ele>196.8</ele>
        <time>2013-12-20T14:22:01.181Z</time>
      </trkpt>
      <trkpt lat="48.73125" lon="2.00816">
        <ele>197</ele>
        <time>2013-12-20T14:22:08.140Z</time>
      </trkpt>
      <trkpt lat="48.73125" lon="2.00818">
        <ele>197.1</ele>
        <time>2013-12-20T14:22:09.177Z</time>
      </trkpt>
      <trkpt lat="48.73119" lon="2.00828">
        <ele>197.4</ele>
        <time>2013-12-20T14:22:18.117Z</time>
      </trkpt>
      <trkpt lat="48.73119" lon="2.00829">
        <ele>197.4</ele>
        <time>2013-12-20T14:22:19.163Z</time>
      </trkpt>
      <trkpt lat="48.73114" lon="2.0084">
        <ele>197.2</ele>
        <time>2013-12-20T14:22:27.924Z</time>
      </trkpt>
      <trkpt lat="48.73113" lon="2.00842">
        <ele>197.2</ele>
        <time>2013-12-20T14:22:28.130Z</time>
      </trkpt>
      <trkpt lat="48.73111" lon="2.00853">
        <ele>197</ele>
        <time>2013-12-20T14:22:35.183Z</time>
      </trkpt>
      <trkpt lat="48.73111" lon="2.00855">
        <ele>196.9</ele>
        <time>2013-12-20T14:22:36.184Z</time>
      </trkpt>
      <trkpt lat="48.73109" lon="2.00867">
        <ele>196.3</ele>
        <time>2013-12-20T14:22:44.180Z</time>
      </trkpt>
      <trkpt lat="48.73108" lon="2.0087">
        <ele>196.3</ele>
        <time>2013-12-20T14:22:45.179Z</time>
      </trkpt>
      <trkpt lat="48.73103" lon="2.0088">
        <ele>195.5</ele>
        <time>2013-12-20T14:22:56.174Z</time>
      </trkpt>
      <trkpt lat="48.73102" lon="2.00881">
        <ele>195.4</ele>
        <time>2013-12-20T14:22:57.122Z</time>
      </trkpt>
      <trkpt lat="48.73099" lon="2.00892">
        <ele>194.9</ele>
        <time>2013-12-20T14:23:02.161Z</time>
      </trkpt>
      <trkpt lat="48.73098" lon="2.00894">
        <ele>194.9</ele>
        <time>2013-12-20T14:23:03.261Z</time>
      </trkpt>
      <trkpt lat="48.73093" lon="2.00904">
        <ele>195.3</ele>
        <time>2013-12-20T14:23:09.157Z</time>
      </trkpt>
      <trkpt lat="48.73092" lon="2.00905">
        <ele>195.4</ele>
        <time>2013-12-20T14:23:10.162Z</time>
      </trkpt>
      <trkpt lat="48.73085" lon="2.00914">
        <ele>195.1</ele>
        <time>2013-12-20T14:23:21.172Z</time>
      </trkpt>
      <trkpt lat="48.73085" lon="2.00915">
        <ele>195.1</ele>
        <time>2013-12-20T14:23:22.167Z</time>
      </trkpt>
      <trkpt lat="48.73079" lon="2.00921">
        <ele>195.1</ele>
        <time>2013-12-20T14:23:25.169Z</time>
      </trkpt>
      <trkpt lat="48.73077" lon="2.00923">
        <ele>195.2</ele>
        <time>2013-12-20T14:23:26.167Z</time>
      </trkpt>
      <trkpt lat="48.7307" lon="2.00927">
        <ele>195.2</ele>
        <time>2013-12-20T14:23:31.169Z</time>
      </trkpt>
      <trkpt lat="48.73068" lon="2.00927">
        <ele>195.3</ele>
        <time>2013-12-20T14:23:32.171Z</time>
      </trkpt>
      <trkpt lat="48.7306" lon="2.00929">
        <ele>195.9</ele>
        <time>2013-12-20T14:23:40.165Z</time>
      </trkpt>
      <trkpt lat="48.73058" lon="2.00929">
        <ele>196.1</ele>
        <time>2013-12-20T14:23:41.171Z</time>
      </trkpt>
      <trkpt lat="48.7305" lon="2.00933">
        <ele>196.6</ele>
        <time>2013-12-20T14:23:47.169Z</time>
      </trkpt>
      <trkpt lat="48.73048" lon="2.00933">
        <ele>196.7</ele>
        <time>2013-12-20T14:23:48.204Z</time>
      </trkpt>
      <trkpt lat="48.73041" lon="2.00938">
        <ele>197.3</ele>
        <time>2013-12-20T14:23:56.167Z</time>
      </trkpt>
      <trkpt lat="48.7304" lon="2.00939">
        <ele>197.4</ele>
        <time>2013-12-20T14:23:57.158Z</time>
      </trkpt>
      <trkpt lat="48.73032" lon="2.00946">
        <ele>198</ele>
        <time>2013-12-20T14:24:05.167Z</time>
      </trkpt>
      <trkpt lat="48.73032" lon="2.00947">
        <ele>198.1</ele>
        <time>2013-12-20T14:24:06.169Z</time>
      </trkpt>
      <trkpt lat="48.73032" lon="2.00947">
        <ele>198.1</ele>
        <time>2013-12-20T14:24:08.127Z</time>
      </trkpt>
      <trkpt lat="48.73032" lon="2.00947">
        <ele>198.1</ele>
        <time>2013-12-20T14:24:09.164Z</time>
      </trkpt>
      <trkpt lat="48.73032" lon="2.00948">
        <ele>198.3</ele>
        <time>2013-12-20T14:24:11.160Z</time>
      </trkpt>
      <trkpt lat="48.73032" lon="2.00948">
        <ele>198.4</ele>
        <time>2013-12-20T14:24:12.160Z</time>
      </trkpt>
      <trkpt lat="48.73026" lon="2.00957">
        <ele>198.8</ele>
        <time>2013-12-20T14:24:17.796Z</time>
      </trkpt>
      <trkpt lat="48.73025" lon="2.00959">
        <ele>198.7</ele>
        <time>2013-12-20T14:24:18.131Z</time>
      </trkpt>
      <trkpt lat="48.73021" lon="2.00968">
        <ele>199</ele>
        <time>2013-12-20T14:24:28.126Z</time>
      </trkpt>
      <trkpt lat="48.73019" lon="2.00969">
        <ele>199</ele>
        <time>2013-12-20T14:24:29.174Z</time>
      </trkpt>
      <trkpt lat="48.73014" lon="2.00978">
        <ele>199</ele>
        <time>2013-12-20T14:24:37.961Z</time>
      </trkpt>
      <trkpt lat="48.73013" lon="2.00979">
        <ele>198.9</ele>
        <time>2013-12-20T14:24:38.115Z</time>
      </trkpt>
      <trkpt lat="48.73007" lon="2.00988">
        <ele>199</ele>
        <time>2013-12-20T14:24:46.166Z</time>
      </trkpt>
      <trkpt lat="48.73007" lon="2.00989">
        <ele>199</ele>
        <time>2013-12-20T14:24:47.172Z</time>
      </trkpt>
      <trkpt lat="48.73006" lon="2.01001">
        <ele>199</ele>
        <time>2013-12-20T14:24:58.212Z</time>
      </trkpt>
      <trkpt lat="48.73006" lon="2.01004">
        <ele>199.1</ele>
        <time>2013-12-20T14:24:58.272Z</time>
      </trkpt>
      <trkpt lat="48.73008" lon="2.01016">
        <ele>199.1</ele>
        <time>2013-12-20T14:25:04.176Z</time>
      </trkpt>
      <trkpt lat="48.73008" lon="2.01018">
        <ele>199.1</ele>
        <time>2013-12-20T14:25:05.177Z</time>
      </trkpt>
      <trkpt lat="48.73009" lon="2.01029">
        <ele>199.4</ele>
        <time>2013-12-20T14:25:11.175Z</time>
      </trkpt>
      <trkpt lat="48.7301" lon="2.01031">
        <ele>199.5</ele>
        <time>2013-12-20T14:25:12.176Z</time>
      </trkpt>
      <trkpt lat="48.73012" lon="2.01043">
        <ele>199.3</ele>
        <time>2013-12-20T14:25:18.130Z</time>
      </trkpt>
      <trkpt lat="48.73013" lon="2.01045">
        <ele>199.2</ele>
        <time>2013-12-20T14:25:19.219Z</time>
      </trkpt>
      <trkpt lat="48.73016" lon="2.01057">
        <ele>199.6</ele>
        <time>2013-12-20T14:25:26.176Z</time>
      </trkpt>
      <trkpt lat="48.73016" lon="2.01059">
        <ele>199.7</ele>
        <time>2013-12-20T14:25:27.181Z</time>
      </trkpt>
      <trkpt lat="48.73017" lon="2.01072">
        <ele>199.5</ele>
        <time>2013-12-20T14:25:34.162Z</time>
      </trkpt>
      <trkpt lat="48.73017" lon="2.01074">
        <ele>199.5</ele>
        <time>2013-12-20T14:25:35.160Z</time>
      </trkpt>
      <trkpt lat="48.7302" lon="2.01086">
        <ele>199.5</ele>
        <time>2013-12-20T14:25:42.978Z</time>
      </trkpt>
      <trkpt lat="48.7302" lon="2.01088">
        <ele>199.4</ele>
        <time>2013-12-20T14:25:43.137Z</time>
      </trkpt>
      <trkpt lat="48.73021" lon="2.011">
        <ele>199.2</ele>
        <time>2013-12-20T14:25:50.128Z</time>
      </trkpt>
      <trkpt lat="48.73021" lon="2.01102">
        <ele>199.3</ele>
        <time>2013-12-20T14:25:51.177Z</time>
      </trkpt>
      <trkpt lat="48.73023" lon="2.01114">
        <ele>199.7</ele>
        <time>2013-12-20T14:25:56.168Z</time>
      </trkpt>
      <trkpt lat="48.73023" lon="2.01117">
        <ele>199.6</ele>
        <time>2013-12-20T14:25:57.121Z</time>
      </trkpt>
      <trkpt lat="48.73027" lon="2.01129">
        <ele>199.6</ele>
        <time>2013-12-20T14:26:05.164Z</time>
      </trkpt>
      <trkpt lat="48.73027" lon="2.01131">
        <ele>199.6</ele>
        <time>2013-12-20T14:26:06.164Z</time>
      </trkpt>
      <trkpt lat="48.73028" lon="2.01144">
        <ele>198.9</ele>
        <time>2013-12-20T14:26:13.126Z</time>
      </trkpt>
      <trkpt lat="48.73027" lon="2.01147">
        <ele>198.7</ele>
        <time>2013-12-20T14:26:14.165Z</time>
      </trkpt>
      <trkpt lat="48.73026" lon="2.01159">
        <ele>197.6</ele>
        <time>2013-12-20T14:26:21.171Z</time>
      </trkpt>
      <trkpt lat="48.73026" lon="2.01161">
        <ele>197.6</ele>
        <time>2013-12-20T14:26:22.167Z</time>
      </trkpt>
      <trkpt lat="48.73026" lon="2.01172">
        <ele>197.4</ele>
        <time>2013-12-20T14:26:28.207Z</time>
      </trkpt>
      <trkpt lat="48.73026" lon="2.01175">
        <ele>197.4</ele>
        <time>2013-12-20T14:26:28.266Z</time>
      </trkpt>
      <trkpt lat="48.73023" lon="2.01186">
        <ele>197.4</ele>
        <time>2013-12-20T14:26:34.177Z</time>
      </trkpt>
      <trkpt lat="48.73023" lon="2.01188">
        <ele>197.4</ele>
        <time>2013-12-20T14:26:35.173Z</time>
      </trkpt>
      <trkpt lat="48.73021" lon="2.012">
        <ele>197.2</ele>
        <time>2013-12-20T14:26:44.172Z</time>
      </trkpt>
      <trkpt lat="48.7302" lon="2.01203">
        <ele>197.2</ele>
        <time>2013-12-20T14:26:45.171Z</time>
      </trkpt>
      <trkpt lat="48.73016" lon="2.01215">
        <ele>197.2</ele>
        <time>2013-12-20T14:26:56.171Z</time>
      </trkpt>
      <trkpt lat="48.73016" lon="2.01216">
        <ele>197.2</ele>
        <time>2013-12-20T14:26:57.172Z</time>
      </trkpt>
      <trkpt lat="48.73019" lon="2.01228">
        <ele>196.8</ele>
        <time>2013-12-20T14:27:06.167Z</time>
      </trkpt>
      <trkpt lat="48.7302" lon="2.0123">
        <ele>196.9</ele>
        <time>2013-12-20T14:27:07.163Z</time>
      </trkpt>
      <trkpt lat="48.7302" lon="2.01242">
        <ele>197</ele>
        <time>2013-12-20T14:27:14.206Z</time>
      </trkpt>
      <trkpt lat="48.73021" lon="2.01244">
        <ele>196.9</ele>
        <time>2013-12-20T14:27:15.168Z</time>
      </trkpt>
      <trkpt lat="48.73025" lon="2.01255">
        <ele>196.5</ele>
        <time>2013-12-20T14:27:22.845Z</time>
      </trkpt>
      <trkpt lat="48.73025" lon="2.01258">
        <ele>196.4</ele>
        <time>2013-12-20T14:27:23.132Z</time>
      </trkpt>
      <trkpt lat="48.73028" lon="2.01269">
        <ele>195.2</ele>
        <time>2013-12-20T14:27:32.908Z</time>
      </trkpt>
      <trkpt lat="48.73029" lon="2.01271">
        <ele>195.1</ele>
        <time>2013-12-20T14:27:33.123Z</time>
      </trkpt>
      <trkpt lat="48.73036" lon="2.01277">
        <ele>194.6</ele>
        <time>2013-12-20T14:27:37.929Z</time>
      </trkpt>
      <trkpt lat="48.73038" lon="2.01279">
        <ele>194.4</ele>
        <time>2013-12-20T14:27:38.114Z</time>
      </trkpt>
      <trkpt lat="48.73042" lon="2.0129">
        <ele>193.5</ele>
        <time>2013-12-20T14:27:44.162Z</time>
      </trkpt>
      <trkpt lat="48.73042" lon="2.01292">
        <ele>193.4</ele>
        <time>2013-12-20T14:27:45.161Z</time>
      </trkpt>
      <trkpt lat="48.73046" lon="2.01301">
        <ele>191.8</ele>
        <time>2013-12-20T14:27:52.163Z</time>
      </trkpt>
      <trkpt lat="48.73048" lon="2.01303">
        <ele>191.5</ele>
        <time>2013-12-20T14:27:53.160Z</time>
      </trkpt>
      <trkpt lat="48.73053" lon="2.01313">
        <ele>190.1</ele>
        <time>2013-12-20T14:27:59.162Z</time>
      </trkpt>
      <trkpt lat="48.73053" lon="2.01315">
        <ele>189.7</ele>
        <time>2013-12-20T14:28:00.206Z</time>
      </trkpt>
      <trkpt lat="48.73056" lon="2.01327">
        <ele>187.7</ele>
        <time>2013-12-20T14:28:05.157Z</time>
      </trkpt>
      <trkpt lat="48.73056" lon="2.01328">
        <ele>187.4</ele>
        <time>2013-12-20T14:28:06.161Z</time>
      </trkpt>
      <trkpt lat="48.7306" lon="2.0134">
        <ele>186.1</ele>
        <time>2013-12-20T14:28:16.150Z</time>
      </trkpt>
      <trkpt lat="48.73061" lon="2.01342">
        <ele>186.2</ele>
        <time>2013-12-20T14:28:17.166Z</time>
      </trkpt>
      <trkpt lat="48.73067" lon="2.01351">
        <ele>186.6</ele>
        <time>2013-12-20T14:28:21.188Z</time>
      </trkpt>
      <trkpt lat="48.73069" lon="2.01353">
        <ele>186.8</ele>
        <time>2013-12-20T14:28:22.107Z</time>
      </trkpt>
      <trkpt lat="48.73073" lon="2.0136">
        <ele>187.5</ele>
        <time>2013-12-20T14:28:25.227Z</time>
      </trkpt>
      <trkpt lat="48.73074" lon="2.01363">
        <ele>187.7</ele>
        <time>2013-12-20T14:28:26.178Z</time>
      </trkpt>
      <trkpt lat="48.7308" lon="2.01374">
        <ele>188.3</ele>
        <time>2013-12-20T14:28:31.160Z</time>
      </trkpt>
      <trkpt lat="48.7308" lon="2.01375">
        <ele>188.3</ele>
        <time>2013-12-20T14:28:32.165Z</time>
      </trkpt>
      <trkpt lat="48.73081" lon="2.01388">
        <ele>188.1</ele>
        <time>2013-12-20T14:28:41.160Z</time>
      </trkpt>
      <trkpt lat="48.73082" lon="2.0139">
        <ele>188</ele>
        <time>2013-12-20T14:28:42.165Z</time>
      </trkpt>
      <trkpt lat="48.73086" lon="2.01401">
        <ele>187.3</ele>
        <time>2013-12-20T14:28:49.161Z</time>
      </trkpt>
      <trkpt lat="48.73087" lon="2.01403">
        <ele>187.2</ele>
        <time>2013-12-20T14:28:50.160Z</time>
      </trkpt>
      <trkpt lat="48.73091" lon="2.01414">
        <ele>186.5</ele>
        <time>2013-12-20T14:29:00.202Z</time>
      </trkpt>
      <trkpt lat="48.73092" lon="2.01415">
        <ele>186.5</ele>
        <time>2013-12-20T14:29:01.167Z</time>
      </trkpt>
      <trkpt lat="48.73094" lon="2.01428">
        <ele>185.5</ele>
        <time>2013-12-20T14:29:09.159Z</time>
      </trkpt>
      <trkpt lat="48.73094" lon="2.01429">
        <ele>185.3</ele>
        <time>2013-12-20T14:29:10.233Z</time>
      </trkpt>
      <trkpt lat="48.73094" lon="2.01442">
        <ele>184.2</ele>
        <time>2013-12-20T14:29:17.836Z</time>
      </trkpt>
      <trkpt lat="48.73094" lon="2.01444">
        <ele>184.1</ele>
        <time>2013-12-20T14:29:18.120Z</time>
      </trkpt>
      <trkpt lat="48.73098" lon="2.01457">
        <ele>183.2</ele>
        <time>2013-12-20T14:29:26.176Z</time>
      </trkpt>
      <trkpt lat="48.73098" lon="2.01458">
        <ele>183</ele>
        <time>2013-12-20T14:29:27.181Z</time>
      </trkpt>
      <trkpt lat="48.73105" lon="2.01465">
        <ele>182.2</ele>
        <time>2013-12-20T14:29:33.200Z</time>
      </trkpt>
      <trkpt lat="48.73106" lon="2.01467">
        <ele>182.1</ele>
        <time>2013-12-20T14:29:33.280Z</time>
      </trkpt>
      <trkpt lat="48.73106" lon="2.01478">
        <ele>182.3</ele>
        <time>2013-12-20T14:29:38.202Z</time>
      </trkpt>
      <trkpt lat="48.73106" lon="2.01481">
        <ele>182.3</ele>
        <time>2013-12-20T14:29:38.249Z</time>
      </trkpt>
      <trkpt lat="48.7311" lon="2.01492">
        <ele>182.8</ele>
        <time>2013-12-20T14:29:42.169Z</time>
      </trkpt>
      <trkpt lat="48.73111" lon="2.01494">
        <ele>183</ele>
        <time>2013-12-20T14:29:43.172Z</time>
      </trkpt>
      <trkpt lat="48.73114" lon="2.01506">
        <ele>184.1</ele>
        <time>2013-12-20T14:29:51.173Z</time>
      </trkpt>
      <trkpt lat="48.73115" lon="2.01508">
        <ele>184.2</ele>
        <time>2013-12-20T14:29:52.173Z</time>
      </trkpt>
      <trkpt lat="48.73118" lon="2.0152">
        <ele>184.4</ele>
        <time>2013-12-20T14:30:01.179Z</time>
      </trkpt>
      <trkpt lat="48.73119" lon="2.01522">
        <ele>184.5</ele>
        <time>2013-12-20T14:30:02.179Z</time>
      </trkpt>
      <trkpt lat="48.73125" lon="2.01532">
        <ele>184.1</ele>
        <time>2013-12-20T14:30:07.719Z</time>
      </trkpt>
      <trkpt lat="48.73127" lon="2.01533">
        <ele>184.1</ele>
        <time>2013-12-20T14:30:08.176Z</time>
      </trkpt>
      <trkpt lat="48.73134" lon="2.01539">
        <ele>183.6</ele>
        <time>2013-12-20T14:30:13.131Z</time>
      </trkpt>
      <trkpt lat="48.73135" lon="2.01541">
        <ele>183.5</ele>
        <time>2013-12-20T14:30:14.173Z</time>
      </trkpt>
      <trkpt lat="48.7314" lon="2.0155">
        <ele>181.7</ele>
        <time>2013-12-20T14:30:22.822Z</time>
      </trkpt>
      <trkpt lat="48.73141" lon="2.01551">
        <ele>181.4</ele>
        <time>2013-12-20T14:30:23.118Z</time>
      </trkpt>
      <trkpt lat="48.73147" lon="2.01559">
        <ele>180.4</ele>
        <time>2013-12-20T14:30:29.165Z</time>
      </trkpt>
      <trkpt lat="48.73148" lon="2.01561">
        <ele>180.3</ele>
        <time>2013-12-20T14:30:30.129Z</time>
      </trkpt>
      <trkpt lat="48.73154" lon="2.01571">
        <ele>179.2</ele>
        <time>2013-12-20T14:30:39.119Z</time>
      </trkpt>
      <trkpt lat="48.73154" lon="2.01571">
        <ele>179</ele>
        <time>2013-12-20T14:30:40.165Z</time>
      </trkpt>
      <trkpt lat="48.73161" lon="2.01579">
        <ele>177.9</ele>
        <time>2013-12-20T14:30:55.168Z</time>
      </trkpt>
      <trkpt lat="48.73162" lon="2.0158">
        <ele>177.7</ele>
        <time>2013-12-20T14:30:56.176Z</time>
      </trkpt>
      <trkpt lat="48.73164" lon="2.01592">
        <ele>175.5</ele>
        <time>2013-12-20T14:31:10.164Z</time>
      </trkpt>
      <trkpt lat="48.73164" lon="2.01594">
        <ele>175.3</ele>
        <time>2013-12-20T14:31:11.133Z</time>
      </trkpt>
      <trkpt lat="48.73168" lon="2.01604">
        <ele>174</ele>
        <time>2013-12-20T14:31:16.165Z</time>
      </trkpt>
      <trkpt lat="48.73169" lon="2.01606">
        <ele>173.7</ele>
        <time>2013-12-20T14:31:17.165Z</time>
      </trkpt>
      <trkpt lat="48.73173" lon="2.01618">
        <ele>172.5</ele>
        <time>2013-12-20T14:31:24.173Z</time>
      </trkpt>
      <trkpt lat="48.73173" lon="2.01619">
        <ele>172.3</ele>
        <time>2013-12-20T14:31:25.167Z</time>
      </trkpt>
      <trkpt lat="48.73178" lon="2.01625">
        <ele>171.8</ele>
        <time>2013-12-20T14:31:41.187Z</time>
      </trkpt>
      <trkpt lat="48.73178" lon="2.01625">
        <ele>171.8</ele>
        <time>2013-12-20T14:31:42.185Z</time>
      </trkpt>
      <trkpt lat="48.73177" lon="2.01624">
        <ele>172</ele>
        <time>2013-12-20T14:31:47.999Z</time>
      </trkpt>
      <trkpt lat="48.73177" lon="2.01624">
        <ele>172.2</ele>
        <time>2013-12-20T14:31:48.138Z</time>
      </trkpt>
      <trkpt lat="48.73183" lon="2.01633">
        <ele>172.9</ele>
        <time>2013-12-20T14:31:56.177Z</time>
      </trkpt>
      <trkpt lat="48.73184" lon="2.01636">
        <ele>172.8</ele>
        <time>2013-12-20T14:31:57.176Z</time>
      </trkpt>
      <trkpt lat="48.7319" lon="2.01645">
        <ele>172.4</ele>
        <time>2013-12-20T14:32:05.172Z</time>
      </trkpt>
      <trkpt lat="48.7319" lon="2.01646">
        <ele>172.4</ele>
        <time>2013-12-20T14:32:06.175Z</time>
      </trkpt>
      <trkpt lat="48.73196" lon="2.01656">
        <ele>172.6</ele>
        <time>2013-12-20T14:32:13.136Z</time>
      </trkpt>
      <trkpt lat="48.73197" lon="2.01657">
        <ele>172.6</ele>
        <time>2013-12-20T14:32:14.178Z</time>
      </trkpt>
      <trkpt lat="48.73202" lon="2.01667">
        <ele>172.9</ele>
        <time>2013-12-20T14:32:24.173Z</time>
      </trkpt>
      <trkpt lat="48.73202" lon="2.01669">
        <ele>172.9</ele>
        <time>2013-12-20T14:32:25.178Z</time>
      </trkpt>
      <trkpt lat="48.73204" lon="2.01681">
        <ele>172</ele>
        <time>2013-12-20T14:32:31.165Z</time>
      </trkpt>
      <trkpt lat="48.73205" lon="2.01683">
        <ele>171.9</ele>
        <time>2013-12-20T14:32:32.167Z</time>
      </trkpt>
      <trkpt lat="48.73206" lon="2.01695">
        <ele>170.9</ele>
        <time>2013-12-20T14:32:40.232Z</time>
      </trkpt>
      <trkpt lat="48.73206" lon="2.01697">
        <ele>170.8</ele>
        <time>2013-12-20T14:32:41.168Z</time>
      </trkpt>
      <trkpt lat="48.73208" lon="2.01709">
        <ele>170.5</ele>
        <time>2013-12-20T14:32:48.023Z</time>
      </trkpt>
      <trkpt lat="48.73208" lon="2.01711">
        <ele>170.4</ele>
        <time>2013-12-20T14:32:48.115Z</time>
      </trkpt>
      <trkpt lat="48.7321" lon="2.01724">
        <ele>169.4</ele>
        <time>2013-12-20T14:32:56.157Z</time>
      </trkpt>
      <trkpt lat="48.7321" lon="2.01725">
        <ele>169.3</ele>
        <time>2013-12-20T14:32:57.157Z</time>
      </trkpt>
      <trkpt lat="48.73211" lon="2.01736">
        <ele>168.7</ele>
        <time>2013-12-20T14:33:06.155Z</time>
      </trkpt>
      <trkpt lat="48.73212" lon="2.01739">
        <ele>168.6</ele>
        <time>2013-12-20T14:33:07.156Z</time>
      </trkpt>
      <trkpt lat="48.73212" lon="2.01751">
        <ele>167.8</ele>
        <time>2013-12-20T14:33:14.166Z</time>
      </trkpt>
      <trkpt lat="48.73212" lon="2.01753">
        <ele>167.6</ele>
        <time>2013-12-20T14:33:15.165Z</time>
      </trkpt>
      <trkpt lat="48.73211" lon="2.01765">
        <ele>165.9</ele>
        <time>2013-12-20T14:33:21.168Z</time>
      </trkpt>
      <trkpt lat="48.73211" lon="2.01767">
        <ele>165.6</ele>
        <time>2013-12-20T14:33:22.163Z</time>
      </trkpt>
      <trkpt lat="48.7321" lon="2.0178">
        <ele>163.9</ele>
        <time>2013-12-20T14:33:29.165Z</time>
      </trkpt>
      <trkpt lat="48.7321" lon="2.01781">
        <ele>163.8</ele>
        <time>2013-12-20T14:33:30.164Z</time>
      </trkpt>
      <trkpt lat="48.73214" lon="2.01791">
        <ele>162.1</ele>
        <time>2013-12-20T14:33:38.120Z</time>
      </trkpt>
      <trkpt lat="48.73215" lon="2.01792">
        <ele>162</ele>
        <time>2013-12-20T14:33:39.168Z</time>
      </trkpt>
      <trkpt lat="48.73223" lon="2.01798">
        <ele>161.2</ele>
        <time>2013-12-20T14:33:48.135Z</time>
      </trkpt>
      <trkpt lat="48.73225" lon="2.018">
        <ele>161.1</ele>
        <time>2013-12-20T14:33:48.279Z</time>
      </trkpt>
      <trkpt lat="48.73232" lon="2.01807">
        <ele>160.6</ele>
        <time>2013-12-20T14:33:53.277Z</time>
      </trkpt>
      <trkpt lat="48.73233" lon="2.01808">
        <ele>160.5</ele>
        <time>2013-12-20T14:33:54.176Z</time>
      </trkpt>
      <trkpt lat="48.7324" lon="2.01815">
        <ele>159.7</ele>
        <time>2013-12-20T14:34:01.129Z</time>
      </trkpt>
      <trkpt lat="48.7324" lon="2.01816">
        <ele>159.6</ele>
        <time>2013-12-20T14:34:02.165Z</time>
      </trkpt>
      <trkpt lat="48.73247" lon="2.01823">
        <ele>159.1</ele>
        <time>2013-12-20T14:34:09.177Z</time>
      </trkpt>
      <trkpt lat="48.73248" lon="2.01824">
        <ele>159</ele>
        <time>2013-12-20T14:34:10.167Z</time>
      </trkpt>
      <trkpt lat="48.73255" lon="2.01831">
        <ele>156.8</ele>
        <time>2013-12-20T14:34:23.130Z</time>
      </trkpt>
      <trkpt lat="48.73256" lon="2.01832">
        <ele>156.8</ele>
        <time>2013-12-20T14:34:24.172Z</time>
      </trkpt>
      <trkpt lat="48.7326" lon="2.01844">
        <ele>156</ele>
        <time>2013-12-20T14:34:30.164Z</time>
      </trkpt>
      <trkpt lat="48.7326" lon="2.01845">
        <ele>155.9</ele>
        <time>2013-12-20T14:34:31.167Z</time>
      </trkpt>
      <trkpt lat="48.73264" lon="2.01855">
        <ele>155.2</ele>
        <time>2013-12-20T14:34:36.173Z</time>
      </trkpt>
      <trkpt lat="48.73265" lon="2.01856">
        <ele>155</ele>
        <time>2013-12-20T14:34:37.174Z</time>
      </trkpt>
      <trkpt lat="48.73271" lon="2.01867">
        <ele>153.8</ele>
        <time>2013-12-20T14:34:44.176Z</time>
      </trkpt>
      <trkpt lat="48.73271" lon="2.01868">
        <ele>153.7</ele>
        <time>2013-12-20T14:34:45.175Z</time>
      </trkpt>
      <trkpt lat="48.73277" lon="2.01876">
        <ele>152.9</ele>
        <time>2013-12-20T14:34:51.169Z</time>
      </trkpt>
      <trkpt lat="48.73278" lon="2.01878">
        <ele>152.9</ele>
        <time>2013-12-20T14:34:52.161Z</time>
      </trkpt>
      <trkpt lat="48.73284" lon="2.01886">
        <ele>152.8</ele>
        <time>2013-12-20T14:34:57.163Z</time>
      </trkpt>
      <trkpt lat="48.73285" lon="2.01887">
        <ele>152.8</ele>
        <time>2013-12-20T14:34:58.263Z</time>
      </trkpt>
      <trkpt lat="48.7329" lon="2.01896">
        <ele>151.9</ele>
        <time>2013-12-20T14:35:04.156Z</time>
      </trkpt>
      <trkpt lat="48.73291" lon="2.01898">
        <ele>151.9</ele>
        <time>2013-12-20T14:35:05.158Z</time>
      </trkpt>
      <trkpt lat="48.73296" lon="2.01907">
        <ele>151.8</ele>
        <time>2013-12-20T14:35:11.160Z</time>
      </trkpt>
      <trkpt lat="48.73297" lon="2.01908">
        <ele>151.8</ele>
        <time>2013-12-20T14:35:12.162Z</time>
      </trkpt>
      <trkpt lat="48.73303" lon="2.01917">
        <ele>151.7</ele>
        <time>2013-12-20T14:35:18.124Z</time>
      </trkpt>
      <trkpt lat="48.73304" lon="2.01918">
        <ele>151.6</ele>
        <time>2013-12-20T14:35:19.189Z</time>
      </trkpt>
      <trkpt lat="48.73309" lon="2.01926">
        <ele>151.3</ele>
        <time>2013-12-20T14:35:24.156Z</time>
      </trkpt>
      <trkpt lat="48.7331" lon="2.01928">
        <ele>151.4</ele>
        <time>2013-12-20T14:35:25.153Z</time>
      </trkpt>
      <trkpt lat="48.73316" lon="2.01936">
        <ele>151.2</ele>
        <time>2013-12-20T14:35:30.242Z</time>
      </trkpt>
      <trkpt lat="48.73317" lon="2.01938">
        <ele>151.1</ele>
        <time>2013-12-20T14:35:31.166Z</time>
      </trkpt>
      <trkpt lat="48.73323" lon="2.01948">
        <ele>150.8</ele>
        <time>2013-12-20T14:35:38.129Z</time>
      </trkpt>
      <trkpt lat="48.73323" lon="2.01949">
        <ele>150.8</ele>
        <time>2013-12-20T14:35:39.167Z</time>
      </trkpt>
      <trkpt lat="48.73327" lon="2.0196">
        <ele>150.8</ele>
        <time>2013-12-20T14:35:48.282Z</time>
      </trkpt>
      <trkpt lat="48.73328" lon="2.01962">
        <ele>150.8</ele>
        <time>2013-12-20T14:35:49.166Z</time>
      </trkpt>
      <trkpt lat="48.7333" lon="2.01974">
        <ele>150.8</ele>
        <time>2013-12-20T14:35:57.167Z</time>
      </trkpt>
      <trkpt lat="48.7333" lon="2.01976">
        <ele>150.9</ele>
        <time>2013-12-20T14:35:58.268Z</time>
      </trkpt>
      <trkpt lat="48.73329" lon="2.01988">
        <ele>151</ele>
        <time>2013-12-20T14:36:05.171Z</time>
      </trkpt>
      <trkpt lat="48.73329" lon="2.0199">
        <ele>150.9</ele>
        <time>2013-12-20T14:36:06.170Z</time>
      </trkpt>
      <trkpt lat="48.73327" lon="2.02002">
        <ele>150.8</ele>
        <time>2013-12-20T14:36:11.167Z</time>
      </trkpt>
      <trkpt lat="48.73327" lon="2.02004">
        <ele>150.8</ele>
        <time>2013-12-20T14:36:12.142Z</time>
      </trkpt>
      <trkpt lat="48.73326" lon="2.02016">
        <ele>150.6</ele>
        <time>2013-12-20T14:36:19.123Z</time>
      </trkpt>
      <trkpt lat="48.73327" lon="2.02018">
        <ele>150.6</ele>
        <time>2013-12-20T14:36:20.174Z</time>
      </trkpt>
      <trkpt lat="48.73328" lon="2.02031">
        <ele>150.4</ele>
        <time>2013-12-20T14:36:27.857Z</time>
      </trkpt>
      <trkpt lat="48.73329" lon="2.02033">
        <ele>150.4</ele>
        <time>2013-12-20T14:36:28.123Z</time>
      </trkpt>
      <trkpt lat="48.7333" lon="2.02044">
        <ele>149.5</ele>
        <time>2013-12-20T14:36:36.109Z</time>
      </trkpt>
      <trkpt lat="48.7333" lon="2.02046">
        <ele>149.4</ele>
        <time>2013-12-20T14:36:37.110Z</time>
      </trkpt>
      <trkpt lat="48.73331" lon="2.02058">
        <ele>148.9</ele>
        <time>2013-12-20T14:36:44.175Z</time>
      </trkpt>
      <trkpt lat="48.73331" lon="2.0206">
        <ele>148.8</ele>
        <time>2013-12-20T14:36:45.165Z</time>
      </trkpt>
      <trkpt lat="48.73336" lon="2.0207">
        <ele>147.9</ele>
        <time>2013-12-20T14:36:51.162Z</time>
      </trkpt>
      <trkpt lat="48.73336" lon="2.02071">
        <ele>147.8</ele>
        <time>2013-12-20T14:36:52.168Z</time>
      </trkpt>
      <trkpt lat="48.73338" lon="2.02085">
        <ele>147</ele>
        <time>2013-12-20T14:36:59.186Z</time>
      </trkpt>
      <trkpt lat="48.73339" lon="2.02086">
        <ele>146.9</ele>
        <time>2013-12-20T14:37:00.171Z</time>
      </trkpt>
      <trkpt lat="48.73342" lon="2.02098">
        <ele>146</ele>
        <time>2013-12-20T14:37:07.770Z</time>
      </trkpt>
      <trkpt lat="48.73342" lon="2.021">
        <ele>145.8</ele>
        <time>2013-12-20T14:37:08.138Z</time>
      </trkpt>
      <trkpt lat="48.73343" lon="2.02111">
        <ele>144.5</ele>
        <time>2013-12-20T14:37:13.132Z</time>
      </trkpt>
      <trkpt lat="48.73344" lon="2.02113">
        <ele>144.3</ele>
        <time>2013-12-20T14:37:14.171Z</time>
      </trkpt>
      <trkpt lat="48.73345" lon="2.02126">
        <ele>143.6</ele>
        <time>2013-12-20T14:37:23.134Z</time>
      </trkpt>
      <trkpt lat="48.73344" lon="2.02128">
        <ele>143.5</ele>
        <time>2013-12-20T14:37:24.171Z</time>
      </trkpt>
      <trkpt lat="48.73345" lon="2.02142">
        <ele>143</ele>
        <time>2013-12-20T14:37:32.938Z</time>
      </trkpt>
      <trkpt lat="48.73345" lon="2.02143">
        <ele>142.9</ele>
        <time>2013-12-20T14:37:33.170Z</time>
      </trkpt>
      <trkpt lat="48.73345" lon="2.02155">
        <ele>142.5</ele>
        <time>2013-12-20T14:37:39.174Z</time>
      </trkpt>
      <trkpt lat="48.73346" lon="2.02157">
        <ele>142.4</ele>
        <time>2013-12-20T14:37:40.172Z</time>
      </trkpt>
      <trkpt lat="48.73349" lon="2.02169">
        <ele>141.9</ele>
        <time>2013-12-20T14:37:46.162Z</time>
      </trkpt>
      <trkpt lat="48.7335" lon="2.02171">
        <ele>141.8</ele>
        <time>2013-12-20T14:37:47.261Z</time>
      </trkpt>
      <trkpt lat="48.73355" lon="2.02181">
        <ele>140.8</ele>
        <time>2013-12-20T14:37:53.256Z</time>
      </trkpt>
      <trkpt lat="48.73356" lon="2.02182">
        <ele>140.6</ele>
        <time>2013-12-20T14:37:54.177Z</time>
      </trkpt>
      <trkpt lat="48.73362" lon="2.02191">
        <ele>138.5</ele>
        <time>2013-12-20T14:38:02.230Z</time>
      </trkpt>
      <trkpt lat="48.73362" lon="2.02193">
        <ele>138.2</ele>
        <time>2013-12-20T14:38:03.167Z</time>
      </trkpt>
      <trkpt lat="48.73367" lon="2.02204">
        <ele>136.5</ele>
        <time>2013-12-20T14:38:09.149Z</time>
      </trkpt>
      <trkpt lat="48.73368" lon="2.02205">
        <ele>136.3</ele>
        <time>2013-12-20T14:38:10.148Z</time>
      </trkpt>
      <trkpt lat="48.73376" lon="2.0221">
        <ele>136.1</ele>
        <time>2013-12-20T14:38:16.156Z</time>
      </trkpt>
      <trkpt lat="48.73377" lon="2.02211">
        <ele>136.1</ele>
        <time>2013-12-20T14:38:17.154Z</time>
      </trkpt>
      <trkpt lat="48.73385" lon="2.02216">
        <ele>136.5</ele>
        <time>2013-12-20T14:38:23.123Z</time>
      </trkpt>
      <trkpt lat="48.73386" lon="2.02217">
        <ele>136.6</ele>
        <time>2013-12-20T14:38:24.169Z</time>
      </trkpt>
      <trkpt lat="48.73393" lon="2.02225">
        <ele>137.6</ele>
        <time>2013-12-20T14:38:34.146Z</time>
      </trkpt>
      <trkpt lat="48.73394" lon="2.02226">
        <ele>137.8</ele>
        <time>2013-12-20T14:38:35.142Z</time>
      </trkpt>
      <trkpt lat="48.73401" lon="2.02233">
        <ele>139.3</ele>
        <time>2013-12-20T14:38:42.867Z</time>
      </trkpt>
      <trkpt lat="48.73403" lon="2.02234">
        <ele>139.5</ele>
        <time>2013-12-20T14:38:43.115Z</time>
      </trkpt>
      <trkpt lat="48.73409" lon="2.02243">
        <ele>140.6</ele>
        <time>2013-12-20T14:38:49.123Z</time>
      </trkpt>
      <trkpt lat="48.7341" lon="2.02244">
        <ele>140.8</ele>
        <time>2013-12-20T14:38:50.125Z</time>
      </trkpt>
      <trkpt lat="48.73418" lon="2.02249">
        <ele>142.1</ele>
        <time>2013-12-20T14:39:06.134Z</time>
      </trkpt>
      <trkpt lat="48.73418" lon="2.0225">
        <ele>142.1</ele>
        <time>2013-12-20T14:39:07.124Z</time>
      </trkpt>
      <trkpt lat="48.73424" lon="2.02259">
        <ele>142.2</ele>
        <time>2013-12-20T14:39:19.119Z</time>
      </trkpt>
      <trkpt lat="48.73425" lon="2.0226">
        <ele>142.3</ele>
        <time>2013-12-20T14:39:20.122Z</time>
      </trkpt>
      <trkpt lat="48.73431" lon="2.02269">
        <ele>142.6</ele>
        <time>2013-12-20T14:39:27.838Z</time>
      </trkpt>
      <trkpt lat="48.73432" lon="2.0227">
        <ele>142.6</ele>
        <time>2013-12-20T14:39:28.160Z</time>
      </trkpt>
      <trkpt lat="48.73437" lon="2.02278">
        <ele>142.7</ele>
        <time>2013-12-20T14:39:33.124Z</time>
      </trkpt>
      <trkpt lat="48.73438" lon="2.0228">
        <ele>142.7</ele>
        <time>2013-12-20T14:39:34.126Z</time>
      </trkpt>
      <trkpt lat="48.73443" lon="2.0229">
        <ele>143</ele>
        <time>2013-12-20T14:39:43.117Z</time>
      </trkpt>
      <trkpt lat="48.73444" lon="2.02291">
        <ele>143</ele>
        <time>2013-12-20T14:39:44.157Z</time>
      </trkpt>
      <trkpt lat="48.73441" lon="2.02303">
        <ele>143.3</ele>
        <time>2013-12-20T14:39:53.286Z</time>
      </trkpt>
      <trkpt lat="48.73441" lon="2.02304">
        <ele>143.3</ele>
        <time>2013-12-20T14:39:54.172Z</time>
      </trkpt>
      <trkpt lat="48.73435" lon="2.02312">
        <ele>143.5</ele>
        <time>2013-12-20T14:39:59.182Z</time>
      </trkpt>
      <trkpt lat="48.73434" lon="2.02314">
        <ele>143.6</ele>
        <time>2013-12-20T14:40:00.264Z</time>
      </trkpt>
      <trkpt lat="48.73431" lon="2.02326">
        <ele>143.6</ele>
        <time>2013-12-20T14:40:05.174Z</time>
      </trkpt>
      <trkpt lat="48.73431" lon="2.02327">
        <ele>143.5</ele>
        <time>2013-12-20T14:40:06.179Z</time>
      </trkpt>
      <trkpt lat="48.73427" lon="2.02338">
        <ele>143.2</ele>
        <time>2013-12-20T14:40:17.920Z</time>
      </trkpt>
      <trkpt lat="48.73426" lon="2.0234">
        <ele>143.1</ele>
        <time>2013-12-20T14:40:18.136Z</time>
      </trkpt>
      <trkpt lat="48.73423" lon="2.02352">
        <ele>141.7</ele>
        <time>2013-12-20T14:40:29.147Z</time>
      </trkpt>
      <trkpt lat="48.73423" lon="2.02353">
        <ele>141.6</ele>
        <time>2013-12-20T14:40:30.177Z</time>
      </trkpt>
      <trkpt lat="48.73416" lon="2.0236">
        <ele>140.9</ele>
        <time>2013-12-20T14:40:35.128Z</time>
      </trkpt>
      <trkpt lat="48.73415" lon="2.02361">
        <ele>140.9</ele>
        <time>2013-12-20T14:40:36.174Z</time>
      </trkpt>
      <trkpt lat="48.73408" lon="2.02369">
        <ele>139.5</ele>
        <time>2013-12-20T14:40:45.170Z</time>
      </trkpt>
      <trkpt lat="48.73407" lon="2.02371">
        <ele>139.4</ele>
        <time>2013-12-20T14:40:46.174Z</time>
      </trkpt>
      <trkpt lat="48.73401" lon="2.02379">
        <ele>137.8</ele>
        <time>2013-12-20T14:40:53.284Z</time>
      </trkpt>
      <trkpt lat="48.734" lon="2.02381">
        <ele>137.6</ele>
        <time>2013-12-20T14:40:54.155Z</time>
      </trkpt>
      <trkpt lat="48.73393" lon="2.02388">
        <ele>136.6</ele>
        <time>2013-12-20T14:41:01.162Z</time>
      </trkpt>
      <trkpt lat="48.73392" lon="2.02389">
        <ele>136.4</ele>
        <time>2013-12-20T14:41:02.162Z</time>
      </trkpt>
      <trkpt lat="48.73384" lon="2.02394">
        <ele>136</ele>
        <time>2013-12-20T14:41:07.782Z</time>
      </trkpt>
      <trkpt lat="48.73383" lon="2.02396">
        <ele>135.9</ele>
        <time>2013-12-20T14:41:08.136Z</time>
      </trkpt>
      <trkpt lat="48.73377" lon="2.02402">
        <ele>136.1</ele>
        <time>2013-12-20T14:41:15.167Z</time>
      </trkpt>
      <trkpt lat="48.73375" lon="2.02403">
        <ele>136</ele>
        <time>2013-12-20T14:41:16.166Z</time>
      </trkpt>
      <trkpt lat="48.73367" lon="2.02408">
        <ele>136</ele>
        <time>2013-12-20T14:41:24.123Z</time>
      </trkpt>
      <trkpt lat="48.73366" lon="2.02408">
        <ele>136</ele>
        <time>2013-12-20T14:41:25.207Z</time>
      </trkpt>
      <trkpt lat="48.73357" lon="2.02411">
        <ele>135.8</ele>
        <time>2013-12-20T14:41:30.162Z</time>
      </trkpt>
      <trkpt lat="48.73355" lon="2.02413">
        <ele>135.8</ele>
        <time>2013-12-20T14:41:31.162Z</time>
      </trkpt>
      <trkpt lat="48.73349" lon="2.02417">
        <ele>136</ele>
        <time>2013-12-20T14:41:35.159Z</time>
      </trkpt>
      <trkpt lat="48.73347" lon="2.02418">
        <ele>136.1</ele>
        <time>2013-12-20T14:41:36.160Z</time>
      </trkpt>
      <trkpt lat="48.73341" lon="2.02426">
        <ele>136.6</ele>
        <time>2013-12-20T14:41:41.165Z</time>
      </trkpt>
      <trkpt lat="48.7334" lon="2.02428">
        <ele>136.7</ele>
        <time>2013-12-20T14:41:42.164Z</time>
      </trkpt>
      <trkpt lat="48.73332" lon="2.02434">
        <ele>137.6</ele>
        <time>2013-12-20T14:41:50.112Z</time>
      </trkpt>
      <trkpt lat="48.73331" lon="2.02434">
        <ele>137.7</ele>
        <time>2013-12-20T14:41:51.310Z</time>
      </trkpt>
      <trkpt lat="48.73323" lon="2.02437">
        <ele>138.6</ele>
        <time>2013-12-20T14:41:58.264Z</time>
      </trkpt>
      <trkpt lat="48.73322" lon="2.02437">
        <ele>138.5</ele>
        <time>2013-12-20T14:41:59.166Z</time>
      </trkpt>
      <trkpt lat="48.73314" lon="2.02443">
        <ele>136.5</ele>
        <time>2013-12-20T14:42:12.825Z</time>
      </trkpt>
      <trkpt lat="48.73313" lon="2.02443">
        <ele>136.4</ele>
        <time>2013-12-20T14:42:13.139Z</time>
      </trkpt>
      <trkpt lat="48.73307" lon="2.02451">
        <ele>137.1</ele>
        <time>2013-12-20T14:42:24.188Z</time>
      </trkpt>
      <trkpt lat="48.73306" lon="2.02453">
        <ele>137</ele>
        <time>2013-12-20T14:42:25.267Z</time>
      </trkpt>
      <trkpt lat="48.73299" lon="2.0246">
        <ele>137.1</ele>
        <time>2013-12-20T14:42:28.129Z</time>
      </trkpt>
      <trkpt lat="48.73296" lon="2.02463">
        <ele>137.2</ele>
        <time>2013-12-20T14:42:29.172Z</time>
      </trkpt>
      <trkpt lat="48.73289" lon="2.02468">
        <ele>137.8</ele>
        <time>2013-12-20T14:42:35.169Z</time>
      </trkpt>
      <trkpt lat="48.73287" lon="2.02468">
        <ele>137.8</ele>
        <time>2013-12-20T14:42:36.178Z</time>
      </trkpt>
      <trkpt lat="48.7328" lon="2.02471">
        <ele>137.6</ele>
        <time>2013-12-20T14:42:38.130Z</time>
      </trkpt>
      <trkpt lat="48.73274" lon="2.02473">
        <ele>137.4</ele>
        <time>2013-12-20T14:42:39.173Z</time>
      </trkpt>
      <trkpt lat="48.73269" lon="2.02475">
        <ele>137.2</ele>
        <time>2013-12-20T14:42:40.174Z</time>
      </trkpt>
      <trkpt lat="48.73265" lon="2.02477">
        <ele>137.2</ele>
        <time>2013-12-20T14:42:41.171Z</time>
      </trkpt>
      <trkpt lat="48.7326" lon="2.02487">
        <ele>136.7</ele>
        <time>2013-12-20T14:42:45.170Z</time>
      </trkpt>
      <trkpt lat="48.73259" lon="2.02488">
        <ele>136.7</ele>
        <time>2013-12-20T14:42:46.172Z</time>
      </trkpt>
      <trkpt lat="48.73257" lon="2.02491">
        <ele>137.2</ele>
        <time>2013-12-20T14:42:53.197Z</time>
      </trkpt>
      <trkpt lat="48.73257" lon="2.0249">
        <ele>137.3</ele>
        <time>2013-12-20T14:42:54.187Z</time>
      </trkpt>
      <trkpt lat="48.73257" lon="2.0249">
        <ele>137.3</ele>
        <time>2013-12-20T14:42:56.176Z</time>
      </trkpt>
      <trkpt lat="48.73256" lon="2.0249">
        <ele>137.5</ele>
        <time>2013-12-20T14:42:57.181Z</time>
      </trkpt>
      <trkpt lat="48.7325" lon="2.02498">
        <ele>138.3</ele>
        <time>2013-12-20T14:43:06.282Z</time>
      </trkpt>
      <trkpt lat="48.73249" lon="2.025">
        <ele>138.2</ele>
        <time>2013-12-20T14:43:07.176Z</time>
      </trkpt>
      <trkpt lat="48.73242" lon="2.02506">
        <ele>138</ele>
        <time>2013-12-20T14:43:10.177Z</time>
      </trkpt>
      <trkpt lat="48.7324" lon="2.02507">
        <ele>137.9</ele>
        <time>2013-12-20T14:43:11.178Z</time>
      </trkpt>
      <trkpt lat="48.73232" lon="2.02513">
        <ele>137.6</ele>
        <time>2013-12-20T14:43:17.817Z</time>
      </trkpt>
      <trkpt lat="48.73231" lon="2.02514">
        <ele>137.6</ele>
        <time>2013-12-20T14:43:18.132Z</time>
      </trkpt>
      <trkpt lat="48.73227" lon="2.02525">
        <ele>136.9</ele>
        <time>2013-12-20T14:43:25.150Z</time>
      </trkpt>
      <trkpt lat="48.73225" lon="2.02527">
        <ele>136.8</ele>
        <time>2013-12-20T14:43:26.149Z</time>
      </trkpt>
      <trkpt lat="48.73218" lon="2.02532">
        <ele>135.9</ele>
        <time>2013-12-20T14:43:32.902Z</time>
      </trkpt>
      <trkpt lat="48.73217" lon="2.02533">
        <ele>135.7</ele>
        <time>2013-12-20T14:43:33.170Z</time>
      </trkpt>
      <trkpt lat="48.73209" lon="2.0254">
        <ele>133.8</ele>
        <time>2013-12-20T14:43:44.172Z</time>
      </trkpt>
      <trkpt lat="48.73209" lon="2.02541">
        <ele>133.6</ele>
        <time>2013-12-20T14:43:45.158Z</time>
      </trkpt>
      <trkpt lat="48.73203" lon="2.02549">
        <ele>132.2</ele>
        <time>2013-12-20T14:43:53.044Z</time>
      </trkpt>
      <trkpt lat="48.73202" lon="2.02551">
        <ele>132.1</ele>
        <time>2013-12-20T14:43:53.126Z</time>
      </trkpt>
      <trkpt lat="48.73197" lon="2.02561">
        <ele>131.6</ele>
        <time>2013-12-20T14:43:58.279Z</time>
      </trkpt>
      <trkpt lat="48.73196" lon="2.02562">
        <ele>131.4</ele>
        <time>2013-12-20T14:43:59.167Z</time>
      </trkpt>
      <trkpt lat="48.73189" lon="2.02569">
        <ele>130.1</ele>
        <time>2013-12-20T14:44:07.795Z</time>
      </trkpt>
      <trkpt lat="48.73189" lon="2.02569">
        <ele>129.7</ele>
        <time>2013-12-20T14:44:08.129Z</time>
      </trkpt>
      <trkpt lat="48.73181" lon="2.02575">
        <ele>128.7</ele>
        <time>2013-12-20T14:44:14.208Z</time>
      </trkpt>
      <trkpt lat="48.7318" lon="2.02577">
        <ele>128.7</ele>
        <time>2013-12-20T14:44:15.168Z</time>
      </trkpt>
      <trkpt lat="48.73174" lon="2.02584">
        <ele>128.6</ele>
        <time>2013-12-20T14:44:20.166Z</time>
      </trkpt>
      <trkpt lat="48.73173" lon="2.02586">
        <ele>128.5</ele>
        <time>2013-12-20T14:44:21.169Z</time>
      </trkpt>
      <trkpt lat="48.73167" lon="2.02595">
        <ele>128.3</ele>
        <time>2013-12-20T14:44:28.120Z</time>
      </trkpt>
      <trkpt lat="48.73166" lon="2.02597">
        <ele>128.1</ele>
        <time>2013-12-20T14:44:29.173Z</time>
      </trkpt>
      <trkpt lat="48.7316" lon="2.02605">
        <ele>128.4</ele>
        <time>2013-12-20T14:44:37.970Z</time>
      </trkpt>
      <trkpt lat="48.73159" lon="2.02606">
        <ele>128.4</ele>
        <time>2013-12-20T14:44:38.127Z</time>
      </trkpt>
      <trkpt lat="48.73152" lon="2.02611">
        <ele>128.3</ele>
        <time>2013-12-20T14:44:43.007Z</time>
      </trkpt>
      <trkpt lat="48.7315" lon="2.02613">
        <ele>128.2</ele>
        <time>2013-12-20T14:44:43.128Z</time>
      </trkpt>
      <trkpt lat="48.73142" lon="2.02619">
        <ele>127.9</ele>
        <time>2013-12-20T14:44:49.182Z</time>
      </trkpt>
      <trkpt lat="48.73141" lon="2.0262">
        <ele>127.8</ele>
        <time>2013-12-20T14:44:50.181Z</time>
      </trkpt>
      <trkpt lat="48.73136" lon="2.02628">
        <ele>127.4</ele>
        <time>2013-12-20T14:44:55.186Z</time>
      </trkpt>
      <trkpt lat="48.73134" lon="2.0263">
        <ele>127.4</ele>
        <time>2013-12-20T14:44:56.179Z</time>
      </trkpt>
      <trkpt lat="48.73128" lon="2.02637">
        <ele>127.5</ele>
        <time>2013-12-20T14:45:00.266Z</time>
      </trkpt>
      <trkpt lat="48.73127" lon="2.02639">
        <ele>127.5</ele>
        <time>2013-12-20T14:45:01.169Z</time>
      </trkpt>
      <trkpt lat="48.7312" lon="2.02646">
        <ele>128</ele>
        <time>2013-12-20T14:45:07.790Z</time>
      </trkpt>
      <trkpt lat="48.73119" lon="2.02648">
        <ele>128.1</ele>
        <time>2013-12-20T14:45:08.125Z</time>
      </trkpt>
      <trkpt lat="48.73112" lon="2.02654">
        <ele>129.1</ele>
        <time>2013-12-20T14:45:14.162Z</time>
      </trkpt>
      <trkpt lat="48.7311" lon="2.02655">
        <ele>129.2</ele>
        <time>2013-12-20T14:45:15.157Z</time>
      </trkpt>
      <trkpt lat="48.73103" lon="2.02662">
        <ele>130.3</ele>
        <time>2013-12-20T14:45:22.931Z</time>
      </trkpt>
      <trkpt lat="48.73103" lon="2.02663">
        <ele>130.4</ele>
        <time>2013-12-20T14:45:23.120Z</time>
      </trkpt>
      <trkpt lat="48.73096" lon="2.0267">
        <ele>131.1</ele>
        <time>2013-12-20T14:45:30.163Z</time>
      </trkpt>
      <trkpt lat="48.73095" lon="2.02672">
        <ele>131.2</ele>
        <time>2013-12-20T14:45:31.167Z</time>
      </trkpt>
      <trkpt lat="48.73088" lon="2.02679">
        <ele>132.1</ele>
        <time>2013-12-20T14:45:40.177Z</time>
      </trkpt>
      <trkpt lat="48.73087" lon="2.02681">
        <ele>132.2</ele>
        <time>2013-12-20T14:45:41.181Z</time>
      </trkpt>
      <trkpt lat="48.7308" lon="2.02687">
        <ele>134</ele>
        <time>2013-12-20T14:45:50.175Z</time>
      </trkpt>
      <trkpt lat="48.7308" lon="2.02689">
        <ele>134.2</ele>
        <time>2013-12-20T14:45:51.169Z</time>
      </trkpt>
      <trkpt lat="48.73074" lon="2.02697">
        <ele>134.7</ele>
        <time>2013-12-20T14:46:03.294Z</time>
      </trkpt>
      <trkpt lat="48.73073" lon="2.02698">
        <ele>134.7</ele>
        <time>2013-12-20T14:46:04.164Z</time>
      </trkpt>
      <trkpt lat="48.73066" lon="2.02704">
        <ele>134.7</ele>
        <time>2013-12-20T14:46:10.165Z</time>
      </trkpt>
      <trkpt lat="48.73065" lon="2.02705">
        <ele>134.8</ele>
        <time>2013-12-20T14:46:11.213Z</time>
      </trkpt>
      <trkpt lat="48.73057" lon="2.02713">
        <ele>134.8</ele>
        <time>2013-12-20T14:46:16.167Z</time>
      </trkpt>
      <trkpt lat="48.73056" lon="2.02715">
        <ele>134.8</ele>
        <time>2013-12-20T14:46:17.171Z</time>
      </trkpt>
      <trkpt lat="48.73051" lon="2.02725">
        <ele>134.5</ele>
        <time>2013-12-20T14:46:23.163Z</time>
      </trkpt>
      <trkpt lat="48.7305" lon="2.02727">
        <ele>134.4</ele>
        <time>2013-12-20T14:46:24.173Z</time>
      </trkpt>
      <trkpt lat="48.73044" lon="2.02736">
        <ele>134.2</ele>
        <time>2013-12-20T14:46:29.179Z</time>
      </trkpt>
      <trkpt lat="48.73043" lon="2.02737">
        <ele>134.2</ele>
        <time>2013-12-20T14:46:30.179Z</time>
      </trkpt>
      <trkpt lat="48.73041" lon="2.02749">
        <ele>134.1</ele>
        <time>2013-12-20T14:46:41.174Z</time>
      </trkpt>
      <trkpt lat="48.73041" lon="2.02751">
        <ele>134.1</ele>
        <time>2013-12-20T14:46:42.179Z</time>
      </trkpt>
      <trkpt lat="48.73037" lon="2.02762">
        <ele>134.1</ele>
        <time>2013-12-20T14:46:48.193Z</time>
      </trkpt>
      <trkpt lat="48.73036" lon="2.02765">
        <ele>134</ele>
        <time>2013-12-20T14:46:48.315Z</time>
      </trkpt>
      <trkpt lat="48.73029" lon="2.02771">
        <ele>134.4</ele>
        <time>2013-12-20T14:46:55.244Z</time>
      </trkpt>
      <trkpt lat="48.73028" lon="2.02772">
        <ele>134.3</ele>
        <time>2013-12-20T14:46:56.244Z</time>
      </trkpt>
      <trkpt lat="48.73019" lon="2.02774">
        <ele>134.5</ele>
        <time>2013-12-20T14:47:04.240Z</time>
      </trkpt>
      <trkpt lat="48.73018" lon="2.02775">
        <ele>134.6</ele>
        <time>2013-12-20T14:47:05.240Z</time>
      </trkpt>
      <trkpt lat="48.73011" lon="2.02778">
        <ele>135</ele>
        <time>2013-12-20T14:47:13.333Z</time>
      </trkpt>
      <trkpt lat="48.73009" lon="2.0278">
        <ele>135.1</ele>
        <time>2013-12-20T14:47:14.207Z</time>
      </trkpt>
      <trkpt lat="48.73002" lon="2.02785">
        <ele>135.2</ele>
        <time>2013-12-20T14:47:19.185Z</time>
      </trkpt>
      <trkpt lat="48.73001" lon="2.02786">
        <ele>135.2</ele>
        <time>2013-12-20T14:47:20.182Z</time>
      </trkpt>
      <trkpt lat="48.72994" lon="2.02793">
        <ele>134.6</ele>
        <time>2013-12-20T14:47:25.144Z</time>
      </trkpt>
      <trkpt lat="48.72993" lon="2.02795">
        <ele>134.5</ele>
        <time>2013-12-20T14:47:26.752Z</time>
      </trkpt>
      <trkpt lat="48.72987" lon="2.02802">
        <ele>133.4</ele>
        <time>2013-12-20T14:47:31.222Z</time>
      </trkpt>
      <trkpt lat="48.72986" lon="2.02804">
        <ele>133.3</ele>
        <time>2013-12-20T14:47:32.178Z</time>
      </trkpt>
      <trkpt lat="48.72978" lon="2.02809">
        <ele>132.6</ele>
        <time>2013-12-20T14:47:38.507Z</time>
      </trkpt>
      <trkpt lat="48.72977" lon="2.0281">
        <ele>132.4</ele>
        <time>2013-12-20T14:47:39.132Z</time>
      </trkpt>
      <trkpt lat="48.72971" lon="2.02819">
        <ele>131.4</ele>
        <time>2013-12-20T14:47:46.187Z</time>
      </trkpt>
      <trkpt lat="48.7297" lon="2.0282">
        <ele>131.2</ele>
        <time>2013-12-20T14:47:47.209Z</time>
      </trkpt>
      <trkpt lat="48.72961" lon="2.02823">
        <ele>130.8</ele>
        <time>2013-12-20T14:47:56.187Z</time>
      </trkpt>
      <trkpt lat="48.72961" lon="2.02823">
        <ele>130.7</ele>
        <time>2013-12-20T14:47:57.196Z</time>
      </trkpt>
      <trkpt lat="48.72961" lon="2.02823">
        <ele>130.7</ele>
        <time>2013-12-20T14:47:58.611Z</time>
      </trkpt>
      <trkpt lat="48.72961" lon="2.02823">
        <ele>130.8</ele>
        <time>2013-12-20T14:47:59.201Z</time>
      </trkpt>
      <trkpt lat="48.72962" lon="2.02823">
        <ele>130.9</ele>
        <time>2013-12-20T14:48:00.159Z</time>
      </trkpt>
      <trkpt lat="48.72965" lon="2.02835">
        <ele>131.9</ele>
        <time>2013-12-20T14:48:10.201Z</time>
      </trkpt>
      <trkpt lat="48.72966" lon="2.02838">
        <ele>132</ele>
        <time>2013-12-20T14:48:11.197Z</time>
      </trkpt>
      <trkpt lat="48.72971" lon="2.02849">
        <ele>132.8</ele>
        <time>2013-12-20T14:48:17.851Z</time>
      </trkpt>
      <trkpt lat="48.72972" lon="2.0285">
        <ele>133</ele>
        <time>2013-12-20T14:48:18.186Z</time>
      </trkpt>
      <trkpt lat="48.72969" lon="2.02856">
        <ele>134.5</ele>
        <time>2013-12-20T14:48:39.174Z</time>
      </trkpt>
      <trkpt lat="48.72969" lon="2.02857">
        <ele>134.5</ele>
        <time>2013-12-20T14:48:40.141Z</time>
      </trkpt>
      <trkpt lat="48.72969" lon="2.02857">
        <ele>134.5</ele>
        <time>2013-12-20T14:48:41.181Z</time>
      </trkpt>
      <trkpt lat="48.72969" lon="2.02857">
        <ele>134.5</ele>
        <time>2013-12-20T14:48:42.158Z</time>
      </trkpt>
      <trkpt lat="48.72968" lon="2.02861">
        <ele>134</ele>
        <time>2013-12-20T14:48:49.172Z</time>
      </trkpt>
      <trkpt lat="48.72968" lon="2.0286">
        <ele>134</ele>
        <time>2013-12-20T14:48:50.188Z</time>
      </trkpt>
      <trkpt lat="48.72968" lon="2.0286">
        <ele>134</ele>
        <time>2013-12-20T14:48:53.251Z</time>
      </trkpt>
      <trkpt lat="48.72968" lon="2.02859">
        <ele>134</ele>
        <time>2013-12-20T14:48:54.175Z</time>
      </trkpt>
      <trkpt lat="48.72966" lon="2.02855">
        <ele>133.7</ele>
        <time>2013-12-20T14:49:05.175Z</time>
      </trkpt>
      <trkpt lat="48.72966" lon="2.02856">
        <ele>133.6</ele>
        <time>2013-12-20T14:49:06.169Z</time>
      </trkpt>
      <trkpt lat="48.72965" lon="2.02857">
        <ele>133.3</ele>
        <time>2013-12-20T14:49:18.105Z</time>
      </trkpt>
      <trkpt lat="48.72964" lon="2.02857">
        <ele>133.2</ele>
        <time>2013-12-20T14:49:19.149Z</time>
      </trkpt>
      <trkpt lat="48.72964" lon="2.02857">
        <ele>133.2</ele>
        <time>2013-12-20T14:49:20.148Z</time>
      </trkpt>
      <trkpt lat="48.72964" lon="2.02857">
        <ele>133.1</ele>
        <time>2013-12-20T14:49:21.150Z</time>
      </trkpt>
      <trkpt lat="48.72964" lon="2.02859">
        <ele>132.9</ele>
        <time>2013-12-20T14:49:28.039Z</time>
      </trkpt>
      <trkpt lat="48.72965" lon="2.0286">
        <ele>132.9</ele>
        <time>2013-12-20T14:49:28.847Z</time>
      </trkpt>
      <trkpt lat="48.72966" lon="2.02873">
        <ele>132.8</ele>
        <time>2013-12-20T14:49:42.152Z</time>
      </trkpt>
      <trkpt lat="48.72966" lon="2.02874">
        <ele>132.8</ele>
        <time>2013-12-20T14:49:43.175Z</time>
      </trkpt>
      <trkpt lat="48.72966" lon="2.02875">
        <ele>133</ele>
        <time>2013-12-20T14:49:48.201Z</time>
      </trkpt>
      <trkpt lat="48.72966" lon="2.02875">
        <ele>133.2</ele>
        <time>2013-12-20T14:49:49.159Z</time>
      </trkpt>
      <trkpt lat="48.72966" lon="2.02874">
        <ele>133.5</ele>
        <time>2013-12-20T14:49:50.161Z</time>
      </trkpt>
      <trkpt lat="48.72966" lon="2.02873">
        <ele>133.6</ele>
        <time>2013-12-20T14:49:51.212Z</time>
      </trkpt>
      <trkpt lat="48.72961" lon="2.02868">
        <ele>133.5</ele>
        <time>2013-12-20T14:49:59.167Z</time>
      </trkpt>
      <trkpt lat="48.72961" lon="2.02868">
        <ele>133.5</ele>
        <time>2013-12-20T14:50:00.191Z</time>
      </trkpt>
      <trkpt lat="48.72961" lon="2.02869">
        <ele>133.5</ele>
        <time>2013-12-20T14:50:01.166Z</time>
      </trkpt>
      <trkpt lat="48.72963" lon="2.02871">
        <ele>133.9</ele>
        <time>2013-12-20T14:50:05.173Z</time>
      </trkpt>
      <trkpt lat="48.72963" lon="2.0287">
        <ele>133.9</ele>
        <time>2013-12-20T14:50:06.255Z</time>
      </trkpt>
      <trkpt lat="48.72963" lon="2.0287">
        <ele>133.9</ele>
        <time>2013-12-20T14:50:07.169Z</time>
      </trkpt>
      <trkpt lat="48.72963" lon="2.02869">
        <ele>133.9</ele>
        <time>2013-12-20T14:50:08.143Z</time>
      </trkpt>
      <trkpt lat="48.72963" lon="2.02868">
        <ele>133.7</ele>
        <time>2013-12-20T14:50:10.169Z</time>
      </trkpt>
      <trkpt lat="48.72963" lon="2.02868">
        <ele>133.6</ele>
        <time>2013-12-20T14:50:11.170Z</time>
      </trkpt>
      <trkpt lat="48.72963" lon="2.02869">
        <ele>133.5</ele>
        <time>2013-12-20T14:50:12.170Z</time>
      </trkpt>
      <trkpt lat="48.72964" lon="2.0287">
        <ele>133.4</ele>
        <time>2013-12-20T14:50:13.150Z</time>
      </trkpt>
      <trkpt lat="48.72962" lon="2.02869">
        <ele>132.6</ele>
        <time>2013-12-20T14:50:30.180Z</time>
      </trkpt>
      <trkpt lat="48.72962" lon="2.02869">
        <ele>132.6</ele>
        <time>2013-12-20T14:50:31.205Z</time>
      </trkpt>
      <trkpt lat="48.72962" lon="2.0287">
        <ele>132.7</ele>
        <time>2013-12-20T14:50:32.187Z</time>
      </trkpt>
      <trkpt lat="48.72962" lon="2.0287">
        <ele>132.7</ele>
        <time>2013-12-20T14:50:33.230Z</time>
      </trkpt>
      <trkpt lat="48.72957" lon="2.02862">
        <ele>132.8</ele>
        <time>2013-12-20T14:50:50.173Z</time>
      </trkpt>
      <trkpt lat="48.72957" lon="2.02862">
        <ele>132.9</ele>
        <time>2013-12-20T14:50:51.165Z</time>
      </trkpt>
      <trkpt lat="48.72957" lon="2.02863">
        <ele>133.1</ele>
        <time>2013-12-20T14:50:57.150Z</time>
      </trkpt>
      <trkpt lat="48.72958" lon="2.02861">
        <ele>133.3</ele>
        <time>2013-12-20T14:50:58.179Z</time>
      </trkpt>
      <trkpt lat="48.72959" lon="2.0286">
        <ele>133.6</ele>
        <time>2013-12-20T14:51:03.522Z</time>
      </trkpt>
      <trkpt lat="48.72959" lon="2.0286">
        <ele>133.6</ele>
        <time>2013-12-20T14:51:04.182Z</time>
      </trkpt>
      <trkpt lat="48.72961" lon="2.0286">
        <ele>132.9</ele>
        <time>2013-12-20T14:51:18.040Z</time>
      </trkpt>
      <trkpt lat="48.72961" lon="2.02859">
        <ele>132.6</ele>
        <time>2013-12-20T14:51:19.183Z</time>
      </trkpt>
      <trkpt lat="48.72964" lon="2.02857">
        <ele>132.2</ele>
        <time>2013-12-20T14:51:28.052Z</time>
      </trkpt>
      <trkpt lat="48.72964" lon="2.02857">
        <ele>132.2</ele>
        <time>2013-12-20T14:51:28.229Z</time>
      </trkpt>
      <trkpt lat="48.72964" lon="2.02857">
        <ele>132.2</ele>
        <time>2013-12-20T14:51:29.180Z</time>
      </trkpt>
      <trkpt lat="48.72961" lon="2.02855">
        <ele>132.5</ele>
        <time>2013-12-20T14:51:36.185Z</time>
      </trkpt>
      <trkpt lat="48.72961" lon="2.02855">
        <ele>132.6</ele>
        <time>2013-12-20T14:51:37.177Z</time>
      </trkpt>
      <trkpt lat="48.72962" lon="2.02854">
        <ele>132.9</ele>
        <time>2013-12-20T14:51:40.174Z</time>
      </trkpt>
      <trkpt lat="48.72962" lon="2.02854">
        <ele>133</ele>
        <time>2013-12-20T14:51:41.175Z</time>
      </trkpt>
      <trkpt lat="48.72961" lon="2.02842">
        <ele>134.4</ele>
        <time>2013-12-20T14:51:55.177Z</time>
      </trkpt>
      <trkpt lat="48.7296" lon="2.0284">
        <ele>134.5</ele>
        <time>2013-12-20T14:51:56.173Z</time>
      </trkpt>
      <trkpt lat="48.72958" lon="2.02828">
        <ele>135.5</ele>
        <time>2013-12-20T14:52:03.598Z</time>
      </trkpt>
      <trkpt lat="48.72958" lon="2.02826">
        <ele>135.7</ele>
        <time>2013-12-20T14:52:04.172Z</time>
      </trkpt>
      <trkpt lat="48.72956" lon="2.02819">
        <ele>136.7</ele>
        <time>2013-12-20T14:52:11.129Z</time>
      </trkpt>
      <trkpt lat="48.72956" lon="2.02819">
        <ele>136.7</ele>
        <time>2013-12-20T14:52:12.114Z</time>
      </trkpt>
      <trkpt lat="48.72956" lon="2.02819">
        <ele>136.7</ele>
        <time>2013-12-20T14:52:13.109Z</time>
      </trkpt>
      <trkpt lat="48.72957" lon="2.02819">
        <ele>136.7</ele>
        <time>2013-12-20T14:52:14.130Z</time>
      </trkpt>
      <trkpt lat="48.72958" lon="2.02815">
        <ele>136.9</ele>
        <time>2013-12-20T14:52:24.169Z</time>
      </trkpt>
      <trkpt lat="48.72958" lon="2.02815">
        <ele>137</ele>
        <time>2013-12-20T14:52:25.161Z</time>
      </trkpt>
      <trkpt lat="48.72958" lon="2.02815">
        <ele>137.1</ele>
        <time>2013-12-20T14:52:27.874Z</time>
      </trkpt>
      <trkpt lat="48.72957" lon="2.02816">
        <ele>137.1</ele>
        <time>2013-12-20T14:52:28.127Z</time>
      </trkpt>
      <trkpt lat="48.72954" lon="2.02818">
        <ele>138.5</ele>
        <time>2013-12-20T14:52:35.173Z</time>
      </trkpt>
      <trkpt lat="48.72954" lon="2.02817">
        <ele>138.6</ele>
        <time>2013-12-20T14:52:36.160Z</time>
      </trkpt>
      <trkpt lat="48.72954" lon="2.02817">
        <ele>138.6</ele>
        <time>2013-12-20T14:52:37.173Z</time>
      </trkpt>
      <trkpt lat="48.72954" lon="2.02815">
        <ele>138.6</ele>
        <time>2013-12-20T14:52:40.136Z</time>
      </trkpt>
      <trkpt lat="48.72954" lon="2.02815">
        <ele>138.6</ele>
        <time>2013-12-20T14:52:41.159Z</time>
      </trkpt>
      <trkpt lat="48.72955" lon="2.02816">
        <ele>139</ele>
        <time>2013-12-20T14:52:46.172Z</time>
      </trkpt>
      <trkpt lat="48.72955" lon="2.02816">
        <ele>139</ele>
        <time>2013-12-20T14:52:47.177Z</time>
      </trkpt>
      <trkpt lat="48.72961" lon="2.02822">
        <ele>139</ele>
        <time>2013-12-20T14:52:59.153Z</time>
      </trkpt>
      <trkpt lat="48.72961" lon="2.02822">
        <ele>138.8</ele>
        <time>2013-12-20T14:53:00.574Z</time>
      </trkpt>
      <trkpt lat="48.72961" lon="2.02822">
        <ele>138.7</ele>
        <time>2013-12-20T14:53:05.228Z</time>
      </trkpt>
      <trkpt lat="48.72961" lon="2.02823">
        <ele>138.6</ele>
        <time>2013-12-20T14:53:06.237Z</time>
      </trkpt>
      <trkpt lat="48.72955" lon="2.02824">
        <ele>138.6</ele>
        <time>2013-12-20T14:53:25.165Z</time>
      </trkpt>
      <trkpt lat="48.72955" lon="2.02823">
        <ele>138.6</ele>
        <time>2013-12-20T14:53:26.159Z</time>
      </trkpt>
      <trkpt lat="48.72955" lon="2.02823">
        <ele>138.6</ele>
        <time>2013-12-20T14:53:29.165Z</time>
      </trkpt>
      <trkpt lat="48.72955" lon="2.02822">
        <ele>138.6</ele>
        <time>2013-12-20T14:53:30.143Z</time>
      </trkpt>
      <trkpt lat="48.7295" lon="2.02811">
        <ele>139.3</ele>
        <time>2013-12-20T14:53:38.198Z</time>
      </trkpt>
      <trkpt lat="48.7295" lon="2.0281">
        <ele>139.4</ele>
        <time>2013-12-20T14:53:39.201Z</time>
      </trkpt>
      <trkpt lat="48.72949" lon="2.02798">
        <ele>139.5</ele>
        <time>2013-12-20T14:53:44.172Z</time>
      </trkpt>
      <trkpt lat="48.72949" lon="2.02795">
        <ele>139.4</ele>
        <time>2013-12-20T14:53:45.165Z</time>
      </trkpt>
      <trkpt lat="48.72947" lon="2.02782">
        <ele>139.2</ele>
        <time>2013-12-20T14:53:55.175Z</time>
      </trkpt>
      <trkpt lat="48.72947" lon="2.02781">
        <ele>139.2</ele>
        <time>2013-12-20T14:53:56.183Z</time>
      </trkpt>
      <trkpt lat="48.7294" lon="2.02772">
        <ele>139.4</ele>
        <time>2013-12-20T14:54:00.285Z</time>
      </trkpt>
      <trkpt lat="48.72939" lon="2.0277">
        <ele>139.5</ele>
        <time>2013-12-20T14:54:01.173Z</time>
      </trkpt>
      <trkpt lat="48.72933" lon="2.02762">
        <ele>139.7</ele>
        <time>2013-12-20T14:54:07.749Z</time>
      </trkpt>
      <trkpt lat="48.72932" lon="2.02761">
        <ele>139.7</ele>
        <time>2013-12-20T14:54:08.171Z</time>
      </trkpt>
      <trkpt lat="48.72926" lon="2.02753">
        <ele>139.8</ele>
        <time>2013-12-20T14:54:14.148Z</time>
      </trkpt>
      <trkpt lat="48.72925" lon="2.02752">
        <ele>139.7</ele>
        <time>2013-12-20T14:54:15.170Z</time>
      </trkpt>
      <trkpt lat="48.72918" lon="2.02746">
        <ele>139.1</ele>
        <time>2013-12-20T14:54:21.162Z</time>
      </trkpt>
      <trkpt lat="48.72917" lon="2.02745">
        <ele>139</ele>
        <time>2013-12-20T14:54:22.160Z</time>
      </trkpt>
      <trkpt lat="48.7291" lon="2.02738">
        <ele>138.1</ele>
        <time>2013-12-20T14:54:33.198Z</time>
      </trkpt>
      <trkpt lat="48.72909" lon="2.02738">
        <ele>137.9</ele>
        <time>2013-12-20T14:54:34.164Z</time>
      </trkpt>
      <trkpt lat="48.72901" lon="2.02732">
        <ele>137.3</ele>
        <time>2013-12-20T14:54:40.157Z</time>
      </trkpt>
      <trkpt lat="48.729" lon="2.02731">
        <ele>137.2</ele>
        <time>2013-12-20T14:54:41.160Z</time>
      </trkpt>
      <trkpt lat="48.72893" lon="2.02726">
        <ele>137.2</ele>
        <time>2013-12-20T14:54:46.162Z</time>
      </trkpt>
      <trkpt lat="48.72892" lon="2.02724">
        <ele>137.1</ele>
        <time>2013-12-20T14:54:47.166Z</time>
      </trkpt>
      <trkpt lat="48.72886" lon="2.02716">
        <ele>137</ele>
        <time>2013-12-20T14:54:54.164Z</time>
      </trkpt>
      <trkpt lat="48.72885" lon="2.02714">
        <ele>136.9</ele>
        <time>2013-12-20T14:54:55.165Z</time>
      </trkpt>
      <trkpt lat="48.72878" lon="2.02708">
        <ele>137.3</ele>
        <time>2013-12-20T14:55:01.161Z</time>
      </trkpt>
      <trkpt lat="48.72877" lon="2.02707">
        <ele>137.4</ele>
        <time>2013-12-20T14:55:02.162Z</time>
      </trkpt>
      <trkpt lat="48.72869" lon="2.02703">
        <ele>137.9</ele>
        <time>2013-12-20T14:55:08.146Z</time>
      </trkpt>
      <trkpt lat="48.72868" lon="2.02702">
        <ele>137.9</ele>
        <time>2013-12-20T14:55:09.167Z</time>
      </trkpt>
      <trkpt lat="48.72862" lon="2.02694">
        <ele>137.8</ele>
        <time>2013-12-20T14:55:15.161Z</time>
      </trkpt>
      <trkpt lat="48.72861" lon="2.02693">
        <ele>137.8</ele>
        <time>2013-12-20T14:55:16.163Z</time>
      </trkpt>
      <trkpt lat="48.72855" lon="2.02684">
        <ele>137.4</ele>
        <time>2013-12-20T14:55:23.229Z</time>
      </trkpt>
      <trkpt lat="48.72854" lon="2.02683">
        <ele>137.4</ele>
        <time>2013-12-20T14:55:24.161Z</time>
      </trkpt>
      <trkpt lat="48.72848" lon="2.02676">
        <ele>137.3</ele>
        <time>2013-12-20T14:55:29.163Z</time>
      </trkpt>
      <trkpt lat="48.72847" lon="2.02674">
        <ele>137.2</ele>
        <time>2013-12-20T14:55:30.144Z</time>
      </trkpt>
      <trkpt lat="48.72839" lon="2.02668">
        <ele>137.2</ele>
        <time>2013-12-20T14:55:36.170Z</time>
      </trkpt>
      <trkpt lat="48.72838" lon="2.02667">
        <ele>137.2</ele>
        <time>2013-12-20T14:55:37.246Z</time>
      </trkpt>
      <trkpt lat="48.7283" lon="2.0266">
        <ele>138.1</ele>
        <time>2013-12-20T14:55:44.162Z</time>
      </trkpt>
      <trkpt lat="48.72829" lon="2.02658">
        <ele>138.2</ele>
        <time>2013-12-20T14:55:45.184Z</time>
      </trkpt>
      <trkpt lat="48.72822" lon="2.02651">
        <ele>138.2</ele>
        <time>2013-12-20T14:55:54.171Z</time>
      </trkpt>
      <trkpt lat="48.72821" lon="2.0265">
        <ele>138.2</ele>
        <time>2013-12-20T14:55:55.172Z</time>
      </trkpt>
      <trkpt lat="48.72814" lon="2.02644">
        <ele>138.2</ele>
        <time>2013-12-20T14:56:02.160Z</time>
      </trkpt>
      <trkpt lat="48.72813" lon="2.02643">
        <ele>138.1</ele>
        <time>2013-12-20T14:56:03.158Z</time>
      </trkpt>
      <trkpt lat="48.72806" lon="2.02635">
        <ele>138.2</ele>
        <time>2013-12-20T14:56:09.157Z</time>
      </trkpt>
      <trkpt lat="48.72804" lon="2.02633">
        <ele>138.2</ele>
        <time>2013-12-20T14:56:10.156Z</time>
      </trkpt>
      <trkpt lat="48.72797" lon="2.02626">
        <ele>138.1</ele>
        <time>2013-12-20T14:56:16.157Z</time>
      </trkpt>
      <trkpt lat="48.72796" lon="2.02625">
        <ele>138.2</ele>
        <time>2013-12-20T14:56:17.161Z</time>
      </trkpt>
      <trkpt lat="48.72789" lon="2.02618">
        <ele>138.5</ele>
        <time>2013-12-20T14:56:22.887Z</time>
      </trkpt>
      <trkpt lat="48.72788" lon="2.02617">
        <ele>138.6</ele>
        <time>2013-12-20T14:56:23.127Z</time>
      </trkpt>
      <trkpt lat="48.72782" lon="2.02609">
        <ele>139.1</ele>
        <time>2013-12-20T14:56:29.160Z</time>
      </trkpt>
      <trkpt lat="48.72781" lon="2.02608">
        <ele>139.2</ele>
        <time>2013-12-20T14:56:30.159Z</time>
      </trkpt>
      <trkpt lat="48.72774" lon="2.02599">
        <ele>139.6</ele>
        <time>2013-12-20T14:56:37.978Z</time>
      </trkpt>
      <trkpt lat="48.72773" lon="2.02598">
        <ele>139.8</ele>
        <time>2013-12-20T14:56:38.172Z</time>
      </trkpt>
      <trkpt lat="48.72766" lon="2.02594">
        <ele>140.6</ele>
        <time>2013-12-20T14:56:46.163Z</time>
      </trkpt>
      <trkpt lat="48.72765" lon="2.02593">
        <ele>140.6</ele>
        <time>2013-12-20T14:56:47.166Z</time>
      </trkpt>
      <trkpt lat="48.72758" lon="2.02587">
        <ele>140.3</ele>
        <time>2013-12-20T14:56:53.107Z</time>
      </trkpt>
      <trkpt lat="48.72757" lon="2.02586">
        <ele>140.2</ele>
        <time>2013-12-20T14:56:53.233Z</time>
      </trkpt>
      <trkpt lat="48.72751" lon="2.02578">
        <ele>140.2</ele>
        <time>2013-12-20T14:57:01.168Z</time>
      </trkpt>
      <trkpt lat="48.7275" lon="2.02578">
        <ele>140.4</ele>
        <time>2013-12-20T14:57:02.170Z</time>
      </trkpt>
      <trkpt lat="48.72743" lon="2.02572">
        <ele>140.9</ele>
        <time>2013-12-20T14:57:08.164Z</time>
      </trkpt>
      <trkpt lat="48.72741" lon="2.02571">
        <ele>140.9</ele>
        <time>2013-12-20T14:57:09.203Z</time>
      </trkpt>
      <trkpt lat="48.72734" lon="2.02567">
        <ele>141.5</ele>
        <time>2013-12-20T14:57:17.864Z</time>
      </trkpt>
      <trkpt lat="48.72733" lon="2.02567">
        <ele>141.6</ele>
        <time>2013-12-20T14:57:18.170Z</time>
      </trkpt>
      <trkpt lat="48.72726" lon="2.02558">
        <ele>142.1</ele>
        <time>2013-12-20T14:57:27.917Z</time>
      </trkpt>
      <trkpt lat="48.72726" lon="2.02558">
        <ele>142.2</ele>
        <time>2013-12-20T14:57:28.154Z</time>
      </trkpt>
      <trkpt lat="48.7272" lon="2.02549">
        <ele>142.1</ele>
        <time>2013-12-20T14:57:33.220Z</time>
      </trkpt>
      <trkpt lat="48.7272" lon="2.02547">
        <ele>142</ele>
        <time>2013-12-20T14:57:34.176Z</time>
      </trkpt>
      <trkpt lat="48.72715" lon="2.02536">
        <ele>140.9</ele>
        <time>2013-12-20T14:57:43.175Z</time>
      </trkpt>
      <trkpt lat="48.72715" lon="2.02535">
        <ele>140.9</ele>
        <time>2013-12-20T14:57:44.162Z</time>
      </trkpt>
      <trkpt lat="48.72707" lon="2.02541">
        <ele>139.6</ele>
        <time>2013-12-20T14:57:59.161Z</time>
      </trkpt>
      <trkpt lat="48.72706" lon="2.02541">
        <ele>139.5</ele>
        <time>2013-12-20T14:58:00.237Z</time>
      </trkpt>
      <trkpt lat="48.72699" lon="2.02548">
        <ele>138.6</ele>
        <time>2013-12-20T14:58:10.173Z</time>
      </trkpt>
      <trkpt lat="48.72697" lon="2.02548">
        <ele>138.5</ele>
        <time>2013-12-20T14:58:11.172Z</time>
      </trkpt>
      <trkpt lat="48.7269" lon="2.02552">
        <ele>137.4</ele>
        <time>2013-12-20T14:58:17.858Z</time>
      </trkpt>
      <trkpt lat="48.72689" lon="2.02553">
        <ele>137.1</ele>
        <time>2013-12-20T14:58:18.152Z</time>
      </trkpt>
      <trkpt lat="48.72683" lon="2.02562">
        <ele>135.7</ele>
        <time>2013-12-20T14:58:24.164Z</time>
      </trkpt>
      <trkpt lat="48.72682" lon="2.02563">
        <ele>135.4</ele>
        <time>2013-12-20T14:58:25.164Z</time>
      </trkpt>
      <trkpt lat="48.72678" lon="2.02574">
        <ele>134</ele>
        <time>2013-12-20T14:58:33.084Z</time>
      </trkpt>
      <trkpt lat="48.72678" lon="2.02576">
        <ele>134</ele>
        <time>2013-12-20T14:58:33.184Z</time>
      </trkpt>
      <trkpt lat="48.72674" lon="2.02588">
        <ele>133.9</ele>
        <time>2013-12-20T14:58:37.977Z</time>
      </trkpt>
      <trkpt lat="48.72673" lon="2.02591">
        <ele>134.1</ele>
        <time>2013-12-20T14:58:38.178Z</time>
      </trkpt>
      <trkpt lat="48.72668" lon="2.026">
        <ele>134.8</ele>
        <time>2013-12-20T14:58:43.021Z</time>
      </trkpt>
      <trkpt lat="48.72666" lon="2.02602">
        <ele>135</ele>
        <time>2013-12-20T14:58:43.183Z</time>
      </trkpt>
      <trkpt lat="48.72661" lon="2.02612">
        <ele>136.4</ele>
        <time>2013-12-20T14:58:48.067Z</time>
      </trkpt>
      <trkpt lat="48.7266" lon="2.02614">
        <ele>136.7</ele>
        <time>2013-12-20T14:58:48.221Z</time>
      </trkpt>
      <trkpt lat="48.72656" lon="2.02626">
        <ele>138.1</ele>
        <time>2013-12-20T14:58:53.245Z</time>
      </trkpt>
      <trkpt lat="48.72655" lon="2.02628">
        <ele>138.4</ele>
        <time>2013-12-20T14:58:54.176Z</time>
      </trkpt>
      <trkpt lat="48.72651" lon="2.02639">
        <ele>139.5</ele>
        <time>2013-12-20T14:59:00.213Z</time>
      </trkpt>
      <trkpt lat="48.72649" lon="2.02641">
        <ele>139.7</ele>
        <time>2013-12-20T14:59:01.162Z</time>
      </trkpt>
      <trkpt lat="48.72641" lon="2.02646">
        <ele>140.6</ele>
        <time>2013-12-20T14:59:06.158Z</time>
      </trkpt>
      <trkpt lat="48.72639" lon="2.02646">
        <ele>140.8</ele>
        <time>2013-12-20T14:59:07.158Z</time>
      </trkpt>
      <trkpt lat="48.72632" lon="2.02649">
        <ele>141.4</ele>
        <time>2013-12-20T14:59:10.157Z</time>
      </trkpt>
      <trkpt lat="48.7263" lon="2.0265">
        <ele>141.8</ele>
        <time>2013-12-20T14:59:11.159Z</time>
      </trkpt>
      <trkpt lat="48.72622" lon="2.02651">
        <ele>142.8</ele>
        <time>2013-12-20T14:59:14.158Z</time>
      </trkpt>
      <trkpt lat="48.72621" lon="2.02651">
        <ele>143.1</ele>
        <time>2013-12-20T14:59:15.159Z</time>
      </trkpt>
      <trkpt lat="48.72612" lon="2.02654">
        <ele>145.7</ele>
        <time>2013-12-20T14:59:25.158Z</time>
      </trkpt>
      <trkpt lat="48.7261" lon="2.02656">
        <ele>145.9</ele>
        <time>2013-12-20T14:59:26.236Z</time>
      </trkpt>
      <trkpt lat="48.72603" lon="2.02662">
        <ele>147.4</ele>
        <time>2013-12-20T14:59:35.167Z</time>
      </trkpt>
      <trkpt lat="48.72601" lon="2.02662">
        <ele>147.6</ele>
        <time>2013-12-20T14:59:36.219Z</time>
      </trkpt>
      <trkpt lat="48.72593" lon="2.02662">
        <ele>147.9</ele>
        <time>2013-12-20T14:59:39.165Z</time>
      </trkpt>
      <trkpt lat="48.72591" lon="2.02661">
        <ele>147.9</ele>
        <time>2013-12-20T14:59:40.169Z</time>
      </trkpt>
      <trkpt lat="48.72582" lon="2.02665">
        <ele>147.3</ele>
        <time>2013-12-20T14:59:48.275Z</time>
      </trkpt>
      <trkpt lat="48.72581" lon="2.02666">
        <ele>147.3</ele>
        <time>2013-12-20T14:59:49.158Z</time>
      </trkpt>
      <trkpt lat="48.72576" lon="2.02676">
        <ele>148.1</ele>
        <time>2013-12-20T14:59:54.158Z</time>
      </trkpt>
      <trkpt lat="48.72574" lon="2.02678">
        <ele>148.3</ele>
        <time>2013-12-20T14:59:55.139Z</time>
      </trkpt>
      <trkpt lat="48.72566" lon="2.02684">
        <ele>148.9</ele>
        <time>2013-12-20T15:00:01.180Z</time>
      </trkpt>
      <trkpt lat="48.72565" lon="2.02684">
        <ele>149.1</ele>
        <time>2013-12-20T15:00:02.154Z</time>
      </trkpt>
      <trkpt lat="48.72558" lon="2.02687">
        <ele>149.5</ele>
        <time>2013-12-20T15:00:08.130Z</time>
      </trkpt>
      <trkpt lat="48.72556" lon="2.02688">
        <ele>149.6</ele>
        <time>2013-12-20T15:00:09.128Z</time>
      </trkpt>
      <trkpt lat="48.72548" lon="2.02691">
        <ele>149.8</ele>
        <time>2013-12-20T15:00:13.132Z</time>
      </trkpt>
      <trkpt lat="48.72546" lon="2.02691">
        <ele>149.7</ele>
        <time>2013-12-20T15:00:14.147Z</time>
      </trkpt>
      <trkpt lat="48.72537" lon="2.02689">
        <ele>149</ele>
        <time>2013-12-20T15:00:24.165Z</time>
      </trkpt>
      <trkpt lat="48.72536" lon="2.02688">
        <ele>148.7</ele>
        <time>2013-12-20T15:00:25.173Z</time>
      </trkpt>
      <trkpt lat="48.72528" lon="2.02694">
        <ele>147.4</ele>
        <time>2013-12-20T15:00:31.157Z</time>
      </trkpt>
      <trkpt lat="48.72527" lon="2.02694">
        <ele>147.4</ele>
        <time>2013-12-20T15:00:32.155Z</time>
      </trkpt>
      <trkpt lat="48.72519" lon="2.02697">
        <ele>147</ele>
        <time>2013-12-20T15:00:38.487Z</time>
      </trkpt>
      <trkpt lat="48.72517" lon="2.02698">
        <ele>147</ele>
        <time>2013-12-20T15:00:39.156Z</time>
      </trkpt>
      <trkpt lat="48.72509" lon="2.02699">
        <ele>147.8</ele>
        <time>2013-12-20T15:00:44.160Z</time>
      </trkpt>
      <trkpt lat="48.72508" lon="2.02699">
        <ele>147.9</ele>
        <time>2013-12-20T15:00:45.157Z</time>
      </trkpt>
      <trkpt lat="48.725" lon="2.02702">
        <ele>149.1</ele>
        <time>2013-12-20T15:00:52.154Z</time>
      </trkpt>
      <trkpt lat="48.72499" lon="2.02702">
        <ele>149.3</ele>
        <time>2013-12-20T15:00:53.471Z</time>
      </trkpt>
      <trkpt lat="48.7249" lon="2.02704">
        <ele>149.8</ele>
        <time>2013-12-20T15:00:57.122Z</time>
      </trkpt>
      <trkpt lat="48.72488" lon="2.02704">
        <ele>149.8</ele>
        <time>2013-12-20T15:00:58.157Z</time>
      </trkpt>
      <trkpt lat="48.72482" lon="2.02701">
        <ele>150</ele>
        <time>2013-12-20T15:01:09.122Z</time>
      </trkpt>
      <trkpt lat="48.72482" lon="2.02702">
        <ele>150</ele>
        <time>2013-12-20T15:01:10.159Z</time>
      </trkpt>
      <trkpt lat="48.72482" lon="2.02703">
        <ele>149.9</ele>
        <time>2013-12-20T15:01:18.148Z</time>
      </trkpt>
      <trkpt lat="48.72481" lon="2.02703">
        <ele>149.8</ele>
        <time>2013-12-20T15:01:19.162Z</time>
      </trkpt>
      <trkpt lat="48.72475" lon="2.02711">
        <ele>149.5</ele>
        <time>2013-12-20T15:01:23.139Z</time>
      </trkpt>
      <trkpt lat="48.72473" lon="2.02713">
        <ele>149.4</ele>
        <time>2013-12-20T15:01:24.234Z</time>
      </trkpt>
      <trkpt lat="48.72467" lon="2.0272">
        <ele>149.6</ele>
        <time>2013-12-20T15:01:30.163Z</time>
      </trkpt>
      <trkpt lat="48.72466" lon="2.02721">
        <ele>149.7</ele>
        <time>2013-12-20T15:01:31.163Z</time>
      </trkpt>
      <trkpt lat="48.72458" lon="2.02726">
        <ele>151.6</ele>
        <time>2013-12-20T15:01:39.156Z</time>
      </trkpt>
      <trkpt lat="48.72457" lon="2.02727">
        <ele>151.9</ele>
        <time>2013-12-20T15:01:40.156Z</time>
      </trkpt>
      <trkpt lat="48.72451" lon="2.02735">
        <ele>153.4</ele>
        <time>2013-12-20T15:01:48.013Z</time>
      </trkpt>
      <trkpt lat="48.7245" lon="2.02737">
        <ele>153.6</ele>
        <time>2013-12-20T15:01:48.175Z</time>
      </trkpt>
      <trkpt lat="48.72446" lon="2.02747">
        <ele>154.1</ele>
        <time>2013-12-20T15:01:51.258Z</time>
      </trkpt>
      <trkpt lat="48.72445" lon="2.0275">
        <ele>154.3</ele>
        <time>2013-12-20T15:01:52.155Z</time>
      </trkpt>
      <trkpt lat="48.72438" lon="2.02756">
        <ele>155.5</ele>
        <time>2013-12-20T15:02:00.138Z</time>
      </trkpt>
      <trkpt lat="48.72436" lon="2.02757">
        <ele>155.6</ele>
        <time>2013-12-20T15:02:01.181Z</time>
      </trkpt>
      <trkpt lat="48.72428" lon="2.02761">
        <ele>155.6</ele>
        <time>2013-12-20T15:02:08.126Z</time>
      </trkpt>
      <trkpt lat="48.72426" lon="2.02763">
        <ele>155.6</ele>
        <time>2013-12-20T15:02:09.187Z</time>
      </trkpt>
      <trkpt lat="48.72418" lon="2.0277">
        <ele>155.6</ele>
        <time>2013-12-20T15:02:17.874Z</time>
      </trkpt>
      <trkpt lat="48.72417" lon="2.02771">
        <ele>155.6</ele>
        <time>2013-12-20T15:02:18.266Z</time>
      </trkpt>
      <trkpt lat="48.7241" lon="2.02775">
        <ele>156.6</ele>
        <time>2013-12-20T15:02:24.157Z</time>
      </trkpt>
      <trkpt lat="48.72408" lon="2.02777">
        <ele>156.8</ele>
        <time>2013-12-20T15:02:25.159Z</time>
      </trkpt>
      <trkpt lat="48.72402" lon="2.02784">
        <ele>158</ele>
        <time>2013-12-20T15:02:35.157Z</time>
      </trkpt>
      <trkpt lat="48.724" lon="2.02786">
        <ele>158.1</ele>
        <time>2013-12-20T15:02:36.157Z</time>
      </trkpt>
      <trkpt lat="48.72394" lon="2.02793">
        <ele>158.8</ele>
        <time>2013-12-20T15:02:43.181Z</time>
      </trkpt>
      <trkpt lat="48.72392" lon="2.02795">
        <ele>158.9</ele>
        <time>2013-12-20T15:02:43.258Z</time>
      </trkpt>
      <trkpt lat="48.72387" lon="2.02802">
        <ele>160</ele>
        <time>2013-12-20T15:02:48.215Z</time>
      </trkpt>
      <trkpt lat="48.72385" lon="2.02805">
        <ele>160.3</ele>
        <time>2013-12-20T15:02:49.161Z</time>
      </trkpt>
      <trkpt lat="48.72379" lon="2.02812">
        <ele>161.9</ele>
        <time>2013-12-20T15:02:57.158Z</time>
      </trkpt>
      <trkpt lat="48.72377" lon="2.02813">
        <ele>162.1</ele>
        <time>2013-12-20T15:02:58.158Z</time>
      </trkpt>
      <trkpt lat="48.72371" lon="2.02823">
        <ele>164</ele>
        <time>2013-12-20T15:03:06.160Z</time>
      </trkpt>
      <trkpt lat="48.72371" lon="2.02823">
        <ele>164.2</ele>
        <time>2013-12-20T15:03:07.165Z</time>
      </trkpt>
      <trkpt lat="48.72362" lon="2.02825">
        <ele>165.5</ele>
        <time>2013-12-20T15:03:14.130Z</time>
      </trkpt>
      <trkpt lat="48.72361" lon="2.02825">
        <ele>165.7</ele>
        <time>2013-12-20T15:03:15.166Z</time>
      </trkpt>
      <trkpt lat="48.72353" lon="2.02826">
        <ele>166.3</ele>
        <time>2013-12-20T15:03:21.160Z</time>
      </trkpt>
      <trkpt lat="48.72352" lon="2.02827">
        <ele>166.5</ele>
        <time>2013-12-20T15:03:22.160Z</time>
      </trkpt>
      <trkpt lat="48.72343" lon="2.02826">
        <ele>165.8</ele>
        <time>2013-12-20T15:03:34.167Z</time>
      </trkpt>
      <trkpt lat="48.72342" lon="2.02825">
        <ele>165.6</ele>
        <time>2013-12-20T15:03:35.163Z</time>
      </trkpt>
      <trkpt lat="48.72336" lon="2.02817">
        <ele>163.8</ele>
        <time>2013-12-20T15:03:56.164Z</time>
      </trkpt>
      <trkpt lat="48.72336" lon="2.02817">
        <ele>163.8</ele>
        <time>2013-12-20T15:03:57.164Z</time>
      </trkpt>
      <trkpt lat="48.72336" lon="2.02817">
        <ele>163.8</ele>
        <time>2013-12-20T15:03:58.231Z</time>
      </trkpt>
      <trkpt lat="48.72335" lon="2.02818">
        <ele>163.9</ele>
        <time>2013-12-20T15:03:59.160Z</time>
      </trkpt>
      <trkpt lat="48.72329" lon="2.02825">
        <ele>164.4</ele>
        <time>2013-12-20T15:04:06.163Z</time>
      </trkpt>
      <trkpt lat="48.72328" lon="2.02826">
        <ele>164.5</ele>
        <time>2013-12-20T15:04:07.250Z</time>
      </trkpt>
      <trkpt lat="48.72322" lon="2.02834">
        <ele>164.9</ele>
        <time>2013-12-20T15:04:12.795Z</time>
      </trkpt>
      <trkpt lat="48.7232" lon="2.02836">
        <ele>165.1</ele>
        <time>2013-12-20T15:04:13.131Z</time>
      </trkpt>
      <trkpt lat="48.72313" lon="2.02843">
        <ele>169.4</ele>
        <time>2013-12-20T15:04:24.151Z</time>
      </trkpt>
      <trkpt lat="48.72312" lon="2.02844">
        <ele>169.8</ele>
        <time>2013-12-20T15:04:25.154Z</time>
      </trkpt>
      <trkpt lat="48.72311" lon="2.02845">
        <ele>171.7</ele>
        <time>2013-12-20T15:04:30.159Z</time>
      </trkpt>
      <trkpt lat="48.72311" lon="2.02845">
        <ele>171.8</ele>
        <time>2013-12-20T15:04:31.153Z</time>
      </trkpt>
      <trkpt lat="48.72311" lon="2.02846">
        <ele>172.9</ele>
        <time>2013-12-20T15:04:36.156Z</time>
      </trkpt>
      <trkpt lat="48.72311" lon="2.02846">
        <ele>173</ele>
        <time>2013-12-20T15:04:37.178Z</time>
      </trkpt>
      <trkpt lat="48.72305" lon="2.02853">
        <ele>174.6</ele>
        <time>2013-12-20T15:04:42.152Z</time>
      </trkpt>
      <trkpt lat="48.72303" lon="2.02856">
        <ele>174.7</ele>
        <time>2013-12-20T15:04:43.160Z</time>
      </trkpt>
      <trkpt lat="48.72297" lon="2.0286">
        <ele>175.4</ele>
        <time>2013-12-20T15:04:45.165Z</time>
      </trkpt>
      <trkpt lat="48.72294" lon="2.02861">
        <ele>175.8</ele>
        <time>2013-12-20T15:04:46.161Z</time>
      </trkpt>
      <trkpt lat="48.72286" lon="2.02867">
        <ele>176.8</ele>
        <time>2013-12-20T15:04:54.114Z</time>
      </trkpt>
      <trkpt lat="48.72286" lon="2.02868">
        <ele>176.8</ele>
        <time>2013-12-20T15:04:55.232Z</time>
      </trkpt>
      <trkpt lat="48.72286" lon="2.02871">
        <ele>176.8</ele>
        <time>2013-12-20T15:05:01.158Z</time>
      </trkpt>
      <trkpt lat="48.72286" lon="2.02871">
        <ele>176.8</ele>
        <time>2013-12-20T15:05:02.156Z</time>
      </trkpt>
      <trkpt lat="48.72285" lon="2.02871">
        <ele>176.9</ele>
        <time>2013-12-20T15:05:03.157Z</time>
      </trkpt>
      <trkpt lat="48.7228" lon="2.02882">
        <ele>176.8</ele>
        <time>2013-12-20T15:05:15.154Z</time>
      </trkpt>
      <trkpt lat="48.7228" lon="2.02882">
        <ele>176.8</ele>
        <time>2013-12-20T15:05:16.154Z</time>
      </trkpt>
      <trkpt lat="48.72278" lon="2.02885">
        <ele>177.4</ele>
        <time>2013-12-20T15:05:26.155Z</time>
      </trkpt>
      <trkpt lat="48.72278" lon="2.02885">
        <ele>177.7</ele>
        <time>2013-12-20T15:05:27.155Z</time>
      </trkpt>
      <trkpt lat="48.72278" lon="2.02885">
        <ele>178</ele>
        <time>2013-12-20T15:05:28.196Z</time>
      </trkpt>
      <trkpt lat="48.72278" lon="2.02885">
        <ele>178.4</ele>
        <time>2013-12-20T15:05:29.157Z</time>
      </trkpt>
      <trkpt lat="48.72276" lon="2.02899">
        <ele>180.1</ele>
        <time>2013-12-20T15:05:44.172Z</time>
      </trkpt>
      <trkpt lat="48.72277" lon="2.029">
        <ele>180.1</ele>
        <time>2013-12-20T15:05:45.174Z</time>
      </trkpt>
      <trkpt lat="48.7228" lon="2.02912">
        <ele>179.8</ele>
        <time>2013-12-20T15:05:51.502Z</time>
      </trkpt>
      <trkpt lat="48.7228" lon="2.02914">
        <ele>179.6</ele>
        <time>2013-12-20T15:05:52.175Z</time>
      </trkpt>
      <trkpt lat="48.72276" lon="2.02918">
        <ele>178.7</ele>
        <time>2013-12-20T15:06:06.169Z</time>
      </trkpt>
      <trkpt lat="48.72276" lon="2.02918">
        <ele>178.7</ele>
        <time>2013-12-20T15:06:07.175Z</time>
      </trkpt>
      <trkpt lat="48.72276" lon="2.02918">
        <ele>178.8</ele>
        <time>2013-12-20T15:06:11.163Z</time>
      </trkpt>
      <trkpt lat="48.72275" lon="2.02919">
        <ele>178.9</ele>
        <time>2013-12-20T15:06:12.160Z</time>
      </trkpt>
      <trkpt lat="48.72269" lon="2.02924">
        <ele>180.2</ele>
        <time>2013-12-20T15:06:22.843Z</time>
      </trkpt>
      <trkpt lat="48.72269" lon="2.02924">
        <ele>180.2</ele>
        <time>2013-12-20T15:06:23.197Z</time>
      </trkpt>
      <trkpt lat="48.72269" lon="2.02923">
        <ele>181.8</ele>
        <time>2013-12-20T15:06:28.201Z</time>
      </trkpt>
      <trkpt lat="48.72268" lon="2.02923">
        <ele>182.3</ele>
        <time>2013-12-20T15:06:29.236Z</time>
      </trkpt>
      <trkpt lat="48.72259" lon="2.02924">
        <ele>184.5</ele>
        <time>2013-12-20T15:06:34.238Z</time>
      </trkpt>
      <trkpt lat="48.72257" lon="2.02924">
        <ele>184.9</ele>
        <time>2013-12-20T15:06:35.235Z</time>
      </trkpt>
      <trkpt lat="48.7225" lon="2.02925">
        <ele>185.7</ele>
        <time>2013-12-20T15:06:38.202Z</time>
      </trkpt>
      <trkpt lat="48.72248" lon="2.02926">
        <ele>186</ele>
        <time>2013-12-20T15:06:39.238Z</time>
      </trkpt>
      <trkpt lat="48.72239" lon="2.02927">
        <ele>186.7</ele>
        <time>2013-12-20T15:06:43.211Z</time>
      </trkpt>
      <trkpt lat="48.72237" lon="2.02927">
        <ele>186.9</ele>
        <time>2013-12-20T15:06:44.163Z</time>
      </trkpt>
      <trkpt lat="48.72229" lon="2.02922">
        <ele>187.8</ele>
        <time>2013-12-20T15:06:58.199Z</time>
      </trkpt>
      <trkpt lat="48.72228" lon="2.02922">
        <ele>187.8</ele>
        <time>2013-12-20T15:06:59.161Z</time>
      </trkpt>
      <trkpt lat="48.72227" lon="2.02922">
        <ele>187.7</ele>
        <time>2013-12-20T15:07:03.184Z</time>
      </trkpt>
      <trkpt lat="48.72227" lon="2.02922">
        <ele>187.6</ele>
        <time>2013-12-20T15:07:04.159Z</time>
      </trkpt>
      <trkpt lat="48.72226" lon="2.02922">
        <ele>187.9</ele>
        <time>2013-12-20T15:07:10.159Z</time>
      </trkpt>
      <trkpt lat="48.72226" lon="2.02923">
        <ele>188</ele>
        <time>2013-12-20T15:07:11.160Z</time>
      </trkpt>
      <trkpt lat="48.72225" lon="2.02923">
        <ele>188.6</ele>
        <time>2013-12-20T15:07:14.161Z</time>
      </trkpt>
      <trkpt lat="48.72225" lon="2.02923">
        <ele>188.8</ele>
        <time>2013-12-20T15:07:15.163Z</time>
      </trkpt>
      <trkpt lat="48.72225" lon="2.02923">
        <ele>189.4</ele>
        <time>2013-12-20T15:07:18.133Z</time>
      </trkpt>
      <trkpt lat="48.72225" lon="2.02924">
        <ele>189.8</ele>
        <time>2013-12-20T15:07:19.168Z</time>
      </trkpt>
      <trkpt lat="48.72219" lon="2.02934">
        <ele>191</ele>
        <time>2013-12-20T15:07:22.903Z</time>
      </trkpt>
      <trkpt lat="48.72218" lon="2.02936">
        <ele>191.5</ele>
        <time>2013-12-20T15:07:23.136Z</time>
      </trkpt>
      <trkpt lat="48.72211" lon="2.02943">
        <ele>193.9</ele>
        <time>2013-12-20T15:07:31.162Z</time>
      </trkpt>
      <trkpt lat="48.72209" lon="2.02944">
        <ele>194.2</ele>
        <time>2013-12-20T15:07:32.161Z</time>
      </trkpt>
      <trkpt lat="48.72207" lon="2.02945">
        <ele>194.4</ele>
        <time>2013-12-20T15:07:39.163Z</time>
      </trkpt>
      <trkpt lat="48.72207" lon="2.02946">
        <ele>194.4</ele>
        <time>2013-12-20T15:07:40.165Z</time>
      </trkpt>
      <trkpt lat="48.72208" lon="2.02946">
        <ele>194.4</ele>
        <time>2013-12-20T15:07:41.207Z</time>
      </trkpt>
      <trkpt lat="48.72213" lon="2.02944">
        <ele>193.8</ele>
        <time>2013-12-20T15:07:52.170Z</time>
      </trkpt>
      <trkpt lat="48.72213" lon="2.02945">
        <ele>193.5</ele>
        <time>2013-12-20T15:07:53.173Z</time>
      </trkpt>
      <trkpt lat="48.72212" lon="2.02946">
        <ele>193.4</ele>
        <time>2013-12-20T15:07:55.173Z</time>
      </trkpt>
      <trkpt lat="48.72211" lon="2.02946">
        <ele>193.3</ele>
        <time>2013-12-20T15:07:56.174Z</time>
      </trkpt>
      <trkpt lat="48.72208" lon="2.02947">
        <ele>192.4</ele>
        <time>2013-12-20T15:08:03.325Z</time>
      </trkpt>
      <trkpt lat="48.72209" lon="2.02946">
        <ele>191.8</ele>
        <time>2013-12-20T15:08:04.175Z</time>
      </trkpt>
      <trkpt lat="48.72209" lon="2.02945">
        <ele>191.2</ele>
        <time>2013-12-20T15:08:05.173Z</time>
      </trkpt>
      <trkpt lat="48.72212" lon="2.02942">
        <ele>190.1</ele>
        <time>2013-12-20T15:08:13.142Z</time>
      </trkpt>
      <trkpt lat="48.72212" lon="2.02942">
        <ele>190.1</ele>
        <time>2013-12-20T15:08:14.176Z</time>
      </trkpt>
      <trkpt lat="48.72211" lon="2.02942">
        <ele>190.8</ele>
        <time>2013-12-20T15:08:30.170Z</time>
      </trkpt>
      <trkpt lat="48.72211" lon="2.0294">
        <ele>190.8</ele>
        <time>2013-12-20T15:08:31.167Z</time>
      </trkpt>
      <trkpt lat="48.72205" lon="2.02936">
        <ele>193.9</ele>
        <time>2013-12-20T15:08:42.959Z</time>
      </trkpt>
      <trkpt lat="48.72206" lon="2.02937">
        <ele>193.9</ele>
        <time>2013-12-20T15:08:43.174Z</time>
      </trkpt>
      <trkpt lat="48.72207" lon="2.02937">
        <ele>194.1</ele>
        <time>2013-12-20T15:08:45.170Z</time>
      </trkpt>
      <trkpt lat="48.72207" lon="2.02938">
        <ele>194.2</ele>
        <time>2013-12-20T15:08:46.172Z</time>
      </trkpt>
      <trkpt lat="48.72207" lon="2.02938">
        <ele>194.3</ele>
        <time>2013-12-20T15:08:47.995Z</time>
      </trkpt>
      <trkpt lat="48.72207" lon="2.02938">
        <ele>194.4</ele>
        <time>2013-12-20T15:08:48.181Z</time>
      </trkpt>
      <trkpt lat="48.72207" lon="2.02938">
        <ele>194.4</ele>
        <time>2013-12-20T15:08:50.169Z</time>
      </trkpt>
      <trkpt lat="48.72207" lon="2.02938">
        <ele>194.4</ele>
        <time>2013-12-20T15:08:51.170Z</time>
      </trkpt>
      <trkpt lat="48.72209" lon="2.02949">
        <ele>194.7</ele>
        <time>2013-12-20T15:08:56.171Z</time>
      </trkpt>
      <trkpt lat="48.72211" lon="2.02952">
        <ele>194.8</ele>
        <time>2013-12-20T15:08:57.169Z</time>
      </trkpt>
      <trkpt lat="48.72215" lon="2.02959">
        <ele>195</ele>
        <time>2013-12-20T15:08:59.170Z</time>
      </trkpt>
      <trkpt lat="48.72217" lon="2.02962">
        <ele>195.1</ele>
        <time>2013-12-20T15:09:00.220Z</time>
      </trkpt>
      <trkpt lat="48.72223" lon="2.02972">
        <ele>195.5</ele>
        <time>2013-12-20T15:09:03.230Z</time>
      </trkpt>
      <trkpt lat="48.72224" lon="2.02974">
        <ele>195.6</ele>
        <time>2013-12-20T15:09:04.171Z</time>
      </trkpt>
      <trkpt lat="48.7223" lon="2.02984">
        <ele>196.6</ele>
        <time>2013-12-20T15:09:11.170Z</time>
      </trkpt>
      <trkpt lat="48.72231" lon="2.02985">
        <ele>196.8</ele>
        <time>2013-12-20T15:09:12.170Z</time>
      </trkpt>
      <trkpt lat="48.72237" lon="2.02991">
        <ele>197.2</ele>
        <time>2013-12-20T15:09:15.177Z</time>
      </trkpt>
      <trkpt lat="48.72239" lon="2.02992">
        <ele>197.4</ele>
        <time>2013-12-20T15:09:16.144Z</time>
      </trkpt>
      <trkpt lat="48.72238" lon="2.03005">
        <ele>198.9</ele>
        <time>2013-12-20T15:09:28.132Z</time>
      </trkpt>
      <trkpt lat="48.72238" lon="2.03006">
        <ele>198.8</ele>
        <time>2013-12-20T15:09:29.170Z</time>
      </trkpt>
      <trkpt lat="48.72244" lon="2.03016">
        <ele>197.9</ele>
        <time>2013-12-20T15:09:35.169Z</time>
      </trkpt>
      <trkpt lat="48.72245" lon="2.03017">
        <ele>197.8</ele>
        <time>2013-12-20T15:09:36.169Z</time>
      </trkpt>
      <trkpt lat="48.72251" lon="2.03026">
        <ele>197.6</ele>
        <time>2013-12-20T15:09:43.045Z</time>
      </trkpt>
      <trkpt lat="48.72252" lon="2.03027">
        <ele>197.6</ele>
        <time>2013-12-20T15:09:43.202Z</time>
      </trkpt>
      <trkpt lat="48.72256" lon="2.03035">
        <ele>196.5</ele>
        <time>2013-12-20T15:09:51.170Z</time>
      </trkpt>
      <trkpt lat="48.72258" lon="2.03038">
        <ele>196.5</ele>
        <time>2013-12-20T15:09:52.170Z</time>
      </trkpt>
      <trkpt lat="48.72263" lon="2.03048">
        <ele>196.6</ele>
        <time>2013-12-20T15:09:56.170Z</time>
      </trkpt>
      <trkpt lat="48.72263" lon="2.0305">
        <ele>196.6</ele>
        <time>2013-12-20T15:09:57.170Z</time>
      </trkpt>
      <trkpt lat="48.72265" lon="2.03059">
        <ele>197.6</ele>
        <time>2013-12-20T15:10:04.172Z</time>
      </trkpt>
      <trkpt lat="48.72268" lon="2.03062">
        <ele>197.8</ele>
        <time>2013-12-20T15:10:05.170Z</time>
      </trkpt>
      <trkpt lat="48.72274" lon="2.03071">
        <ele>198.4</ele>
        <time>2013-12-20T15:10:08.136Z</time>
      </trkpt>
      <trkpt lat="48.72278" lon="2.03076">
        <ele>198.6</ele>
        <time>2013-12-20T15:10:09.170Z</time>
      </trkpt>
      <trkpt lat="48.72282" lon="2.03083">
        <ele>198.9</ele>
        <time>2013-12-20T15:10:11.169Z</time>
      </trkpt>
      <trkpt lat="48.72284" lon="2.03086">
        <ele>199</ele>
        <time>2013-12-20T15:10:12.170Z</time>
      </trkpt>
      <trkpt lat="48.72288" lon="2.03097">
        <ele>199.6</ele>
        <time>2013-12-20T15:10:24.170Z</time>
      </trkpt>
      <trkpt lat="48.72289" lon="2.03098">
        <ele>199.6</ele>
        <time>2013-12-20T15:10:25.170Z</time>
      </trkpt>
      <trkpt lat="48.72295" lon="2.03107">
        <ele>199.3</ele>
        <time>2013-12-20T15:10:30.179Z</time>
      </trkpt>
      <trkpt lat="48.72295" lon="2.03108">
        <ele>199.2</ele>
        <time>2013-12-20T15:10:31.177Z</time>
      </trkpt>
      <trkpt lat="48.723" lon="2.03119">
        <ele>198.5</ele>
        <time>2013-12-20T15:10:38.273Z</time>
      </trkpt>
      <trkpt lat="48.72301" lon="2.03121">
        <ele>198.3</ele>
        <time>2013-12-20T15:10:39.169Z</time>
      </trkpt>
      <trkpt lat="48.72306" lon="2.03131">
        <ele>196.7</ele>
        <time>2013-12-20T15:10:48.305Z</time>
      </trkpt>
      <trkpt lat="48.72307" lon="2.03132">
        <ele>196.7</ele>
        <time>2013-12-20T15:10:49.197Z</time>
      </trkpt>
      <trkpt lat="48.72308" lon="2.03144">
        <ele>195.8</ele>
        <time>2013-12-20T15:10:58.332Z</time>
      </trkpt>
      <trkpt lat="48.72309" lon="2.03146">
        <ele>195.8</ele>
        <time>2013-12-20T15:10:59.172Z</time>
      </trkpt>
      <trkpt lat="48.72314" lon="2.03157">
        <ele>196.9</ele>
        <time>2013-12-20T15:11:05.173Z</time>
      </trkpt>
      <trkpt lat="48.72314" lon="2.03159">
        <ele>196.9</ele>
        <time>2013-12-20T15:11:06.172Z</time>
      </trkpt>
      <trkpt lat="48.72319" lon="2.03168">
        <ele>197.6</ele>
        <time>2013-12-20T15:11:10.171Z</time>
      </trkpt>
      <trkpt lat="48.7232" lon="2.03171">
        <ele>197.6</ele>
        <time>2013-12-20T15:11:11.173Z</time>
      </trkpt>
      <trkpt lat="48.72325" lon="2.03181">
        <ele>199.2</ele>
        <time>2013-12-20T15:11:21.179Z</time>
      </trkpt>
      <trkpt lat="48.72326" lon="2.03184">
        <ele>199.3</ele>
        <time>2013-12-20T15:11:22.130Z</time>
      </trkpt>
      <trkpt lat="48.7233" lon="2.0319">
        <ele>199.5</ele>
        <time>2013-12-20T15:11:23.134Z</time>
      </trkpt>
      <trkpt lat="48.72333" lon="2.03194">
        <ele>199.6</ele>
        <time>2013-12-20T15:11:24.171Z</time>
      </trkpt>
      <trkpt lat="48.72339" lon="2.032">
        <ele>200.1</ele>
        <time>2013-12-20T15:11:28.137Z</time>
      </trkpt>
      <trkpt lat="48.7234" lon="2.03202">
        <ele>200.2</ele>
        <time>2013-12-20T15:11:29.169Z</time>
      </trkpt>
      <trkpt lat="48.72339" lon="2.03215">
        <ele>200.5</ele>
        <time>2013-12-20T15:11:40.171Z</time>
      </trkpt>
      <trkpt lat="48.7234" lon="2.03217">
        <ele>200.5</ele>
        <time>2013-12-20T15:11:41.169Z</time>
      </trkpt>
      <trkpt lat="48.72345" lon="2.03228">
        <ele>201</ele>
        <time>2013-12-20T15:11:51.200Z</time>
      </trkpt>
      <trkpt lat="48.72345" lon="2.03229">
        <ele>201.1</ele>
        <time>2013-12-20T15:11:52.174Z</time>
      </trkpt>
      <trkpt lat="48.72348" lon="2.03241">
        <ele>202</ele>
        <time>2013-12-20T15:12:02.171Z</time>
      </trkpt>
      <trkpt lat="48.72349" lon="2.03243">
        <ele>202</ele>
        <time>2013-12-20T15:12:03.174Z</time>
      </trkpt>
      <trkpt lat="48.72353" lon="2.03254">
        <ele>201.3</ele>
        <time>2013-12-20T15:12:15.171Z</time>
      </trkpt>
      <trkpt lat="48.72354" lon="2.03255">
        <ele>201.1</ele>
        <time>2013-12-20T15:12:16.172Z</time>
      </trkpt>
      <trkpt lat="48.72356" lon="2.03268">
        <ele>199.5</ele>
        <time>2013-12-20T15:12:23.261Z</time>
      </trkpt>
      <trkpt lat="48.72356" lon="2.0327">
        <ele>199.3</ele>
        <time>2013-12-20T15:12:24.177Z</time>
      </trkpt>
      <trkpt lat="48.72357" lon="2.0328">
        <ele>198.3</ele>
        <time>2013-12-20T15:12:30.175Z</time>
      </trkpt>
      <trkpt lat="48.72357" lon="2.03284">
        <ele>198.4</ele>
        <time>2013-12-20T15:12:31.174Z</time>
      </trkpt>
      <trkpt lat="48.72358" lon="2.03295">
        <ele>198.3</ele>
        <time>2013-12-20T15:12:36.174Z</time>
      </trkpt>
      <trkpt lat="48.72359" lon="2.03298">
        <ele>198.2</ele>
        <time>2013-12-20T15:12:37.175Z</time>
      </trkpt>
      <trkpt lat="48.7236" lon="2.03308">
        <ele>198</ele>
        <time>2013-12-20T15:12:39.176Z</time>
      </trkpt>
      <trkpt lat="48.72361" lon="2.03311">
        <ele>197.8</ele>
        <time>2013-12-20T15:12:40.174Z</time>
      </trkpt>
      <trkpt lat="48.72363" lon="2.03323">
        <ele>197.2</ele>
        <time>2013-12-20T15:12:44.174Z</time>
      </trkpt>
      <trkpt lat="48.72364" lon="2.03326">
        <ele>197</ele>
        <time>2013-12-20T15:12:45.246Z</time>
      </trkpt>
      <trkpt lat="48.72363" lon="2.03338">
        <ele>196.2</ele>
        <time>2013-12-20T15:12:52.173Z</time>
      </trkpt>
      <trkpt lat="48.72363" lon="2.03342">
        <ele>196</ele>
        <time>2013-12-20T15:12:53.173Z</time>
      </trkpt>
      <trkpt lat="48.72366" lon="2.03354">
        <ele>196</ele>
        <time>2013-12-20T15:13:03.495Z</time>
      </trkpt>
      <trkpt lat="48.72367" lon="2.03356">
        <ele>196.2</ele>
        <time>2013-12-20T15:13:04.171Z</time>
      </trkpt>
      <trkpt lat="48.72368" lon="2.03369">
        <ele>197.1</ele>
        <time>2013-12-20T15:13:09.170Z</time>
      </trkpt>
      <trkpt lat="48.72368" lon="2.03371">
        <ele>197.2</ele>
        <time>2013-12-20T15:13:10.170Z</time>
      </trkpt>
      <trkpt lat="48.72369" lon="2.03385">
        <ele>197.1</ele>
        <time>2013-12-20T15:13:17.876Z</time>
      </trkpt>
      <trkpt lat="48.72369" lon="2.03386">
        <ele>197.1</ele>
        <time>2013-12-20T15:13:18.133Z</time>
      </trkpt>
      <trkpt lat="48.72369" lon="2.034">
        <ele>196.5</ele>
        <time>2013-12-20T15:13:27.932Z</time>
      </trkpt>
      <trkpt lat="48.72369" lon="2.03401">
        <ele>196.5</ele>
        <time>2013-12-20T15:13:28.143Z</time>
      </trkpt>
      <trkpt lat="48.72377" lon="2.03405">
        <ele>196.5</ele>
        <time>2013-12-20T15:13:40.162Z</time>
      </trkpt>
      <trkpt lat="48.72376" lon="2.03405">
        <ele>196.6</ele>
        <time>2013-12-20T15:13:41.170Z</time>
      </trkpt>
      <trkpt lat="48.72375" lon="2.03405">
        <ele>196.6</ele>
        <time>2013-12-20T15:13:42.143Z</time>
      </trkpt>
      <trkpt lat="48.72368" lon="2.03406">
        <ele>196.8</ele>
        <time>2013-12-20T15:14:03.365Z</time>
      </trkpt>
      <trkpt lat="48.72368" lon="2.03406">
        <ele>196.8</ele>
        <time>2013-12-20T15:14:04.169Z</time>
      </trkpt>
      <trkpt lat="48.72367" lon="2.03406">
        <ele>196.9</ele>
        <time>2013-12-20T15:14:09.163Z</time>
      </trkpt>
      <trkpt lat="48.72366" lon="2.03406">
        <ele>197.1</ele>
        <time>2013-12-20T15:14:10.171Z</time>
      </trkpt>
      <trkpt lat="48.72366" lon="2.03406">
        <ele>197.1</ele>
        <time>2013-12-20T15:14:11.228Z</time>
      </trkpt>
      <trkpt lat="48.72366" lon="2.03405">
        <ele>197.3</ele>
        <time>2013-12-20T15:14:14.220Z</time>
      </trkpt>
      <trkpt lat="48.72366" lon="2.03405">
        <ele>197.4</ele>
        <time>2013-12-20T15:14:15.215Z</time>
      </trkpt>
      <trkpt lat="48.72373" lon="2.03411">
        <ele>197.2</ele>
        <time>2013-12-20T15:14:48.275Z</time>
      </trkpt>
      <trkpt lat="48.72373" lon="2.03413">
        <ele>197.2</ele>
        <time>2013-12-20T15:14:48.409Z</time>
      </trkpt>
      <trkpt lat="48.7238" lon="2.03419">
        <ele>196.5</ele>
        <time>2013-12-20T15:14:54.209Z</time>
      </trkpt>
      <trkpt lat="48.72382" lon="2.03421">
        <ele>196.4</ele>
        <time>2013-12-20T15:14:55.431Z</time>
      </trkpt>
      <trkpt lat="48.7239" lon="2.03426">
        <ele>195.2</ele>
        <time>2013-12-20T15:15:03.376Z</time>
      </trkpt>
      <trkpt lat="48.7239" lon="2.03427">
        <ele>195</ele>
        <time>2013-12-20T15:15:04.197Z</time>
      </trkpt>
      <trkpt lat="48.72396" lon="2.03434">
        <ele>192.9</ele>
        <time>2013-12-20T15:15:10.194Z</time>
      </trkpt>
      <trkpt lat="48.72398" lon="2.03436">
        <ele>192.5</ele>
        <time>2013-12-20T15:15:11.189Z</time>
      </trkpt>
      <trkpt lat="48.72402" lon="2.03447">
        <ele>189.4</ele>
        <time>2013-12-20T15:15:21.212Z</time>
      </trkpt>
      <trkpt lat="48.72403" lon="2.03448">
        <ele>189.1</ele>
        <time>2013-12-20T15:15:22.301Z</time>
      </trkpt>
      <trkpt lat="48.72407" lon="2.03458">
        <ele>188.3</ele>
        <time>2013-12-20T15:15:30.298Z</time>
      </trkpt>
      <trkpt lat="48.72408" lon="2.0346">
        <ele>188.3</ele>
        <time>2013-12-20T15:15:31.144Z</time>
      </trkpt>
      <trkpt lat="48.72413" lon="2.0347">
        <ele>188.2</ele>
        <time>2013-12-20T15:15:39.178Z</time>
      </trkpt>
      <trkpt lat="48.72414" lon="2.03471">
        <ele>188.1</ele>
        <time>2013-12-20T15:15:40.177Z</time>
      </trkpt>
      <trkpt lat="48.72419" lon="2.03481">
        <ele>186.9</ele>
        <time>2013-12-20T15:15:51.189Z</time>
      </trkpt>
      <trkpt lat="48.72419" lon="2.03481">
        <ele>186.6</ele>
        <time>2013-12-20T15:15:52.185Z</time>
      </trkpt>
      <trkpt lat="48.72419" lon="2.03481">
        <ele>184.8</ele>
        <time>2013-12-20T15:15:59.184Z</time>
      </trkpt>
      <trkpt lat="48.72419" lon="2.03482">
        <ele>184.5</ele>
        <time>2013-12-20T15:16:00.182Z</time>
      </trkpt>
      <trkpt lat="48.7242" lon="2.03494">
        <ele>183.2</ele>
        <time>2013-12-20T15:16:06.185Z</time>
      </trkpt>
      <trkpt lat="48.72421" lon="2.03496">
        <ele>183.1</ele>
        <time>2013-12-20T15:16:07.184Z</time>
      </trkpt>
      <trkpt lat="48.72425" lon="2.03507">
        <ele>182.8</ele>
        <time>2013-12-20T15:16:13.147Z</time>
      </trkpt>
      <trkpt lat="48.72425" lon="2.03508">
        <ele>182.7</ele>
        <time>2013-12-20T15:16:14.270Z</time>
      </trkpt>
      <trkpt lat="48.72425" lon="2.03519">
        <ele>182.2</ele>
        <time>2013-12-20T15:16:26.181Z</time>
      </trkpt>
      <trkpt lat="48.72425" lon="2.03524">
        <ele>182.2</ele>
        <time>2013-12-20T15:16:27.177Z</time>
      </trkpt>
      <trkpt lat="48.72424" lon="2.03535">
        <ele>181.9</ele>
        <time>2013-12-20T15:16:30.196Z</time>
      </trkpt>
      <trkpt lat="48.72424" lon="2.03539">
        <ele>181.8</ele>
        <time>2013-12-20T15:16:31.195Z</time>
      </trkpt>
      <trkpt lat="48.72422" lon="2.03551">
        <ele>181.5</ele>
        <time>2013-12-20T15:16:34.175Z</time>
      </trkpt>
      <trkpt lat="48.72422" lon="2.03552">
        <ele>181.5</ele>
        <time>2013-12-20T15:16:35.180Z</time>
      </trkpt>
      <trkpt lat="48.72419" lon="2.03564">
        <ele>182.2</ele>
        <time>2013-12-20T15:16:46.188Z</time>
      </trkpt>
      <trkpt lat="48.72419" lon="2.03566">
        <ele>182.3</ele>
        <time>2013-12-20T15:16:47.183Z</time>
      </trkpt>
      <trkpt lat="48.72418" lon="2.0358">
        <ele>182.8</ele>
        <time>2013-12-20T15:17:01.180Z</time>
      </trkpt>
      <trkpt lat="48.72418" lon="2.03581">
        <ele>182.8</ele>
        <time>2013-12-20T15:17:02.182Z</time>
      </trkpt>
      <trkpt lat="48.72413" lon="2.03591">
        <ele>182.6</ele>
        <time>2013-12-20T15:17:11.218Z</time>
      </trkpt>
      <trkpt lat="48.72412" lon="2.03592">
        <ele>182.6</ele>
        <time>2013-12-20T15:17:12.188Z</time>
      </trkpt>
      <trkpt lat="48.72411" lon="2.03604">
        <ele>182.5</ele>
        <time>2013-12-20T15:17:21.344Z</time>
      </trkpt>
      <trkpt lat="48.72411" lon="2.03606">
        <ele>182.5</ele>
        <time>2013-12-20T15:17:22.253Z</time>
      </trkpt>
      <trkpt lat="48.7241" lon="2.03619">
        <ele>182.5</ele>
        <time>2013-12-20T15:17:27.256Z</time>
      </trkpt>
      <trkpt lat="48.72409" lon="2.03621">
        <ele>182.6</ele>
        <time>2013-12-20T15:17:28.261Z</time>
      </trkpt>
      <trkpt lat="48.72411" lon="2.03634">
        <ele>182.4</ele>
        <time>2013-12-20T15:17:34.247Z</time>
      </trkpt>
      <trkpt lat="48.72411" lon="2.03636">
        <ele>182.6</ele>
        <time>2013-12-20T15:17:35.188Z</time>
      </trkpt>
      <trkpt lat="48.72412" lon="2.03647">
        <ele>183.3</ele>
        <time>2013-12-20T15:17:40.201Z</time>
      </trkpt>
      <trkpt lat="48.72412" lon="2.03649">
        <ele>183.3</ele>
        <time>2013-12-20T15:17:41.196Z</time>
      </trkpt>
      <trkpt lat="48.72409" lon="2.03662">
        <ele>183</ele>
        <time>2013-12-20T15:17:50.186Z</time>
      </trkpt>
      <trkpt lat="48.72409" lon="2.03662">
        <ele>182.9</ele>
        <time>2013-12-20T15:17:51.158Z</time>
      </trkpt>
      <trkpt lat="48.72411" lon="2.03674">
        <ele>182.2</ele>
        <time>2013-12-20T15:17:59.187Z</time>
      </trkpt>
      <trkpt lat="48.72411" lon="2.03676">
        <ele>182.1</ele>
        <time>2013-12-20T15:18:00.167Z</time>
      </trkpt>
      <trkpt lat="48.72409" lon="2.03688">
        <ele>181.3</ele>
        <time>2013-12-20T15:18:06.158Z</time>
      </trkpt>
      <trkpt lat="48.72408" lon="2.0369">
        <ele>181.3</ele>
        <time>2013-12-20T15:18:07.151Z</time>
      </trkpt>
      <trkpt lat="48.72407" lon="2.03703">
        <ele>182.1</ele>
        <time>2013-12-20T15:18:15.159Z</time>
      </trkpt>
      <trkpt lat="48.72407" lon="2.03704">
        <ele>182.3</ele>
        <time>2013-12-20T15:18:16.130Z</time>
      </trkpt>
      <trkpt lat="48.72403" lon="2.03715">
        <ele>182.8</ele>
        <time>2013-12-20T15:18:30.158Z</time>
      </trkpt>
      <trkpt lat="48.72402" lon="2.03716">
        <ele>182.8</ele>
        <time>2013-12-20T15:18:31.158Z</time>
      </trkpt>
      <trkpt lat="48.72401" lon="2.03728">
        <ele>181.9</ele>
        <time>2013-12-20T15:18:39.169Z</time>
      </trkpt>
      <trkpt lat="48.72401" lon="2.03729">
        <ele>181.8</ele>
        <time>2013-12-20T15:18:40.171Z</time>
      </trkpt>
      <trkpt lat="48.72406" lon="2.0374">
        <ele>180.9</ele>
        <time>2013-12-20T15:18:47.952Z</time>
      </trkpt>
      <trkpt lat="48.72407" lon="2.03741">
        <ele>180.9</ele>
        <time>2013-12-20T15:18:48.151Z</time>
      </trkpt>
      <trkpt lat="48.72413" lon="2.03751">
        <ele>180.3</ele>
        <time>2013-12-20T15:18:56.230Z</time>
      </trkpt>
      <trkpt lat="48.72413" lon="2.03753">
        <ele>180.3</ele>
        <time>2013-12-20T15:18:57.274Z</time>
      </trkpt>
      <trkpt lat="48.72414" lon="2.03765">
        <ele>180.2</ele>
        <time>2013-12-20T15:19:03.378Z</time>
      </trkpt>
      <trkpt lat="48.72414" lon="2.03767">
        <ele>180.1</ele>
        <time>2013-12-20T15:19:04.198Z</time>
      </trkpt>
      <trkpt lat="48.72414" lon="2.0378">
        <ele>180.3</ele>
        <time>2013-12-20T15:19:14.198Z</time>
      </trkpt>
      <trkpt lat="48.72414" lon="2.03781">
        <ele>180.3</ele>
        <time>2013-12-20T15:19:15.199Z</time>
      </trkpt>
      <trkpt lat="48.72414" lon="2.03794">
        <ele>180.8</ele>
        <time>2013-12-20T15:19:24.191Z</time>
      </trkpt>
      <trkpt lat="48.72414" lon="2.03795">
        <ele>180.9</ele>
        <time>2013-12-20T15:19:25.194Z</time>
      </trkpt>
      <trkpt lat="48.72416" lon="2.03806">
        <ele>181.2</ele>
        <time>2013-12-20T15:19:30.189Z</time>
      </trkpt>
      <trkpt lat="48.72416" lon="2.0381">
        <ele>181.3</ele>
        <time>2013-12-20T15:19:31.188Z</time>
      </trkpt>
      <trkpt lat="48.72417" lon="2.03823">
        <ele>183.2</ele>
        <time>2013-12-20T15:19:39.159Z</time>
      </trkpt>
      <trkpt lat="48.72417" lon="2.03824">
        <ele>183.4</ele>
        <time>2013-12-20T15:19:40.162Z</time>
      </trkpt>
      <trkpt lat="48.72419" lon="2.03836">
        <ele>183.6</ele>
        <time>2013-12-20T15:19:49.205Z</time>
      </trkpt>
      <trkpt lat="48.72418" lon="2.03838">
        <ele>183.5</ele>
        <time>2013-12-20T15:19:50.156Z</time>
      </trkpt>
      <trkpt lat="48.72419" lon="2.03851">
        <ele>183.2</ele>
        <time>2013-12-20T15:19:55.196Z</time>
      </trkpt>
      <trkpt lat="48.72418" lon="2.03854">
        <ele>183.1</ele>
        <time>2013-12-20T15:19:56.196Z</time>
      </trkpt>
      <trkpt lat="48.72415" lon="2.03866">
        <ele>183.1</ele>
        <time>2013-12-20T15:20:05.197Z</time>
      </trkpt>
      <trkpt lat="48.72414" lon="2.03867">
        <ele>182.9</ele>
        <time>2013-12-20T15:20:06.199Z</time>
      </trkpt>
      <trkpt lat="48.72411" lon="2.03878">
        <ele>180.9</ele>
        <time>2013-12-20T15:20:26.201Z</time>
      </trkpt>
      <trkpt lat="48.7241" lon="2.0388">
        <ele>181</ele>
        <time>2013-12-20T15:20:27.199Z</time>
      </trkpt>
      <trkpt lat="48.72407" lon="2.03887">
        <ele>181.2</ele>
        <time>2013-12-20T15:20:29.207Z</time>
      </trkpt>
      <trkpt lat="48.72405" lon="2.03892">
        <ele>181.3</ele>
        <time>2013-12-20T15:20:30.203Z</time>
      </trkpt>
      <trkpt lat="48.724" lon="2.03903">
        <ele>182.4</ele>
        <time>2013-12-20T15:20:35.205Z</time>
      </trkpt>
      <trkpt lat="48.724" lon="2.03904">
        <ele>182.8</ele>
        <time>2013-12-20T15:20:36.203Z</time>
      </trkpt>
      <trkpt lat="48.72393" lon="2.03911">
        <ele>183.9</ele>
        <time>2013-12-20T15:20:42.281Z</time>
      </trkpt>
      <trkpt lat="48.72391" lon="2.03913">
        <ele>184</ele>
        <time>2013-12-20T15:20:43.266Z</time>
      </trkpt>
      <trkpt lat="48.72385" lon="2.03922">
        <ele>184.8</ele>
        <time>2013-12-20T15:20:50.196Z</time>
      </trkpt>
      <trkpt lat="48.72385" lon="2.03923">
        <ele>184.9</ele>
        <time>2013-12-20T15:20:51.195Z</time>
      </trkpt>
      <trkpt lat="48.7238" lon="2.03933">
        <ele>186.1</ele>
        <time>2013-12-20T15:20:59.193Z</time>
      </trkpt>
      <trkpt lat="48.72379" lon="2.03936">
        <ele>186.3</ele>
        <time>2013-12-20T15:21:00.183Z</time>
      </trkpt>
      <trkpt lat="48.72376" lon="2.03945">
        <ele>186.7</ele>
        <time>2013-12-20T15:21:02.196Z</time>
      </trkpt>
      <trkpt lat="48.72375" lon="2.03949">
        <ele>186.9</ele>
        <time>2013-12-20T15:21:03.197Z</time>
      </trkpt>
      <trkpt lat="48.72371" lon="2.03959">
        <ele>187.2</ele>
        <time>2013-12-20T15:21:06.192Z</time>
      </trkpt>
      <trkpt lat="48.72369" lon="2.03961">
        <ele>187.3</ele>
        <time>2013-12-20T15:21:07.192Z</time>
      </trkpt>
      <trkpt lat="48.72362" lon="2.0397">
        <ele>187.7</ele>
        <time>2013-12-20T15:21:14.194Z</time>
      </trkpt>
      <trkpt lat="48.72362" lon="2.03972">
        <ele>187.7</ele>
        <time>2013-12-20T15:21:15.193Z</time>
      </trkpt>
      <trkpt lat="48.72357" lon="2.03982">
        <ele>188.2</ele>
        <time>2013-12-20T15:21:26.199Z</time>
      </trkpt>
      <trkpt lat="48.72357" lon="2.03983">
        <ele>188.3</ele>
        <time>2013-12-20T15:21:27.200Z</time>
      </trkpt>
      <trkpt lat="48.72352" lon="2.03993">
        <ele>187.2</ele>
        <time>2013-12-20T15:21:35.203Z</time>
      </trkpt>
      <trkpt lat="48.72351" lon="2.03995">
        <ele>187</ele>
        <time>2013-12-20T15:21:36.202Z</time>
      </trkpt>
      <trkpt lat="48.72348" lon="2.04004">
        <ele>187</ele>
        <time>2013-12-20T15:21:39.164Z</time>
      </trkpt>
      <trkpt lat="48.72346" lon="2.04008">
        <ele>187</ele>
        <time>2013-12-20T15:21:40.165Z</time>
      </trkpt>
      <trkpt lat="48.72342" lon="2.04019">
        <ele>187.3</ele>
        <time>2013-12-20T15:21:43.181Z</time>
      </trkpt>
      <trkpt lat="48.72341" lon="2.04022">
        <ele>187.5</ele>
        <time>2013-12-20T15:21:44.198Z</time>
      </trkpt>
      <trkpt lat="48.72335" lon="2.04031">
        <ele>188.3</ele>
        <time>2013-12-20T15:21:48.249Z</time>
      </trkpt>
      <trkpt lat="48.72333" lon="2.04033">
        <ele>188.5</ele>
        <time>2013-12-20T15:21:49.194Z</time>
      </trkpt>
      <trkpt lat="48.72328" lon="2.04042">
        <ele>189.1</ele>
        <time>2013-12-20T15:21:53.196Z</time>
      </trkpt>
      <trkpt lat="48.72325" lon="2.04044">
        <ele>189.2</ele>
        <time>2013-12-20T15:21:54.193Z</time>
      </trkpt>
      <trkpt lat="48.72321" lon="2.04055">
        <ele>189.8</ele>
        <time>2013-12-20T15:22:04.190Z</time>
      </trkpt>
      <trkpt lat="48.7232" lon="2.04056">
        <ele>189.8</ele>
        <time>2013-12-20T15:22:05.157Z</time>
      </trkpt>
      <trkpt lat="48.72314" lon="2.04066">
        <ele>189.4</ele>
        <time>2013-12-20T15:22:11.193Z</time>
      </trkpt>
      <trkpt lat="48.72313" lon="2.04067">
        <ele>189.4</ele>
        <time>2013-12-20T15:22:12.195Z</time>
      </trkpt>
      <trkpt lat="48.72311" lon="2.04079">
        <ele>188.9</ele>
        <time>2013-12-20T15:22:22.912Z</time>
      </trkpt>
      <trkpt lat="48.72311" lon="2.0408">
        <ele>188.7</ele>
        <time>2013-12-20T15:22:23.160Z</time>
      </trkpt>
      <trkpt lat="48.72306" lon="2.0409">
        <ele>186.6</ele>
        <time>2013-12-20T15:22:35.202Z</time>
      </trkpt>
      <trkpt lat="48.72306" lon="2.04091">
        <ele>186.4</ele>
        <time>2013-12-20T15:22:36.205Z</time>
      </trkpt>
      <trkpt lat="48.72301" lon="2.04103">
        <ele>183.9</ele>
        <time>2013-12-20T15:22:45.183Z</time>
      </trkpt>
      <trkpt lat="48.723" lon="2.04105">
        <ele>183.6</ele>
        <time>2013-12-20T15:22:46.182Z</time>
      </trkpt>
      <trkpt lat="48.72295" lon="2.04116">
        <ele>182.1</ele>
        <time>2013-12-20T15:22:54.182Z</time>
      </trkpt>
      <trkpt lat="48.72294" lon="2.04117">
        <ele>182</ele>
        <time>2013-12-20T15:22:55.184Z</time>
      </trkpt>
      <trkpt lat="48.72289" lon="2.04127">
        <ele>181.2</ele>
        <time>2013-12-20T15:23:00.248Z</time>
      </trkpt>
      <trkpt lat="48.72288" lon="2.04128">
        <ele>181</ele>
        <time>2013-12-20T15:23:01.182Z</time>
      </trkpt>
      <trkpt lat="48.72283" lon="2.04138">
        <ele>179.9</ele>
        <time>2013-12-20T15:23:07.793Z</time>
      </trkpt>
      <trkpt lat="48.72283" lon="2.04141">
        <ele>180</ele>
        <time>2013-12-20T15:23:08.159Z</time>
      </trkpt>
      <trkpt lat="48.72281" lon="2.04153">
        <ele>180.8</ele>
        <time>2013-12-20T15:23:16.180Z</time>
      </trkpt>
      <trkpt lat="48.7228" lon="2.04155">
        <ele>180.8</ele>
        <time>2013-12-20T15:23:17.178Z</time>
      </trkpt>
      <trkpt lat="48.72276" lon="2.04165">
        <ele>181</ele>
        <time>2013-12-20T15:23:21.180Z</time>
      </trkpt>
      <trkpt lat="48.72274" lon="2.04169">
        <ele>181.1</ele>
        <time>2013-12-20T15:23:22.181Z</time>
      </trkpt>
      <trkpt lat="48.72269" lon="2.04178">
        <ele>181.3</ele>
        <time>2013-12-20T15:23:25.180Z</time>
      </trkpt>
      <trkpt lat="48.72267" lon="2.04181">
        <ele>181.4</ele>
        <time>2013-12-20T15:23:26.182Z</time>
      </trkpt>
      <trkpt lat="48.7226" lon="2.04189">
        <ele>182.1</ele>
        <time>2013-12-20T15:23:38.048Z</time>
      </trkpt>
      <trkpt lat="48.72259" lon="2.04189">
        <ele>182.2</ele>
        <time>2013-12-20T15:23:38.236Z</time>
      </trkpt>
      <trkpt lat="48.72252" lon="2.04181">
        <ele>182.6</ele>
        <time>2013-12-20T15:23:53.199Z</time>
      </trkpt>
      <trkpt lat="48.72251" lon="2.04181">
        <ele>182.6</ele>
        <time>2013-12-20T15:23:53.266Z</time>
      </trkpt>
      <trkpt lat="48.72246" lon="2.0417">
        <ele>184.1</ele>
        <time>2013-12-20T15:24:04.183Z</time>
      </trkpt>
      <trkpt lat="48.72246" lon="2.04169">
        <ele>184.2</ele>
        <time>2013-12-20T15:24:05.182Z</time>
      </trkpt>
      <trkpt lat="48.72244" lon="2.04156">
        <ele>185</ele>
        <time>2013-12-20T15:24:17.884Z</time>
      </trkpt>
      <trkpt lat="48.72245" lon="2.04154">
        <ele>185</ele>
        <time>2013-12-20T15:24:18.169Z</time>
      </trkpt>
      <trkpt lat="48.72243" lon="2.04141">
        <ele>185.7</ele>
        <time>2013-12-20T15:24:27.946Z</time>
      </trkpt>
      <trkpt lat="48.72243" lon="2.04139">
        <ele>185.8</ele>
        <time>2013-12-20T15:24:28.176Z</time>
      </trkpt>
      <trkpt lat="48.7224" lon="2.04127">
        <ele>186.6</ele>
        <time>2013-12-20T15:24:36.188Z</time>
      </trkpt>
      <trkpt lat="48.7224" lon="2.04126">
        <ele>186.7</ele>
        <time>2013-12-20T15:24:37.221Z</time>
      </trkpt>
      <trkpt lat="48.72234" lon="2.04117">
        <ele>187.1</ele>
        <time>2013-12-20T15:24:45.192Z</time>
      </trkpt>
      <trkpt lat="48.72233" lon="2.04116">
        <ele>187.4</ele>
        <time>2013-12-20T15:24:46.192Z</time>
      </trkpt>
      <trkpt lat="48.72229" lon="2.04104">
        <ele>188.9</ele>
        <time>2013-12-20T15:24:55.193Z</time>
      </trkpt>
      <trkpt lat="48.72228" lon="2.04102">
        <ele>189</ele>
        <time>2013-12-20T15:24:56.190Z</time>
      </trkpt>
      <trkpt lat="48.72227" lon="2.0409">
        <ele>189.9</ele>
        <time>2013-12-20T15:25:08.156Z</time>
      </trkpt>
      <trkpt lat="48.72227" lon="2.04088">
        <ele>190.2</ele>
        <time>2013-12-20T15:25:09.182Z</time>
      </trkpt>
      <trkpt lat="48.72225" lon="2.04075">
        <ele>190.9</ele>
        <time>2013-12-20T15:25:16.183Z</time>
      </trkpt>
      <trkpt lat="48.72225" lon="2.04074">
        <ele>191</ele>
        <time>2013-12-20T15:25:17.182Z</time>
      </trkpt>
      <trkpt lat="48.72223" lon="2.04062">
        <ele>191.8</ele>
        <time>2013-12-20T15:25:26.181Z</time>
      </trkpt>
      <trkpt lat="48.72222" lon="2.0406">
        <ele>191.9</ele>
        <time>2013-12-20T15:25:27.181Z</time>
      </trkpt>
      <trkpt lat="48.72217" lon="2.0405">
        <ele>192.9</ele>
        <time>2013-12-20T15:25:33.049Z</time>
      </trkpt>
      <trkpt lat="48.72216" lon="2.04048">
        <ele>193.1</ele>
        <time>2013-12-20T15:25:33.218Z</time>
      </trkpt>
      <trkpt lat="48.7221" lon="2.04039">
        <ele>193.6</ele>
        <time>2013-12-20T15:25:36.194Z</time>
      </trkpt>
      <trkpt lat="48.72208" lon="2.04037">
        <ele>193.9</ele>
        <time>2013-12-20T15:25:37.194Z</time>
      </trkpt>
      <trkpt lat="48.72203" lon="2.04026">
        <ele>194.5</ele>
        <time>2013-12-20T15:25:45.170Z</time>
      </trkpt>
      <trkpt lat="48.72202" lon="2.04024">
        <ele>194.6</ele>
        <time>2013-12-20T15:25:46.162Z</time>
      </trkpt>
      <trkpt lat="48.72199" lon="2.04014">
        <ele>194.8</ele>
        <time>2013-12-20T15:25:50.147Z</time>
      </trkpt>
      <trkpt lat="48.72198" lon="2.04012">
        <ele>194.8</ele>
        <time>2013-12-20T15:25:51.172Z</time>
      </trkpt>
      <trkpt lat="48.72195" lon="2.04">
        <ele>196</ele>
        <time>2013-12-20T15:25:58.124Z</time>
      </trkpt>
      <trkpt lat="48.72194" lon="2.03999">
        <ele>196.2</ele>
        <time>2013-12-20T15:25:58.175Z</time>
      </trkpt>
      <trkpt lat="48.72185" lon="2.03999">
        <ele>197.4</ele>
        <time>2013-12-20T15:26:13.167Z</time>
      </trkpt>
      <trkpt lat="48.72185" lon="2.03999">
        <ele>197.7</ele>
        <time>2013-12-20T15:26:14.222Z</time>
      </trkpt>
      <trkpt lat="48.72185" lon="2.04">
        <ele>198.1</ele>
        <time>2013-12-20T15:26:15.225Z</time>
      </trkpt>
      <trkpt lat="48.72185" lon="2.03999">
        <ele>198.5</ele>
        <time>2013-12-20T15:26:16.130Z</time>
      </trkpt>
      <trkpt lat="48.72185" lon="2.03999">
        <ele>198.5</ele>
        <time>2013-12-20T15:26:18.165Z</time>
      </trkpt>
      <trkpt lat="48.72185" lon="2.03998">
        <ele>198.5</ele>
        <time>2013-12-20T15:26:19.219Z</time>
      </trkpt>
      <trkpt lat="48.72184" lon="2.03995">
        <ele>198.8</ele>
        <time>2013-12-20T15:26:25.174Z</time>
      </trkpt>
      <trkpt lat="48.72184" lon="2.03995">
        <ele>198.8</ele>
        <time>2013-12-20T15:26:26.133Z</time>
      </trkpt>
      <trkpt lat="48.72185" lon="2.03996">
        <ele>198.9</ele>
        <time>2013-12-20T15:26:29.235Z</time>
      </trkpt>
      <trkpt lat="48.72185" lon="2.03997">
        <ele>198.9</ele>
        <time>2013-12-20T15:26:30.216Z</time>
      </trkpt>
      <trkpt lat="48.7219" lon="2.03989">
        <ele>199.6</ele>
        <time>2013-12-20T15:26:51.180Z</time>
      </trkpt>
      <trkpt lat="48.7219" lon="2.03989">
        <ele>199.6</ele>
        <time>2013-12-20T15:26:52.205Z</time>
      </trkpt>
      <trkpt lat="48.7219" lon="2.03989">
        <ele>199.6</ele>
        <time>2013-12-20T15:26:52.970Z</time>
      </trkpt>
      <trkpt lat="48.7219" lon="2.03989">
        <ele>199.6</ele>
        <time>2013-12-20T15:26:53.202Z</time>
      </trkpt>
      <trkpt lat="48.72194" lon="2.04">
        <ele>200.9</ele>
        <time>2013-12-20T15:27:08.153Z</time>
      </trkpt>
      <trkpt lat="48.72195" lon="2.04002">
        <ele>201</ele>
        <time>2013-12-20T15:27:09.155Z</time>
      </trkpt>
      <trkpt lat="48.72202" lon="2.0401">
        <ele>200.6</ele>
        <time>2013-12-20T15:27:25.209Z</time>
      </trkpt>
      <trkpt lat="48.72202" lon="2.0401">
        <ele>200.6</ele>
        <time>2013-12-20T15:27:26.169Z</time>
      </trkpt>
      <trkpt lat="48.72201" lon="2.0401">
        <ele>200.5</ele>
        <time>2013-12-20T15:27:28.031Z</time>
      </trkpt>
      <trkpt lat="48.722" lon="2.0401">
        <ele>200.5</ele>
        <time>2013-12-20T15:27:28.128Z</time>
      </trkpt>
      <trkpt lat="48.72195" lon="2.04021">
        <ele>198</ele>
        <time>2013-12-20T15:27:43.161Z</time>
      </trkpt>
      <trkpt lat="48.72196" lon="2.04022">
        <ele>197.8</ele>
        <time>2013-12-20T15:27:44.163Z</time>
      </trkpt>
      <trkpt lat="48.722" lon="2.04033">
        <ele>196.4</ele>
        <time>2013-12-20T15:27:50.162Z</time>
      </trkpt>
      <trkpt lat="48.72201" lon="2.04034">
        <ele>196.3</ele>
        <time>2013-12-20T15:27:51.150Z</time>
      </trkpt>
      <trkpt lat="48.72208" lon="2.04043">
        <ele>197</ele>
        <time>2013-12-20T15:28:08.183Z</time>
      </trkpt>
      <trkpt lat="48.72208" lon="2.04043">
        <ele>196.9</ele>
        <time>2013-12-20T15:28:09.183Z</time>
      </trkpt>
      <trkpt lat="48.72215" lon="2.04037">
        <ele>194.9</ele>
        <time>2013-12-20T15:28:19.176Z</time>
      </trkpt>
      <trkpt lat="48.72216" lon="2.04037">
        <ele>194.5</ele>
        <time>2013-12-20T15:28:20.178Z</time>
      </trkpt>
      <trkpt lat="48.72222" lon="2.04047">
        <ele>196.8</ele>
        <time>2013-12-20T15:28:39.174Z</time>
      </trkpt>
      <trkpt lat="48.72221" lon="2.04048">
        <ele>197</ele>
        <time>2013-12-20T15:28:40.174Z</time>
      </trkpt>
      <trkpt lat="48.72215" lon="2.04058">
        <ele>198.4</ele>
        <time>2013-12-20T15:28:51.175Z</time>
      </trkpt>
      <trkpt lat="48.72215" lon="2.04059">
        <ele>198.4</ele>
        <time>2013-12-20T15:28:52.182Z</time>
      </trkpt>
      <trkpt lat="48.7221" lon="2.04069">
        <ele>198.9</ele>
        <time>2013-12-20T15:29:14.172Z</time>
      </trkpt>
      <trkpt lat="48.72209" lon="2.0407">
        <ele>199</ele>
        <time>2013-12-20T15:29:15.173Z</time>
      </trkpt>
      <trkpt lat="48.72202" lon="2.04079">
        <ele>199.6</ele>
        <time>2013-12-20T15:29:22.869Z</time>
      </trkpt>
      <trkpt lat="48.72201" lon="2.04081">
        <ele>199.8</ele>
        <time>2013-12-20T15:29:23.173Z</time>
      </trkpt>
      <trkpt lat="48.72194" lon="2.04089">
        <ele>200.7</ele>
        <time>2013-12-20T15:29:29.170Z</time>
      </trkpt>
      <trkpt lat="48.72193" lon="2.0409">
        <ele>200.8</ele>
        <time>2013-12-20T15:29:30.154Z</time>
      </trkpt>
      <trkpt lat="48.72199" lon="2.0408">
        <ele>202.9</ele>
        <time>2013-12-20T15:29:51.176Z</time>
      </trkpt>
      <trkpt lat="48.722" lon="2.04078">
        <ele>203</ele>
        <time>2013-12-20T15:29:52.183Z</time>
      </trkpt>
      <trkpt lat="48.72201" lon="2.04065">
        <ele>203.4</ele>
        <time>2013-12-20T15:30:06.229Z</time>
      </trkpt>
      <trkpt lat="48.72201" lon="2.04064">
        <ele>203.5</ele>
        <time>2013-12-20T15:30:07.238Z</time>
      </trkpt>
      <trkpt lat="48.72204" lon="2.04052">
        <ele>205.1</ele>
        <time>2013-12-20T15:30:23.162Z</time>
      </trkpt>
      <trkpt lat="48.72208" lon="2.0405">
        <ele>205.2</ele>
        <time>2013-12-20T15:30:24.183Z</time>
      </trkpt>
      <trkpt lat="48.72215" lon="2.04042">
        <ele>205.1</ele>
        <time>2013-12-20T15:30:28.170Z</time>
      </trkpt>
      <trkpt lat="48.72215" lon="2.0404">
        <ele>205.1</ele>
        <time>2013-12-20T15:30:29.173Z</time>
      </trkpt>
      <trkpt lat="48.72215" lon="2.04037">
        <ele>205.2</ele>
        <time>2013-12-20T15:30:35.182Z</time>
      </trkpt>
      <trkpt lat="48.72215" lon="2.04037">
        <ele>205.2</ele>
        <time>2013-12-20T15:30:36.175Z</time>
      </trkpt>
      <trkpt lat="48.72215" lon="2.04038">
        <ele>205.2</ele>
        <time>2013-12-20T15:30:38.165Z</time>
      </trkpt>
      <trkpt lat="48.72216" lon="2.04039">
        <ele>205.2</ele>
        <time>2013-12-20T15:30:39.185Z</time>
      </trkpt>
      <trkpt lat="48.72217" lon="2.04045">
        <ele>205.1</ele>
        <time>2013-12-20T15:30:49.209Z</time>
      </trkpt>
      <trkpt lat="48.72217" lon="2.04044">
        <ele>205</ele>
        <time>2013-12-20T15:30:50.216Z</time>
      </trkpt>
      <trkpt lat="48.72216" lon="2.04044">
        <ele>204.8</ele>
        <time>2013-12-20T15:30:51.126Z</time>
      </trkpt>
      <trkpt lat="48.72211" lon="2.04036">
        <ele>204.4</ele>
        <time>2013-12-20T15:30:55.192Z</time>
      </trkpt>
      <trkpt lat="48.72209" lon="2.04034">
        <ele>204.4</ele>
        <time>2013-12-20T15:30:56.191Z</time>
      </trkpt>
      <trkpt lat="48.72202" lon="2.04025">
        <ele>204.8</ele>
        <time>2013-12-20T15:31:05.176Z</time>
      </trkpt>
      <trkpt lat="48.72201" lon="2.04024">
        <ele>204.9</ele>
        <time>2013-12-20T15:31:06.176Z</time>
      </trkpt>
      <trkpt lat="48.72196" lon="2.04013">
        <ele>205.3</ele>
        <time>2013-12-20T15:31:14.182Z</time>
      </trkpt>
      <trkpt lat="48.72196" lon="2.04011">
        <ele>205.4</ele>
        <time>2013-12-20T15:31:15.187Z</time>
      </trkpt>
      <trkpt lat="48.72193" lon="2.03999">
        <ele>205.9</ele>
        <time>2013-12-20T15:31:20.181Z</time>
      </trkpt>
      <trkpt lat="48.72192" lon="2.03997">
        <ele>206.1</ele>
        <time>2013-12-20T15:31:21.183Z</time>
      </trkpt>
      <trkpt lat="48.72186" lon="2.03991">
        <ele>206.7</ele>
        <time>2013-12-20T15:31:32.970Z</time>
      </trkpt>
      <trkpt lat="48.72186" lon="2.03991">
        <ele>206.7</ele>
        <time>2013-12-20T15:31:33.173Z</time>
      </trkpt>
      <trkpt lat="48.72185" lon="2.03991">
        <ele>206.7</ele>
        <time>2013-12-20T15:31:35.187Z</time>
      </trkpt>
      <trkpt lat="48.72185" lon="2.03991">
        <ele>206.7</ele>
        <time>2013-12-20T15:31:36.164Z</time>
      </trkpt>
      <trkpt lat="48.72185" lon="2.0399">
        <ele>206.8</ele>
        <time>2013-12-20T15:31:39.203Z</time>
      </trkpt>
      <trkpt lat="48.72185" lon="2.0399">
        <ele>206.8</ele>
        <time>2013-12-20T15:31:40.227Z</time>
      </trkpt>
      <trkpt lat="48.72186" lon="2.0399">
        <ele>206.9</ele>
        <time>2013-12-20T15:31:45.123Z</time>
      </trkpt>
      <trkpt lat="48.72186" lon="2.0399">
        <ele>206.9</ele>
        <time>2013-12-20T15:31:46.174Z</time>
      </trkpt>
      <trkpt lat="48.72186" lon="2.0399">
        <ele>206.9</ele>
        <time>2013-12-20T15:31:48.072Z</time>
      </trkpt>
      <trkpt lat="48.72187" lon="2.0399">
        <ele>206.9</ele>
        <time>2013-12-20T15:31:48.141Z</time>
      </trkpt>
      <trkpt lat="48.72186" lon="2.03989">
        <ele>206.9</ele>
        <time>2013-12-20T15:31:51.181Z</time>
      </trkpt>
      <trkpt lat="48.72186" lon="2.03988">
        <ele>206.9</ele>
        <time>2013-12-20T15:31:52.172Z</time>
      </trkpt>
      <trkpt lat="48.72194" lon="2.03988">
        <ele>206.3</ele>
        <time>2013-12-20T15:32:18.204Z</time>
      </trkpt>
      <trkpt lat="48.72194" lon="2.03988">
        <ele>206.3</ele>
        <time>2013-12-20T15:32:19.221Z</time>
      </trkpt>
      <trkpt lat="48.72193" lon="2.03987">
        <ele>205.4</ele>
        <time>2013-12-20T15:32:27.875Z</time>
      </trkpt>
      <trkpt lat="48.72193" lon="2.03987">
        <ele>205.4</ele>
        <time>2013-12-20T15:32:28.144Z</time>
      </trkpt>
      <trkpt lat="48.72188" lon="2.03982">
        <ele>205.1</ele>
        <time>2013-12-20T15:32:44.199Z</time>
      </trkpt>
      <trkpt lat="48.72188" lon="2.03982">
        <ele>205.1</ele>
        <time>2013-12-20T15:32:45.141Z</time>
      </trkpt>
      <trkpt lat="48.72189" lon="2.03983">
        <ele>205.1</ele>
        <time>2013-12-20T15:32:49.169Z</time>
      </trkpt>
      <trkpt lat="48.72188" lon="2.03983">
        <ele>205.1</ele>
        <time>2013-12-20T15:32:50.180Z</time>
      </trkpt>
      <trkpt lat="48.72181" lon="2.03986">
        <ele>204.6</ele>
        <time>2013-12-20T15:33:00.153Z</time>
      </trkpt>
      <trkpt lat="48.7218" lon="2.03986">
        <ele>204.6</ele>
        <time>2013-12-20T15:33:01.173Z</time>
      </trkpt>
      <trkpt lat="48.72171" lon="2.03983">
        <ele>204.5</ele>
        <time>2013-12-20T15:33:13.174Z</time>
      </trkpt>
      <trkpt lat="48.72171" lon="2.03982">
        <ele>204.5</ele>
        <time>2013-12-20T15:33:14.165Z</time>
      </trkpt>
      <trkpt lat="48.72174" lon="2.0398">
        <ele>204.1</ele>
        <time>2013-12-20T15:33:27.903Z</time>
      </trkpt>
      <trkpt lat="48.72174" lon="2.03981">
        <ele>204.1</ele>
        <time>2013-12-20T15:33:28.247Z</time>
      </trkpt>
      <trkpt lat="48.72173" lon="2.0398">
        <ele>204.1</ele>
        <time>2013-12-20T15:33:31.188Z</time>
      </trkpt>
      <trkpt lat="48.72173" lon="2.03979">
        <ele>204</ele>
        <time>2013-12-20T15:33:32.198Z</time>
      </trkpt>
      <trkpt lat="48.72171" lon="2.03978">
        <ele>203.7</ele>
        <time>2013-12-20T15:33:37.222Z</time>
      </trkpt>
      <trkpt lat="48.72171" lon="2.03978">
        <ele>203.6</ele>
        <time>2013-12-20T15:33:38.122Z</time>
      </trkpt>
      <trkpt lat="48.72171" lon="2.03978">
        <ele>203.6</ele>
        <time>2013-12-20T15:33:39.171Z</time>
      </trkpt>
      <trkpt lat="48.72172" lon="2.03977">
        <ele>203.7</ele>
        <time>2013-12-20T15:33:40.173Z</time>
      </trkpt>
      <trkpt lat="48.72172" lon="2.03976">
        <ele>203.7</ele>
        <time>2013-12-20T15:33:43.165Z</time>
      </trkpt>
      <trkpt lat="48.72172" lon="2.03976">
        <ele>203.7</ele>
        <time>2013-12-20T15:33:44.171Z</time>
      </trkpt>
      <trkpt lat="48.72171" lon="2.03976">
        <ele>203.7</ele>
        <time>2013-12-20T15:33:45.167Z</time>
      </trkpt>
      <trkpt lat="48.72162" lon="2.03976">
        <ele>203.3</ele>
        <time>2013-12-20T15:33:55.170Z</time>
      </trkpt>
      <trkpt lat="48.72162" lon="2.03976">
        <ele>203.2</ele>
        <time>2013-12-20T15:33:56.172Z</time>
      </trkpt>
      <trkpt lat="48.72153" lon="2.03974">
        <ele>202.2</ele>
        <time>2013-12-20T15:34:05.181Z</time>
      </trkpt>
      <trkpt lat="48.72151" lon="2.03973">
        <ele>202.1</ele>
        <time>2013-12-20T15:34:06.160Z</time>
      </trkpt>
      <trkpt lat="48.72144" lon="2.03971">
        <ele>201.5</ele>
        <time>2013-12-20T15:34:11.166Z</time>
      </trkpt>
      <trkpt lat="48.72142" lon="2.0397">
        <ele>201.4</ele>
        <time>2013-12-20T15:34:12.169Z</time>
      </trkpt>
      <trkpt lat="48.72134" lon="2.03968">
        <ele>201.2</ele>
        <time>2013-12-20T15:34:19.169Z</time>
      </trkpt>
      <trkpt lat="48.72133" lon="2.03967">
        <ele>201.2</ele>
        <time>2013-12-20T15:34:20.171Z</time>
      </trkpt>
      <trkpt lat="48.72125" lon="2.03964">
        <ele>201.2</ele>
        <time>2013-12-20T15:34:27.951Z</time>
      </trkpt>
      <trkpt lat="48.72124" lon="2.03964">
        <ele>201.2</ele>
        <time>2013-12-20T15:34:28.158Z</time>
      </trkpt>
      <trkpt lat="48.72116" lon="2.03961">
        <ele>201.4</ele>
        <time>2013-12-20T15:34:35.181Z</time>
      </trkpt>
      <trkpt lat="48.72115" lon="2.03961">
        <ele>201.5</ele>
        <time>2013-12-20T15:34:36.169Z</time>
      </trkpt>
      <trkpt lat="48.72106" lon="2.03957">
        <ele>201.9</ele>
        <time>2013-12-20T15:34:43.188Z</time>
      </trkpt>
      <trkpt lat="48.72105" lon="2.03957">
        <ele>201.9</ele>
        <time>2013-12-20T15:34:44.162Z</time>
      </trkpt>
      <trkpt lat="48.72097" lon="2.03952">
        <ele>201.5</ele>
        <time>2013-12-20T15:34:56.159Z</time>
      </trkpt>
      <trkpt lat="48.72095" lon="2.03952">
        <ele>201.5</ele>
        <time>2013-12-20T15:34:57.168Z</time>
      </trkpt>
      <trkpt lat="48.72087" lon="2.03949">
        <ele>201.4</ele>
        <time>2013-12-20T15:35:04.172Z</time>
      </trkpt>
      <trkpt lat="48.72086" lon="2.03949">
        <ele>201.4</ele>
        <time>2013-12-20T15:35:05.158Z</time>
      </trkpt>
      <trkpt lat="48.72077" lon="2.03949">
        <ele>201.6</ele>
        <time>2013-12-20T15:35:14.176Z</time>
      </trkpt>
      <trkpt lat="48.72076" lon="2.03949">
        <ele>201.6</ele>
        <time>2013-12-20T15:35:15.176Z</time>
      </trkpt>
      <trkpt lat="48.72069" lon="2.03945">
        <ele>201.6</ele>
        <time>2013-12-20T15:35:22.868Z</time>
      </trkpt>
      <trkpt lat="48.72068" lon="2.03945">
        <ele>201.6</ele>
        <time>2013-12-20T15:35:23.181Z</time>
      </trkpt>
      <trkpt lat="48.7206" lon="2.03941">
        <ele>202</ele>
        <time>2013-12-20T15:35:33.158Z</time>
      </trkpt>
      <trkpt lat="48.72059" lon="2.0394">
        <ele>202</ele>
        <time>2013-12-20T15:35:34.163Z</time>
      </trkpt>
      <trkpt lat="48.72051" lon="2.03936">
        <ele>202</ele>
        <time>2013-12-20T15:35:41.183Z</time>
      </trkpt>
      <trkpt lat="48.7205" lon="2.03935">
        <ele>201.9</ele>
        <time>2013-12-20T15:35:42.197Z</time>
      </trkpt>
      <trkpt lat="48.72042" lon="2.03931">
        <ele>201.7</ele>
        <time>2013-12-20T15:35:53.171Z</time>
      </trkpt>
      <trkpt lat="48.72041" lon="2.03931">
        <ele>201.7</ele>
        <time>2013-12-20T15:35:54.167Z</time>
      </trkpt>
      <trkpt lat="48.72033" lon="2.03929">
        <ele>201.7</ele>
        <time>2013-12-20T15:36:03.150Z</time>
      </trkpt>
      <trkpt lat="48.72032" lon="2.03929">
        <ele>201.7</ele>
        <time>2013-12-20T15:36:04.168Z</time>
      </trkpt>
      <trkpt lat="48.72024" lon="2.03925">
        <ele>202.2</ele>
        <time>2013-12-20T15:36:15.157Z</time>
      </trkpt>
      <trkpt lat="48.72023" lon="2.03924">
        <ele>202.3</ele>
        <time>2013-12-20T15:36:16.158Z</time>
      </trkpt>
      <trkpt lat="48.72015" lon="2.03921">
        <ele>202.7</ele>
        <time>2013-12-20T15:36:26.169Z</time>
      </trkpt>
      <trkpt lat="48.72014" lon="2.03921">
        <ele>202.7</ele>
        <time>2013-12-20T15:36:27.188Z</time>
      </trkpt>
      <trkpt lat="48.72007" lon="2.03918">
        <ele>202.9</ele>
        <time>2013-12-20T15:36:35.177Z</time>
      </trkpt>
      <trkpt lat="48.72005" lon="2.03917">
        <ele>203</ele>
        <time>2013-12-20T15:36:36.190Z</time>
      </trkpt>
      <trkpt lat="48.71997" lon="2.03912">
        <ele>203.6</ele>
        <time>2013-12-20T15:36:42.908Z</time>
      </trkpt>
      <trkpt lat="48.71996" lon="2.03912">
        <ele>203.7</ele>
        <time>2013-12-20T15:36:43.155Z</time>
      </trkpt>
      <trkpt lat="48.71988" lon="2.03908">
        <ele>203.8</ele>
        <time>2013-12-20T15:36:50.187Z</time>
      </trkpt>
      <trkpt lat="48.71987" lon="2.03907">
        <ele>203.7</ele>
        <time>2013-12-20T15:36:51.218Z</time>
      </trkpt>
      <trkpt lat="48.71979" lon="2.03904">
        <ele>203.8</ele>
        <time>2013-12-20T15:36:58.183Z</time>
      </trkpt>
      <trkpt lat="48.71977" lon="2.03903">
        <ele>203.8</ele>
        <time>2013-12-20T15:36:59.246Z</time>
      </trkpt>
      <trkpt lat="48.71969" lon="2.03902">
        <ele>203.7</ele>
        <time>2013-12-20T15:37:05.186Z</time>
      </trkpt>
      <trkpt lat="48.71968" lon="2.03901">
        <ele>203.7</ele>
        <time>2013-12-20T15:37:06.161Z</time>
      </trkpt>
      <trkpt lat="48.7196" lon="2.03897">
        <ele>203.5</ele>
        <time>2013-12-20T15:37:14.226Z</time>
      </trkpt>
      <trkpt lat="48.71959" lon="2.03896">
        <ele>203.5</ele>
        <time>2013-12-20T15:37:15.263Z</time>
      </trkpt>
      <trkpt lat="48.7195" lon="2.03892">
        <ele>203.5</ele>
        <time>2013-12-20T15:37:22.904Z</time>
      </trkpt>
      <trkpt lat="48.71949" lon="2.03892">
        <ele>203.4</ele>
        <time>2013-12-20T15:37:23.184Z</time>
      </trkpt>
      <trkpt lat="48.71942" lon="2.03887">
        <ele>203.2</ele>
        <time>2013-12-20T15:37:31.238Z</time>
      </trkpt>
      <trkpt lat="48.71941" lon="2.03887">
        <ele>203.1</ele>
        <time>2013-12-20T15:37:32.231Z</time>
      </trkpt>
      <trkpt lat="48.71933" lon="2.03883">
        <ele>202.8</ele>
        <time>2013-12-20T15:37:38.200Z</time>
      </trkpt>
      <trkpt lat="48.71931" lon="2.03882">
        <ele>202.8</ele>
        <time>2013-12-20T15:37:39.232Z</time>
      </trkpt>
      <trkpt lat="48.71923" lon="2.03879">
        <ele>203.3</ele>
        <time>2013-12-20T15:37:45.231Z</time>
      </trkpt>
      <trkpt lat="48.71922" lon="2.03878">
        <ele>203.4</ele>
        <time>2013-12-20T15:37:46.230Z</time>
      </trkpt>
      <trkpt lat="48.71914" lon="2.03875">
        <ele>203.5</ele>
        <time>2013-12-20T15:37:52.223Z</time>
      </trkpt>
      <trkpt lat="48.71913" lon="2.03875">
        <ele>203.5</ele>
        <time>2013-12-20T15:37:53.224Z</time>
      </trkpt>
      <trkpt lat="48.71905" lon="2.03872">
        <ele>203.5</ele>
        <time>2013-12-20T15:37:59.229Z</time>
      </trkpt>
      <trkpt lat="48.71904" lon="2.03871">
        <ele>203.5</ele>
        <time>2013-12-20T15:38:00.183Z</time>
      </trkpt>
      <trkpt lat="48.71895" lon="2.03869">
        <ele>203.3</ele>
        <time>2013-12-20T15:38:07.799Z</time>
      </trkpt>
      <trkpt lat="48.71894" lon="2.03868">
        <ele>203.3</ele>
        <time>2013-12-20T15:38:08.237Z</time>
      </trkpt>
      <trkpt lat="48.71886" lon="2.03865">
        <ele>203.8</ele>
        <time>2013-12-20T15:38:15.223Z</time>
      </trkpt>
      <trkpt lat="48.71884" lon="2.03864">
        <ele>203.9</ele>
        <time>2013-12-20T15:38:16.223Z</time>
      </trkpt>
      <trkpt lat="48.71875" lon="2.03862">
        <ele>204.2</ele>
        <time>2013-12-20T15:38:24.222Z</time>
      </trkpt>
      <trkpt lat="48.71874" lon="2.03862">
        <ele>204.2</ele>
        <time>2013-12-20T15:38:25.221Z</time>
      </trkpt>
      <trkpt lat="48.71866" lon="2.0386">
        <ele>204.5</ele>
        <time>2013-12-20T15:38:32.963Z</time>
      </trkpt>
      <trkpt lat="48.71865" lon="2.0386">
        <ele>204.5</ele>
        <time>2013-12-20T15:38:33.215Z</time>
      </trkpt>
      <trkpt lat="48.71856" lon="2.03856">
        <ele>205.2</ele>
        <time>2013-12-20T15:38:41.226Z</time>
      </trkpt>
      <trkpt lat="48.71855" lon="2.03856">
        <ele>205.2</ele>
        <time>2013-12-20T15:38:42.228Z</time>
      </trkpt>
      <trkpt lat="48.71848" lon="2.03852">
        <ele>205.4</ele>
        <time>2013-12-20T15:38:48.176Z</time>
      </trkpt>
      <trkpt lat="48.71847" lon="2.03852">
        <ele>205.4</ele>
        <time>2013-12-20T15:38:49.227Z</time>
      </trkpt>
      <trkpt lat="48.71839" lon="2.03859">
        <ele>205.6</ele>
        <time>2013-12-20T15:38:58.470Z</time>
      </trkpt>
      <trkpt lat="48.71839" lon="2.03861">
        <ele>205.5</ele>
        <time>2013-12-20T15:38:59.231Z</time>
      </trkpt>
      <trkpt lat="48.71836" lon="2.03874">
        <ele>205.3</ele>
        <time>2013-12-20T15:39:04.252Z</time>
      </trkpt>
      <trkpt lat="48.71836" lon="2.03876">
        <ele>205.3</ele>
        <time>2013-12-20T15:39:05.248Z</time>
      </trkpt>
      <trkpt lat="48.71836" lon="2.03889">
        <ele>205.3</ele>
        <time>2013-12-20T15:39:11.234Z</time>
      </trkpt>
      <trkpt lat="48.71836" lon="2.03891">
        <ele>205.3</ele>
        <time>2013-12-20T15:39:12.236Z</time>
      </trkpt>
      <trkpt lat="48.71835" lon="2.03905">
        <ele>205.6</ele>
        <time>2013-12-20T15:39:19.231Z</time>
      </trkpt>
      <trkpt lat="48.71834" lon="2.03907">
        <ele>205.7</ele>
        <time>2013-12-20T15:39:20.230Z</time>
      </trkpt>
      <trkpt lat="48.71833" lon="2.03919">
        <ele>205.8</ele>
        <time>2013-12-20T15:39:26.228Z</time>
      </trkpt>
      <trkpt lat="48.71833" lon="2.03921">
        <ele>205.8</ele>
        <time>2013-12-20T15:39:27.231Z</time>
      </trkpt>
      <trkpt lat="48.71829" lon="2.03933">
        <ele>206.2</ele>
        <time>2013-12-20T15:39:34.232Z</time>
      </trkpt>
      <trkpt lat="48.71828" lon="2.03934">
        <ele>206.2</ele>
        <time>2013-12-20T15:39:35.232Z</time>
      </trkpt>
      <trkpt lat="48.7182" lon="2.03936">
        <ele>206.8</ele>
        <time>2013-12-20T15:39:43.043Z</time>
      </trkpt>
      <trkpt lat="48.71818" lon="2.03936">
        <ele>206.8</ele>
        <time>2013-12-20T15:39:43.193Z</time>
      </trkpt>
      <trkpt lat="48.71811" lon="2.03936">
        <ele>207.2</ele>
        <time>2013-12-20T15:39:49.230Z</time>
      </trkpt>
      <trkpt lat="48.71809" lon="2.03936">
        <ele>207.2</ele>
        <time>2013-12-20T15:39:50.227Z</time>
      </trkpt>
      <trkpt lat="48.71801" lon="2.03933">
        <ele>207.8</ele>
        <time>2013-12-20T15:39:56.229Z</time>
      </trkpt>
      <trkpt lat="48.71799" lon="2.03933">
        <ele>207.9</ele>
        <time>2013-12-20T15:39:57.229Z</time>
      </trkpt>
      <trkpt lat="48.7179" lon="2.03932">
        <ele>208</ele>
        <time>2013-12-20T15:40:05.245Z</time>
      </trkpt>
      <trkpt lat="48.71789" lon="2.03932">
        <ele>208</ele>
        <time>2013-12-20T15:40:06.243Z</time>
      </trkpt>
      <trkpt lat="48.71781" lon="2.03932">
        <ele>208.1</ele>
        <time>2013-12-20T15:40:13.188Z</time>
      </trkpt>
      <trkpt lat="48.7178" lon="2.03932">
        <ele>208.1</ele>
        <time>2013-12-20T15:40:14.234Z</time>
      </trkpt>
      <trkpt lat="48.71771" lon="2.03932">
        <ele>208.3</ele>
        <time>2013-12-20T15:40:21.233Z</time>
      </trkpt>
      <trkpt lat="48.7177" lon="2.03932">
        <ele>208.3</ele>
        <time>2013-12-20T15:40:22.231Z</time>
      </trkpt>
      <trkpt lat="48.71762" lon="2.0393">
        <ele>208.6</ele>
        <time>2013-12-20T15:40:29.228Z</time>
      </trkpt>
      <trkpt lat="48.71761" lon="2.03929">
        <ele>208.6</ele>
        <time>2013-12-20T15:40:30.230Z</time>
      </trkpt>
      <trkpt lat="48.71752" lon="2.03929">
        <ele>208.6</ele>
        <time>2013-12-20T15:40:37.973Z</time>
      </trkpt>
      <trkpt lat="48.71751" lon="2.03929">
        <ele>208.6</ele>
        <time>2013-12-20T15:40:38.183Z</time>
      </trkpt>
      <trkpt lat="48.71743" lon="2.03928">
        <ele>208.5</ele>
        <time>2013-12-20T15:40:45.230Z</time>
      </trkpt>
      <trkpt lat="48.71742" lon="2.03928">
        <ele>208.5</ele>
        <time>2013-12-20T15:40:46.233Z</time>
      </trkpt>
      <trkpt lat="48.71734" lon="2.03928">
        <ele>208.9</ele>
        <time>2013-12-20T15:40:53.109Z</time>
      </trkpt>
      <trkpt lat="48.71732" lon="2.03928">
        <ele>209</ele>
        <time>2013-12-20T15:40:53.183Z</time>
      </trkpt>
      <trkpt lat="48.71724" lon="2.03928">
        <ele>209.1</ele>
        <time>2013-12-20T15:41:00.228Z</time>
      </trkpt>
      <trkpt lat="48.71722" lon="2.03928">
        <ele>209.1</ele>
        <time>2013-12-20T15:41:01.229Z</time>
      </trkpt>
      <trkpt lat="48.71714" lon="2.03927">
        <ele>209</ele>
        <time>2013-12-20T15:41:08.190Z</time>
      </trkpt>
      <trkpt lat="48.71713" lon="2.03927">
        <ele>209</ele>
        <time>2013-12-20T15:41:09.231Z</time>
      </trkpt>
      <trkpt lat="48.71705" lon="2.03926">
        <ele>208.5</ele>
        <time>2013-12-20T15:41:16.235Z</time>
      </trkpt>
      <trkpt lat="48.71703" lon="2.03925">
        <ele>208.5</ele>
        <time>2013-12-20T15:41:17.236Z</time>
      </trkpt>
      <trkpt lat="48.71694" lon="2.03926">
        <ele>208.3</ele>
        <time>2013-12-20T15:41:25.237Z</time>
      </trkpt>
      <trkpt lat="48.71693" lon="2.03926">
        <ele>208.3</ele>
        <time>2013-12-20T15:41:26.236Z</time>
      </trkpt>
      <trkpt lat="48.71685" lon="2.03927">
        <ele>208.1</ele>
        <time>2013-12-20T15:41:32.980Z</time>
      </trkpt>
      <trkpt lat="48.71684" lon="2.03927">
        <ele>208.1</ele>
        <time>2013-12-20T15:41:33.186Z</time>
      </trkpt>
      <trkpt lat="48.71676" lon="2.03927">
        <ele>208.1</ele>
        <time>2013-12-20T15:41:40.229Z</time>
      </trkpt>
      <trkpt lat="48.71674" lon="2.03927">
        <ele>208.1</ele>
        <time>2013-12-20T15:41:41.228Z</time>
      </trkpt>
      <trkpt lat="48.71666" lon="2.03928">
        <ele>207.9</ele>
        <time>2013-12-20T15:41:46.233Z</time>
      </trkpt>
      <trkpt lat="48.71664" lon="2.03928">
        <ele>207.9</ele>
        <time>2013-12-20T15:41:47.234Z</time>
      </trkpt>
      <trkpt lat="48.71657" lon="2.03929">
        <ele>207.7</ele>
        <time>2013-12-20T15:41:54.233Z</time>
      </trkpt>
      <trkpt lat="48.71655" lon="2.03929">
        <ele>207.6</ele>
        <time>2013-12-20T15:41:55.230Z</time>
      </trkpt>
      <trkpt lat="48.71646" lon="2.03928">
        <ele>207.5</ele>
        <time>2013-12-20T15:42:02.230Z</time>
      </trkpt>
      <trkpt lat="48.71645" lon="2.03928">
        <ele>207.5</ele>
        <time>2013-12-20T15:42:03.233Z</time>
      </trkpt>
      <trkpt lat="48.71637" lon="2.03928">
        <ele>207.4</ele>
        <time>2013-12-20T15:42:08.235Z</time>
      </trkpt>
      <trkpt lat="48.71636" lon="2.03928">
        <ele>207.5</ele>
        <time>2013-12-20T15:42:09.232Z</time>
      </trkpt>
      <trkpt lat="48.71627" lon="2.03928">
        <ele>207.5</ele>
        <time>2013-12-20T15:42:16.233Z</time>
      </trkpt>
      <trkpt lat="48.71626" lon="2.03928">
        <ele>207.5</ele>
        <time>2013-12-20T15:42:17.228Z</time>
      </trkpt>
      <trkpt lat="48.71617" lon="2.03927">
        <ele>207.5</ele>
        <time>2013-12-20T15:42:25.232Z</time>
      </trkpt>
      <trkpt lat="48.71615" lon="2.03927">
        <ele>207.5</ele>
        <time>2013-12-20T15:42:26.233Z</time>
      </trkpt>
      <trkpt lat="48.71607" lon="2.0393">
        <ele>207.5</ele>
        <time>2013-12-20T15:42:34.231Z</time>
      </trkpt>
      <trkpt lat="48.71606" lon="2.0393">
        <ele>207.5</ele>
        <time>2013-12-20T15:42:35.234Z</time>
      </trkpt>
      <trkpt lat="48.71597" lon="2.03931">
        <ele>207.5</ele>
        <time>2013-12-20T15:42:43.328Z</time>
      </trkpt>
      <trkpt lat="48.71597" lon="2.03931">
        <ele>207.5</ele>
        <time>2013-12-20T15:42:44.233Z</time>
      </trkpt>
      <trkpt lat="48.71588" lon="2.03933">
        <ele>207.1</ele>
        <time>2013-12-20T15:42:54.236Z</time>
      </trkpt>
      <trkpt lat="48.71587" lon="2.03934">
        <ele>207.1</ele>
        <time>2013-12-20T15:42:55.244Z</time>
      </trkpt>
      <trkpt lat="48.71579" lon="2.03939">
        <ele>206.7</ele>
        <time>2013-12-20T15:43:02.229Z</time>
      </trkpt>
      <trkpt lat="48.71578" lon="2.0394">
        <ele>206.6</ele>
        <time>2013-12-20T15:43:03.232Z</time>
      </trkpt>
      <trkpt lat="48.7157" lon="2.03944">
        <ele>206.4</ele>
        <time>2013-12-20T15:43:10.238Z</time>
      </trkpt>
      <trkpt lat="48.71569" lon="2.03944">
        <ele>206.3</ele>
        <time>2013-12-20T15:43:11.236Z</time>
      </trkpt>
      <trkpt lat="48.71561" lon="2.03948">
        <ele>206.1</ele>
        <time>2013-12-20T15:43:19.237Z</time>
      </trkpt>
      <trkpt lat="48.7156" lon="2.03949">
        <ele>206.1</ele>
        <time>2013-12-20T15:43:20.233Z</time>
      </trkpt>
      <trkpt lat="48.71552" lon="2.03953">
        <ele>205.9</ele>
        <time>2013-12-20T15:43:28.347Z</time>
      </trkpt>
      <trkpt lat="48.71551" lon="2.03954">
        <ele>205.9</ele>
        <time>2013-12-20T15:43:29.232Z</time>
      </trkpt>
      <trkpt lat="48.71543" lon="2.03958">
        <ele>205.9</ele>
        <time>2013-12-20T15:43:38.328Z</time>
      </trkpt>
      <trkpt lat="48.71542" lon="2.03959">
        <ele>205.9</ele>
        <time>2013-12-20T15:43:39.233Z</time>
      </trkpt>
      <trkpt lat="48.71534" lon="2.03963">
        <ele>205.7</ele>
        <time>2013-12-20T15:43:46.233Z</time>
      </trkpt>
      <trkpt lat="48.71533" lon="2.03964">
        <ele>205.7</ele>
        <time>2013-12-20T15:43:47.231Z</time>
      </trkpt>
      <trkpt lat="48.71525" lon="2.03964">
        <ele>205.4</ele>
        <time>2013-12-20T15:43:57.231Z</time>
      </trkpt>
      <trkpt lat="48.71523" lon="2.03964">
        <ele>205.4</ele>
        <time>2013-12-20T15:43:58.232Z</time>
      </trkpt>
      <trkpt lat="48.71515" lon="2.03967">
        <ele>205.4</ele>
        <time>2013-12-20T15:44:08.208Z</time>
      </trkpt>
      <trkpt lat="48.71514" lon="2.03968">
        <ele>205.3</ele>
        <time>2013-12-20T15:44:09.243Z</time>
      </trkpt>
      <trkpt lat="48.71506" lon="2.03972">
        <ele>205.1</ele>
        <time>2013-12-20T15:44:17.882Z</time>
      </trkpt>
      <trkpt lat="48.71505" lon="2.03973">
        <ele>205.1</ele>
        <time>2013-12-20T15:44:18.180Z</time>
      </trkpt>
      <trkpt lat="48.71497" lon="2.03975">
        <ele>204.9</ele>
        <time>2013-12-20T15:44:25.231Z</time>
      </trkpt>
      <trkpt lat="48.71496" lon="2.03975">
        <ele>204.9</ele>
        <time>2013-12-20T15:44:26.180Z</time>
      </trkpt>
      <trkpt lat="48.71488" lon="2.03978">
        <ele>204.6</ele>
        <time>2013-12-20T15:44:35.234Z</time>
      </trkpt>
      <trkpt lat="48.71487" lon="2.03979">
        <ele>204.6</ele>
        <time>2013-12-20T15:44:36.235Z</time>
      </trkpt>
      <trkpt lat="48.71479" lon="2.03981">
        <ele>204.5</ele>
        <time>2013-12-20T15:44:44.235Z</time>
      </trkpt>
      <trkpt lat="48.71478" lon="2.03982">
        <ele>204.4</ele>
        <time>2013-12-20T15:44:45.231Z</time>
      </trkpt>
      <trkpt lat="48.7147" lon="2.03986">
        <ele>204.2</ele>
        <time>2013-12-20T15:44:53.389Z</time>
      </trkpt>
      <trkpt lat="48.71469" lon="2.03987">
        <ele>204.2</ele>
        <time>2013-12-20T15:44:54.235Z</time>
      </trkpt>
      <trkpt lat="48.71461" lon="2.0399">
        <ele>204.1</ele>
        <time>2013-12-20T15:45:02.232Z</time>
      </trkpt>
      <trkpt lat="48.7146" lon="2.0399">
        <ele>204.1</ele>
        <time>2013-12-20T15:45:03.233Z</time>
      </trkpt>
      <trkpt lat="48.71452" lon="2.03994">
        <ele>203.5</ele>
        <time>2013-12-20T15:45:15.237Z</time>
      </trkpt>
      <trkpt lat="48.71451" lon="2.03994">
        <ele>203.5</ele>
        <time>2013-12-20T15:45:16.240Z</time>
      </trkpt>
      <trkpt lat="48.71443" lon="2.03995">
        <ele>202.7</ele>
        <time>2013-12-20T15:45:25.234Z</time>
      </trkpt>
      <trkpt lat="48.71442" lon="2.03995">
        <ele>202.6</ele>
        <time>2013-12-20T15:45:26.230Z</time>
      </trkpt>
      <trkpt lat="48.71433" lon="2.03997">
        <ele>201.9</ele>
        <time>2013-12-20T15:45:35.235Z</time>
      </trkpt>
      <trkpt lat="48.71432" lon="2.03997">
        <ele>201.8</ele>
        <time>2013-12-20T15:45:36.234Z</time>
      </trkpt>
      <trkpt lat="48.71424" lon="2.04001">
        <ele>201.8</ele>
        <time>2013-12-20T15:45:45.239Z</time>
      </trkpt>
      <trkpt lat="48.71423" lon="2.04001">
        <ele>201.8</ele>
        <time>2013-12-20T15:45:46.238Z</time>
      </trkpt>
      <trkpt lat="48.71414" lon="2.04">
        <ele>201.7</ele>
        <time>2013-12-20T15:45:54.239Z</time>
      </trkpt>
      <trkpt lat="48.71412" lon="2.03999">
        <ele>201.7</ele>
        <time>2013-12-20T15:45:55.242Z</time>
      </trkpt>
      <trkpt lat="48.71404" lon="2.03999">
        <ele>201.5</ele>
        <time>2013-12-20T15:46:00.233Z</time>
      </trkpt>
      <trkpt lat="48.71403" lon="2.03998">
        <ele>201.5</ele>
        <time>2013-12-20T15:46:01.237Z</time>
      </trkpt>
      <trkpt lat="48.71395" lon="2.03997">
        <ele>201.5</ele>
        <time>2013-12-20T15:46:10.243Z</time>
      </trkpt>
      <trkpt lat="48.71394" lon="2.03997">
        <ele>201.6</ele>
        <time>2013-12-20T15:46:11.240Z</time>
      </trkpt>
      <trkpt lat="48.71392" lon="2.03997">
        <ele>201.6</ele>
        <time>2013-12-20T15:46:16.230Z</time>
      </trkpt>
      <trkpt lat="48.71392" lon="2.03997">
        <ele>201.6</ele>
        <time>2013-12-20T15:46:17.233Z</time>
      </trkpt>
      <trkpt lat="48.71393" lon="2.03997">
        <ele>201.6</ele>
        <time>2013-12-20T15:46:18.198Z</time>
      </trkpt>
      <trkpt lat="48.71393" lon="2.03997">
        <ele>201.6</ele>
        <time>2013-12-20T15:46:19.231Z</time>
      </trkpt>
      <trkpt lat="48.71395" lon="2.03996">
        <ele>201.6</ele>
        <time>2013-12-20T15:46:26.249Z</time>
      </trkpt>
      <trkpt lat="48.71395" lon="2.03996">
        <ele>201.5</ele>
        <time>2013-12-20T15:46:27.255Z</time>
      </trkpt>
      <trkpt lat="48.71395" lon="2.03997">
        <ele>201.4</ele>
        <time>2013-12-20T15:46:28.181Z</time>
      </trkpt>
      <trkpt lat="48.71394" lon="2.03998">
        <ele>201.4</ele>
        <time>2013-12-20T15:46:29.234Z</time>
      </trkpt>
      <trkpt lat="48.71388" lon="2.04006">
        <ele>201.6</ele>
        <time>2013-12-20T15:46:35.257Z</time>
      </trkpt>
      <trkpt lat="48.71387" lon="2.04008">
        <ele>201.6</ele>
        <time>2013-12-20T15:46:36.260Z</time>
      </trkpt>
      <trkpt lat="48.71381" lon="2.04016">
        <ele>201.3</ele>
        <time>2013-12-20T15:46:42.989Z</time>
      </trkpt>
      <trkpt lat="48.7138" lon="2.04017">
        <ele>201.2</ele>
        <time>2013-12-20T15:46:43.200Z</time>
      </trkpt>
      <trkpt lat="48.71375" lon="2.04027">
        <ele>201.1</ele>
        <time>2013-12-20T15:46:51.242Z</time>
      </trkpt>
      <trkpt lat="48.71374" lon="2.04028">
        <ele>201.1</ele>
        <time>2013-12-20T15:46:52.243Z</time>
      </trkpt>
      <trkpt lat="48.7137" lon="2.04039">
        <ele>201.1</ele>
        <time>2013-12-20T15:46:59.244Z</time>
      </trkpt>
      <trkpt lat="48.71369" lon="2.0404">
        <ele>201.1</ele>
        <time>2013-12-20T15:47:00.200Z</time>
      </trkpt>
      <trkpt lat="48.71365" lon="2.0405">
        <ele>201</ele>
        <time>2013-12-20T15:47:07.785Z</time>
      </trkpt>
      <trkpt lat="48.71364" lon="2.04051">
        <ele>201</ele>
        <time>2013-12-20T15:47:08.207Z</time>
      </trkpt>
      <trkpt lat="48.71359" lon="2.04061">
        <ele>201</ele>
        <time>2013-12-20T15:47:14.246Z</time>
      </trkpt>
      <trkpt lat="48.71358" lon="2.04063">
        <ele>201</ele>
        <time>2013-12-20T15:47:15.245Z</time>
      </trkpt>
      <trkpt lat="48.71356" lon="2.04075">
        <ele>200.9</ele>
        <time>2013-12-20T15:47:21.244Z</time>
      </trkpt>
      <trkpt lat="48.71356" lon="2.04077">
        <ele>200.9</ele>
        <time>2013-12-20T15:47:22.247Z</time>
      </trkpt>
      <trkpt lat="48.71351" lon="2.04088">
        <ele>201.1</ele>
        <time>2013-12-20T15:47:28.326Z</time>
      </trkpt>
      <trkpt lat="48.71351" lon="2.04089">
        <ele>201.2</ele>
        <time>2013-12-20T15:47:29.230Z</time>
      </trkpt>
      <trkpt lat="48.71345" lon="2.04098">
        <ele>201.5</ele>
        <time>2013-12-20T15:47:37.234Z</time>
      </trkpt>
      <trkpt lat="48.71344" lon="2.041">
        <ele>201.5</ele>
        <time>2013-12-20T15:47:38.427Z</time>
      </trkpt>
      <trkpt lat="48.7134" lon="2.04112">
        <ele>201.4</ele>
        <time>2013-12-20T15:47:46.243Z</time>
      </trkpt>
      <trkpt lat="48.71339" lon="2.04113">
        <ele>201.3</ele>
        <time>2013-12-20T15:47:47.246Z</time>
      </trkpt>
      <trkpt lat="48.71334" lon="2.04124">
        <ele>201.4</ele>
        <time>2013-12-20T15:47:54.209Z</time>
      </trkpt>
      <trkpt lat="48.71333" lon="2.04125">
        <ele>201.4</ele>
        <time>2013-12-20T15:47:55.248Z</time>
      </trkpt>
      <trkpt lat="48.71328" lon="2.04136">
        <ele>201.6</ele>
        <time>2013-12-20T15:48:00.177Z</time>
      </trkpt>
      <trkpt lat="48.71327" lon="2.04138">
        <ele>201.7</ele>
        <time>2013-12-20T15:48:01.247Z</time>
      </trkpt>
      <trkpt lat="48.7132" lon="2.04147">
        <ele>202</ele>
        <time>2013-12-20T15:48:08.249Z</time>
      </trkpt>
      <trkpt lat="48.71319" lon="2.04148">
        <ele>202</ele>
        <time>2013-12-20T15:48:09.365Z</time>
      </trkpt>
      <trkpt lat="48.7131" lon="2.04148">
        <ele>202.2</ele>
        <time>2013-12-20T15:48:16.216Z</time>
      </trkpt>
      <trkpt lat="48.71309" lon="2.04148">
        <ele>202.3</ele>
        <time>2013-12-20T15:48:17.226Z</time>
      </trkpt>
      <trkpt lat="48.71301" lon="2.04153">
        <ele>202.3</ele>
        <time>2013-12-20T15:48:24.236Z</time>
      </trkpt>
      <trkpt lat="48.713" lon="2.04153">
        <ele>202.3</ele>
        <time>2013-12-20T15:48:25.244Z</time>
      </trkpt>
      <trkpt lat="48.71293" lon="2.04157">
        <ele>202.1</ele>
        <time>2013-12-20T15:48:32.989Z</time>
      </trkpt>
      <trkpt lat="48.71291" lon="2.04158">
        <ele>202</ele>
        <time>2013-12-20T15:48:33.235Z</time>
      </trkpt>
      <trkpt lat="48.71283" lon="2.04163">
        <ele>201.3</ele>
        <time>2013-12-20T15:48:40.233Z</time>
      </trkpt>
      <trkpt lat="48.71282" lon="2.04163">
        <ele>201.2</ele>
        <time>2013-12-20T15:48:41.223Z</time>
      </trkpt>
      <trkpt lat="48.71275" lon="2.04168">
        <ele>201</ele>
        <time>2013-12-20T15:48:48.146Z</time>
      </trkpt>
      <trkpt lat="48.71274" lon="2.04169">
        <ele>201</ele>
        <time>2013-12-20T15:48:48.238Z</time>
      </trkpt>
      <trkpt lat="48.71267" lon="2.04175">
        <ele>201.3</ele>
        <time>2013-12-20T15:48:54.246Z</time>
      </trkpt>
      <trkpt lat="48.71265" lon="2.04176">
        <ele>201.4</ele>
        <time>2013-12-20T15:48:55.230Z</time>
      </trkpt>
      <trkpt lat="48.71257" lon="2.04181">
        <ele>201.6</ele>
        <time>2013-12-20T15:49:01.238Z</time>
      </trkpt>
      <trkpt lat="48.71256" lon="2.04182">
        <ele>201.6</ele>
        <time>2013-12-20T15:49:02.251Z</time>
      </trkpt>
      <trkpt lat="48.7125" lon="2.0419">
        <ele>201.6</ele>
        <time>2013-12-20T15:49:09.250Z</time>
      </trkpt>
      <trkpt lat="48.71249" lon="2.04191">
        <ele>201.6</ele>
        <time>2013-12-20T15:49:10.248Z</time>
      </trkpt>
      <trkpt lat="48.71242" lon="2.04198">
        <ele>201.5</ele>
        <time>2013-12-20T15:49:16.245Z</time>
      </trkpt>
      <trkpt lat="48.71241" lon="2.04199">
        <ele>201.5</ele>
        <time>2013-12-20T15:49:17.231Z</time>
      </trkpt>
      <trkpt lat="48.71236" lon="2.04209">
        <ele>202</ele>
        <time>2013-12-20T15:49:24.194Z</time>
      </trkpt>
      <trkpt lat="48.71235" lon="2.04211">
        <ele>202.2</ele>
        <time>2013-12-20T15:49:25.237Z</time>
      </trkpt>
      <trkpt lat="48.71229" lon="2.0422">
        <ele>203.1</ele>
        <time>2013-12-20T15:49:30.230Z</time>
      </trkpt>
      <trkpt lat="48.71228" lon="2.04221">
        <ele>203.2</ele>
        <time>2013-12-20T15:49:31.234Z</time>
      </trkpt>
      <trkpt lat="48.71223" lon="2.04231">
        <ele>203.3</ele>
        <time>2013-12-20T15:49:37.230Z</time>
      </trkpt>
      <trkpt lat="48.71222" lon="2.04232">
        <ele>203.3</ele>
        <time>2013-12-20T15:49:38.228Z</time>
      </trkpt>
      <trkpt lat="48.71218" lon="2.04242">
        <ele>203.3</ele>
        <time>2013-12-20T15:49:44.185Z</time>
      </trkpt>
      <trkpt lat="48.71217" lon="2.04244">
        <ele>203.4</ele>
        <time>2013-12-20T15:49:45.228Z</time>
      </trkpt>
      <trkpt lat="48.71213" lon="2.04255">
        <ele>203.8</ele>
        <time>2013-12-20T15:49:50.226Z</time>
      </trkpt>
      <trkpt lat="48.71213" lon="2.04257">
        <ele>203.8</ele>
        <time>2013-12-20T15:49:51.235Z</time>
      </trkpt>
      <trkpt lat="48.71209" lon="2.04269">
        <ele>204</ele>
        <time>2013-12-20T15:49:58.586Z</time>
      </trkpt>
      <trkpt lat="48.71209" lon="2.0427">
        <ele>204.1</ele>
        <time>2013-12-20T15:49:59.239Z</time>
      </trkpt>
      <trkpt lat="48.71204" lon="2.04279">
        <ele>204</ele>
        <time>2013-12-20T15:50:07.796Z</time>
      </trkpt>
      <trkpt lat="48.71203" lon="2.0428">
        <ele>203.9</ele>
        <time>2013-12-20T15:50:08.236Z</time>
      </trkpt>
      <trkpt lat="48.712" lon="2.04293">
        <ele>203.1</ele>
        <time>2013-12-20T15:50:15.238Z</time>
      </trkpt>
      <trkpt lat="48.712" lon="2.04295">
        <ele>203</ele>
        <time>2013-12-20T15:50:16.239Z</time>
      </trkpt>
      <trkpt lat="48.71196" lon="2.04306">
        <ele>202.2</ele>
        <time>2013-12-20T15:50:23.222Z</time>
      </trkpt>
      <trkpt lat="48.71196" lon="2.04307">
        <ele>202.1</ele>
        <time>2013-12-20T15:50:24.238Z</time>
      </trkpt>
      <trkpt lat="48.71192" lon="2.04318">
        <ele>201.7</ele>
        <time>2013-12-20T15:50:31.232Z</time>
      </trkpt>
      <trkpt lat="48.71191" lon="2.0432">
        <ele>201.6</ele>
        <time>2013-12-20T15:50:32.232Z</time>
      </trkpt>
      <trkpt lat="48.71188" lon="2.04333">
        <ele>200.7</ele>
        <time>2013-12-20T15:50:39.222Z</time>
      </trkpt>
      <trkpt lat="48.71187" lon="2.04334">
        <ele>200.6</ele>
        <time>2013-12-20T15:50:40.235Z</time>
      </trkpt>
      <trkpt lat="48.7118" lon="2.04341">
        <ele>200.3</ele>
        <time>2013-12-20T15:50:46.239Z</time>
      </trkpt>
      <trkpt lat="48.71179" lon="2.04342">
        <ele>200.2</ele>
        <time>2013-12-20T15:50:47.242Z</time>
      </trkpt>
      <trkpt lat="48.7117" lon="2.04344">
        <ele>200</ele>
        <time>2013-12-20T15:50:54.238Z</time>
      </trkpt>
      <trkpt lat="48.71169" lon="2.04342">
        <ele>199.9</ele>
        <time>2013-12-20T15:50:55.237Z</time>
      </trkpt>
      <trkpt lat="48.71166" lon="2.04332">
        <ele>199.6</ele>
        <time>2013-12-20T15:51:00.238Z</time>
      </trkpt>
      <trkpt lat="48.71165" lon="2.0433">
        <ele>199.6</ele>
        <time>2013-12-20T15:51:01.238Z</time>
      </trkpt>
      <trkpt lat="48.71162" lon="2.04318">
        <ele>199.3</ele>
        <time>2013-12-20T15:51:07.800Z</time>
      </trkpt>
      <trkpt lat="48.71161" lon="2.04316">
        <ele>199.2</ele>
        <time>2013-12-20T15:51:08.189Z</time>
      </trkpt>
      <trkpt lat="48.71158" lon="2.04304">
        <ele>198.5</ele>
        <time>2013-12-20T15:51:15.261Z</time>
      </trkpt>
      <trkpt lat="48.71158" lon="2.04302">
        <ele>198.4</ele>
        <time>2013-12-20T15:51:16.238Z</time>
      </trkpt>
      <trkpt lat="48.71156" lon="2.04288">
        <ele>197.9</ele>
        <time>2013-12-20T15:51:22.875Z</time>
      </trkpt>
      <trkpt lat="48.71156" lon="2.04286">
        <ele>197.8</ele>
        <time>2013-12-20T15:51:23.189Z</time>
      </trkpt>
      <trkpt lat="48.71152" lon="2.04275">
        <ele>197.4</ele>
        <time>2013-12-20T15:51:30.191Z</time>
      </trkpt>
      <trkpt lat="48.71152" lon="2.04274">
        <ele>197.3</ele>
        <time>2013-12-20T15:51:31.236Z</time>
      </trkpt>
      <trkpt lat="48.71151" lon="2.04262">
        <ele>196.6</ele>
        <time>2013-12-20T15:51:38.193Z</time>
      </trkpt>
      <trkpt lat="48.71151" lon="2.0426">
        <ele>196.6</ele>
        <time>2013-12-20T15:51:39.172Z</time>
      </trkpt>
      <trkpt lat="48.7115" lon="2.04247">
        <ele>196.6</ele>
        <time>2013-12-20T15:51:47.970Z</time>
      </trkpt>
      <trkpt lat="48.7115" lon="2.04246">
        <ele>196.5</ele>
        <time>2013-12-20T15:51:48.217Z</time>
      </trkpt>
      <trkpt lat="48.71146" lon="2.04234">
        <ele>195.7</ele>
        <time>2013-12-20T15:52:00.192Z</time>
      </trkpt>
      <trkpt lat="48.71146" lon="2.04234">
        <ele>195.7</ele>
        <time>2013-12-20T15:52:01.209Z</time>
      </trkpt>
      <trkpt lat="48.71145" lon="2.04235">
        <ele>195.7</ele>
        <time>2013-12-20T15:52:04.216Z</time>
      </trkpt>
      <trkpt lat="48.71145" lon="2.04235">
        <ele>195.7</ele>
        <time>2013-12-20T15:52:05.214Z</time>
      </trkpt>
      <trkpt lat="48.71143" lon="2.04234">
        <ele>196</ele>
        <time>2013-12-20T15:52:08.129Z</time>
      </trkpt>
    </trkseg>
  </trk>
</gpx>